# Wetter Temperatur Luftdruck Luftfeuchtigkeit Sichtweite Windgeschwindigkeit Windrichtung Zeit
1 Clouds 26 1011 83 10000 2.6 290 00:52 05.04.2020
2 Clear 28 1012 63 0 1.35 160 00:22 05.04.2020
3 Clear 25 1011 78 0 1.73 82 23:58 04.04.2020
4 Clear 25 1011 78 0 1.73 82 23:58 04.04.2020
5 Clear 25 1011 78 0 1.73 82 23:38 04.04.2020
6 Clear 25 1011 78 0 1.73 82 23:20 04.04.2020
7 Clear 25 1011 78 0 1.73 82 22:56 04.04.2020
8 Clear 25 1011 78 0 1.73 82 22:38 04.04.2020
9 Clouds 23 1010 100 10000 1.5 0 22:19 04.04.2020
10 Clouds 23 1010 100 10000 1.5 0 22:19 04.04.2020
11 Clouds 23 1010 100 10000 1.5 0 21:55 04.04.2020
12 Clouds 23 1010 100 10000 1.5 0 21:37 04.04.2020
13 Clouds 23 1010 100 10000 1.5 0 21:18 04.04.2020
14 Clouds 23 1010 100 10000 1.5 0 20:43 04.04.2020
15 Clouds 25 1010 79 0 2.28 116 20:23 04.04.2020
16 Clouds 25 1010 79 0 2.28 116 19:59 04.04.2020
17 Clouds 25 1010 79 0 2.28 116 19:38 04.04.2020
18 Clouds 23 1010 100 10000 1.5 0 19:20 04.04.2020
19 Clouds 25 1010 79 0 2.28 116 18:58 04.04.2020
20 Clouds 25 1010 79 0 2.28 116 18:38 04.04.2020
21 Clouds 24 1010 100 10000 1.5 0 18:19 04.04.2020
22 Clouds 24 1010 100 10000 1.5 0 18:19 04.04.2020
23 Clouds 24 1010 100 10000 1.5 0 17:56 04.04.2020
24 Clouds 24 1010 100 10000 1.5 0 17:38 04.04.2020
25 Clouds 24 1011 100 10000 1.5 0 17:18 04.04.2020
26 Clouds 24 1011 100 10000 1.5 0 16:42 04.04.2020
27 Clouds 25 1011 94 10000 1.5 0 16:23 04.04.2020
28 Clouds 25 1011 94 10000 1.5 0 15:56 04.04.2020
29 Clouds 25 1011 94 10000 1.5 0 15:38 04.04.2020
30 Clouds 25 1011 94 10000 1.5 0 15:19 04.04.2020
31 Clouds 25 1011 94 10000 1.5 0 14:43 04.04.2020
32 Clouds 25 1011 100 10000 1.5 0 14:23 04.04.2020
33 Clouds 25 1011 100 10000 1.5 0 13:56 04.04.2020
34 Clouds 25 1011 100 10000 1.5 0 13:38 04.04.2020
35 Clouds 26 1011 94 10000 1.5 0 13:20 04.04.2020
36 Clouds 26 1011 94 10000 1.5 0 12:45 04.04.2020
37 Clouds 26 1010 94 10000 3.6 160 12:27 04.04.2020
38 Clouds 26 1010 94 10000 3.6 160 11:59 04.04.2020
39 Clouds 26 1010 94 10000 3.6 160 11:39 04.04.2020
40 Clouds 28 1009 83 10000 3.6 150 11:21 04.04.2020
41 Clouds 28 1009 83 10000 3.6 150 10:56 04.04.2020
42 Clouds 28 1009 83 10000 3.6 150 10:38 04.04.2020
43 Clouds 28 1009 83 10000 3.6 150 10:19 04.04.2020
44 Clouds 30 1008 74 10000 3.6 190 09:55 04.04.2020
45 Clouds 30 1008 74 10000 3.6 190 09:37 04.04.2020
46 Clouds 30 1008 74 10000 3.6 190 09:18 04.04.2020
47 Rain 29 1008 66 0 2.44 234 08:42 04.04.2020
48 Clouds 31 1007 70 10000 4.6 230 08:21 04.04.2020
49 Clouds 31 1007 70 10000 4.6 230 07:47 04.04.2020
50 Clouds 31 1007 70 10000 4.6 230 07:27 04.04.2020
51 Clouds 31 1008 70 10000 4.6 240 06:56 04.04.2020
52 Clouds 30 1008 79 10000 3.1 300 06:20 04.04.2020
53 Clouds 30 1008 79 10000 3.1 300 05:43 04.04.2020
54 Clouds 30 1008 79 10000 3.1 300 05:43 04.04.2020
55 Clouds 31 1010 70 10000 5.1 320 05:24 04.04.2020
56 Clouds 31 1010 70 10000 5.1 320 04:31 04.04.2020
57 Clouds 30 1011 74 10000 5.1 330 03:51 04.04.2020
58 Clouds 30 1011 74 10000 5.1 330 02:52 04.04.2020
59 Clouds 30 1011 74 10000 5.1 330 02:33 04.04.2020
60 Clouds 28 1011 83 10000 4.1 330 01:55 04.04.2020
61 Clouds 27 1011 88 10000 2.6 330 01:25 04.04.2020
62 Clouds 27 1011 88 10000 2.6 330 00:49 04.04.2020
63 Clouds 24 1011 100 10000 2.6 330 00:30 04.04.2020
64 Clouds 24 1011 100 10000 2.6 330 23:40 03.04.2020
65 Clouds 24 1010 100 10000 2.1 350 23:21 03.04.2020
66 Clouds 24 1010 100 10000 2.1 350 22:58 03.04.2020
67 Clouds 24 1010 100 10000 2.1 350 22:39 03.04.2020
68 Clouds 25 1011 84 0 1.88 33 22:18 03.04.2020
69 Clouds 25 1011 84 0 1.88 33 22:18 03.04.2020
70 Clouds 25 1011 84 0 1.88 33 21:44 03.04.2020
71 Clouds 25 1011 80 0 1.35 49 21:25 03.04.2020
72 Clouds 25 1009 79 0 0.93 135 20:57 03.04.2020
73 Clouds 25 1009 79 0 0.93 135 20:37 03.04.2020
74 Clouds 25 1009 79 0 0.93 135 20:19 03.04.2020
75 Clouds 25 1009 79 0 0.93 135 19:57 03.04.2020
76 Clouds 25 1009 79 0 0.93 135 19:38 03.04.2020
77 Clouds 25 1009 79 0 0.93 135 19:20 03.04.2020
78 Clouds 25 1009 79 0 0.93 135 18:58 03.04.2020
79 Clouds 25 1009 79 0 0.93 135 18:40 03.04.2020
80 Clouds 25 1009 79 0 0.93 135 18:22 03.04.2020
81 Clouds 26 1010 78 0 1.17 115 17:54 03.04.2020
82 Clouds 26 1010 78 0 1.17 115 17:36 03.04.2020
83 Clouds 24 1010 100 10000 3.1 350 17:18 03.04.2020
84 Clouds 24 1010 100 10000 3.1 350 16:42 03.04.2020
85 Clouds 24 1010 100 10000 3.1 350 16:21 03.04.2020
86 Clouds 26 1010 78 0 1.17 115 15:58 03.04.2020
87 Clouds 26 1010 78 0 1.17 115 15:39 03.04.2020
88 Rain 25 1011 100 0 3.1 60 15:20 03.04.2020
89 Rain 25 1011 100 0 3.1 60 14:55 03.04.2020
90 Rain 25 1011 100 0 3.1 60 14:55 03.04.2020
91 Clouds 26 1012 79 0 1.55 133 14:37 03.04.2020
92 Clouds 26 1010 94 10000 5.1 340 14:19 03.04.2020
93 Clouds 26 1010 94 10000 5.1 340 13:42 03.04.2020
94 Clouds 26 1010 94 10000 5.1 340 13:24 03.04.2020
95 Clouds 26 1010 94 10000 3.6 160 12:44 03.04.2020
96 Clouds 27 1009 88 10000 3.6 160 12:20 03.04.2020
97 Clouds 27 1009 88 10000 3.6 160 11:57 03.04.2020
98 Clouds 27 1009 88 10000 3.6 160 11:39 03.04.2020
99 Clouds 27 1009 88 10000 3.6 160 11:20 03.04.2020
100 Clouds 28 1008 83 10000 2.1 190 10:59 03.04.2020
101 Clouds 28 1008 83 10000 2.1 190 10:38 03.04.2020
102 Clouds 28 1008 83 10000 2.1 190 10:20 03.04.2020
103 Clouds 29 1008 79 10000 4.1 190 09:59 03.04.2020
104 Clouds 29 1008 79 10000 4.1 190 09:40 03.04.2020
105 Clouds 29 1008 79 10000 4.1 190 09:40 03.04.2020
106 Clouds 29 1008 79 10000 4.1 190 09:21 03.04.2020
107 Clouds 29 1007 79 10000 3.6 200 08:55 03.04.2020
108 Clouds 29 1007 79 10000 3.6 200 08:37 03.04.2020
109 Clouds 29 1007 79 10000 3.6 200 08:37 03.04.2020
110 Clouds 29 1007 79 10000 3.6 200 08:18 03.04.2020
111 Clouds 29 1007 79 10000 5.1 200 07:46 03.04.2020
112 Clouds 29 1007 79 10000 5.1 200 07:27 03.04.2020
113 Clouds 30 1007 79 10000 4.1 180 06:40 03.04.2020
114 Clouds 30 1007 79 10000 4.1 180 06:21 03.04.2020
115 Clouds 30 1008 74 10000 2.6 220 05:34 03.04.2020
116 Clouds 27 1010 94 10000 2.6 170 03:40 03.04.2020
117 Rain 27 1011 76 0 1.4 352 02:55 03.04.2020
118 Rain 27 1011 76 0 0.78 310 01:53 03.04.2020
119 Rain 27 1011 76 0 0.78 310 01:18 03.04.2020
120 Rain 27 1011 76 0 0.78 310 00:34 03.04.2020
121 Clouds 25 1010 81 0 1.12 58 23:57 02.04.2020
122 Clouds 25 1010 81 0 1.12 58 23:39 02.04.2020
123 Clouds 25 1010 81 0 1.12 58 23:19 02.04.2020
124 Clouds 25 1010 81 0 1.12 58 23:19 02.04.2020
125 Clouds 25 1010 81 0 1.12 58 22:43 02.04.2020
126 Clouds 25 1010 81 0 1.12 58 22:25 02.04.2020
127 Clouds 25 1010 81 0 1.12 58 21:59 02.04.2020
128 Clouds 25 1010 81 0 1.12 58 21:38 02.04.2020
129 Clouds 23 1008 100 10000 2.6 300 21:19 02.04.2020
130 Clouds 23 1008 100 10000 2.6 300 20:55 02.04.2020
131 Clouds 23 1008 100 10000 2.6 300 20:37 02.04.2020
132 Clouds 23 1008 100 10000 2.1 0 20:18 02.04.2020
133 Clouds 23 1008 100 10000 2.1 0 19:42 02.04.2020
134 Clouds 24 1008 100 10000 2.6 330 19:20 02.04.2020
135 Clouds 24 1008 100 10000 2.6 330 19:20 02.04.2020
136 Clouds 24 1008 100 10000 2.6 330 18:56 02.04.2020
137 Clouds 24 1008 100 10000 2.6 330 18:38 02.04.2020
138 Clouds 24 1009 100 10000 1.5 0 18:19 02.04.2020
139 Clouds 24 1009 100 10000 1.5 0 17:44 02.04.2020
140 Clouds 24 1010 100 10000 2.1 300 17:26 02.04.2020
141 Clouds 24 1010 100 10000 2.1 300 16:59 02.04.2020
142 Clouds 24 1010 100 10000 2.1 300 16:40 02.04.2020
143 Clouds 24 1010 100 10000 1 0 16:22 02.04.2020
144 Clouds 24 1010 100 10000 1 0 15:57 02.04.2020
145 Clouds 24 1010 100 10000 1 0 15:39 02.04.2020
146 Clouds 24 1010 100 10000 1 0 15:19 02.04.2020
147 Clouds 24 1010 100 10000 1 0 14:57 02.04.2020
148 Clouds 24 1010 100 10000 1 0 14:38 02.04.2020
149 Clouds 24 1010 100 10000 1 0 14:18 02.04.2020
150 Clouds 24 1010 100 10000 1 0 13:55 02.04.2020
151 Clouds 24 1010 100 10000 1 0 13:37 02.04.2020
152 Clouds 24 1009 100 10000 1 0 13:18 02.04.2020
153 Clouds 24 1009 100 10000 1 0 12:45 02.04.2020
154 Clouds 24 1009 100 10000 1 0 12:45 02.04.2020
155 Rain 24 1009 100 10000 2.1 0 12:20 02.04.2020
156 Rain 24 1009 100 10000 2.1 0 11:58 02.04.2020
157 Rain 24 1009 100 10000 2.1 0 11:58 02.04.2020
158 Rain 24 1009 100 10000 2.1 0 11:39 02.04.2020
159 Rain 25 1009 82 0 2.69 19 11:20 02.04.2020
160 Rain 25 1009 82 0 2.69 19 11:20 02.04.2020
161 Rain 25 1009 82 0 2.69 19 10:57 02.04.2020
162 Rain 25 1009 82 0 2.69 19 10:38 02.04.2020
163 Rain 25 1009 82 0 2.69 19 10:20 02.04.2020
164 Rain 25 1009 82 0 2.69 19 09:58 02.04.2020
165 Rain 25 1009 82 0 2.69 19 09:58 02.04.2020
166 Rain 25 1009 82 0 2.69 19 09:58 02.04.2020
167 Rain 25 1009 82 0 2.69 19 09:40 02.04.2020
168 Rain 25 1008 84 0 2.18 26 09:20 02.04.2020
169 Rain 25 1007 85 0 1.54 23 08:47 02.04.2020
170 Rain 25 1007 85 0 1.54 23 08:28 02.04.2020
171 Rain 25 1007 85 0 1.54 23 07:54 02.04.2020
172 Rain 25 1007 85 0 1.54 23 07:36 02.04.2020
173 Rain 28 1007 88 10000 1.5 170 07:18 02.04.2020
174 Rain 28 1008 94 10000 2.1 90 06:23 02.04.2020
175 Rain 28 1008 94 10000 2.1 90 05:46 02.04.2020
176 Rain 28 1008 94 10000 2.1 90 05:46 02.04.2020
177 Clouds 27 1009 94 10000 2.6 0 04:50 02.04.2020
178 Clouds 27 1010 94 10000 1 0 02:19 02.04.2020
179 Clouds 26 1010 94 10000 1 0 00:58 02.04.2020
180 Clouds 26 1010 94 10000 1 0 00:36 02.04.2020
181 Clouds 25 1009 100 10000 2.1 170 00:18 02.04.2020
182 Clouds 25 1009 100 10000 2.1 170 23:38 01.04.2020
183 Clouds 24 1008 100 10000 1 0 23:18 01.04.2020
184 Clouds 24 1008 100 10000 1 0 22:41 01.04.2020
185 Clouds 24 1007 100 10000 2.6 340 22:22 01.04.2020
186 Clouds 24 1007 100 10000 2.6 340 21:58 01.04.2020
187 Clouds 24 1007 100 10000 2.6 340 21:58 01.04.2020
188 Clouds 24 1007 100 10000 2.6 340 21:39 01.04.2020
189 Clouds 25 1008 94 10000 5.1 330 21:19 01.04.2020
190 Clouds 25 1008 94 10000 5.1 330 21:19 01.04.2020
191 Clouds 25 1008 94 10000 5.1 330 20:55 01.04.2020
192 Clouds 25 1008 94 10000 5.1 330 20:37 01.04.2020
193 Rain 25 1008 100 10000 2.6 350 20:18 01.04.2020
194 Rain 25 1008 100 10000 2.6 350 19:43 01.04.2020
195 Rain 25 1008 100 10000 3.1 330 19:22 01.04.2020
196 Rain 25 1008 100 10000 3.1 330 18:59 01.04.2020
197 Rain 25 1008 100 10000 3.1 330 18:59 01.04.2020
198 Rain 25 1008 100 10000 3.1 330 18:59 01.04.2020
199 Rain 25 1008 100 10000 3.1 330 18:59 01.04.2020
200 Rain 25 1008 100 10000 3.1 330 18:40 01.04.2020
201 Rain 25 1008 100 10000 2.1 0 18:21 01.04.2020
202 Rain 25 1008 100 10000 2.1 0 17:56 01.04.2020
203 Rain 25 1008 100 10000 2.1 0 17:56 01.04.2020
204 Rain 25 1008 100 10000 2.1 0 17:56 01.04.2020
205 Rain 25 1008 100 10000 2.1 0 17:36 01.04.2020
206 Rain 25 1008 82 0 3.41 111 17:18 01.04.2020
207 Rain 25 1008 82 0 3.41 111 16:43 01.04.2020
208 Rain 25 1008 82 0 3.41 111 16:43 01.04.2020
209 Rain 25 1008 82 0 3.41 111 16:25 01.04.2020
210 Rain 25 1008 82 0 3.41 111 15:59 01.04.2020
211 Rain 25 1008 82 0 3.41 111 15:41 01.04.2020
212 Rain 25 1008 82 0 3.41 111 15:22 01.04.2020
213 Rain 25 1010 84 0 3.07 129 14:58 01.04.2020
214 Rain 25 1010 84 0 3.07 129 14:39 01.04.2020
215 Rain 25 1010 84 0 3.02 104 14:20 01.04.2020
216 Rain 25 1010 84 0 3.02 104 13:58 01.04.2020
217 Rain 25 1010 84 0 3.02 104 13:38 01.04.2020
218 Rain 25 1010 84 0 3.02 104 13:19 01.04.2020
219 Rain 25 1010 84 0 3.02 104 12:56 01.04.2020
220 Rain 25 1010 84 0 3.02 104 12:36 01.04.2020
221 Rain 25 1008 80 0 2.5 22 12:18 01.04.2020
222 Rain 25 1008 80 0 2.5 22 11:44 01.04.2020
223 Rain 27 1008 83 10000 2.5 22 11:24 01.04.2020
224 Rain 27 1008 83 10000 2.5 22 10:59 01.04.2020
225 Rain 27 1008 83 10000 2.5 22 10:38 01.04.2020
226 Rain 27 1008 83 10000 3.6 210 10:19 01.04.2020
227 Rain 27 1008 83 10000 3.6 210 09:57 01.04.2020
228 Rain 27 1008 83 10000 3.6 210 09:39 01.04.2020
229 Clouds 29 1007 79 10000 3.6 210 09:18 01.04.2020
230 Clouds 29 1007 79 10000 3.6 210 08:41 01.04.2020
231 Clouds 30 1006 74 10000 5.1 220 08:18 01.04.2020
232 Clouds 30 1006 74 10000 5.1 220 07:44 01.04.2020
233 Clouds 31 1007 70 10000 3.6 240 07:21 01.04.2020
234 Clouds 31 1007 70 10000 3.6 240 06:48 01.04.2020
235 Clouds 31 1007 70 10000 1.5 0 06:26 01.04.2020
236 Clouds 31 1007 70 10000 1.5 0 05:56 01.04.2020
237 Clouds 31 1008 70 10000 3.1 200 04:32 01.04.2020
238 Rain 26 1007 83 0 4.44 335 03:30 01.04.2020
239 Clouds 30 1010 74 10000 5.1 140 02:49 01.04.2020
240 Clouds 29 1009 83 10000 5.1 170 01:57 01.04.2020
241 Clouds 29 1009 83 10000 5.1 170 01:38 01.04.2020
242 Clouds 27 1009 88 10000 3.1 150 01:18 01.04.2020
243 Clouds 27 1009 88 10000 3.1 150 00:45 01.04.2020
244 Clouds 25 1009 100 10000 2.1 150 00:20 01.04.2020
245 Clouds 25 1009 100 10000 2.1 150 23:42 31.03.2020
246 Clouds 25 1008 100 10000 2.6 140 23:23 31.03.2020
247 Clouds 25 1008 100 10000 2.6 140 22:58 31.03.2020
248 Clouds 25 1008 100 10000 2.6 140 22:37 31.03.2020
249 Clouds 25 1007 94 10000 1 40 22:19 31.03.2020
250 Clouds 25 1007 94 10000 1 40 21:56 31.03.2020
251 Clouds 25 1007 94 10000 1 40 21:37 31.03.2020
252 Clouds 25 1007 100 10000 4.1 360 21:19 31.03.2020
253 Clouds 25 1007 100 10000 4.1 360 20:55 31.03.2020
254 Clouds 25 1007 100 10000 4.1 360 20:36 31.03.2020
255 Clouds 25 1007 100 10000 4.1 340 20:18 31.03.2020
256 Clouds 25 1007 100 10000 4.1 340 19:41 31.03.2020
257 Clouds 25 1007 100 10000 5.1 340 19:22 31.03.2020
258 Clouds 25 1007 100 10000 5.1 340 18:56 31.03.2020
259 Clouds 25 1007 100 10000 5.1 340 18:37 31.03.2020
260 Clouds 26 1008 94 10000 6.2 310 18:18 31.03.2020
261 Clouds 26 1008 94 10000 6.2 310 17:54 31.03.2020
262 Clouds 26 1008 94 10000 6.2 310 17:36 31.03.2020
263 Clouds 25 1009 100 10000 1 10 17:18 31.03.2020
264 Clouds 25 1009 100 10000 1 10 16:39 31.03.2020
265 Clear 26 1009 94 10000 0.5 0 16:19 31.03.2020
266 Clear 26 1009 94 10000 0.5 0 15:57 31.03.2020
267 Clear 26 1009 94 10000 0.5 0 15:57 31.03.2020
268 Clear 26 1009 94 10000 0.5 0 15:39 31.03.2020
269 Clear 26 1009 94 10000 2.6 50 15:20 31.03.2020
270 -273 0 0 0 0 0 15:20 31.03.2020
271 Clear 26 1009 94 10000 2.6 50 14:57 31.03.2020
272 Clear 26 1009 94 10000 2.6 50 14:38 31.03.2020
273 Clouds 27 1008 88 0 2.1 30 14:20 31.03.2020
274 Clouds 27 1008 88 0 2.1 30 13:42 31.03.2020
275 Clouds 27 1008 88 10000 2.1 30 13:19 31.03.2020
276 Clouds 27 1008 88 10000 2.1 30 12:55 31.03.2020
277 Clouds 27 1008 88 10000 2.1 30 12:37 31.03.2020
278 Clouds 27 1007 88 10000 2.1 34 12:18 31.03.2020
279 Clouds 27 1007 88 10000 2.1 34 11:39 31.03.2020
280 Rain 27 1008 80 0 2.75 328 11:20 31.03.2020
281 Rain 27 1008 80 0 2.75 328 10:58 31.03.2020
282 Rain 27 1008 80 0 2.75 328 10:39 31.03.2020
283 Rain 27 1008 80 0 2.75 328 10:21 31.03.2020
284 Rain 27 1008 80 0 2.75 328 09:56 31.03.2020
285 Rain 27 1008 80 0 2.75 328 09:37 31.03.2020
286 Rain 27 1008 80 0 2.75 328 09:37 31.03.2020
287 Rain 27 1008 80 0 2.75 328 09:37 31.03.2020
288 Rain 28 1006 76 0 5.03 308 09:19 31.03.2020
289 Rain 28 1006 77 0 5.86 308 08:56 31.03.2020
290 Rain 28 1006 77 0 5.86 308 08:37 31.03.2020
291 Rain 28 1006 77 0 5.86 308 08:18 31.03.2020
292 Clouds 33 1005 63 10000 8.2 280 07:44 31.03.2020
293 Clouds 33 1005 63 10000 8.2 280 07:26 31.03.2020
294 Clouds 32 1005 62 10000 9.3 310 06:59 31.03.2020
295 Clouds 32 1005 62 10000 9.3 310 06:41 31.03.2020
296 Clouds 32 1006 62 10000 10.3 310 05:44 31.03.2020
297 Clouds 32 1008 62 10000 7.7 310 05:24 31.03.2020
298 Clouds 30 1009 70 10000 7.7 320 02:57 31.03.2020
299 Haze 28 1009 78 10000 6.2 330 01:47 31.03.2020
300 Haze 27 1009 83 10000 5.1 330 01:22 31.03.2020
301 Haze 27 1009 83 10000 5.1 330 00:43 31.03.2020
302 Haze 27 1009 83 10000 5.1 330 00:23 31.03.2020
303 Clouds 25 1008 94 10000 5.1 310 23:40 30.03.2020
304 Clouds 24 1007 94 10000 5.1 340 23:20 30.03.2020
305 Clouds 24 1007 94 10000 5.1 340 23:20 30.03.2020
306 Clouds 24 1007 94 10000 5.1 340 22:58 30.03.2020
307 Clouds 24 1007 94 10000 5.1 340 22:38 30.03.2020
308 Clouds 24 1008 94 10000 6.2 330 22:19 30.03.2020
309 Clouds 24 1008 94 10000 6.2 330 21:57 30.03.2020
310 Clouds 24 1008 94 10000 6.2 330 21:38 30.03.2020
311 Clouds 24 1008 94 10000 7.7 340 21:20 30.03.2020
312 Clouds 24 1008 94 10000 7.7 340 20:58 30.03.2020
313 Clouds 24 1008 94 10000 7.7 340 20:38 30.03.2020
314 Clouds 24 1008 100 10000 9.3 330 20:19 30.03.2020
315 Clouds 24 1008 100 10000 9.3 330 19:54 30.03.2020
316 Clouds 24 1008 100 10000 9.3 330 19:36 30.03.2020
317 Clouds 25 1007 100 10000 5.1 320 19:18 30.03.2020
318 Clouds 25 1007 100 10000 5.1 320 18:41 30.03.2020
319 Clouds 25 1007 100 10000 2.6 0 18:23 30.03.2020
320 Clouds 25 1007 100 10000 2.6 0 17:57 30.03.2020
321 Clouds 25 1007 100 10000 2.6 0 17:39 30.03.2020
322 Clouds 25 1008 100 10000 1.5 0 17:19 30.03.2020
323 Clouds 25 1008 100 10000 1.5 0 16:57 30.03.2020
324 Clouds 25 1008 100 10000 1.5 0 16:38 30.03.2020
325 Clouds 25 1009 100 10000 1 0 16:20 30.03.2020
326 Clouds 25 1009 100 10000 1 0 15:55 30.03.2020
327 Clouds 25 1009 100 10000 1 0 15:36 30.03.2020
328 Clouds 25 1009 100 10000 1.5 0 15:18 30.03.2020
329 Clouds 25 1009 100 10000 1.5 0 14:55 30.03.2020
330 Clouds 25 1009 100 10000 1.5 0 14:36 30.03.2020
331 Clouds 26 1008 94 10000 2.1 0 14:18 30.03.2020
332 Clouds 26 1008 94 10000 2.1 0 13:43 30.03.2020
333 Clouds 26 1008 94 10000 2.6 340 13:21 30.03.2020
334 Clouds 26 1008 94 10000 2.6 340 12:57 30.03.2020
335 Clouds 26 1008 94 10000 2.6 340 12:38 30.03.2020
336 Clouds 26 1008 94 10000 2.6 340 12:38 30.03.2020
337 Clouds 26 1007 94 10000 2.6 340 12:19 30.03.2020
338 Clouds 26 1007 94 10000 2.6 340 11:56 30.03.2020
339 Clouds 26 1007 94 10000 2.6 340 11:38 30.03.2020
340 Rain 27 1007 80 0 2.86 236 11:20 30.03.2020
341 Rain 27 1007 80 0 2.86 236 10:39 30.03.2020
342 Rain 27 1007 80 0 2.86 236 10:21 30.03.2020
343 Rain 27 1007 80 0 2.86 236 09:55 30.03.2020
344 Rain 27 1007 80 0 2.86 236 09:37 30.03.2020
345 Rain 29 1006 73 0 2.93 242 09:18 30.03.2020
346 Rain 29 1006 71 0 2.47 232 08:40 30.03.2020
347 Rain 29 1006 71 0 2.47 232 08:22 30.03.2020
348 Rain 29 1006 71 0 2.47 232 07:49 30.03.2020
349 Clouds 29 1006 79 10000 2.6 280 07:27 30.03.2020
350 Clouds 29 1006 79 10000 2.6 280 06:54 30.03.2020
351 Rain 29 1006 71 0 2.47 232 06:31 30.03.2020
352 Rain 29 1006 71 0 2.47 232 06:31 30.03.2020
353 Rain 30 1007 66 0 1.95 212 05:52 30.03.2020
354 Clouds 28 1009 88 10000 5.1 280 05:18 30.03.2020
355 Rain 27 1010 94 10000 2.6 270 04:22 30.03.2020
356 Rain 27 1010 94 10000 2.6 270 03:34 30.03.2020
357 Clouds 28 1010 83 10000 5.1 330 02:37 30.03.2020
358 Clouds 28 1010 88 10000 4.1 300 01:35 30.03.2020
359 Haze 27 1009 88 10000 3.6 310 00:47 30.03.2020
360 Haze 27 1009 88 10000 3.6 310 00:21 30.03.2020
361 Clouds 25 1008 94 10000 1.5 0 23:41 29.03.2020
362 Clouds 25 1008 94 10000 1.5 0 23:23 29.03.2020
363 Rain 26 1009 80 0 2.04 54 22:57 29.03.2020
364 Rain 26 1009 80 0 2.04 54 22:37 29.03.2020
365 Rain 26 1009 80 0 2.04 54 22:18 29.03.2020
366 Rain 26 1009 80 0 2.04 54 21:40 29.03.2020
367 Clouds 24 1006 100 10000 1.5 0 21:21 29.03.2020
368 Clouds 24 1006 100 10000 1.5 0 20:56 29.03.2020
369 Clouds 24 1006 100 10000 1.5 0 20:56 29.03.2020
370 Clouds 24 1006 100 10000 1.5 0 20:38 29.03.2020
371 Clouds 24 1006 100 10000 1.5 0 20:19 29.03.2020
372 Clouds 24 1006 100 10000 1.5 0 19:59 29.03.2020
373 Clouds 24 1006 100 10000 1.5 0 19:41 29.03.2020
374 Clouds 25 1007 100 10000 1.5 0 19:23 29.03.2020
375 Clouds 25 1007 100 10000 1.5 0 18:57 29.03.2020
376 Clouds 25 1007 100 10000 1.5 0 18:38 29.03.2020
377 Clouds 25 1007 100 10000 1.5 0 18:20 29.03.2020
378 Clouds 25 1007 100 10000 1.5 0 17:56 29.03.2020
379 Clouds 25 1007 100 10000 1.5 0 17:38 29.03.2020
380 Clouds 26 1008 100 10000 1.5 0 17:19 29.03.2020
381 Clouds 26 1008 100 10000 1.5 0 16:56 29.03.2020
382 Clouds 26 1008 100 10000 1.5 0 16:38 29.03.2020
383 Clouds 26 1009 100 10000 1.5 0 16:19 29.03.2020
384 Clouds 26 1009 100 10000 1.5 0 15:42 29.03.2020
385 Clouds 26 1009 94 10000 1.5 0 15:24 29.03.2020
386 Clouds 26 1009 94 10000 1.5 0 14:58 29.03.2020
387 Clouds 26 1009 94 10000 1.5 0 14:40 29.03.2020
388 Clouds 26 1008 94 10000 1.5 0 14:20 29.03.2020
389 Clouds 26 1008 94 10000 1.5 0 13:58 29.03.2020
390 Clouds 26 1008 94 10000 1.5 0 13:39 29.03.2020
391 Clouds 27 1008 88 10000 1.5 0 13:20 29.03.2020
392 Clouds 27 1008 88 10000 1.5 0 12:55 29.03.2020
393 Clouds 27 1008 88 10000 1.5 0 12:37 29.03.2020
394 Rain 27 1008 80 0 2.02 305 12:19 29.03.2020
395 Rain 27 1008 80 0 2.02 305 11:55 29.03.2020
396 Rain 27 1008 80 0 2.02 305 11:37 29.03.2020
397 Rain 27 1008 80 0 2.02 305 11:18 29.03.2020
398 Rain 27 1008 80 0 2.02 305 11:18 29.03.2020
399 Rain 27 1008 80 0 2.02 305 10:38 29.03.2020
400 Clouds 29 1006 79 10000 4.1 230 10:18 29.03.2020
401 Clouds 29 1006 79 10000 4.1 230 09:41 29.03.2020
402 Clouds 29 1006 79 10000 4.1 230 09:41 29.03.2020
403 Clouds 29 1006 79 10000 5.1 250 09:20 29.03.2020
404 Clouds 29 1006 79 10000 5.1 250 08:54 29.03.2020
405 Clouds 29 1006 79 10000 5.1 250 08:54 29.03.2020
406 Clouds 29 1006 79 10000 5.1 250 08:30 29.03.2020
407 Clouds 31 1006 66 10000 7.7 240 07:59 29.03.2020
408 Clouds 31 1006 66 10000 7.7 240 07:41 29.03.2020
409 Clouds 31 1006 70 10000 7.7 240 07:20 29.03.2020
410 Clouds 30 1007 74 10000 5.1 340 05:41 29.03.2020
411 Rain 27 1007 77 0 4.61 310 03:58 29.03.2020
412 Clouds 28 1009 83 10000 8.7 330 03:28 29.03.2020
413 Clouds 28 1009 83 10000 8.7 330 01:51 29.03.2020
414 Clouds 27 1010 83 10000 5.1 330 01:23 29.03.2020
415 Clouds 27 1010 83 10000 5.1 330 00:55 29.03.2020
416 Clouds 27 1010 83 10000 5.1 330 00:32 29.03.2020
417 Clouds 25 1009 94 10000 5.1 340 23:43 28.03.2020
418 Clouds 24 1009 100 10000 5.1 340 23:24 28.03.2020
419 Clouds 24 1009 100 10000 5.1 340 22:59 28.03.2020
420 Clouds 24 1009 100 10000 5.1 340 22:39 28.03.2020
421 Fog 24 1008 100 10000 3.1 330 22:20 28.03.2020
422 Fog 24 1008 100 10000 3.1 330 21:54 28.03.2020
423 Fog 24 1008 100 10000 3.1 330 21:36 28.03.2020
424 Clouds 26 1008 77 0 1.06 31 21:18 28.03.2020
425 Clouds 26 1008 77 0 1.06 31 20:41 28.03.2020
426 Clouds 26 1008 77 0 1.06 31 20:23 28.03.2020
427 Rain 25 1006 80 0 2.04 109 19:57 28.03.2020
428 Rain 25 1006 80 0 2.04 109 19:38 28.03.2020
429 Rain 25 1006 80 0 2.04 109 19:20 28.03.2020
430 Rain 25 1006 80 0 2.04 109 18:56 28.03.2020
431 Rain 25 1006 80 0 2.04 109 18:38 28.03.2020
432 Rain 25 1006 80 0 2.04 109 18:38 28.03.2020
433 Rain 25 1006 80 0 2.04 109 18:19 28.03.2020
434 Rain 25 1006 80 0 2.04 109 17:38 28.03.2020
435 Rain 25 1008 84 0 3.01 68 17:20 28.03.2020
436 Rain 25 1008 84 0 3.01 68 16:42 28.03.2020
437 Clouds 25 1008 100 10000 1.5 0 16:20 28.03.2020
438 Clouds 25 1008 100 10000 1.5 0 15:57 28.03.2020
439 Clouds 25 1008 100 10000 1.5 0 15:39 28.03.2020
440 Clouds 25 1008 100 10000 1.5 0 15:19 28.03.2020
441 Clouds 24 1008 100 10000 1.5 0 14:43 28.03.2020
442 Clouds 24 1008 100 10000 1.5 0 14:23 28.03.2020
443 Clouds 25 1008 100 10000 1.5 0 13:57 28.03.2020
444 Clouds 25 1008 100 10000 1.5 0 13:37 28.03.2020
445 Clouds 25 1008 100 10000 1.5 0 13:18 28.03.2020
446 Clouds 24 1008 100 10000 4.1 310 12:38 28.03.2020
447 Rain 25 1009 88 0 3.64 30 12:19 28.03.2020
448 Rain 25 1009 88 0 3.64 30 11:42 28.03.2020
449 Rain 25 1009 88 0 3.64 30 11:21 28.03.2020
450 Clouds 25 1007 100 0 4.1 30 10:55 28.03.2020
451 Clouds 25 1007 100 0 4.1 30 10:36 28.03.2020
452 Clouds 25 1007 100 0 4.1 30 10:18 28.03.2020
453 Clouds 25 1007 100 0 4.1 30 09:40 28.03.2020
454 Rain 25 1007 100 0 5.1 100 09:22 28.03.2020
455 Rain 25 1007 100 0 5.1 100 08:45 28.03.2020
456 Rain 26 1006 94 0 5.1 150 08:25 28.03.2020
457 Rain 26 1006 94 0 8.2 200 07:58 28.03.2020
458 Rain 26 1006 94 0 8.2 200 07:40 28.03.2020
459 Rain 28 1006 88 0 5.1 210 06:53 28.03.2020
460 Clouds 29 1006 83 10000 5.1 240 06:26 28.03.2020
461 Clouds 28 1008 88 10000 5.1 240 05:30 28.03.2020
462 Clouds 28 1008 88 10000 5.1 240 05:30 28.03.2020
463 Clouds 28 1008 88 10000 5.1 240 04:58 28.03.2020
464 Clouds 28 1008 88 10000 5.1 240 04:39 28.03.2020
465 Clouds 28 1009 88 10000 3.6 240 02:51 28.03.2020
466 Clouds 31 1010 74 10000 3.6 320 01:47 28.03.2020
467 Clouds 28 1009 78 10000 3.6 320 01:23 28.03.2020
468 Clouds 28 1009 78 10000 3.6 320 00:49 28.03.2020
469 Rain 29 1009 69 0 2.14 301 00:24 28.03.2020
470 Rain 29 1009 69 0 2.14 301 23:44 27.03.2020
471 Rain 29 1009 69 0 2.14 301 23:25 27.03.2020
472 Rain 26 1009 80 0 2.08 46 22:57 27.03.2020
473 Rain 26 1009 80 0 2.08 46 22:39 27.03.2020
474 Rain 26 1009 80 0 2.08 46 22:20 27.03.2020
475 Rain 26 1009 80 0 2.08 46 21:57 27.03.2020
476 Rain 26 1009 80 0 2.08 46 21:38 27.03.2020
477 Rain 26 1009 80 0 2.08 46 21:20 27.03.2020
478 Rain 26 1009 80 0 2.08 46 20:55 27.03.2020
479 Rain 26 1009 80 0 2.08 46 20:55 27.03.2020
480 Rain 26 1009 80 0 2.58 90 20:37 27.03.2020
481 Rain 26 1007 80 0 2.97 115 20:18 27.03.2020
482 Rain 26 1007 81 0 3.23 114 19:42 27.03.2020
483 Rain 26 1007 81 0 3.23 114 19:23 27.03.2020
484 Rain 26 1007 81 0 3.23 114 18:57 27.03.2020
485 Rain 26 1007 81 0 3.23 114 18:38 27.03.2020
486 Rain 26 1007 81 0 3.23 114 18:19 27.03.2020
487 Rain 26 1007 81 0 3.23 114 17:40 27.03.2020
488 Clouds 25 1008 100 10000 1 20 17:20 27.03.2020
489 Clouds 25 1008 100 10000 1 20 16:55 27.03.2020
490 Clouds 25 1008 100 10000 1 20 16:37 27.03.2020
491 Clouds 26 1008 94 10000 1.5 0 16:19 27.03.2020
492 Clouds 26 1008 94 10000 1.5 0 15:42 27.03.2020
493 Clouds 26 1008 94 10000 1.5 0 15:24 27.03.2020
494 Clouds 26 1008 94 10000 1.5 0 14:46 27.03.2020
495 Clouds 26 1009 94 10000 1.5 0 14:25 27.03.2020
496 Clouds 26 1009 94 10000 1.5 0 13:57 27.03.2020
497 Clouds 26 1009 94 10000 1.5 0 13:38 27.03.2020
498 Clouds 26 1009 100 10000 1.5 0 13:19 27.03.2020
499 Clouds 26 1009 100 10000 1.5 0 12:55 27.03.2020
500 Clouds 26 1009 100 10000 1.5 0 12:37 27.03.2020
501 Clouds 27 1009 94 10000 1.5 0 12:18 27.03.2020
502 Clouds 27 1009 94 10000 1.5 0 11:41 27.03.2020
503 Clouds 27 1008 94 10000 3.6 100 11:22 27.03.2020
504 Clouds 27 1008 94 10000 3.6 100 10:54 27.03.2020
505 Clouds 27 1008 94 10000 3.6 100 10:36 27.03.2020
506 Clouds 28 1008 88 10000 1.5 120 10:18 27.03.2020
507 Clouds 28 1008 88 10000 1.5 120 09:56 27.03.2020
508 Clouds 28 1008 88 10000 1.5 120 09:37 27.03.2020
509 Rain 27 1008 77 0 2.47 134 09:18 27.03.2020
510 Rain 27 1008 77 0 2.47 134 08:55 27.03.2020
511 Rain 27 1008 77 0 2.47 134 08:36 27.03.2020
512 Rain 28 1007 71 0 2.17 178 08:18 27.03.2020
513 Rain 28 1007 76 0 2.77 192 07:49 27.03.2020
514 Rain 28 1007 76 0 2.77 192 07:22 27.03.2020
515 Rain 28 1007 76 0 2.77 192 06:45 27.03.2020
516 Clouds 32 1007 66 10000 7.7 180 06:26 27.03.2020
517 Clouds 32 1009 66 10000 7.7 200 03:42 27.03.2020
518 Clouds 30 1010 70 10000 5.1 140 02:25 27.03.2020
519 Clouds 29 1010 79 10000 4.1 140 01:21 27.03.2020
520 Clouds 29 1010 79 10000 4.1 140 00:45 27.03.2020
521 Clouds 26 1009 94 10000 1 160 00:21 27.03.2020
522 Clouds 26 1009 94 10000 1 160 23:42 26.03.2020
523 Clear 24 1009 100 10000 0.5 0 23:19 26.03.2020
524 Clear 24 1009 100 10000 0.5 0 22:57 26.03.2020
525 Clear 24 1009 100 10000 0.5 0 22:36 26.03.2020
526 Clouds 24 1008 100 10000 1 0 22:18 26.03.2020
527 Clouds 24 1008 100 10000 1 0 21:40 26.03.2020
528 Fog 24 1008 100 0 3.6 330 21:22 26.03.2020
529 Fog 24 1008 100 0 3.6 330 20:59 26.03.2020
530 Fog 24 1008 100 0 3.6 330 20:39 26.03.2020
531 Fog 24 1008 100 0 3.6 330 20:21 26.03.2020
532 Fog 24 1008 100 0 3.6 330 19:58 26.03.2020
533 Fog 24 1008 100 0 3.6 330 19:40 26.03.2020
534 Clouds 25 1008 100 10000 2.1 340 19:21 26.03.2020
535 Clouds 25 1008 100 10000 2.1 340 18:58 26.03.2020
536 Clouds 25 1008 100 10000 2.1 340 18:40 26.03.2020
537 Clouds 25 1009 100 10000 3.1 320 18:21 26.03.2020
538 Clouds 25 1009 100 10000 3.1 320 17:45 26.03.2020
539 Clouds 25 1009 100 10000 3.1 300 17:20 26.03.2020
540 Clouds 25 1009 100 10000 3.1 300 16:57 26.03.2020
541 Clouds 25 1009 100 10000 3.1 300 16:38 26.03.2020
542 Clouds 25 1010 100 10000 2.1 330 16:19 26.03.2020
543 Clouds 25 1010 100 10000 2.1 330 15:55 26.03.2020
544 Clouds 25 1010 100 10000 2.1 330 15:55 26.03.2020
545 Clouds 25 1010 100 10000 2.1 330 15:37 26.03.2020
546 Clouds 26 1009 81 0 1.6 45 15:18 26.03.2020
547 Clouds 26 1009 81 0 1.6 45 14:43 26.03.2020
548 Clouds 26 1009 81 0 1.6 45 14:24 26.03.2020
549 Rain 26 1011 81 0 1.93 89 13:55 26.03.2020
550 Rain 26 1011 81 0 1.93 89 13:37 26.03.2020
551 Rain 26 1011 81 0 1.93 89 13:19 26.03.2020
552 Rain 26 1011 80 0 1.4 82 12:38 26.03.2020
553 Rain 26 1011 80 0 1.4 82 12:20 26.03.2020
554 Rain 26 1011 80 0 1.4 82 11:46 26.03.2020
555 Rain 26 1011 80 0 1.4 82 11:23 26.03.2020
556 Rain 26 1009 81 0 2.21 112 10:57 26.03.2020
557 Rain 26 1009 81 0 2.21 112 10:38 26.03.2020
558 Clouds 27 1008 94 10000 5.1 340 10:19 26.03.2020
559 Clouds 27 1008 94 10000 5.1 340 09:44 26.03.2020
560 Rain 28 1008 88 10000 5.1 30 09:21 26.03.2020
561 Rain 28 1008 88 10000 5.1 30 08:56 26.03.2020
562 Rain 28 1008 88 10000 5.1 30 08:37 26.03.2020
563 Clouds 30 1007 74 10000 5.1 280 08:19 26.03.2020
564 Clouds 30 1007 74 10000 5.1 280 07:44 26.03.2020
565 Clouds 32 1007 62 10000 5.1 280 07:22 26.03.2020
566 Clouds 32 1007 62 10000 5.1 280 06:56 26.03.2020
567 Clouds 32 1007 66 10000 5.1 300 05:59 26.03.2020
568 Clouds 30 1008 74 10000 4.1 270 04:49 26.03.2020
569 Clouds 30 1009 74 10000 4.1 250 03:44 26.03.2020
570 Clouds 31 1010 70 10000 4.1 300 02:55 26.03.2020
571 Clouds 30 1010 74 10000 1 0 01:50 26.03.2020
572 Rain 26 1011 82 0 2.13 339 00:53 26.03.2020
573 Clouds 24 1010 100 10000 1.5 0 00:20 26.03.2020
574 Clouds 24 1010 100 10000 1.5 0 23:40 25.03.2020
575 Clouds 24 1008 100 10000 1.5 0 23:20 25.03.2020
576 Clouds 24 1008 100 10000 1.5 0 22:40 25.03.2020
577 Clouds 23 1008 100 10000 1.5 0 22:21 25.03.2020
578 Clouds 23 1008 100 10000 1.5 0 21:56 25.03.2020
579 Clouds 23 1008 100 10000 1.5 0 21:37 25.03.2020
580 Clouds 23 1007 100 10000 2.1 340 21:19 25.03.2020
581 Clouds 23 1007 100 10000 2.1 340 20:55 25.03.2020
582 Clouds 23 1007 100 10000 2.1 340 20:37 25.03.2020
583 Rain 25 1009 86 0 2.87 13 20:18 25.03.2020
584 Rain 25 1008 86 0 2.64 13 19:42 25.03.2020
585 Clouds 24 1008 100 10000 1 0 19:22 25.03.2020
586 Clouds 24 1008 100 10000 1 0 18:57 25.03.2020
587 Clouds 24 1008 100 10000 1 0 18:38 25.03.2020
588 Clouds 24 1008 100 10000 1 0 18:20 25.03.2020
589 Clouds 24 1008 100 10000 1 0 17:55 25.03.2020
590 Clouds 24 1008 100 10000 1 0 17:37 25.03.2020
591 Clouds 24 1009 100 10000 2.1 120 17:18 25.03.2020
592 Clouds 24 1009 100 10000 2.1 120 16:43 25.03.2020
593 Clouds 24 1009 100 10000 2.1 120 16:43 25.03.2020
594 Clouds 24 1009 100 10000 2.1 120 16:43 25.03.2020
595 Clouds 24 1009 100 10000 1 0 16:23 25.03.2020
596 Clouds 24 1009 100 10000 1 0 15:57 25.03.2020
597 Clouds 24 1009 100 10000 1 0 15:38 25.03.2020
598 Clouds 24 1010 100 10000 3.1 320 15:19 25.03.2020
599 Clouds 24 1010 100 10000 3.1 320 14:42 25.03.2020
600 Clouds 24 1010 100 10000 3.1 320 14:21 25.03.2020
601 Rain 25 1010 88 0 2.85 29 13:46 25.03.2020
602 Clouds 24 1010 100 10000 5.1 320 13:26 25.03.2020
603 Clouds 24 1010 100 10000 5.1 320 12:57 25.03.2020
604 Clouds 24 1010 100 10000 5.1 320 12:37 25.03.2020
605 Rain 24 1010 100 10000 5.1 340 12:18 25.03.2020
606 Rain 24 1010 100 10000 5.1 340 11:43 25.03.2020
607 Rain 25 1009 100 10000 1.5 0 11:21 25.03.2020
608 Rain 25 1009 100 10000 1.5 0 11:21 25.03.2020
609 Rain 25 1009 100 0 1.5 0 10:59 25.03.2020
610 Rain 25 1009 100 0 1.5 0 10:40 25.03.2020
611 Rain 25 1009 100 0 1.5 0 10:19 25.03.2020
612 Rain 25 1009 100 0 1.5 0 10:19 25.03.2020
613 Rain 25 1009 100 0 1.5 0 09:59 25.03.2020
614 Rain 25 1009 100 0 1.5 0 09:40 25.03.2020
615 Rain 25 1009 100 0 1.5 0 09:21 25.03.2020
616 Rain 25 1007 100 0 5.1 100 08:43 25.03.2020
617 Rain 25 1008 100 0 5.1 90 08:25 25.03.2020
618 Rain 26 1007 100 0 5.1 290 07:58 25.03.2020
619 Rain 26 1007 100 0 5.1 290 07:38 25.03.2020
620 Rain 27 1007 94 0 5.1 320 07:18 25.03.2020
621 Clouds 30 1006 74 10000 5.1 270 06:43 25.03.2020
622 Rain 28 1006 88 10000 5.1 230 06:25 25.03.2020
623 Rain 28 1006 88 10000 5.1 230 05:47 25.03.2020
624 Clouds 32 1007 70 10000 5.1 300 04:46 25.03.2020
625 Clouds 31 1008 74 10000 5.1 310 03:58 25.03.2020
626 Clouds 31 1008 74 10000 5.1 310 03:34 25.03.2020
627 Clouds 30 1009 79 10000 5.1 310 01:41 25.03.2020
628 Clouds 30 1009 79 10000 5.1 310 01:41 25.03.2020
629 Clouds 30 1009 79 10000 5.1 310 01:41 25.03.2020
630 Clouds 30 1009 79 10000 5.1 310 01:41 25.03.2020
631 Clouds 27 1009 88 10000 2.6 330 00:51 25.03.2020
632 Clouds 27 1009 88 10000 2.6 330 00:32 25.03.2020
633 Clouds 25 1009 100 10000 3.1 320 23:59 24.03.2020
634 Clouds 25 1009 100 10000 3.1 320 23:40 24.03.2020
635 Clouds 24 1008 100 10000 3.1 320 23:20 24.03.2020
636 Clouds 24 1008 100 10000 3.1 320 22:55 24.03.2020
637 Clouds 24 1008 100 10000 3.1 320 22:36 24.03.2020
638 Clouds 24 1008 100 10000 5.1 320 22:18 24.03.2020
639 Clouds 24 1008 100 10000 5.1 320 21:42 24.03.2020
640 Clouds 25 1007 100 10000 1.5 0 21:19 24.03.2020
641 Clouds 25 1007 100 10000 1.5 0 20:59 24.03.2020
642 Clouds 25 1007 100 10000 1.5 0 20:41 24.03.2020
643 Clouds 25 1007 100 10000 1.5 0 20:22 24.03.2020
644 Clouds 25 1007 100 10000 1.5 0 19:48 24.03.2020
645 Rain 26 1007 85 0 5.35 109 19:23 24.03.2020
646 Rain 26 1007 85 0 5.35 109 18:59 24.03.2020
647 Rain 26 1007 85 0 5.35 109 18:39 24.03.2020
648 Rain 26 1007 85 0 5.35 109 18:20 24.03.2020
649 Rain 26 1007 85 0 5.35 109 17:58 24.03.2020
650 Rain 26 1007 85 0 5.35 109 17:40 24.03.2020
651 Rain 26 1007 85 0 5.35 109 17:40 24.03.2020
652 Rain 26 1007 85 0 5.35 109 17:22 24.03.2020
653 Rain 27 1007 87 0 8.23 134 16:56 24.03.2020
654 Rain 27 1007 87 0 8.23 134 16:37 24.03.2020
655 Clouds 25 1008 100 10000 1 0 16:19 24.03.2020
656 Clouds 25 1008 100 10000 1 0 15:42 24.03.2020
657 Clouds 25 1009 94 10000 1 0 15:24 24.03.2020
658 Clouds 25 1009 94 10000 1 0 14:44 24.03.2020
659 Clouds 25 1009 94 10000 1 0 14:44 24.03.2020
660 Clouds 25 1009 94 10000 1.5 0 14:23 24.03.2020
661 Clouds 25 1009 94 10000 1.5 0 13:59 24.03.2020
662 Clouds 25 1009 94 10000 1.5 0 13:40 24.03.2020
663 Clouds 25 1009 100 10000 1 0 13:22 24.03.2020
664 Clouds 25 1009 100 10000 1 0 12:42 24.03.2020
665 Clouds 25 1009 100 10000 1.5 0 12:24 24.03.2020
666 Clouds 25 1009 100 10000 1.5 0 11:42 24.03.2020
667 Rain 25 1008 100 10000 1.5 0 11:22 24.03.2020
668 Rain 25 1008 100 10000 1.5 0 11:22 24.03.2020
669 Rain 25 1008 100 10000 1.5 0 10:59 24.03.2020
670 Rain 25 1008 100 10000 1.5 0 10:41 24.03.2020
671 Rain 26 1006 100 0 1.5 0 10:19 24.03.2020
672 Rain 26 1006 100 0 1.5 0 09:47 24.03.2020
673 Rain 26 1006 100 0 1.5 0 09:27 24.03.2020
674 Rain 28 1006 94 0 5.1 250 08:57 24.03.2020
675 Rain 28 1006 94 0 5.1 250 08:38 24.03.2020
676 Clouds 29 1004 89 10000 5.1 250 08:19 24.03.2020
677 Clouds 29 1004 89 10000 5.1 250 07:44 24.03.2020
678 Clouds 30 1005 79 10000 6.7 240 07:22 24.03.2020
679 Clouds 30 1005 79 10000 6.7 240 06:42 24.03.2020
680 Clouds 31 1005 79 10000 5.1 190 06:21 24.03.2020
681 Clouds 31 1006 74 10000 5.1 200 04:52 24.03.2020
682 Clouds 29 1006 78 0 3.24 238 03:32 24.03.2020
683 Clouds 31 1008 74 10000 5.1 330 02:43 24.03.2020
684 Clouds 29 1009 83 10000 2.6 330 00:57 24.03.2020
685 Clouds 27 1008 88 10000 2.6 300 00:28 24.03.2020
686 Clouds 27 1008 88 10000 2.6 300 23:58 23.03.2020
687 Clouds 27 1008 88 10000 2.6 300 23:38 23.03.2020
688 Clouds 24 1007 100 10000 2.6 330 23:19 23.03.2020
689 Clouds 24 1007 100 10000 2.6 330 22:44 23.03.2020
690 Clouds 24 1007 100 10000 3.1 310 22:23 23.03.2020
691 Clouds 24 1007 100 10000 3.1 310 21:55 23.03.2020
692 Clouds 24 1007 100 10000 3.1 310 21:37 23.03.2020
693 Clouds 24 1007 100 10000 1.5 340 21:18 23.03.2020
694 Clouds 24 1007 100 10000 1.5 340 21:18 23.03.2020
695 Clouds 24 1007 100 10000 1.5 340 20:44 23.03.2020
696 Clouds 24 1006 100 10000 1.5 0 20:26 23.03.2020
697 Clouds 24 1006 100 10000 1.5 0 19:59 23.03.2020
698 Clouds 24 1006 100 10000 1.5 0 19:41 23.03.2020
699 Clouds 24 1006 100 10000 1.5 340 19:22 23.03.2020
700 Clouds 24 1006 100 10000 1.5 340 18:54 23.03.2020
701 Clouds 24 1006 100 10000 1.5 340 18:36 23.03.2020
702 Clouds 25 1006 100 10000 1.5 320 18:18 23.03.2020
703 Clouds 25 1006 100 10000 1.5 320 17:41 23.03.2020
704 Clouds 25 1007 100 10000 1.5 320 17:20 23.03.2020
705 Clouds 25 1007 100 10000 1.5 320 16:44 23.03.2020
706 Clouds 25 1007 100 10000 1.5 0 16:25 23.03.2020
707 Clouds 25 1007 100 10000 1.5 0 15:59 23.03.2020
708 Clouds 25 1007 100 10000 1.5 0 15:39 23.03.2020
709 Rain 28 1007 82 0 4.92 118 15:18 23.03.2020
710 Rain 28 1007 82 0 4.92 118 14:37 23.03.2020
711 Rain 29 1009 82 0 7.95 131 14:19 23.03.2020
712 Rain 29 1009 82 0 7.95 131 13:57 23.03.2020
713 Rain 29 1009 82 0 7.95 131 13:38 23.03.2020
714 Rain 29 1009 82 0 7.95 131 13:38 23.03.2020
715 Rain 29 1009 82 0 8.28 133 13:20 23.03.2020
716 Rain 29 1009 82 0 8.28 133 12:43 23.03.2020
717 Rain 29 1009 82 0 8.28 133 12:23 23.03.2020
718 Rain 29 1009 82 0 8.28 133 11:56 23.03.2020
719 Rain 29 1009 82 0 8.28 133 11:37 23.03.2020
720 Rain 29 1007 80 0 10.16 140 11:19 23.03.2020
721 Rain 29 1007 80 0 10.16 140 10:56 23.03.2020
722 Rain 29 1007 80 0 10.16 140 10:36 23.03.2020
723 Clouds 26 1007 100 10000 1.5 0 10:18 23.03.2020
724 Clouds 26 1007 100 10000 1.5 0 09:42 23.03.2020
725 Clouds 26 1006 100 10000 5.1 140 09:20 23.03.2020
726 Clouds 26 1006 100 10000 5.1 140 08:38 23.03.2020
727 Rain 25 1006 100 0 7.7 150 08:20 23.03.2020
728 Rain 25 1006 100 0 7.7 150 07:52 23.03.2020
729 Rain 25 1006 100 0 7.7 150 07:33 23.03.2020
730 Clouds 30 1005 79 10000 6.7 180 06:56 23.03.2020
731 Clouds 30 1005 79 10000 6.7 180 06:34 23.03.2020
732 Clouds 32 1006 75 10000 5.7 190 05:44 23.03.2020
733 Clouds 32 1007 75 10000 6.2 230 03:54 23.03.2020
734 Clouds 31 1008 74 10000 5.1 350 02:45 23.03.2020
735 Clouds 31 1009 79 10000 4.1 350 01:50 23.03.2020
736 Clouds 30 1009 79 10000 4.1 350 00:47 23.03.2020
737 Clouds 27 1009 94 10000 3.1 360 00:27 23.03.2020
738 Clouds 27 1009 94 10000 3.1 360 23:42 22.03.2020
739 Fog 26 1009 100 0 3.1 360 23:24 22.03.2020
740 Fog 26 1009 100 0 3.1 360 22:42 22.03.2020
741 Clouds 25 1008 100 10000 1.5 0 22:21 22.03.2020
742 Clouds 25 1008 100 10000 1.5 0 21:41 22.03.2020
743 Clouds 27 1009 84 0 2.61 23 21:23 22.03.2020
744 Clouds 27 1009 84 0 2.61 23 20:59 22.03.2020
745 Clouds 27 1009 84 0 2.61 23 20:40 22.03.2020
746 Rain 27 1009 85 0 3.03 16 20:22 22.03.2020
747 Rain 28 1008 82 0 3.31 106 19:56 22.03.2020
748 Rain 28 1008 82 0 3.31 106 19:38 22.03.2020
749 Rain 28 1008 82 0 3.31 106 19:19 22.03.2020
750 Rain 28 1008 82 0 3.31 106 18:57 22.03.2020
751 Rain 28 1008 82 0 3.31 106 18:39 22.03.2020
752 Rain 28 1008 82 0 3.31 106 18:19 22.03.2020
753 Rain 28 1008 82 0 3.31 106 17:56 22.03.2020
754 Rain 28 1008 82 0 3.31 106 17:37 22.03.2020
755 Rain 28 1008 82 0 3.18 101 17:19 22.03.2020
756 Rain 28 1008 82 0 3.18 101 16:55 22.03.2020
757 Rain 28 1008 82 0 3.18 101 16:37 22.03.2020
758 Rain 28 1008 82 0 3.18 101 16:19 22.03.2020
759 Rain 28 1008 82 0 3.18 101 15:40 22.03.2020
760 Rain 28 1008 82 0 3.18 101 15:19 22.03.2020
761 Rain 28 1008 82 0 3.18 101 14:46 22.03.2020
762 Rain 28 1008 82 0 3.18 101 14:46 22.03.2020
763 Rain 28 1010 81 0 3.74 127 14:18 22.03.2020
764 Rain 28 1010 81 0 3.74 127 13:42 22.03.2020
765 Rain 28 1010 81 0 3.74 127 13:20 22.03.2020
766 Rain 29 1010 81 0 3.88 135 12:47 22.03.2020
767 Rain 29 1010 81 0 3.88 135 12:23 22.03.2020
768 Rain 29 1010 81 0 3.88 135 11:59 22.03.2020
769 Rain 29 1010 81 0 3.88 135 11:41 22.03.2020
770 Rain 29 1010 81 0 3.88 135 11:23 22.03.2020
771 Clouds 29 1008 78 0 4.53 136 10:57 22.03.2020
772 Clouds 29 1008 78 0 4.53 136 10:39 22.03.2020
773 Clouds 29 1007 83 10000 4.1 190 10:21 22.03.2020
774 Clouds 29 1007 83 10000 4.1 190 09:43 22.03.2020
775 Clouds 30 1006 79 10000 6.2 180 09:23 22.03.2020
776 Clouds 30 1006 79 10000 6.2 180 08:44 22.03.2020
777 Clouds 31 1006 74 10000 7.7 220 08:25 22.03.2020
778 Clouds 31 1006 74 10000 7.7 220 07:53 22.03.2020
779 Clouds 33 1006 66 10000 7.7 220 07:28 22.03.2020
780 Clouds 33 1006 66 10000 7.7 220 06:40 22.03.2020
781 Clouds 31 1007 74 10000 6.2 210 05:35 22.03.2020
782 Clouds 32 1009 70 10000 5.1 350 03:46 22.03.2020
783 Clouds 28 1011 83 10000 3.6 340 01:28 22.03.2020
784 Clouds 28 1011 83 10000 3.6 340 00:48 22.03.2020
785 Clouds 27 1010 88 10000 5.1 310 00:28 22.03.2020
786 Clouds 27 1010 88 10000 5.1 310 23:43 21.03.2020
787 Clouds 25 1010 100 10000 5.1 340 23:19 21.03.2020
788 Clouds 25 1010 100 10000 5.1 340 22:55 21.03.2020
789 Clouds 25 1010 100 10000 5.1 340 22:37 21.03.2020
790 Clouds 25 1009 100 10000 3.1 340 22:18 21.03.2020
791 Clouds 25 1009 100 10000 3.1 340 21:41 21.03.2020
792 Clouds 25 1009 100 10000 0.5 340 21:23 21.03.2020
793 Clouds 25 1009 100 10000 0.5 340 20:56 21.03.2020
794 Clouds 25 1009 100 10000 0.5 340 20:38 21.03.2020
795 Clouds 25 1008 100 10000 0.5 0 20:19 21.03.2020
796 Clouds 25 1008 100 10000 0.5 0 19:43 21.03.2020
797 Clouds 25 1009 100 10000 1 330 19:25 21.03.2020
798 Clouds 25 1009 100 10000 1 330 19:25 21.03.2020
799 Clouds 25 1009 100 10000 1 330 18:55 21.03.2020
800 Clouds 25 1009 100 10000 1 330 18:37 21.03.2020
801 Clouds 25 1009 100 10000 1.5 340 18:19 21.03.2020
802 Clouds 25 1009 100 10000 1.5 340 17:55 21.03.2020
803 Clouds 25 1009 100 10000 1.5 340 17:37 21.03.2020
804 Clouds 25 1010 100 10000 0.5 0 17:18 21.03.2020
805 Clouds 25 1010 100 10000 0.5 0 16:40 21.03.2020
806 Clouds 25 1010 100 10000 1.5 0 16:19 21.03.2020
807 Clouds 25 1010 100 10000 1.5 0 15:55 21.03.2020
808 Clouds 25 1010 100 10000 1.5 0 15:36 21.03.2020
809 Clouds 25 1011 100 10000 2.6 15 15:18 21.03.2020
810 Clouds 25 1011 100 10000 2.6 15 14:54 21.03.2020
811 Clouds 25 1011 100 10000 2.6 15 14:36 21.03.2020
812 Clouds 25 1011 100 10000 2.6 210 14:18 21.03.2020
813 Clouds 25 1011 100 10000 2.6 210 13:54 21.03.2020
814 Clouds 25 1011 100 10000 2.6 210 13:36 21.03.2020
815 Clouds 26 1010 94 10000 5.1 130 13:18 21.03.2020
816 Clouds 26 1010 94 10000 5.1 130 12:39 21.03.2020
817 Clouds 26 1010 94 10000 5.1 130 12:19 21.03.2020
818 Rain 27 1012 85 0 6.98 129 11:57 21.03.2020
819 Rain 27 1012 85 0 6.98 129 11:38 21.03.2020
820 Rain 27 1012 85 0 6.98 129 11:38 21.03.2020
821 Clouds 26 1010 100 10000 5.1 140 11:19 21.03.2020
822 Clouds 26 1010 100 10000 5.1 140 10:57 21.03.2020
823 Clouds 26 1010 100 10000 5.1 140 10:38 21.03.2020
824 Rain 27 1009 88 10000 2.6 140 10:19 21.03.2020
825 Rain 27 1009 88 10000 2.6 140 09:56 21.03.2020
826 Rain 27 1009 88 10000 2.6 140 09:37 21.03.2020
827 Clouds 27 1008 94 10000 5.1 160 09:19 21.03.2020
828 Clouds 27 1008 94 10000 5.1 160 08:43 21.03.2020
829 Clouds 28 1008 83 10000 3.6 160 08:24 21.03.2020
830 Clouds 28 1008 83 10000 3.6 160 07:47 21.03.2020
831 Clouds 28 1008 83 10000 5.1 200 07:28 21.03.2020
832 Clouds 28 1008 83 10000 5.1 200 06:48 21.03.2020
833 Clouds 28 1009 83 10000 5.1 150 06:28 21.03.2020
834 Clouds 28 1009 83 10000 5.1 150 05:46 21.03.2020
835 Clouds 30 1010 84 10000 5.1 140 04:46 21.03.2020
836 Rain 28 1012 88 10000 4.6 210 02:51 21.03.2020
837 Rain 28 1012 88 10000 4.6 210 02:33 21.03.2020
838 Rain 29 1012 79 10000 5.1 350 01:32 21.03.2020
839 Rain 27 1011 88 10000 2.6 350 00:48 21.03.2020
840 Clouds 25 1011 100 10000 1 0 00:26 21.03.2020
841 Clouds 25 1011 100 10000 1 0 23:51 20.03.2020
842 Clouds 24 1010 100 10000 5.1 340 23:27 20.03.2020
843 Clouds 24 1010 100 10000 5.1 340 22:57 20.03.2020
844 Clouds 24 1010 100 10000 5.1 340 22:39 20.03.2020
845 Clouds 24 1010 100 10000 5.1 340 22:20 20.03.2020
846 Clouds 24 1010 100 10000 5.1 340 21:55 20.03.2020
847 Clouds 24 1010 100 10000 5.1 340 21:37 20.03.2020
848 Clouds 24 1009 100 10000 2.6 300 21:18 20.03.2020
849 Clouds 24 1009 100 10000 2.6 300 21:18 20.03.2020
850 Clouds 24 1009 100 10000 2.6 300 20:42 20.03.2020
851 Clouds 24 1009 100 10000 2.6 350 20:21 20.03.2020
852 Clouds 24 1009 100 10000 2.6 350 19:59 20.03.2020
853 Clouds 24 1009 100 10000 2.6 350 19:40 20.03.2020
854 Fog 24 1009 100 0 2.6 310 19:18 20.03.2020
855 Clouds 24 1008 100 10000 2.6 310 18:39 20.03.2020
856 Clouds 24 1008 100 10000 2.6 310 18:39 20.03.2020
857 Clouds 24 1008 100 10000 2.6 310 18:39 20.03.2020
858 Clouds 25 1008 100 10000 2.6 340 18:20 20.03.2020
859 Clouds 25 1008 100 10000 2.6 340 17:57 20.03.2020
860 Clouds 25 1008 100 10000 2.6 340 17:39 20.03.2020
861 Clouds 25 1009 100 10000 2.6 330 17:20 20.03.2020
862 Clouds 25 1009 100 10000 2.6 330 16:43 20.03.2020
863 Clouds 25 1010 100 10000 1.5 0 16:22 20.03.2020
864 Clouds 25 1010 100 10000 1.5 0 15:59 20.03.2020
865 Clouds 25 1010 100 10000 1.5 0 15:41 20.03.2020
866 Clouds 27 1010 83 0 8.1 122 15:20 20.03.2020
867 Clouds 27 1010 83 0 8.1 122 14:42 20.03.2020
868 Clouds 27 1010 83 0 8.1 122 14:21 20.03.2020
869 Rain 28 1011 82 0 9.93 124 13:55 20.03.2020
870 Rain 28 1011 82 0 9.93 124 13:36 20.03.2020
871 Rain 28 1011 82 0 9.93 124 13:18 20.03.2020
872 Rain 28 1011 82 0 10.53 130 12:39 20.03.2020
873 Rain 28 1011 82 0 10.53 130 12:20 20.03.2020
874 Rain 28 1011 82 0 10.53 130 12:20 20.03.2020
875 Rain 28 1011 82 0 10.53 130 11:42 20.03.2020
876 Rain 28 1011 82 0 10.53 130 11:22 20.03.2020
877 Rain 28 1010 79 0 10.67 135 10:59 20.03.2020
878 Rain 28 1010 79 0 10.67 135 10:41 20.03.2020
879 Clouds 27 1008 78 10000 5.1 130 10:20 20.03.2020
880 Clouds 27 1008 78 10000 5.1 130 09:47 20.03.2020
881 Clouds 27 1008 78 10000 5.1 130 09:47 20.03.2020
882 Clouds 28 1008 88 10000 5.1 150 09:21 20.03.2020
883 Clouds 28 1008 88 10000 5.1 150 08:59 20.03.2020
884 Clouds 28 1008 88 10000 5.1 150 08:40 20.03.2020
885 Clouds 31 1007 74 10000 7.7 140 08:19 20.03.2020
886 Clouds 31 1007 74 10000 7.7 140 07:46 20.03.2020
887 Clouds 31 1007 74 10000 7.7 140 07:26 20.03.2020
888 Clouds 31 1007 74 10000 7.7 140 06:47 20.03.2020
889 Clouds 32 1008 66 10000 7.7 140 06:29 20.03.2020
890 Clouds 31 1009 70 10000 7.7 130 04:49 20.03.2020
891 Clouds 30 1011 70 10000 1 0 03:18 20.03.2020
892 Clouds 30 1011 66 10000 1 0 01:51 20.03.2020
893 Haze 28 1011 74 10000 2.6 150 00:46 20.03.2020
894 Haze 25 1011 94 10000 2.6 300 00:24 20.03.2020
895 Haze 25 1011 94 10000 2.6 300 23:42 19.03.2020
896 Clouds 24 1011 100 10000 2.6 320 23:23 19.03.2020
897 Clouds 24 1011 100 10000 2.6 320 22:55 19.03.2020
898 Clouds 24 1011 100 10000 2.6 320 22:37 19.03.2020
899 Clouds 24 1010 100 10000 1.5 0 22:18 19.03.2020
900 Clouds 24 1010 100 10000 1.5 0 21:40 19.03.2020
901 Clouds 24 1009 94 10000 3.6 320 21:20 19.03.2020
902 Clouds 24 1009 94 10000 3.6 320 20:55 19.03.2020
903 Clouds 24 1009 94 10000 3.6 320 20:37 19.03.2020
904 Clouds 24 1009 94 10000 3.6 320 20:19 19.03.2020
905 Rain 27 1010 83 0 3.52 65 19:54 19.03.2020
906 Rain 27 1010 83 0 3.52 65 19:36 19.03.2020
907 Clouds 24 1009 100 10000 1.5 0 19:18 19.03.2020
908 Clouds 24 1009 100 10000 1.5 0 18:41 19.03.2020
909 Clouds 24 1009 100 10000 1.5 0 18:22 19.03.2020
910 Rain 27 1010 83 0 3.52 65 17:56 19.03.2020
911 Rain 27 1010 83 0 3.52 65 17:37 19.03.2020
912 Clouds 26 1009 83 10000 3.6 110 17:18 19.03.2020
913 Clouds 26 1009 83 10000 3.6 110 16:43 19.03.2020
914 Clouds 26 1009 83 10000 3.6 110 16:22 19.03.2020
915 Clouds 27 1010 78 10000 2.6 0 15:44 19.03.2020
916 Clouds 27 1011 78 10000 5.1 130 15:25 19.03.2020
917 Clouds 27 1011 78 10000 5.1 130 14:54 19.03.2020
918 Clouds 27 1011 78 10000 5.1 130 14:36 19.03.2020
919 Clouds 27 1011 83 10000 7.7 130 14:18 19.03.2020
920 Clouds 27 1011 83 10000 7.7 130 13:38 19.03.2020
921 Clouds 27 1011 83 10000 7.7 130 13:18 19.03.2020
922 Clouds 27 1011 83 10000 7.7 130 13:18 19.03.2020
923 Clouds 27 1011 83 10000 7.7 130 12:42 19.03.2020
924 Rain 26 1010 88 10000 5.1 120 12:24 19.03.2020
925 Rain 26 1010 88 10000 5.1 120 11:58 19.03.2020
926 Rain 26 1010 88 10000 5.1 120 11:40 19.03.2020
927 Haze 26 1010 88 10000 5.1 120 11:22 19.03.2020
928 Haze 26 1010 88 10000 5.1 120 10:43 19.03.2020
929 Haze 26 1009 88 10000 2.6 280 10:22 19.03.2020
930 Haze 26 1009 88 10000 2.6 280 09:58 19.03.2020
931 Haze 26 1009 88 10000 2.6 280 09:39 19.03.2020
932 Haze 28 1008 83 10000 5.1 250 09:19 19.03.2020
933 Haze 28 1008 83 10000 5.1 250 08:46 19.03.2020
934 Haze 31 1007 74 10000 7.7 150 08:22 19.03.2020
935 Haze 31 1007 74 10000 7.7 150 07:47 19.03.2020
936 Haze 33 1007 66 10000 7.7 150 07:29 19.03.2020
937 Haze 33 1007 66 10000 7.7 150 06:51 19.03.2020
938 Haze 32 1008 70 10000 7.7 160 05:52 19.03.2020
939 Haze 32 1009 70 10000 8.2 170 05:19 19.03.2020
940 Haze 32 1009 70 10000 8.2 170 04:40 19.03.2020
941 Haze 31 1011 66 10000 5.1 140 03:20 19.03.2020
942 Haze 30 1012 70 10000 2.6 150 01:27 19.03.2020
943 Haze 30 1012 70 10000 2.6 150 00:35 19.03.2020
944 Clouds 27 1012 88 10000 2.6 280 23:57 18.03.2020
945 Clouds 28 1012 74 0 6.36 130 23:31 18.03.2020
946 Clouds 25 1011 94 10000 2.1 330 22:58 18.03.2020
947 Clouds 25 1011 94 10000 2.1 330 22:40 18.03.2020
948 Clouds 23 1011 100 10000 2.1 330 22:21 18.03.2020
949 Clouds 23 1011 100 10000 2.1 330 21:43 18.03.2020
950 Clouds 23 1011 100 10000 2.1 330 21:43 18.03.2020
951 Clouds 23 1010 100 10000 2.6 310 21:22 18.03.2020
952 Clouds 23 1010 100 10000 2.6 310 20:59 18.03.2020
953 Clouds 23 1010 100 10000 2.6 310 20:41 18.03.2020
954 Clouds 27 1011 80 0 5.6 114 20:20 18.03.2020
955 Clouds 27 1011 80 0 5.6 114 19:58 18.03.2020
956 Clouds 27 1011 80 0 5.6 114 19:39 18.03.2020
957 Clouds 24 1010 100 10000 1.5 0 19:20 18.03.2020
958 Clouds 24 1010 100 10000 1.5 0 18:42 18.03.2020
959 Clouds 24 1011 100 10000 2.6 300 18:21 18.03.2020
960 Clouds 24 1011 100 10000 2.6 300 18:21 18.03.2020
961 Clouds 24 1011 100 10000 2.6 300 17:59 18.03.2020
962 Clouds 24 1011 100 10000 2.6 300 17:41 18.03.2020
963 Clouds 24 1011 100 10000 2.6 300 17:22 18.03.2020
964 Clouds 24 1011 100 10000 3.1 360 16:58 18.03.2020
965 Clouds 24 1011 100 10000 3.1 360 16:40 18.03.2020
966 Clouds 24 1011 100 10000 3.1 360 16:20 18.03.2020
967 Clouds 24 1011 100 10000 3.1 360 16:20 18.03.2020
968 Clouds 28 1012 79 0 6.04 125 15:45 18.03.2020
969 Clouds 28 1012 79 0 6.04 125 15:23 18.03.2020
970 Clouds 28 1012 79 0 6.04 125 14:56 18.03.2020
971 Clouds 28 1012 79 0 6.04 125 14:38 18.03.2020
972 Clouds 27 1012 83 10000 0.5 0 14:19 18.03.2020
973 Clouds 27 1012 83 10000 0.5 0 13:38 18.03.2020
974 Clouds 28 1012 78 10000 1.5 70 13:19 18.03.2020
975 Clouds 28 1012 78 10000 1.5 70 12:42 18.03.2020
976 Clouds 28 1012 83 10000 2.6 150 12:20 18.03.2020
977 Clouds 28 1012 83 10000 2.6 150 11:41 18.03.2020
978 Clouds 28 1011 83 10000 5.1 170 11:21 18.03.2020
979 Clouds 28 1011 83 10000 5.1 170 10:58 18.03.2020
980 Clouds 28 1011 83 10000 5.1 170 10:39 18.03.2020
981 Clouds 29 1010 79 10000 5.7 170 10:20 18.03.2020
982 Clouds 29 1010 79 10000 5.7 170 09:56 18.03.2020
983 Clouds 29 1010 79 10000 5.7 170 09:38 18.03.2020
984 Clouds 30 1009 74 10000 7.7 170 09:20 18.03.2020
985 Clouds 30 1009 74 10000 7.7 170 08:39 18.03.2020
986 Clouds 31 1009 66 10000 6.2 160 08:21 18.03.2020
987 Clouds 31 1009 66 10000 6.2 160 07:49 18.03.2020
988 Clear 28 1009 73 0 6.27 170 07:30 18.03.2020
989 Clear 28 1009 73 0 6.27 170 06:50 18.03.2020
990 Clouds 31 1009 62 10000 5.1 200 06:24 18.03.2020
991 Clouds 31 1009 62 10000 5.1 200 05:35 18.03.2020
992 Clouds 32 1012 66 10000 7.7 180 04:27 18.03.2020
993 Clouds 31 1012 62 10000 5.1 150 02:49 18.03.2020
994 Clouds 31 1013 66 10000 4.1 150 01:48 18.03.2020
995 Clouds 29 1013 74 10000 4.1 300 01:27 18.03.2020
996 Clouds 27 1013 83 10000 3.1 320 00:26 18.03.2020
997 Clouds 27 1013 83 10000 3.1 320 23:57 17.03.2020
998 Clouds 27 1013 83 10000 3.1 320 23:37 17.03.2020
999 Clouds 25 1013 94 10000 2.6 340 23:18 17.03.2020
1000 Clouds 25 1013 94 10000 2.6 340 22:41 17.03.2020
1001 Clouds 24 1012 100 10000 2.6 330 22:22 17.03.2020
1002 Clouds 24 1012 100 10000 2.6 330 21:42 17.03.2020
1003 Clouds 24 1012 100 10000 1.5 0 21:22 17.03.2020
1004 Clouds 24 1012 100 10000 1.5 0 20:41 17.03.2020
1005 Clouds 25 1012 100 10000 1.5 0 20:23 17.03.2020
1006 Clouds 25 1012 100 10000 1.5 0 19:59 17.03.2020
1007 Clouds 25 1012 100 10000 1.5 0 19:40 17.03.2020
1008 Clouds 25 1012 100 10000 1.5 0 19:18 17.03.2020
1009 Clouds 25 1012 100 10000 1.5 0 18:56 17.03.2020
1010 Clouds 25 1012 100 10000 1.5 0 18:37 17.03.2020
1011 Clouds 25 1012 100 10000 1.5 0 18:37 17.03.2020
1012 Clouds 24 1012 100 10000 1.5 0 18:19 17.03.2020
1013 Clouds 24 1012 100 10000 1.5 0 17:41 17.03.2020
1014 Clouds 24 1012 100 10000 1.5 0 17:41 17.03.2020
1015 Clouds 24 1013 100 10000 1.5 0 17:22 17.03.2020
1016 Clouds 24 1013 100 10000 1.5 0 16:55 17.03.2020
1017 Clouds 24 1013 100 10000 1.5 0 16:37 17.03.2020
1018 Rain 26 1013 82 0 2.53 7 16:18 17.03.2020
1019 Rain 26 1013 82 0 2.53 7 15:43 17.03.2020
1020 Clouds 25 1013 94 10000 1.5 0 15:21 17.03.2020
1021 Clouds 25 1013 94 10000 1.5 0 14:43 17.03.2020
1022 Clouds 25 1013 94 10000 1.5 0 14:43 17.03.2020
1023 Rain 26 1013 82 0 2.53 7 14:21 17.03.2020
1024 Rain 26 1014 84 0 4.31 357 13:45 17.03.2020
1025 Clouds 26 1013 88 10000 2.6 150 13:27 17.03.2020
1026 Clouds 26 1013 88 10000 2.6 150 12:58 17.03.2020
1027 Clouds 26 1013 88 10000 2.6 150 12:40 17.03.2020
1028 Rain 27 1014 82 0 4.11 1 12:22 17.03.2020
1029 Rain 27 1014 82 0 4.11 1 11:47 17.03.2020
1030 Rain 27 1014 82 0 4.11 1 11:28 17.03.2020
1031 Rain 28 1013 74 0 2.11 145 10:58 17.03.2020
1032 Rain 28 1013 76 0 2.53 91 10:38 17.03.2020
1033 Clouds 28 1011 83 10000 2.6 200 10:20 17.03.2020
1034 Clouds 28 1011 83 10000 2.6 200 09:57 17.03.2020
1035 Clouds 28 1011 83 10000 2.6 200 09:39 17.03.2020
1036 Clouds 29 1011 79 10000 2.6 230 09:18 17.03.2020
1037 Clouds 29 1011 79 10000 2.6 230 08:43 17.03.2020
1038 Clouds 30 1011 70 10000 2.6 200 08:21 17.03.2020
1039 Clouds 30 1011 70 10000 2.6 200 07:50 17.03.2020
1040 Clouds 31 1011 66 10000 2.6 300 07:25 17.03.2020
1041 Clouds 31 1011 66 10000 2.6 300 06:56 17.03.2020
1042 Clouds 31 1011 66 10000 2.6 300 06:33 17.03.2020
1043 Clouds 30 1011 70 10000 5.1 280 05:41 17.03.2020
1044 Clouds 29 1013 74 10000 5.7 350 03:36 17.03.2020
1045 Clouds 28 1011 73 0 3.41 151 02:45 17.03.2020
1046 Clouds 26 1014 94 10000 5.1 350 01:41 17.03.2020
1047 Clouds 26 1014 88 10000 5.1 330 01:19 17.03.2020
1048 Clouds 24 1014 100 10000 5.1 320 00:19 17.03.2020
1049 Clouds 24 1014 100 10000 5.1 320 23:44 16.03.2020
1050 Clouds 24 1013 100 10000 5.1 320 23:23 16.03.2020
1051 Clouds 24 1013 100 10000 5.1 320 22:40 16.03.2020
1052 Clouds 24 1012 94 10000 1.5 0 22:22 16.03.2020
1053 Clouds 24 1012 94 10000 1.5 0 21:55 16.03.2020
1054 Clouds 24 1012 94 10000 1.5 0 21:36 16.03.2020
1055 Rain 27 1013 77 0 5.55 117 21:18 16.03.2020
1056 Rain 27 1013 77 0 5.55 117 20:42 16.03.2020
1057 Rain 27 1013 75 0 3.83 102 20:24 16.03.2020
1058 Rain 27 1011 78 0 6.37 128 19:47 16.03.2020
1059 Rain 27 1011 78 0 6.37 128 19:47 16.03.2020
1060 Rain 27 1011 78 0 6.37 128 19:25 16.03.2020
1061 Rain 27 1011 78 0 6.37 128 19:00 16.03.2020
1062 Rain 27 1011 78 0 6.37 128 18:40 16.03.2020
1063 Rain 27 1011 78 0 6.37 128 18:20 16.03.2020
1064 Rain 27 1011 78 0 6.37 128 17:46 16.03.2020
1065 Rain 27 1011 78 0 6.37 128 17:26 16.03.2020
1066 Rain 27 1012 78 0 5.98 135 16:58 16.03.2020
1067 Rain 27 1012 78 0 5.98 135 16:40 16.03.2020
1068 Rain 27 1012 78 0 5.98 135 16:40 16.03.2020
1069 Rain 27 1012 78 0 5.98 135 16:21 16.03.2020
1070 Rain 27 1012 78 0 5.98 135 15:43 16.03.2020
1071 Rain 27 1012 78 0 5.98 135 15:24 16.03.2020
1072 Rain 27 1012 78 0 5.98 135 14:48 16.03.2020
1073 Rain 27 1012 78 0 5.98 135 14:23 16.03.2020
1074 Rain 28 1013 73 0 2.92 135 13:48 16.03.2020
1075 Rain 28 1013 73 0 2.92 135 13:28 16.03.2020
1076 Rain 28 1013 70 0 1.67 132 12:57 16.03.2020
1077 Rain 28 1013 70 0 1.67 132 12:38 16.03.2020
1078 Rain 28 1013 70 0 1.67 132 12:20 16.03.2020
1079 Rain 28 1013 70 0 1.67 132 11:43 16.03.2020
1080 Rain 28 1013 70 0 1.67 132 11:23 16.03.2020
1081 Rain 29 1011 71 0 2.46 205 10:44 16.03.2020
1082 Clouds 28 1010 83 10000 5.1 220 10:24 16.03.2020
1083 Clouds 28 1010 83 10000 5.1 220 09:49 16.03.2020
1084 Clouds 28 1010 83 10000 5.1 220 09:49 16.03.2020
1085 Clouds 29 1010 83 10000 7.7 200 09:30 16.03.2020
1086 Clouds 29 1010 83 10000 7.7 200 08:59 16.03.2020
1087 Clouds 29 1010 83 10000 7.7 200 08:39 16.03.2020
1088 Clouds 30 1009 74 10000 7.7 230 08:20 16.03.2020
1089 Clouds 30 1009 74 10000 7.7 230 07:41 16.03.2020
1090 Clouds 32 1009 62 10000 7.7 260 07:18 16.03.2020
1091 Clouds 32 1009 62 10000 7.7 260 06:28 16.03.2020
1092 Clouds 32 1009 62 10000 7.7 260 05:55 16.03.2020
1093 Clouds 31 1011 66 10000 5.1 300 03:54 16.03.2020
1094 Clouds 31 1012 70 10000 3.6 330 01:44 16.03.2020
1095 Clouds 28 1012 83 10000 2.1 330 00:44 16.03.2020
1096 Clouds 25 1012 94 10000 4.1 330 23:56 15.03.2020
1097 Clouds 25 1012 94 10000 4.1 330 23:37 15.03.2020
1098 Fog 23 1011 100 10000 3.1 320 23:18 15.03.2020
1099 Fog 23 1011 100 10000 3.1 320 22:41 15.03.2020
1100 Fog 23 1010 100 10000 2.1 340 22:20 15.03.2020
1101 Fog 23 1010 100 10000 2.1 340 21:39 15.03.2020
1102 Clouds 26 1011 76 0 2.62 18 21:21 15.03.2020
1103 Clouds 26 1011 76 0 2.62 18 20:55 15.03.2020
1104 Clouds 26 1011 76 0 2.62 18 20:36 15.03.2020
1105 Rain 26 1010 77 0 2.82 3 20:18 15.03.2020
1106 Rain 26 1010 77 0 2.82 3 19:42 15.03.2020
1107 Rain 26 1010 77 0 2.82 3 19:24 15.03.2020
1108 Rain 26 1010 77 0 2.82 3 18:59 15.03.2020
1109 Rain 26 1010 77 0 2.82 3 18:39 15.03.2020
1110 Rain 26 1010 77 0 2.82 3 18:21 15.03.2020
1111 Rain 26 1010 77 0 2.82 3 17:54 15.03.2020
1112 Rain 26 1010 77 0 2.82 3 17:36 15.03.2020
1113 Rain 27 1010 78 0 3.96 356 17:18 15.03.2020
1114 Rain 27 1010 78 0 3.96 356 16:42 15.03.2020
1115 Clouds 24 1011 100 10000 2.6 310 16:24 15.03.2020
1116 Clouds 24 1011 100 10000 2.6 310 15:57 15.03.2020
1117 Clouds 24 1011 100 10000 2.6 310 15:57 15.03.2020
1118 Clouds 24 1011 100 10000 2.6 310 15:38 15.03.2020
1119 Clouds 24 1011 100 10000 2.6 310 15:19 15.03.2020
1120 Rain 27 1010 78 0 3.96 356 14:46 15.03.2020
1121 Clouds 25 1011 94 10000 3.6 320 14:24 15.03.2020
1122 Clouds 25 1011 94 10000 3.6 320 13:57 15.03.2020
1123 Clouds 25 1011 94 10000 3.6 320 13:38 15.03.2020
1124 Rain 28 1012 77 0 3.87 344 13:19 15.03.2020
1125 Rain 28 1012 77 0 3.87 344 12:43 15.03.2020
1126 Clouds 25 1010 100 10000 2.6 360 12:25 15.03.2020
1127 Clouds 25 1010 100 10000 2.6 360 11:45 15.03.2020
1128 Clouds 25 1010 100 10000 2.6 360 11:26 15.03.2020
1129 Rain 28 1009 76 0 6.2 318 11:00 15.03.2020
1130 Rain 28 1009 76 0 6.2 318 10:41 15.03.2020
1131 Clouds 27 1009 88 10000 5.1 340 10:22 15.03.2020
1132 Clouds 27 1009 88 10000 5.1 340 10:22 15.03.2020
1133 Clouds 27 1009 88 10000 5.1 340 09:59 15.03.2020
1134 Clouds 27 1009 88 10000 5.1 340 09:59 15.03.2020
1135 Clouds 27 1009 88 10000 5.1 340 09:39 15.03.2020
1136 Clouds 27 1008 88 10000 5.1 350 09:20 15.03.2020
1137 Clouds 27 1008 88 10000 5.1 350 08:41 15.03.2020
1138 Clouds 28 1008 88 10000 5.1 360 08:19 15.03.2020
1139 Clouds 28 1008 88 10000 5.1 360 07:49 15.03.2020
1140 Rain 26 1009 94 0 5.1 330 07:22 15.03.2020
1141 Rain 26 1009 94 0 5.1 330 06:44 15.03.2020
1142 Rain 25 1009 100 0 5.1 340 05:48 15.03.2020
1143 Clouds 27 1009 83 10000 7.7 330 04:57 15.03.2020
1144 Clouds 27 1009 83 10000 7.7 330 04:38 15.03.2020
1145 Clouds 27 1010 83 10000 7.7 320 04:20 15.03.2020
1146 Clouds 28 1010 78 10000 5.1 320 03:19 15.03.2020
1147 Clouds 28 1010 78 10000 5.1 330 02:22 15.03.2020
1148 Rain 28 1009 71 0 4.9 316 00:58 15.03.2020
1149 Rain 28 1009 71 0 4.9 316 00:40 15.03.2020
1150 Clouds 25 1010 94 10000 5.1 350 00:19 15.03.2020
1151 Clouds 25 1010 94 10000 5.1 350 23:39 14.03.2020
1152 Clouds 24 1009 100 10000 5.1 340 23:20 14.03.2020
1153 Clouds 24 1009 100 10000 5.1 340 22:55 14.03.2020
1154 Clouds 24 1009 100 10000 5.1 340 22:37 14.03.2020
1155 Clouds 24 1007 100 10000 5.1 340 22:19 14.03.2020
1156 Clouds 24 1007 100 10000 5.1 340 21:55 14.03.2020
1157 Clouds 24 1007 100 10000 5.1 340 21:55 14.03.2020
1158 Clouds 24 1007 100 10000 5.1 340 21:55 14.03.2020
1159 Clouds 24 1007 100 10000 5.1 340 21:36 14.03.2020
1160 Clouds 24 1007 100 10000 2.1 340 21:18 14.03.2020
1161 Clouds 24 1007 100 10000 2.1 340 20:55 14.03.2020
1162 Clouds 24 1007 100 10000 2.1 340 20:37 14.03.2020
1163 Clouds 24 1007 100 10000 2.6 340 20:18 14.03.2020
1164 Clouds 24 1007 100 10000 2.6 340 19:40 14.03.2020
1165 Clouds 24 1007 100 10000 1.5 340 19:20 14.03.2020
1166 Clouds 24 1007 100 10000 1.5 340 18:40 14.03.2020
1167 Clouds 24 1007 100 10000 1.5 340 18:40 14.03.2020
1168 Clouds 24 1007 100 10000 1.5 340 18:20 14.03.2020
1169 Clouds 24 1007 100 10000 1.5 340 17:42 14.03.2020
1170 Clear 24 1008 100 10000 1 0 17:23 14.03.2020
1171 Clear 24 1008 100 10000 1 0 17:23 14.03.2020
1172 Clear 24 1008 100 10000 1 0 16:58 14.03.2020
1173 Clear 24 1008 100 10000 1 0 16:38 14.03.2020
1174 Clouds 24 1008 100 10000 1.5 0 16:19 14.03.2020
1175 Clouds 24 1008 100 10000 1.5 0 15:44 14.03.2020
1176 Clouds 25 1008 100 10000 1.5 0 15:22 14.03.2020
1177 Clouds 25 1008 100 10000 1.5 0 14:40 14.03.2020
1178 Clouds 25 1008 100 10000 1.5 0 14:21 14.03.2020
1179 Clouds 25 1008 100 10000 1.5 0 13:57 14.03.2020
1180 Clouds 25 1008 100 10000 1.5 0 13:38 14.03.2020
1181 Clouds 25 1008 100 10000 1.5 0 13:19 14.03.2020
1182 Clouds 25 1008 100 10000 1.5 0 12:44 14.03.2020
1183 Clouds 26 1007 94 10000 2.6 340 12:25 14.03.2020
1184 Clouds 26 1007 94 10000 2.6 340 11:45 14.03.2020
1185 Clouds 26 1007 94 10000 2.6 320 11:25 14.03.2020
1186 Clouds 26 1007 94 10000 2.6 320 10:54 14.03.2020
1187 Clouds 26 1007 94 10000 2.6 320 10:54 14.03.2020
1188 Clouds 26 1007 94 10000 2.6 320 10:36 14.03.2020
1189 Clouds 28 1006 78 10000 5.7 320 10:18 14.03.2020
1190 Clouds 28 1006 78 10000 5.7 320 09:41 14.03.2020
1191 Clouds 30 1006 74 10000 7.7 310 09:22 14.03.2020
1192 Clouds 30 1006 74 10000 7.7 310 08:47 14.03.2020
1193 Clouds 30 1006 70 10000 7.7 290 08:27 14.03.2020
1194 Clouds 30 1006 70 10000 7.7 290 07:45 14.03.2020
1195 Clouds 29 1006 74 10000 5.1 330 07:22 14.03.2020
1196 Clouds 29 1006 74 10000 5.1 330 06:55 14.03.2020
1197 Clouds 29 1006 74 10000 5.1 330 06:36 14.03.2020
1198 Rain 29 1006 79 10000 7.7 320 04:56 14.03.2020
1199 Clouds 32 1007 66 10000 5.1 330 03:37 14.03.2020
1200 Clouds 31 1008 70 10000 5.1 330 02:53 14.03.2020
1201 Clouds 29 1008 79 10000 7.7 340 01:47 14.03.2020
1202 Clouds 27 1008 83 10000 7.7 340 00:34 14.03.2020
1203 Clear 25 1008 94 10000 1.5 340 23:42 13.03.2020
1204 Clouds 23 1008 100 10000 2.1 340 23:23 13.03.2020
1205 Clouds 23 1008 100 10000 2.1 340 22:45 13.03.2020
1206 Clouds 23 1007 94 10000 5.1 350 22:22 13.03.2020
1207 Clouds 23 1007 94 10000 5.1 350 21:41 13.03.2020
1208 Clouds 23 1008 100 10000 5.1 350 21:19 13.03.2020
1209 Clouds 23 1008 100 10000 5.1 350 20:43 13.03.2020
1210 Clouds 24 1008 94 10000 5.1 340 20:23 13.03.2020
1211 Clouds 24 1008 94 10000 5.1 340 19:59 13.03.2020
1212 Clouds 24 1008 94 10000 5.1 340 19:40 13.03.2020
1213 Clouds 24 1007 100 10000 3.6 330 19:22 13.03.2020
1214 Clouds 24 1007 100 10000 3.6 330 18:44 13.03.2020
1215 Clouds 25 1007 88 10000 4.1 340 18:23 13.03.2020
1216 Clouds 25 1007 88 10000 4.1 340 17:43 13.03.2020
1217 Clouds 25 1008 94 10000 5.1 350 17:21 13.03.2020
1218 Clouds 25 1008 94 10000 5.1 350 16:57 13.03.2020
1219 Clouds 25 1008 94 10000 5.1 350 16:38 13.03.2020
1220 Clouds 25 1009 94 10000 3.1 350 16:20 13.03.2020
1221 Clouds 25 1009 94 10000 3.1 350 15:45 13.03.2020
1222 Rain 28 1008 73 0 8.43 328 15:22 13.03.2020
1223 Rain 28 1008 73 0 8.43 328 14:59 13.03.2020
1224 Rain 28 1008 73 0 8.43 328 14:40 13.03.2020
1225 Rain 28 1008 73 0 8.43 328 14:21 13.03.2020
1226 Clouds 29 1010 71 0 9.41 314 13:42 13.03.2020
1227 Clouds 29 1009 71 0 8.91 311 13:24 13.03.2020
1228 Clouds 29 1009 71 0 8.91 311 12:59 13.03.2020
1229 Clouds 29 1009 71 0 8.91 311 12:38 13.03.2020
1230 Clouds 29 1009 71 0 8.91 311 12:19 13.03.2020
1231 Clouds 29 1009 71 0 8.91 311 11:55 13.03.2020
1232 Clouds 29 1009 71 0 8.91 311 11:36 13.03.2020
1233 Clouds 29 1007 70 0 9.29 319 11:18 13.03.2020
1234 Clouds 29 1007 70 0 9.29 319 10:46 13.03.2020
1235 Clouds 27 1007 83 10000 3.6 350 10:25 13.03.2020
1236 Clouds 27 1007 83 10000 3.6 350 09:48 13.03.2020
1237 Clouds 28 1007 83 10000 4.1 340 09:28 13.03.2020
1238 Clouds 28 1007 83 10000 4.1 340 08:57 13.03.2020
1239 Clouds 28 1007 83 10000 4.1 340 08:38 13.03.2020
1240 Clouds 28 1007 83 10000 2.1 10 08:19 13.03.2020
1241 Clouds 28 1007 83 10000 2.1 10 07:44 13.03.2020
1242 Rain 27 1008 88 10000 3.1 40 07:23 13.03.2020
1243 Rain 27 1008 88 10000 3.1 40 06:46 13.03.2020
1244 Rain 26 1008 94 10000 4.6 270 06:21 13.03.2020
1245 Rain 26 1008 94 10000 4.6 270 05:44 13.03.2020
1246 Rain 27 1009 83 10000 6.7 320 04:39 13.03.2020
1247 Clouds 29 1010 83 10000 3.1 340 03:51 13.03.2020
1248 Clouds 26 1011 88 10000 6.2 340 02:29 13.03.2020
1249 Clouds 25 1012 94 10000 5.1 360 01:20 13.03.2020
1250 Clouds 25 1012 94 10000 5.1 360 00:59 13.03.2020
1251 Clouds 25 1012 94 10000 5.1 360 00:39 13.03.2020
1252 Rain 24 1011 94 10000 5.1 330 00:18 13.03.2020
1253 Rain 24 1011 94 10000 5.1 330 23:37 12.03.2020
1254 Rain 23 1011 100 10000 5.1 350 23:18 12.03.2020
1255 Rain 23 1011 100 10000 5.1 350 22:44 12.03.2020
1256 Rain 23 1011 100 10000 5.1 350 22:25 12.03.2020
1257 Rain 22 1010 100 10000 5.1 320 21:55 12.03.2020
1258 Rain 22 1010 100 10000 5.1 320 21:36 12.03.2020
1259 Clouds 23 1009 94 10000 7.7 340 21:18 12.03.2020
1260 Clouds 23 1009 94 10000 7.7 340 20:42 12.03.2020
1261 Clouds 23 1009 94 10000 7.7 340 20:20 12.03.2020
1262 Rain 29 1008 73 0 11.23 332 19:42 12.03.2020
1263 Rain 29 1008 73 0 11.23 332 19:21 12.03.2020
1264 Rain 29 1008 73 0 11.23 332 18:45 12.03.2020
1265 Rain 29 1008 73 0 11.23 332 18:25 12.03.2020
1266 Rain 29 1008 73 0 11.23 332 17:58 12.03.2020
1267 Rain 29 1008 73 0 11.23 332 17:39 12.03.2020
1268 Clouds 28 1008 74 10000 6.2 340 17:21 12.03.2020
1269 Clouds 28 1008 74 10000 6.2 340 17:21 12.03.2020
1270 Clouds 28 1008 74 10000 6.2 340 16:58 12.03.2020
1271 Clouds 28 1008 74 10000 6.2 340 16:38 12.03.2020
1272 Clouds 26 1009 88 10000 5.1 340 16:19 12.03.2020
1273 Clouds 26 1009 88 10000 5.1 340 15:45 12.03.2020
1274 Rain 29 1009 71 0 11.64 318 15:27 12.03.2020
1275 Rain 29 1009 71 0 11.64 318 14:43 12.03.2020
1276 Clouds 26 1009 88 10000 5.1 330 14:24 12.03.2020
1277 Clouds 26 1009 88 10000 5.1 330 13:57 12.03.2020
1278 Clouds 26 1009 88 10000 5.1 330 13:37 12.03.2020
1279 Clouds 27 1009 83 10000 5.1 340 13:19 12.03.2020
1280 Clouds 27 1009 83 10000 5.1 340 12:41 12.03.2020
1281 Clouds 28 1009 78 10000 5.1 340 12:22 12.03.2020
1282 Clouds 28 1009 78 10000 5.1 340 11:57 12.03.2020
1283 Clouds 28 1009 78 10000 5.1 340 11:39 12.03.2020
1284 Clouds 28 1008 78 10000 5.1 340 11:20 12.03.2020
1285 Clouds 28 1008 78 10000 5.1 340 10:59 12.03.2020
1286 Clouds 28 1008 78 10000 5.1 340 10:40 12.03.2020
1287 Clouds 28 1008 78 10000 5.1 340 10:22 12.03.2020
1288 Clouds 28 1008 78 10000 5.1 340 09:47 12.03.2020
1289 Clouds 30 1008 70 10000 5.1 320 09:28 12.03.2020
1290 Clouds 30 1008 70 10000 5.1 320 08:46 12.03.2020
1291 Clouds 32 1008 66 10000 7.7 340 08:21 12.03.2020
1292 Clouds 32 1008 66 10000 7.7 340 07:59 12.03.2020
1293 Clouds 32 1008 66 10000 7.7 340 07:41 12.03.2020
1294 Clouds 32 1008 66 10000 7.7 320 07:21 12.03.2020
1295 Clouds 32 1008 66 10000 7.7 320 07:21 12.03.2020
1296 Clouds 32 1008 62 10000 7.7 330 05:55 12.03.2020
1297 Clouds 31 1008 62 10000 7.7 350 05:26 12.03.2020
1298 Clouds 30 1010 74 10000 7.7 340 02:43 12.03.2020
1299 Clouds 28 1011 78 10000 5.1 340 01:36 12.03.2020
1300 Clouds 28 1012 78 10000 5.1 340 01:18 12.03.2020
1301 Clouds 28 1012 78 10000 5.1 340 00:40 12.03.2020
1302 Clouds 26 1010 88 10000 7.7 320 23:51 11.03.2020
1303 Clouds 25 1009 88 10000 5.1 340 23:26 11.03.2020
1304 Clouds 25 1009 88 10000 5.1 340 22:55 11.03.2020
1305 Clouds 25 1009 88 10000 5.1 340 22:37 11.03.2020
1306 Clouds 26 1008 83 10000 5.1 350 22:18 11.03.2020
1307 Clouds 26 1008 83 10000 5.1 350 21:41 11.03.2020
1308 Clouds 25 1008 88 10000 7.7 330 21:23 11.03.2020
1309 Clouds 25 1008 88 10000 7.7 330 20:58 11.03.2020
1310 Clouds 25 1008 88 10000 7.7 330 20:39 11.03.2020
1311 Clouds 25 1008 88 10000 7.7 330 20:20 11.03.2020
1312 Clouds 25 1008 94 10000 10.3 330 19:44 11.03.2020
1313 Clouds 25 1008 94 10000 10.3 330 19:26 11.03.2020
1314 Clouds 25 1009 94 10000 10.3 320 18:59 11.03.2020
1315 Clouds 25 1009 94 10000 10.3 320 18:40 11.03.2020
1316 Rain 28 1008 82 0 8.81 338 18:22 11.03.2020
1317 Rain 28 1008 82 0 8.81 338 17:58 11.03.2020
1318 Rain 28 1008 82 0 8.81 338 17:58 11.03.2020
1319 Rain 28 1008 82 0 8.81 338 17:39 11.03.2020
1320 Clouds 25 1009 94 10000 7.7 350 17:20 11.03.2020
1321 Clouds 25 1009 94 10000 7.7 350 16:46 11.03.2020
1322 Clouds 25 1009 94 10000 7.7 350 16:23 11.03.2020
1323 Clouds 26 1009 94 10000 5.1 350 15:57 11.03.2020
1324 Clouds 26 1009 94 10000 5.1 350 15:39 11.03.2020
1325 Clouds 26 1009 94 10000 3.1 350 15:21 11.03.2020
1326 Clouds 26 1009 94 10000 3.1 350 14:42 11.03.2020
1327 Clouds 27 1009 94 10000 3.1 350 14:22 11.03.2020
1328 Clouds 27 1009 94 10000 3.1 350 13:45 11.03.2020
1329 Clouds 27 1009 94 10000 3.1 340 13:27 11.03.2020
1330 Clouds 27 1009 94 10000 3.1 340 12:58 11.03.2020
1331 Clouds 27 1009 94 10000 3.1 340 12:40 11.03.2020
1332 Clouds 27 1009 94 10000 5.1 320 12:20 11.03.2020
1333 Clouds 27 1009 94 10000 5.1 320 11:55 11.03.2020
1334 Clouds 27 1009 94 10000 5.1 320 11:36 11.03.2020
1335 Clouds 28 1008 88 10000 5.1 340 11:18 11.03.2020
1336 Clouds 28 1008 88 10000 5.1 340 10:42 11.03.2020
1337 Clouds 29 1008 83 10000 5.1 340 10:18 11.03.2020
1338 Clouds 29 1008 83 10000 5.1 340 09:43 11.03.2020
1339 Clouds 29 1008 71 0 4.12 337 09:25 11.03.2020
1340 Clouds 29 1008 71 0 4.12 337 08:49 11.03.2020
1341 Clouds 29 1008 71 0 4.12 337 08:31 11.03.2020
1342 Clouds 29 1007 83 10000 5.1 360 07:59 11.03.2020
1343 Clouds 29 1007 83 10000 5.1 360 07:38 11.03.2020
1344 Clouds 28 1007 88 10000 4.1 340 07:18 11.03.2020
1345 Clouds 28 1007 88 10000 4.1 340 06:37 11.03.2020
1346 Rain 27 1007 94 0 2.6 340 05:35 11.03.2020
1347 Clouds 26 1009 100 10000 3.6 350 04:18 11.03.2020
1348 Clouds 28 1010 83 0 15.4 300 02:19 11.03.2020
1349 Haze 32 1009 70 10000 5.1 320 01:27 11.03.2020
1350 Haze 32 1009 70 10000 5.1 320 00:46 11.03.2020
1351 Haze 29 1009 79 10000 4.1 320 23:58 10.03.2020
1352 Haze 29 1009 79 10000 4.1 320 23:39 10.03.2020
1353 Haze 27 1008 88 10000 4.1 310 23:20 10.03.2020
1354 Haze 27 1008 88 10000 4.1 310 22:38 10.03.2020
1355 Clouds 25 1007 100 10000 2.6 320 22:20 10.03.2020
1356 Clouds 25 1007 100 10000 2.6 320 21:57 10.03.2020
1357 Clouds 25 1007 100 10000 2.6 320 21:38 10.03.2020
1358 Clouds 25 1007 100 10000 2.6 320 21:38 10.03.2020
1359 Clouds 25 1007 100 10000 2.6 340 21:20 10.03.2020
1360 Clouds 25 1007 100 10000 2.6 340 20:58 10.03.2020
1361 Clouds 25 1007 100 10000 2.6 340 20:40 10.03.2020
1362 Rain 28 1007 76 0 3.58 19 20:18 10.03.2020
1363 Rain 28 1007 76 0 3.58 19 19:56 10.03.2020
1364 Rain 28 1007 76 0 3.58 19 19:36 10.03.2020
1365 Rain 28 1007 76 0 3.58 19 19:18 10.03.2020
1366 Rain 28 1007 76 0 3.58 19 18:44 10.03.2020
1367 Rain 28 1007 76 0 3.58 19 18:25 10.03.2020
1368 Rain 28 1007 76 0 3.58 19 17:57 10.03.2020
1369 Rain 28 1007 76 0 3.58 19 17:38 10.03.2020
1370 Clouds 28 1008 73 0 1.32 352 17:20 10.03.2020
1371 Clouds 28 1008 73 0 1.32 352 16:38 10.03.2020
1372 Clouds 26 1008 94 10000 2.1 300 16:18 10.03.2020
1373 Clouds 26 1008 94 10000 2.1 300 15:55 10.03.2020
1374 Clouds 26 1008 94 10000 2.1 300 15:37 10.03.2020
1375 Clouds 28 1008 73 0 1.32 352 15:18 10.03.2020
1376 Clouds 28 1008 73 0 1.32 352 14:40 10.03.2020
1377 Clouds 29 1010 73 0 2.25 352 14:19 10.03.2020
1378 Clouds 29 1010 73 0 2.25 352 13:54 10.03.2020
1379 Clouds 29 1010 73 0 2.25 352 13:36 10.03.2020
1380 Clouds 29 1010 72 0 1.49 334 13:18 10.03.2020
1381 Clouds 29 1010 72 0 1.49 334 12:39 10.03.2020
1382 Clouds 29 1010 72 0 1.49 334 12:19 10.03.2020
1383 Clouds 29 1010 72 0 1.49 334 11:43 10.03.2020
1384 Clouds 29 1010 72 0 1.49 334 11:25 10.03.2020
1385 -273 0 0 0 0 0 10:59 10.03.2020
1386 Clouds 29 1007 74 0 2.99 274 10:41 10.03.2020
1387 Clouds 30 1007 74 10000 5.1 300 10:22 10.03.2020
1388 Clouds 30 1007 74 10000 5.1 300 09:56 10.03.2020
1389 Clouds 30 1007 74 10000 5.1 300 09:37 10.03.2020
1390 Clouds 31 1006 70 10000 5.1 280 09:18 10.03.2020
1391 Clouds 31 1006 70 10000 5.1 280 09:18 10.03.2020
1392 Clouds 31 1006 70 10000 5.1 280 08:45 10.03.2020
1393 Clouds 32 1006 62 10000 5.1 300 08:26 10.03.2020
1394 Clouds 32 1006 62 10000 5.1 300 07:46 10.03.2020
1395 Clouds 33 1006 59 10000 7.7 290 07:28 10.03.2020
1396 Clouds 33 1006 59 10000 7.7 290 06:42 10.03.2020
1397 Clouds 34 1007 59 10000 7.7 300 06:23 10.03.2020
1398 Clouds 34 1007 59 10000 7.7 300 05:38 10.03.2020
1399 Clouds 34 1007 56 10000 10.3 320 04:35 10.03.2020
1400 Rain 30 1007 74 0 6.62 296 03:34 10.03.2020
1401 Clouds 31 1010 70 10000 5.1 330 01:55 10.03.2020
1402 Clouds 29 1009 74 10000 5.1 330 00:53 10.03.2020
1403 Clouds 25 1009 94 10000 2.6 300 00:30 10.03.2020
1404 Clouds 25 1009 94 10000 2.6 300 23:56 09.03.2020
1405 Clouds 25 1009 94 10000 2.6 300 23:37 09.03.2020
1406 Clouds 24 1008 100 10000 5.1 330 23:19 09.03.2020
1407 Clouds 24 1008 100 10000 5.1 330 22:40 09.03.2020
1408 Clouds 24 1008 100 10000 2.6 320 22:21 09.03.2020
1409 Clouds 24 1008 100 10000 2.6 320 21:56 09.03.2020
1410 Clouds 24 1008 100 10000 2.6 320 21:56 09.03.2020
1411 Clouds 24 1008 100 10000 2.6 320 21:38 09.03.2020
1412 Clouds 27 1008 76 0 4.01 342 21:20 09.03.2020
1413 Clouds 27 1008 76 0 4.01 342 20:41 09.03.2020
1414 Clouds 27 1008 76 0 4.01 342 20:41 09.03.2020
1415 Clouds 27 1008 76 0 4.01 342 20:23 09.03.2020
1416 Clouds 27 1008 77 0 4.74 348 19:59 09.03.2020
1417 Clouds 27 1008 77 0 4.74 348 19:41 09.03.2020
1418 Clouds 27 1008 77 0 4.74 348 19:20 09.03.2020
1419 Clouds 27 1008 77 0 4.74 348 18:57 09.03.2020
1420 Clouds 27 1008 77 0 4.74 348 18:38 09.03.2020
1421 Clouds 27 1008 77 0 4.74 348 18:18 09.03.2020
1422 Clouds 27 1008 77 0 4.74 348 17:55 09.03.2020
1423 Clouds 27 1008 77 0 4.74 348 17:37 09.03.2020
1424 Rain 28 1008 76 0 4.34 340 17:19 09.03.2020
1425 Rain 28 1008 76 0 4.34 340 16:56 09.03.2020
1426 Rain 28 1008 76 0 4.34 340 16:37 09.03.2020
1427 Rain 28 1008 76 0 4.34 340 16:19 09.03.2020
1428 Rain 28 1008 76 0 4.34 340 15:55 09.03.2020
1429 Rain 28 1008 76 0 4.34 340 15:37 09.03.2020
1430 Clouds 26 1010 94 10000 2.6 330 15:18 09.03.2020
1431 Clouds 26 1010 94 10000 2.6 330 14:39 09.03.2020
1432 Clouds 26 1010 94 10000 2.6 330 14:20 09.03.2020
1433 Clouds 26 1010 94 10000 2.6 350 13:58 09.03.2020
1434 Clouds 26 1010 94 10000 2.6 350 13:39 09.03.2020
1435 Rain 28 1011 77 0 7.41 333 13:20 09.03.2020
1436 Rain 28 1011 77 0 7.41 333 12:58 09.03.2020
1437 Rain 28 1011 77 0 7.41 333 12:39 09.03.2020
1438 Rain 28 1011 77 0 7.41 333 12:18 09.03.2020
1439 Rain 28 1011 77 0 7.41 333 11:40 09.03.2020
1440 Clouds 28 1009 83 10000 5.1 340 11:20 09.03.2020
1441 Clouds 28 1009 83 10000 5.1 340 10:55 09.03.2020
1442 Clouds 28 1009 83 10000 5.1 340 10:37 09.03.2020
1443 Clouds 28 1009 83 10000 5.1 340 10:18 09.03.2020
1444 Clouds 29 1008 79 10000 5.1 340 09:42 09.03.2020
1445 Clouds 29 1007 79 10000 7.7 310 09:24 09.03.2020
1446 Clouds 29 1007 79 10000 7.7 310 09:24 09.03.2020
1447 Clouds 29 1007 79 10000 7.7 310 08:45 09.03.2020
1448 Rain 28 1008 78 0 8.39 318 08:27 09.03.2020
1449 Rain 28 1007 83 0 11.73 312 07:45 09.03.2020
1450 Rain 28 1007 83 0 11.73 312 07:45 09.03.2020
1451 Clouds 28 1007 83 10000 10.3 290 07:23 09.03.2020
1452 Clouds 28 1007 83 10000 10.3 290 06:59 09.03.2020
1453 Clouds 28 1007 83 10000 10.3 290 06:39 09.03.2020
1454 Clouds 32 1007 66 10000 10.3 320 06:21 09.03.2020
1455 Clouds 32 1007 66 10000 10.3 320 05:41 09.03.2020
1456 Clouds 31 1008 74 10000 10.3 330 04:56 09.03.2020
1457 Clouds 31 1008 74 10000 10.3 330 04:37 09.03.2020
1458 Clouds 31 1008 74 10000 10.3 330 04:37 09.03.2020
1459 Clouds 30 1009 74 10000 12.9 330 04:18 09.03.2020
1460 Clouds 30 1009 74 10000 12.9 320 02:50 09.03.2020
1461 Clouds 27 1010 94 10000 5.1 340 00:42 09.03.2020
1462 Clouds 26 1010 94 10000 4.1 340 00:24 09.03.2020
1463 Clouds 26 1010 94 10000 4.1 340 23:55 08.03.2020
1464 Clouds 25 1009 100 10000 4.1 340 23:29 08.03.2020
1465 Clouds 25 1009 100 10000 4.1 340 22:59 08.03.2020
1466 Clouds 25 1009 100 10000 4.1 340 22:40 08.03.2020
1467 Clouds 24 1008 100 10000 4.1 340 22:21 08.03.2020
1468 Clouds 24 1008 100 10000 4.1 340 21:57 08.03.2020
1469 Clouds 24 1008 100 10000 4.1 340 21:57 08.03.2020
1470 Clouds 24 1008 100 10000 4.1 340 21:39 08.03.2020
1471 Clouds 24 1007 100 10000 3.1 320 21:19 08.03.2020
1472 Clouds 24 1007 100 10000 3.1 320 21:19 08.03.2020
1473 Clouds 24 1007 100 10000 3.1 320 20:56 08.03.2020
1474 Clouds 24 1007 100 10000 3.1 320 20:37 08.03.2020
1475 Clouds 25 1007 94 10000 3.1 330 20:18 08.03.2020
1476 Clouds 25 1007 94 10000 3.1 330 19:37 08.03.2020
1477 Clouds 25 1007 94 10000 3.1 350 19:19 08.03.2020
1478 Clouds 25 1007 94 10000 3.1 350 18:42 08.03.2020
1479 Clouds 25 1008 100 10000 3.1 330 18:24 08.03.2020
1480 Clouds 25 1008 100 10000 3.1 330 18:24 08.03.2020
1481 Clouds 25 1008 100 10000 3.1 330 17:57 08.03.2020
1482 Clouds 25 1008 100 10000 3.1 330 17:38 08.03.2020
1483 Rain 25 1008 100 10000 3.1 310 17:19 08.03.2020
1484 Rain 25 1008 100 10000 3.1 310 16:46 08.03.2020
1485 Rain 25 1009 100 10000 3.1 340 16:28 08.03.2020
1486 Rain 25 1009 100 10000 3.1 340 15:58 08.03.2020
1487 Rain 25 1009 100 10000 3.1 340 15:39 08.03.2020
1488 Rain 25 1009 100 10000 4.1 320 15:20 08.03.2020
1489 Rain 25 1009 100 10000 4.1 320 14:41 08.03.2020
1490 Rain 25 1010 100 10000 4.1 340 14:21 08.03.2020
1491 Rain 25 1010 100 10000 4.1 340 13:58 08.03.2020
1492 Rain 25 1010 100 10000 4.1 340 13:39 08.03.2020
1493 Clouds 25 1009 100 10000 4.1 360 13:19 08.03.2020
1494 Clouds 25 1009 100 10000 4.1 360 12:41 08.03.2020
1495 Clouds 26 1009 94 10000 5.1 20 12:22 08.03.2020
1496 Clouds 26 1009 94 10000 5.1 20 11:55 08.03.2020
1497 Clouds 26 1009 94 10000 5.1 20 11:37 08.03.2020
1498 Rain 26 1008 100 10000 5.1 360 11:19 08.03.2020
1499 Rain 26 1008 100 10000 5.1 360 10:41 08.03.2020
1500 Clouds 27 1007 94 10000 3.1 20 10:23 08.03.2020
1501 Clouds 27 1007 94 10000 3.1 20 09:43 08.03.2020
1502 Clouds 27 1006 94 10000 3.6 20 09:24 08.03.2020
1503 Clouds 27 1006 94 10000 3.6 20 08:51 08.03.2020
1504 Rain 29 1006 73 0 2.73 296 08:28 08.03.2020
1505 Rain 30 1005 73 0 5.68 267 07:56 08.03.2020
1506 Rain 30 1005 73 0 5.68 267 07:37 08.03.2020
1507 Clouds 28 1006 88 10000 5.1 310 07:18 08.03.2020
1508 Clouds 28 1006 88 10000 5.1 310 06:40 08.03.2020
1509 Clouds 29 1006 83 10000 7.7 300 06:22 08.03.2020
1510 Clouds 32 1006 70 10000 7.7 280 05:19 08.03.2020
1511 Clouds 33 1008 66 10000 5.1 360 03:51 08.03.2020
1512 Clouds 30 1010 70 10000 3.6 330 02:28 08.03.2020
1513 Clouds 29 1009 79 10000 2.6 330 01:23 08.03.2020
1514 Clouds 29 1009 79 10000 2.6 330 00:44 08.03.2020
1515 Rain 29 1009 73 0 4.61 324 00:25 08.03.2020
1516 Rain 29 1009 73 0 4.61 324 23:44 07.03.2020
1517 Clouds 24 1008 100 10000 2.6 320 23:23 07.03.2020
1518 Clouds 24 1008 100 10000 2.6 320 22:40 07.03.2020
1519 Clouds 23 1007 100 10000 2.6 310 22:21 07.03.2020
1520 Clouds 23 1007 100 10000 2.6 310 21:48 07.03.2020
1521 Clouds 23 1007 100 10000 2.6 340 21:25 07.03.2020
1522 Clouds 23 1007 100 10000 2.6 340 20:42 07.03.2020
1523 Clouds 24 1006 100 10000 3.1 340 20:23 07.03.2020
1524 Clouds 24 1006 100 10000 3.1 340 19:58 07.03.2020
1525 Clouds 24 1006 100 10000 3.1 340 19:40 07.03.2020
1526 Clouds 24 1007 100 10000 4.1 360 19:20 07.03.2020
1527 Clouds 24 1007 100 10000 4.1 360 18:41 07.03.2020
1528 Clouds 24 1007 100 10000 2.6 340 18:22 07.03.2020
1529 Clouds 24 1007 100 10000 2.6 340 17:54 07.03.2020
1530 Clouds 24 1007 100 10000 2.6 340 17:36 07.03.2020
1531 Clouds 25 1007 100 10000 3.1 340 17:18 07.03.2020
1532 Clouds 25 1007 100 10000 3.1 340 16:42 07.03.2020
1533 Clouds 25 1008 100 10000 3.1 340 16:23 07.03.2020
1534 Clouds 25 1008 100 10000 3.1 340 15:57 07.03.2020
1535 Clouds 25 1008 100 10000 3.1 340 15:39 07.03.2020
1536 Rain 28 1007 80 0 3.61 354 15:20 07.03.2020
1537 Rain 28 1007 80 0 3.61 354 14:46 07.03.2020
1538 Rain 28 1007 80 0 3.61 354 14:26 07.03.2020
1539 Rain 29 1010 74 0 3.42 332 13:59 07.03.2020
1540 Rain 29 1010 74 0 3.42 332 13:39 07.03.2020
1541 Rain 29 1010 74 0 3.42 332 13:19 07.03.2020
1542 Rain 29 1009 73 0 2.4 335 12:42 07.03.2020
1543 Rain 29 1009 73 0 2.4 335 12:20 07.03.2020
1544 Rain 29 1009 73 0 2.4 335 11:57 07.03.2020
1545 Rain 29 1009 73 0 2.4 335 11:39 07.03.2020
1546 Rain 29 1008 71 0 2.03 298 11:21 07.03.2020
1547 Rain 29 1008 71 0 2.03 298 10:41 07.03.2020
1548 Rain 26 1008 100 0 5.1 360 10:21 07.03.2020
1549 Rain 26 1008 100 0 5.1 360 09:57 07.03.2020
1550 Rain 26 1008 100 0 5.1 360 09:38 07.03.2020
1551 Clouds 28 1007 88 10000 5.1 30 09:18 07.03.2020
1552 Clouds 28 1007 88 10000 5.1 30 09:18 07.03.2020
1553 Clouds 28 1007 88 10000 5.1 30 08:44 07.03.2020
1554 Rain 29 1008 71 0 1.57 284 08:21 07.03.2020
1555 Rain 30 1006 72 0 4.99 253 07:51 07.03.2020
1556 Clouds 29 1007 83 10000 6.2 290 07:23 07.03.2020
1557 Clouds 29 1007 83 10000 6.2 290 06:56 07.03.2020
1558 Clouds 27 1008 94 10000 5.1 340 06:29 07.03.2020
1559 Clouds 27 1008 94 10000 5.1 340 05:52 07.03.2020
1560 Clouds 30 1008 71 0 4.69 274 04:42 07.03.2020
1561 Clouds 31 1010 74 10000 5.1 330 02:47 07.03.2020
1562 Clouds 30 1010 79 10000 5.1 330 02:24 07.03.2020
1563 Clouds 29 1010 83 10000 4.1 330 01:26 07.03.2020
1564 Clouds 29 1010 83 10000 4.1 330 00:38 07.03.2020
1565 Clouds 27 1010 94 10000 2.6 320 00:19 07.03.2020
1566 Clouds 27 1010 94 10000 2.6 320 23:43 06.03.2020
1567 Clouds 25 1009 100 10000 3.6 340 23:25 06.03.2020
1568 Clouds 25 1009 100 10000 3.6 340 22:48 06.03.2020
1569 Rain 27 1010 79 0 3.47 2 22:21 06.03.2020
1570 Rain 27 1010 79 0 3.47 2 21:54 06.03.2020
1571 Rain 27 1010 79 0 3.47 2 21:36 06.03.2020
1572 Rain 27 1010 79 0 3.47 2 21:18 06.03.2020
1573 Rain 27 1010 79 0 3.47 2 20:37 06.03.2020
1574 Clouds 25 1008 100 10000 2.6 350 20:19 06.03.2020
1575 Clouds 25 1008 100 10000 2.6 350 19:44 06.03.2020
1576 Rain 27 1008 81 0 3.6 11 19:26 06.03.2020
1577 Rain 27 1008 81 0 3.6 11 18:44 06.03.2020
1578 Rain 27 1008 81 0 3.6 11 18:21 06.03.2020
1579 Rain 27 1008 81 0 3.6 11 17:58 06.03.2020
1580 Rain 27 1008 81 0 3.6 11 17:40 06.03.2020
1581 Clouds 25 1009 100 10000 2.1 340 17:21 06.03.2020
1582 Clouds 25 1009 100 10000 2.1 340 16:58 06.03.2020
1583 Clouds 25 1009 100 10000 2.1 340 16:40 06.03.2020
1584 Clouds 25 1009 100 10000 2.1 340 16:19 06.03.2020
1585 Clouds 26 1010 94 10000 5.1 340 15:44 06.03.2020
1586 Clouds 26 1010 94 10000 5.1 340 15:24 06.03.2020
1587 Clouds 26 1011 94 10000 5.1 350 14:45 06.03.2020
1588 Clouds 26 1011 94 10000 5.1 350 14:24 06.03.2020
1589 Clouds 26 1011 94 10000 5.1 350 13:59 06.03.2020
1590 Clouds 26 1011 94 10000 5.1 350 13:40 06.03.2020
1591 Clouds 26 1011 94 10000 5.1 320 13:20 06.03.2020
1592 Clouds 26 1011 94 10000 5.1 320 12:55 06.03.2020
1593 Clouds 26 1011 94 10000 5.1 320 12:36 06.03.2020
1594 Clouds 28 1010 83 10000 5.1 320 12:18 06.03.2020
1595 Clouds 28 1010 83 10000 5.1 320 11:43 06.03.2020
1596 Clouds 29 1009 79 10000 5.1 210 11:21 06.03.2020
1597 Clouds 29 1009 79 10000 5.1 210 11:21 06.03.2020
1598 Clouds 29 1009 79 10000 5.1 210 10:57 06.03.2020
1599 Clouds 29 1009 79 10000 5.1 210 10:36 06.03.2020
1600 Clouds 30 1008 74 10000 5.1 250 10:18 06.03.2020
1601 Clouds 30 1008 74 10000 5.1 250 10:18 06.03.2020
1602 Clouds 30 1008 74 10000 5.1 250 09:42 06.03.2020
1603 Clouds 30 1007 79 10000 5.1 270 09:24 06.03.2020
1604 Clouds 30 1007 79 10000 5.1 270 08:56 06.03.2020
1605 Clouds 30 1007 79 10000 5.1 270 08:38 06.03.2020
1606 Clouds 31 1007 74 10000 7.7 240 08:19 06.03.2020
1607 Clouds 31 1007 74 10000 7.7 240 07:42 06.03.2020
1608 Clouds 32 1007 70 10000 7.7 240 07:22 06.03.2020
1609 Clouds 32 1007 70 10000 7.7 240 06:42 06.03.2020
1610 Clouds 30 1007 69 0 3.5 237 06:18 06.03.2020
1611 Clouds 30 1007 69 0 3.5 237 05:37 06.03.2020
1612 Clouds 29 1009 79 10000 7.7 30 05:18 06.03.2020
1613 Clouds 32 1009 70 10000 5.7 300 04:25 06.03.2020
1614 Clouds 32 1011 70 10000 5.7 320 01:43 06.03.2020
1615 Clouds 30 1011 79 10000 5.1 330 01:25 06.03.2020
1616 Clouds 30 1011 79 10000 5.1 330 00:48 06.03.2020
1617 Clouds 28 1010 94 10000 3.6 320 00:20 06.03.2020
1618 Clouds 28 1010 94 10000 3.6 320 23:43 05.03.2020
1619 Clouds 29 1010 70 0 1.22 311 23:24 05.03.2020
1620 Clouds 25 1010 100 10000 1.5 330 22:55 05.03.2020
1621 Clouds 25 1010 100 10000 1.5 330 22:36 05.03.2020
1622 Clouds 25 1010 100 10000 1.5 330 22:18 05.03.2020
1623 Clouds 25 1009 100 10000 2.1 350 21:54 05.03.2020
1624 Clouds 25 1009 100 10000 2.1 350 21:36 05.03.2020
1625 Clouds 25 1008 100 10000 3.6 350 21:18 05.03.2020
1626 Clouds 25 1008 100 10000 3.6 350 20:41 05.03.2020
1627 Clouds 25 1008 100 10000 2.6 340 20:20 05.03.2020
1628 Clouds 25 1008 100 10000 2.6 340 19:58 05.03.2020
1629 Clouds 25 1008 100 10000 2.6 340 19:39 05.03.2020
1630 Clouds 25 1008 100 10000 4.1 340 19:20 05.03.2020
1631 Clouds 25 1008 100 10000 4.1 340 18:58 05.03.2020
1632 Clouds 25 1008 100 10000 4.1 340 18:37 05.03.2020
1633 Rain 27 1009 83 0 2.62 38 18:18 05.03.2020
1634 Rain 27 1009 83 0 2.62 38 17:55 05.03.2020
1635 Rain 27 1009 83 0 2.62 38 17:36 05.03.2020
1636 Rain 27 1009 83 0 2.62 38 17:36 05.03.2020
1637 Clouds 28 1009 75 0 1.14 6 17:18 05.03.2020
1638 Clouds 28 1009 75 0 1.14 6 16:41 05.03.2020
1639 Clouds 26 1010 94 10000 2.6 300 16:22 05.03.2020
1640 Clouds 26 1010 94 10000 2.6 300 15:46 05.03.2020
1641 Clouds 26 1011 94 10000 2.6 320 15:24 05.03.2020
1642 Clouds 26 1011 94 10000 2.6 320 14:59 05.03.2020
1643 Clouds 26 1011 94 10000 2.6 320 14:41 05.03.2020
1644 Clouds 26 1011 94 10000 2.6 300 14:22 05.03.2020
1645 Clouds 26 1011 94 10000 2.6 300 13:57 05.03.2020
1646 Clouds 26 1011 94 10000 2.6 300 13:38 05.03.2020
1647 Clouds 26 1010 94 10000 1.5 310 13:20 05.03.2020
1648 Clouds 26 1010 94 10000 1.5 310 12:42 05.03.2020
1649 Clouds 27 1009 88 10000 1.5 330 12:21 05.03.2020
1650 Clouds 27 1009 88 10000 1.5 330 11:58 05.03.2020
1651 Clouds 27 1009 88 10000 1.5 330 11:38 05.03.2020
1652 Clouds 28 1008 88 10000 3.6 330 11:19 05.03.2020
1653 Clouds 28 1008 88 10000 3.6 330 10:58 05.03.2020
1654 Clouds 28 1008 88 10000 3.6 330 10:40 05.03.2020
1655 Clouds 28 1008 88 10000 3.6 330 10:40 05.03.2020
1656 Clouds 31 1007 74 10000 6.2 270 10:21 05.03.2020
1657 Clouds 31 1007 74 10000 6.2 270 10:21 05.03.2020
1658 Clouds 31 1007 74 10000 6.2 270 09:49 05.03.2020
1659 Clouds 32 1006 70 10000 7.7 250 09:28 05.03.2020
1660 Clouds 32 1006 70 10000 7.7 250 08:59 05.03.2020
1661 Clouds 32 1006 70 10000 7.7 250 08:41 05.03.2020
1662 Clouds 32 1006 70 10000 7.7 260 08:22 05.03.2020
1663 Clouds 32 1006 70 10000 7.7 260 07:42 05.03.2020
1664 Clouds 32 1006 70 10000 7.7 260 07:42 05.03.2020
1665 Clouds 33 1006 63 10000 7.7 280 07:21 05.03.2020
1666 Clouds 33 1006 63 10000 7.7 280 06:44 05.03.2020
1667 Clouds 33 1006 63 10000 7.7 280 06:44 05.03.2020
1668 Clouds 33 1007 70 10000 8.2 280 06:20 05.03.2020
1669 Clouds 33 1007 70 10000 8.2 280 05:35 05.03.2020
1670 Clouds 33 1007 70 10000 8.2 280 05:35 05.03.2020
1671 Clouds 32 1009 66 10000 4.1 220 04:23 05.03.2020
1672 Clouds 32 1009 66 10000 4.1 220 04:23 05.03.2020
1673 Clouds 32 1009 66 10000 4.1 220 03:58 05.03.2020
1674 Clouds 33 1009 63 10000 5.1 300 02:32 05.03.2020
1675 Clouds 30 1010 74 10000 3.1 300 01:26 05.03.2020
1676 Clouds 30 1010 74 10000 3.1 300 00:44 05.03.2020
1677 Clouds 27 1009 88 10000 3.1 320 23:57 04.03.2020
1678 Clouds 27 1009 88 10000 3.1 320 23:39 04.03.2020
1679 Clouds 25 1009 100 10000 1 350 23:20 04.03.2020
1680 Clouds 25 1009 100 10000 1 350 22:55 04.03.2020
1681 Clouds 25 1009 100 10000 1 350 22:36 04.03.2020
1682 Clouds 24 1008 100 10000 2.1 340 22:18 04.03.2020
1683 Clouds 24 1008 100 10000 2.1 340 22:18 04.03.2020
1684 Clouds 24 1008 100 10000 2.1 340 21:41 04.03.2020
1685 Clouds 25 1007 100 10000 2.6 340 21:21 04.03.2020
1686 Clouds 25 1007 100 10000 2.6 340 20:58 04.03.2020
1687 Clouds 25 1007 100 10000 2.6 340 20:58 04.03.2020
1688 Clouds 25 1007 100 10000 2.6 340 20:39 04.03.2020
1689 Clouds 25 1007 100 10000 2.6 330 20:21 04.03.2020
1690 Clouds 28 1007 81 0 2.37 36 19:43 04.03.2020
1691 Clouds 25 1007 100 10000 2.6 310 19:24 04.03.2020
1692 Clouds 25 1007 100 10000 2.6 310 18:58 04.03.2020
1693 Clouds 25 1007 100 10000 2.6 310 18:40 04.03.2020
1694 Clouds 26 1007 94 10000 2.6 340 18:22 04.03.2020
1695 Clouds 26 1007 94 10000 2.6 340 17:56 04.03.2020
1696 Clouds 26 1007 94 10000 2.6 340 17:38 04.03.2020
1697 Clouds 26 1008 94 10000 2.6 320 17:19 04.03.2020
1698 Clouds 26 1008 94 10000 2.6 320 16:44 04.03.2020
1699 Clouds 26 1008 94 10000 2.6 60 16:26 04.03.2020
1700 Clouds 26 1008 94 10000 2.6 60 15:59 04.03.2020
1701 Clouds 26 1008 94 10000 2.6 60 15:41 04.03.2020
1702 Clouds 27 1009 88 10000 2.6 60 15:23 04.03.2020
1703 Clouds 27 1009 88 10000 2.6 60 14:55 04.03.2020
1704 Clouds 27 1009 88 10000 2.6 60 14:37 04.03.2020
1705 Clouds 27 1009 88 10000 2.6 330 14:18 04.03.2020
1706 Clouds 27 1009 88 10000 2.6 330 13:56 04.03.2020
1707 Clouds 27 1009 88 10000 2.6 330 13:37 04.03.2020
1708 Clouds 27 1009 88 10000 2.6 330 13:19 04.03.2020
1709 Clouds 27 1009 88 10000 2.6 330 12:44 04.03.2020
1710 Clouds 30 1009 71 0 1.51 116 12:25 04.03.2020
1711 Clouds 30 1009 71 0 1.51 116 11:56 04.03.2020
1712 Clouds 30 1009 71 0 1.51 116 11:37 04.03.2020
1713 Clouds 28 1008 100 10000 5.1 40 11:19 04.03.2020
1714 Clouds 28 1008 100 10000 5.1 40 11:19 04.03.2020
1715 Clouds 28 1008 100 10000 5.1 40 10:47 04.03.2020
1716 Clouds 30 1007 79 10000 2.6 290 10:26 04.03.2020
1717 Clouds 30 1007 79 10000 2.6 290 09:58 04.03.2020
1718 Clouds 30 1007 79 10000 2.6 290 09:40 04.03.2020
1719 Clouds 31 1006 70 10000 3.6 230 09:20 04.03.2020
1720 Clouds 31 1006 70 10000 3.6 230 08:43 04.03.2020
1721 Clouds 32 1005 70 10000 7.7 250 08:25 04.03.2020
1722 Clouds 32 1005 70 10000 7.7 250 07:48 04.03.2020
1723 Clouds 33 1005 63 10000 8.2 250 07:30 04.03.2020
1724 Clouds 33 1005 63 10000 8.2 250 06:54 04.03.2020
1725 Clouds 33 1005 63 10000 8.2 250 06:54 04.03.2020
1726 Clouds 33 1006 66 10000 8.7 220 06:27 04.03.2020
1727 Clouds 33 1006 66 10000 8.7 220 05:59 04.03.2020
1728 Clouds 33 1006 66 10000 8.7 220 05:32 04.03.2020
1729 Clouds 33 1007 63 10000 5.1 330 03:57 04.03.2020
1730 Clouds 33 1007 63 10000 5.1 330 03:35 04.03.2020
1731 Clouds 33 1008 63 10000 5.1 320 02:58 04.03.2020
1732 Clouds 32 1008 66 10000 5.1 350 02:30 04.03.2020
1733 Clouds 32 1008 66 10000 5.1 350 01:56 04.03.2020
1734 Clouds 32 1008 66 10000 5.1 350 01:37 04.03.2020
1735 Haze 30 1009 74 10000 5.1 330 00:42 04.03.2020
1736 Haze 28 1009 88 10000 5.1 320 00:22 04.03.2020
1737 Haze 28 1009 88 10000 5.1 320 23:43 03.03.2020
1738 Haze 26 1008 94 10000 5.1 310 23:24 03.03.2020
1739 Haze 26 1008 94 10000 5.1 310 22:56 03.03.2020
1740 Haze 26 1008 94 10000 5.1 310 22:37 03.03.2020
1741 Haze 25 1008 94 10000 2.6 360 22:19 03.03.2020
1742 Haze 25 1008 94 10000 2.6 360 21:43 03.03.2020
1743 Clouds 28 1009 82 0 4.53 341 21:22 03.03.2020
1744 Clouds 28 1009 82 0 4.53 341 20:59 03.03.2020
1745 Clouds 28 1009 82 0 4.53 341 20:39 03.03.2020
1746 Rain 28 1008 81 0 4.38 336 20:19 03.03.2020
1747 Clouds 28 1007 81 0 4 102 19:56 03.03.2020
1748 Rain 28 1008 81 0 4.38 336 19:37 03.03.2020
1749 Clouds 28 1007 81 0 4 102 19:18 03.03.2020
1750 Clouds 28 1007 81 0 4 102 18:56 03.03.2020
1751 Clouds 28 1007 81 0 4 102 18:56 03.03.2020
1752 Clouds 28 1007 81 0 4 102 18:38 03.03.2020
1753 Rain 28 1008 81 0 4.38 336 18:19 03.03.2020
1754 Rain 28 1008 81 0 4.38 336 17:54 03.03.2020
1755 Clouds 28 1007 81 0 4 102 17:36 03.03.2020
1756 Clouds 28 1007 81 0 4 102 17:36 03.03.2020
1757 Rain 29 1008 79 0 5.1 130 17:18 03.03.2020
1758 Rain 28 1008 79 0 3.77 86 16:39 03.03.2020
1759 Rain 29 1008 79 0 5.1 130 16:21 03.03.2020
1760 Rain 29 1008 79 0 5.1 130 15:59 03.03.2020
1761 Rain 28 1008 79 0 3.77 86 15:59 03.03.2020
1762 Rain 29 1008 79 0 5.1 130 15:41 03.03.2020
1763 Clouds 26 1010 100 10000 3.1 350 15:20 03.03.2020
1764 Clouds 26 1010 100 10000 3.1 350 14:43 03.03.2020
1765 Rain 29 1008 79 0 5.1 130 14:21 03.03.2020
1766 Rain 29 1010 79 0 6.3 138 13:59 03.03.2020
1767 Rain 29 1010 79 0 5.93 131 13:41 03.03.2020
1768 Clouds 26 1010 94 10000 1.5 360 13:23 03.03.2020
1769 Clouds 26 1010 94 10000 1.5 360 12:50 03.03.2020
1770 Rain 29 1010 79 0 6.3 138 12:27 03.03.2020
1771 Rain 29 1010 79 0 6.3 138 11:59 03.03.2020
1772 Rain 29 1010 79 0 6.3 138 11:38 03.03.2020
1773 Clouds 30 1008 79 10000 2.1 100 11:19 03.03.2020
1774 Clouds 30 1008 79 10000 2.1 100 10:57 03.03.2020
1775 Clouds 30 1008 79 10000 2.1 100 10:38 03.03.2020
1776 Clouds 30 1008 79 10000 2.1 100 10:19 03.03.2020
1777 Clouds 30 1007 78 0 5.83 152 09:45 03.03.2020
1778 Clouds 32 1007 70 10000 7.7 180 09:23 03.03.2020
1779 Clouds 32 1007 70 10000 7.7 180 08:59 03.03.2020
1780 Clouds 32 1007 70 10000 7.7 180 08:39 03.03.2020
1781 Clouds 33 1006 66 10000 7.7 190 08:21 03.03.2020
1782 Clouds 33 1006 66 10000 7.7 190 07:44 03.03.2020
1783 Clouds 33 1005 66 10000 7.7 180 07:23 03.03.2020
1784 Clouds 33 1005 66 10000 7.7 180 06:51 03.03.2020
1785 Clouds 33 1006 66 10000 7.7 180 06:25 03.03.2020
1786 Clouds 33 1006 66 10000 7.7 180 05:47 03.03.2020
1787 Clouds 34 1007 59 10000 5.1 180 05:28 03.03.2020
1788 Clouds 34 1007 59 10000 5.1 200 04:30 03.03.2020
1789 Haze 33 1008 59 10000 5.1 160 01:40 03.03.2020
1790 Haze 30 1009 79 10000 2.1 0 00:49 03.03.2020
1791 Haze 26 1008 94 10000 2.1 0 00:27 03.03.2020
1792 Haze 26 1008 94 10000 2.1 0 23:57 02.03.2020
1793 Haze 26 1008 94 10000 2.1 0 23:38 02.03.2020
1794 Haze 25 1008 100 10000 1.5 0 23:20 02.03.2020
1795 Haze 25 1008 100 10000 1.5 0 22:55 02.03.2020
1796 Haze 25 1008 100 10000 1.5 0 22:37 02.03.2020
1797 Clear 29 1009 76 0 5.23 126 22:18 02.03.2020
1798 Clear 29 1009 76 0 5.23 126 21:42 02.03.2020
1799 Clouds 25 1008 100 10000 1.5 0 21:23 02.03.2020
1800 Clouds 25 1008 100 10000 1.5 0 20:58 02.03.2020
1801 Clouds 25 1008 100 10000 1.5 0 20:39 02.03.2020
1802 Clouds 25 1007 100 10000 1.5 0 20:20 02.03.2020
1803 Clouds 25 1007 100 10000 1.5 0 19:56 02.03.2020
1804 Clouds 25 1007 100 10000 1.5 0 19:38 02.03.2020
1805 Clouds 28 1008 79 0 4 98 19:20 02.03.2020
1806 Clouds 28 1008 79 0 4 98 18:45 02.03.2020
1807 Clouds 25 1007 100 10000 1.5 0 18:20 02.03.2020
1808 Clouds 25 1007 100 10000 1.5 0 17:59 02.03.2020
1809 Clouds 25 1007 100 10000 1.5 0 17:59 02.03.2020
1810 Clouds 25 1007 100 10000 1.5 0 17:41 02.03.2020
1811 Clouds 25 1008 100 10000 1.5 0 17:21 02.03.2020
1812 Clouds 25 1008 100 10000 1.5 0 17:21 02.03.2020
1813 Clouds 25 1008 100 10000 1.5 0 17:21 02.03.2020
1814 Clouds 25 1008 100 10000 1.5 0 16:55 02.03.2020
1815 Clouds 25 1008 100 10000 1.5 0 16:37 02.03.2020
1816 Clouds 29 1008 74 0 2.46 144 16:19 02.03.2020
1817 Clouds 29 1008 74 0 2.46 144 15:43 02.03.2020
1818 Clouds 26 1009 94 10000 2.1 0 15:20 02.03.2020
1819 Clouds 26 1009 94 10000 2.1 0 14:42 02.03.2020
1820 Clouds 26 1009 94 10000 2.1 0 14:20 02.03.2020
1821 Clouds 26 1009 94 10000 1.5 0 13:59 02.03.2020
1822 Clouds 26 1009 94 10000 1.5 0 13:39 02.03.2020
1823 Clouds 26 1008 94 10000 1.5 0 13:18 02.03.2020
1824 Clouds 26 1008 94 10000 1.5 0 12:44 02.03.2020
1825 Clouds 26 1008 94 10000 1.5 0 12:20 02.03.2020
1826 Rain 29 1011 72 0 1.56 106 11:55 02.03.2020
1827 Rain 29 1011 72 0 1.56 106 11:36 02.03.2020
1828 Clouds 28 1008 88 10000 2.1 20 11:18 02.03.2020
1829 Clouds 28 1008 88 10000 2.1 20 10:42 02.03.2020
1830 Clouds 29 1008 83 10000 2.6 130 10:20 02.03.2020
1831 Clouds 29 1008 83 10000 2.6 130 09:58 02.03.2020
1832 Clouds 29 1008 83 10000 2.6 130 09:39 02.03.2020
1833 Clouds 30 1008 79 10000 5.1 130 09:20 02.03.2020
1834 Clouds 30 1008 79 10000 5.1 130 08:41 02.03.2020
1835 Clouds 33 1007 66 10000 6.2 170 08:19 02.03.2020
1836 Clouds 33 1007 66 10000 6.2 170 07:42 02.03.2020
1837 Haze 33 1007 66 10000 6.7 190 06:57 02.03.2020
1838 Haze 33 1007 66 10000 6.7 190 06:37 02.03.2020
1839 Haze 33 1007 66 10000 6.2 190 05:52 02.03.2020
1840 Rain 29 1008 73 0 4 256 04:21 02.03.2020
1841 Clouds 32 1010 70 10000 5.1 190 03:20 02.03.2020
1842 Clouds 32 1010 70 10000 5.1 190 02:36 02.03.2020
1843 Clouds 29 1011 71 0 0.82 276 01:42 02.03.2020
1844 Clouds 29 1011 83 10000 2.6 320 01:23 02.03.2020
1845 Clouds 26 1011 94 10000 2.6 0 00:23 02.03.2020
1846 Clouds 26 1011 94 10000 2.6 0 23:56 01.03.2020
1847 Clouds 26 1011 94 10000 2.6 0 23:38 01.03.2020
1848 Clouds 25 1010 100 10000 1.5 330 23:19 01.03.2020
1849 Clouds 25 1010 100 10000 1.5 330 22:42 01.03.2020
1850 Clouds 25 1009 100 10000 1.5 0 22:19 01.03.2020
1851 Clouds 25 1009 100 10000 1.5 0 21:44 01.03.2020
1852 Clouds 25 1009 100 10000 2.1 0 21:25 01.03.2020
1853 Clouds 25 1009 100 10000 2.1 0 20:59 01.03.2020
1854 Clouds 25 1009 100 10000 2.1 0 20:41 01.03.2020
1855 Clouds 25 1008 100 10000 2.1 0 20:22 01.03.2020
1856 Clouds 25 1008 100 10000 2.1 0 19:43 01.03.2020
1857 Clouds 25 1008 100 10000 2.1 0 19:24 01.03.2020
1858 Clouds 25 1008 100 10000 2.1 0 18:59 01.03.2020
1859 Clouds 25 1008 100 10000 2.1 0 18:40 01.03.2020
1860 Clouds 25 1008 100 10000 1.5 0 18:19 01.03.2020
1861 Clouds 25 1008 100 10000 1.5 0 17:57 01.03.2020
1862 Clouds 25 1008 100 10000 1.5 0 17:39 01.03.2020
1863 Clouds 25 1009 100 10000 1.5 0 17:20 01.03.2020
1864 Clouds 25 1009 100 10000 1.5 0 16:57 01.03.2020
1865 Clouds 25 1009 100 10000 1.5 0 16:38 01.03.2020
1866 Clouds 26 1009 94 10000 1.5 0 16:18 01.03.2020
1867 Clouds 26 1009 94 10000 1.5 0 15:56 01.03.2020
1868 Clouds 26 1009 94 10000 1.5 0 15:37 01.03.2020
1869 Clouds 26 1010 100 10000 1.5 0 15:19 01.03.2020
1870 Clouds 26 1010 100 10000 1.5 0 14:55 01.03.2020
1871 Clouds 26 1010 100 10000 1.5 0 14:37 01.03.2020
1872 Clouds 27 1010 94 10000 1.5 0 14:18 01.03.2020
1873 Clouds 27 1010 94 10000 1.5 0 13:44 01.03.2020
1874 Clouds 27 1010 94 10000 1.5 0 13:22 01.03.2020
1875 Clouds 27 1010 94 10000 1.5 0 12:59 01.03.2020
1876 Clouds 27 1010 94 10000 1.5 0 12:41 01.03.2020
1877 Rain 27 1009 94 10000 1.5 0 12:21 01.03.2020
1878 Rain 27 1009 94 10000 1.5 0 12:21 01.03.2020
1879 Rain 27 1009 94 10000 1.5 0 11:42 01.03.2020
1880 Rain 27 1008 94 10000 1.5 0 11:24 01.03.2020
1881 Rain 27 1008 94 10000 1.5 0 11:24 01.03.2020
1882 Rain 27 1008 94 10000 1.5 0 10:57 01.03.2020
1883 Rain 27 1008 94 10000 1.5 0 10:38 01.03.2020
1884 Clouds 27 1007 94 10000 4.6 340 10:19 01.03.2020
1885 Clouds 27 1007 94 10000 4.6 340 09:55 01.03.2020
1886 Clouds 27 1007 94 10000 4.6 340 09:36 01.03.2020
1887 Clouds 30 1007 79 10000 5.1 40 09:18 01.03.2020
1888 Clouds 30 1007 79 10000 5.1 40 08:39 01.03.2020
1889 Clouds 32 1007 70 10000 5.1 260 08:19 01.03.2020
1890 Clouds 32 1007 70 10000 5.1 260 07:42 01.03.2020
1891 Clouds 32 1007 66 10000 6.7 270 07:23 01.03.2020
1892 Clouds 32 1007 66 10000 6.7 270 06:53 01.03.2020
1893 Clouds 32 1007 66 10000 6.7 270 06:53 01.03.2020
1894 Clouds 32 1007 66 10000 6.7 270 06:33 01.03.2020
1895 Rain 31 1009 79 10000 7.7 260 04:24 01.03.2020
1896 Clouds 31 1010 74 10000 7.7 310 02:54 01.03.2020
1897 Clouds 31 1011 74 10000 6.2 330 01:53 01.03.2020
1898 Clouds 30 1010 79 10000 5.1 330 01:22 01.03.2020
1899 Clouds 30 1010 79 10000 5.1 330 00:43 01.03.2020
1900 Clouds 28 1010 88 10000 5.1 330 00:21 01.03.2020
1901 Clouds 28 1010 88 10000 5.1 330 23:49 29.02.2020
1902 Clouds 28 1010 88 10000 5.1 330 23:49 29.02.2020
1903 Clouds 26 1009 94 10000 3.6 320 23:30 29.02.2020
1904 Clouds 26 1009 94 10000 3.6 320 22:44 29.02.2020
1905 Clouds 25 1008 94 10000 2.6 350 22:24 29.02.2020
1906 Clouds 25 1008 94 10000 2.6 350 21:42 29.02.2020
1907 Clouds 26 1008 88 10000 5.1 350 21:24 29.02.2020
1908 Clouds 26 1008 88 10000 5.1 350 20:44 29.02.2020
1909 Clouds 26 1007 94 10000 5.1 350 20:22 29.02.2020
1910 Clouds 26 1007 94 10000 5.1 350 19:57 29.02.2020
1911 Clouds 26 1007 94 10000 5.1 350 19:38 29.02.2020
1912 Clouds 26 1008 94 10000 1.5 0 19:19 29.02.2020
1913 Clouds 26 1008 94 10000 1.5 0 18:43 29.02.2020
1914 Clouds 26 1008 94 10000 5.1 350 18:25 29.02.2020
1915 Clouds 26 1008 94 10000 5.1 350 17:58 29.02.2020
1916 Clouds 26 1008 94 10000 5.1 350 17:40 29.02.2020
1917 Clouds 26 1009 94 10000 2.6 50 17:21 29.02.2020
1918 Clouds 26 1009 94 10000 2.6 50 16:45 29.02.2020
1919 Clouds 28 1008 76 0 2.22 19 16:22 29.02.2020
1920 Clouds 28 1008 76 0 2.22 19 15:59 29.02.2020
1921 Clouds 28 1008 76 0 2.22 19 15:41 29.02.2020
1922 Clouds 28 1008 76 0 2.22 19 15:21 29.02.2020
1923 Clouds 28 1008 76 0 2.22 19 14:42 29.02.2020
1924 Clouds 28 1008 76 0 2.22 19 14:42 29.02.2020
1925 Clouds 28 1008 76 0 2.22 19 14:23 29.02.2020
1926 Rain 29 1010 72 0 0.89 334 13:56 29.02.2020
1927 Rain 29 1010 72 0 0.89 334 13:37 29.02.2020
1928 Clouds 29 1009 72 0 1.33 175 13:18 29.02.2020
1929 Clouds 29 1009 72 0 1.33 175 12:42 29.02.2020
1930 Clouds 29 1009 72 0 1.33 175 12:21 29.02.2020
1931 Clouds 29 1009 72 0 1.33 175 11:56 29.02.2020
1932 Clouds 29 1009 72 0 1.33 175 11:38 29.02.2020
1933 Clouds 30 1007 70 0 2.2 218 11:20 29.02.2020
1934 Clouds 30 1007 70 0 2.2 218 10:44 29.02.2020
1935 Haze 30 1006 79 10000 5.1 210 10:26 29.02.2020
1936 Haze 30 1006 79 10000 5.1 210 09:47 29.02.2020
1937 Haze 31 1006 74 10000 6.2 230 09:23 29.02.2020
1938 Haze 31 1006 74 10000 6.2 230 08:42 29.02.2020
1939 Haze 32 1005 66 10000 9.3 250 08:22 29.02.2020
1940 Haze 32 1005 66 10000 9.3 250 07:57 29.02.2020
1941 Haze 32 1005 66 10000 9.3 250 07:39 29.02.2020
1942 Haze 34 1005 59 10000 7.7 240 07:18 29.02.2020
1943 Haze 34 1005 59 10000 7.7 240 06:42 29.02.2020
1944 Clouds 30 1005 68 0 4.26 235 06:22 29.02.2020
1945 Clouds 30 1005 68 0 4.26 235 05:46 29.02.2020
1946 Haze 33 1007 59 10000 7.7 270 04:45 29.02.2020
1947 Haze 35 1008 53 10000 3.6 250 03:40 29.02.2020
1948 Haze 35 1008 53 10000 3.6 350 03:21 29.02.2020
1949 Haze 35 1008 53 10000 3.6 350 02:34 29.02.2020
1950 Haze 31 1009 70 10000 3.1 350 00:58 29.02.2020
1951 Haze 31 1009 70 10000 3.1 350 00:36 29.02.2020
1952 Clouds 28 1009 88 10000 2.6 300 23:43 28.02.2020
1953 Clouds 26 1008 100 10000 2.6 330 23:24 28.02.2020
1954 Clouds 26 1008 100 10000 2.6 330 23:24 28.02.2020
1955 Clouds 26 1008 100 10000 2.6 330 22:54 28.02.2020
1956 Clouds 26 1008 100 10000 2.6 330 22:36 28.02.2020
1957 Clouds 26 1008 100 10000 2.6 330 22:18 28.02.2020
1958 Clouds 25 1008 100 10000 2.6 340 21:41 28.02.2020
1959 Rain 27 1009 81 0 2.7 27 21:20 28.02.2020
1960 Rain 27 1009 81 0 2.7 27 20:40 28.02.2020
1961 Rain 27 1009 83 0 2.73 39 20:22 28.02.2020
1962 Clouds 28 1008 78 0 1.69 13 19:57 28.02.2020
1963 Clouds 28 1008 78 0 1.69 13 19:39 28.02.2020
1964 Clouds 28 1008 78 0 1.69 13 19:20 28.02.2020
1965 Clouds 28 1008 78 0 1.69 13 18:55 28.02.2020
1966 Clouds 28 1008 78 0 1.69 13 18:55 28.02.2020
1967 Clouds 28 1008 78 0 1.69 13 18:37 28.02.2020
1968 Clouds 28 1008 78 0 1.69 13 18:19 28.02.2020
1969 Clouds 28 1008 78 0 1.69 13 17:40 28.02.2020
1970 Clouds 28 1008 78 0 1.69 13 17:22 28.02.2020
1971 Clouds 29 1008 73 0 1.3 227 16:44 28.02.2020
1972 Clouds 29 1008 73 0 1.3 227 16:20 28.02.2020
1973 Clouds 29 1008 73 0 1.3 227 15:58 28.02.2020
1974 Clouds 29 1008 73 0 1.3 227 15:39 28.02.2020
1975 Clouds 27 1009 94 10000 1.5 0 15:19 28.02.2020
1976 Clouds 27 1009 94 10000 1.5 0 14:57 28.02.2020
1977 Clouds 27 1009 94 10000 1.5 0 14:38 28.02.2020
1978 Clouds 27 1009 94 10000 2.6 340 14:18 28.02.2020
1979 Clouds 27 1009 94 10000 2.6 340 13:41 28.02.2020
1980 Clouds 29 1010 74 0 1.82 267 13:20 28.02.2020
1981 Clouds 29 1009 73 0 1.76 257 12:56 28.02.2020
1982 Clouds 29 1009 73 0 1.76 257 12:37 28.02.2020
1983 Clouds 28 1008 88 10000 1.5 0 12:19 28.02.2020
1984 Clouds 28 1008 88 10000 1.5 0 11:41 28.02.2020
1985 Clouds 28 1007 88 10000 1.5 0 11:22 28.02.2020
1986 Clouds 28 1007 88 10000 1.5 0 10:54 28.02.2020
1987 Clouds 28 1007 88 10000 1.5 0 10:54 28.02.2020
1988 Clouds 28 1007 88 10000 1.5 0 10:36 28.02.2020
1989 Clouds 30 1006 79 10000 5.1 260 10:18 28.02.2020
1990 Clouds 30 1006 79 10000 5.1 260 09:40 28.02.2020
1991 Clouds 31 1005 70 10000 6.7 250 09:20 28.02.2020
1992 Clouds 31 1005 70 10000 6.7 250 08:42 28.02.2020
1993 Clouds 32 1005 70 10000 7.7 230 08:21 28.02.2020
1994 Clouds 32 1005 70 10000 7.7 230 07:46 28.02.2020
1995 Clouds 33 1005 66 10000 7.7 250 07:26 28.02.2020
1996 Clouds 33 1005 66 10000 7.7 250 06:52 28.02.2020
1997 Clouds 33 1005 66 10000 7.7 250 06:33 28.02.2020
1998 Clouds 33 1007 63 10000 5.1 290 05:30 28.02.2020
1999 Clouds 33 1007 63 10000 5.1 290 04:31 28.02.2020
2000 Rain 30 1008 69 0 5.51 284 02:55 28.02.2020
2001 Clouds 31 1010 74 10000 3.6 350 02:28 28.02.2020
2002 Clouds 31 1010 74 10000 3.6 350 01:46 28.02.2020
2003 Rain 29 1010 74 0 2.04 304 00:31 28.02.2020
2004 Clouds 27 1010 94 10000 2.1 340 23:47 27.02.2020
2005 Rain 29 1010 74 0 2.04 304 23:22 27.02.2020
2006 Rain 27 1009 81 0 2.52 20 22:56 27.02.2020
2007 Rain 27 1009 81 0 2.52 20 22:38 27.02.2020
2008 Rain 27 1009 81 0 2.52 20 22:20 27.02.2020
2009 Rain 27 1009 81 0 2.52 20 21:41 27.02.2020
2010 Clouds 25 1009 100 10000 2.6 300 21:23 27.02.2020
2011 Clouds 25 1009 100 10000 2.6 300 20:59 27.02.2020
2012 Clouds 25 1009 100 10000 2.6 300 20:41 27.02.2020
2013 Clouds 25 1009 100 10000 2.6 300 20:41 27.02.2020
2014 Clouds 25 1008 100 10000 2.6 330 20:21 27.02.2020
2015 Clouds 25 1008 100 10000 2.6 330 19:57 27.02.2020
2016 Clouds 25 1008 100 10000 2.6 330 19:38 27.02.2020
2017 Clouds 28 1008 79 0 2.62 9 19:19 27.02.2020
2018 Clouds 28 1008 79 0 2.62 9 18:54 27.02.2020
2019 Clouds 28 1008 79 0 2.62 9 18:36 27.02.2020
2020 Clouds 28 1008 79 0 2.62 9 18:18 27.02.2020
2021 Clouds 28 1008 79 0 2.62 9 17:40 27.02.2020
2022 Clouds 28 1008 79 0 2.62 9 17:40 27.02.2020
2023 Clouds 29 1008 72 0 1.14 259 17:20 27.02.2020
2024 Clouds 29 1008 72 0 1.14 259 16:59 27.02.2020
2025 Clouds 29 1008 72 0 1.14 259 16:39 27.02.2020
2026 Clouds 26 1009 100 10000 2.6 320 16:19 27.02.2020
2027 Clouds 26 1009 100 10000 2.6 320 15:58 27.02.2020
2028 Clouds 26 1009 100 10000 2.6 320 15:37 27.02.2020
2029 Clouds 27 1010 94 10000 2.1 340 15:18 27.02.2020
2030 Clouds 27 1010 94 10000 2.1 340 14:56 27.02.2020
2031 Clouds 27 1010 94 10000 2.1 340 14:37 27.02.2020
2032 Clouds 27 1010 94 10000 2.6 320 14:18 27.02.2020
2033 Clouds 27 1010 94 10000 2.6 320 13:42 27.02.2020
2034 Clouds 27 1009 94 10000 2.6 340 13:21 27.02.2020
2035 Clouds 27 1009 94 10000 2.6 340 12:47 27.02.2020
2036 Clouds 27 1008 94 10000 2.6 340 12:25 27.02.2020
2037 Clouds 27 1008 94 10000 2.6 340 11:59 27.02.2020
2038 Clouds 27 1008 94 10000 2.6 340 11:39 27.02.2020
2039 Clouds 28 1007 94 10000 2.6 280 11:21 27.02.2020
2040 Clouds 28 1007 94 10000 2.6 280 11:21 27.02.2020
2041 Clouds 28 1007 94 10000 2.6 280 10:43 27.02.2020
2042 Clouds 30 1006 79 10000 3.1 200 10:22 27.02.2020
2043 Clouds 30 1006 79 10000 3.1 200 09:48 27.02.2020
2044 Clouds 31 1006 74 10000 2.6 190 09:29 27.02.2020
2045 Clouds 31 1006 74 10000 2.6 190 08:57 27.02.2020
2046 Clouds 31 1006 74 10000 2.6 190 08:39 27.02.2020
2047 Clouds 31 1006 79 10000 5.1 130 08:19 27.02.2020
2048 Clouds 31 1006 79 10000 5.1 130 07:43 27.02.2020
2049 Clouds 31 1006 79 10000 5.1 130 07:25 27.02.2020
2050 Clouds 31 1006 79 10000 5.1 130 06:42 27.02.2020
2051 Clouds 32 1008 70 10000 5.1 180 05:27 27.02.2020
2052 Haze 32 1008 70 10000 5.1 200 03:35 27.02.2020
2053 Haze 32 1010 70 10000 3.1 350 02:20 27.02.2020
2054 Haze 31 1010 74 10000 4.1 320 00:44 27.02.2020
2055 Haze 28 1010 88 10000 2.6 310 00:22 27.02.2020
2056 Haze 28 1010 88 10000 2.6 310 23:38 26.02.2020
2057 Haze 25 1009 100 10000 2.6 310 23:18 26.02.2020
2058 Haze 25 1009 100 10000 2.6 310 22:56 26.02.2020
2059 Haze 25 1009 100 10000 2.6 310 22:38 26.02.2020
2060 Haze 25 1008 100 10000 2.6 330 22:19 26.02.2020
2061 Haze 25 1008 100 10000 2.6 330 21:40 26.02.2020
2062 Clouds 25 1008 100 10000 2.6 330 21:21 26.02.2020
2063 Clouds 25 1008 100 10000 2.6 330 20:57 26.02.2020
2064 Clouds 25 1008 100 10000 2.6 330 20:38 26.02.2020
2065 Clouds 25 1008 100 10000 2.6 330 20:38 26.02.2020
2066 Clouds 25 1007 100 10000 2.6 330 20:19 26.02.2020
2067 Clouds 25 1007 100 10000 2.6 330 19:56 26.02.2020
2068 Clouds 25 1007 100 10000 2.6 330 19:38 26.02.2020
2069 Clouds 25 1007 100 10000 2.6 310 19:19 26.02.2020
2070 Clouds 25 1007 100 10000 2.6 310 18:57 26.02.2020
2071 Clouds 25 1007 100 10000 2.6 310 18:37 26.02.2020
2072 Clouds 26 1008 94 10000 2.6 350 18:19 26.02.2020
2073 Clouds 26 1008 94 10000 2.6 350 17:41 26.02.2020
2074 Clouds 26 1008 94 10000 2.6 350 17:20 26.02.2020
2075 Clouds 26 1008 94 10000 2.6 350 17:20 26.02.2020
2076 Clouds 26 1008 94 10000 2.6 350 16:57 26.02.2020
2077 Clouds 26 1008 94 10000 2.6 350 16:38 26.02.2020
2078 Clouds 26 1009 94 10000 1.5 330 16:20 26.02.2020
2079 Clouds 26 1009 94 10000 1.5 330 15:45 26.02.2020
2080 Clouds 26 1009 94 10000 1.5 330 15:45 26.02.2020
2081 Clouds 26 1009 94 10000 1.5 330 15:45 26.02.2020
2082 Clouds 26 1009 94 10000 1.5 330 15:27 26.02.2020
2083 Clear 27 1009 88 10000 1 0 14:43 26.02.2020
2084 Clear 27 1009 88 10000 1 0 14:24 26.02.2020
2085 Clear 27 1008 94 10000 0.5 0 13:58 26.02.2020
2086 Clear 27 1008 94 10000 0.5 0 13:39 26.02.2020
2087 Clear 27 1008 94 10000 0.5 0 13:18 26.02.2020
2088 Rain 29 1010 78 0 4.09 142 12:39 26.02.2020
2089 Clouds 28 1008 88 10000 1 140 12:19 26.02.2020
2090 Clouds 28 1008 88 10000 1 140 11:55 26.02.2020
2091 Clouds 28 1008 88 10000 1 140 11:37 26.02.2020
2092 Clouds 28 1008 88 10000 1 140 11:18 26.02.2020
2093 Clouds 28 1007 88 10000 2.1 150 10:41 26.02.2020
2094 Clouds 31 1007 74 10000 5.1 150 10:22 26.02.2020
2095 Clouds 31 1007 74 10000 5.1 150 09:46 26.02.2020
2096 Clouds 32 1006 66 10000 5.1 150 09:25 26.02.2020
2097 Clouds 32 1006 66 10000 5.1 150 08:59 26.02.2020
2098 Clouds 32 1006 66 10000 5.1 150 08:38 26.02.2020
2099 Clouds 32 1006 70 10000 5.1 140 08:19 26.02.2020
2100 Clouds 32 1006 70 10000 5.1 140 07:45 26.02.2020
2101 Clouds 31 1006 74 10000 5.1 160 07:26 26.02.2020
2102 Clouds 31 1006 74 10000 5.1 160 06:53 26.02.2020
2103 Clouds 31 1006 74 10000 5.1 160 06:34 26.02.2020
2104 Clouds 31 1007 70 10000 5.1 130 05:53 26.02.2020
2105 Clouds 32 1008 70 10000 5.1 230 05:25 26.02.2020
2106 Clouds 32 1008 70 10000 5.1 230 04:34 26.02.2020
2107 Haze 34 1009 59 10000 3.1 300 02:28 26.02.2020
2108 Haze 34 1009 59 10000 3.1 300 01:45 26.02.2020
2109 Clouds 31 1009 70 10000 2.6 240 00:48 26.02.2020
2110 Haze 29 1009 83 10000 2.6 310 00:25 26.02.2020
2111 Haze 29 1009 83 10000 2.6 310 23:45 25.02.2020
2112 Clouds 26 1009 94 10000 5.1 320 23:27 25.02.2020
2113 Clouds 26 1009 94 10000 5.1 320 22:59 25.02.2020
2114 Clouds 26 1009 94 10000 5.1 320 22:41 25.02.2020
2115 Clouds 28 1009 73 0 1.42 59 22:19 25.02.2020
2116 Clouds 28 1009 73 0 1.42 59 21:55 25.02.2020
2117 Clouds 28 1009 73 0 1.42 59 21:36 25.02.2020
2118 Clouds 28 1009 73 0 1.42 59 21:18 25.02.2020
2119 Clouds 28 1009 73 0 1.42 59 20:54 25.02.2020
2120 Clouds 28 1009 73 0 1.42 59 20:36 25.02.2020
2121 Clouds 28 1008 73 0 1.91 81 20:18 25.02.2020
2122 Clouds 28 1008 73 0 1.91 81 19:40 25.02.2020
2123 Clouds 28 1008 73 0 1.91 81 19:19 25.02.2020
2124 Clouds 28 1008 73 0 1.91 81 18:42 25.02.2020
2125 Clouds 28 1008 73 0 1.91 81 18:22 25.02.2020
2126 Clouds 28 1008 73 0 1.91 81 17:59 25.02.2020
2127 Clouds 28 1008 73 0 1.91 81 17:38 25.02.2020
2128 Clouds 29 1009 74 0 3.25 103 17:19 25.02.2020
2129 Clouds 29 1009 74 0 3.25 103 16:58 25.02.2020
2130 Clouds 29 1009 74 0 3.25 103 16:58 25.02.2020
2131 Clouds 29 1009 74 0 3.25 103 16:40 25.02.2020
2132 Clouds 27 1010 94 10000 1.5 0 16:22 25.02.2020
2133 Clouds 27 1010 94 10000 1.5 0 15:56 25.02.2020
2134 Clouds 27 1010 94 10000 1.5 0 15:38 25.02.2020
2135 Clouds 27 1010 94 10000 1.5 0 15:18 25.02.2020
2136 Clouds 29 1009 74 0 3.25 103 14:56 25.02.2020
2137 Clouds 29 1009 74 0 3.25 103 14:37 25.02.2020
2138 Clouds 29 1009 74 0 3.25 103 14:37 25.02.2020
2139 Clouds 28 1010 88 10000 1.5 0 14:18 25.02.2020
2140 Clouds 28 1010 88 10000 1.5 0 14:18 25.02.2020
2141 Clouds 28 1010 88 10000 1.5 0 13:55 25.02.2020
2142 Clouds 28 1010 88 10000 1.5 0 13:54 25.02.2020
2143 Clouds 28 1010 88 10000 1.5 0 13:36 25.02.2020
2144 Clouds 28 1009 83 10000 1.5 0 13:18 25.02.2020
2145 Clouds 28 1009 83 10000 1.5 0 12:40 25.02.2020
2146 Clouds 28 1009 83 10000 1.5 0 12:20 25.02.2020
2147 Clouds 28 1009 83 10000 1.5 0 11:56 25.02.2020
2148 Clouds 28 1009 83 10000 1.5 0 11:38 25.02.2020
2149 Rain 29 1009 72 0 2.72 138 11:19 25.02.2020
2150 Rain 29 1009 72 0 2.72 138 11:19 25.02.2020
2151 Rain 29 1009 72 0 2.72 138 11:19 25.02.2020
2152 Rain 29 1009 72 0 2.72 138 10:56 25.02.2020
2153 Rain 29 1009 72 0 2.72 138 10:38 25.02.2020
2154 Haze 30 1008 74 10000 2.6 170 10:19 25.02.2020
2155 Haze 30 1008 74 10000 2.6 170 09:40 25.02.2020
2156 Haze 30 1008 70 10000 3.1 200 09:19 25.02.2020
2157 Haze 30 1008 70 10000 3.1 200 08:44 25.02.2020
2158 Haze 32 1007 66 10000 5.7 190 08:25 25.02.2020
2159 Haze 32 1007 66 10000 5.7 190 07:51 25.02.2020
2160 Haze 32 1007 66 10000 5.1 230 07:25 25.02.2020
2161 Haze 32 1007 66 10000 5.1 230 06:59 25.02.2020
2162 Haze 32 1008 70 10000 7.7 220 06:26 25.02.2020
2163 Haze 33 1009 63 10000 8.2 200 05:23 25.02.2020
2164 Haze 33 1011 59 10000 5.1 320 02:44 25.02.2020
2165 Haze 30 1011 40 10000 2.6 320 01:19 25.02.2020
2166 Haze 30 1011 40 10000 2.6 320 00:34 25.02.2020
2167 Clouds 28 1011 83 10000 3.1 60 23:57 24.02.2020
2168 Clouds 28 1011 83 10000 3.1 60 23:38 24.02.2020
2169 Clouds 26 1010 94 10000 1.5 0 23:18 24.02.2020
2170 Clouds 26 1010 94 10000 1.5 0 22:37 24.02.2020
2171 Clouds 25 1010 100 10000 1.5 0 22:19 24.02.2020
2172 Clouds 25 1010 100 10000 1.5 0 21:55 24.02.2020
2173 Clouds 25 1010 100 10000 1.5 0 21:37 24.02.2020
2174 Clouds 28 1010 74 0 2.5 73 21:18 24.02.2020
2175 Clouds 28 1010 74 0 2.5 73 20:55 24.02.2020
2176 Clouds 28 1010 74 0 2.5 73 20:36 24.02.2020
2177 Clouds 26 1009 94 10000 1.5 360 20:18 24.02.2020
2178 Clouds 26 1009 94 10000 1.5 360 19:55 24.02.2020
2179 Clouds 26 1009 94 10000 1.5 360 19:55 24.02.2020
2180 Clouds 26 1009 94 10000 1.5 360 19:36 24.02.2020
2181 Clouds 26 1009 94 10000 1.5 340 19:18 24.02.2020
2182 Clouds 26 1009 94 10000 1.5 340 18:41 24.02.2020
2183 Clouds 26 1009 94 10000 3.1 340 18:22 24.02.2020
2184 Clouds 26 1009 94 10000 3.1 340 17:55 24.02.2020
2185 Clouds 26 1009 94 10000 3.1 340 17:36 24.02.2020
2186 Clouds 26 1009 94 10000 2.1 340 17:18 24.02.2020
2187 Clouds 27 1010 80 0 4.81 44 16:54 24.02.2020
2188 Clouds 27 1010 80 0 4.81 44 16:36 24.02.2020
2189 Clouds 27 1010 80 0 4.81 44 16:18 24.02.2020
2190 Clouds 27 1010 80 0 4.81 44 15:54 24.02.2020
2191 Clouds 27 1010 80 0 4.81 44 15:36 24.02.2020
2192 Clouds 27 1010 80 0 4.81 44 15:18 24.02.2020
2193 Clouds 27 1010 80 0 4.81 44 14:40 24.02.2020
2194 Clouds 27 1010 80 0 4.81 44 14:21 24.02.2020
2195 Rain 29 1011 74 0 2.48 82 13:57 24.02.2020
2196 Rain 29 1011 74 0 2.48 82 13:38 24.02.2020
2197 Rain 27 1011 84 0 6.05 51 13:20 24.02.2020
2198 Rain 27 1011 84 0 6.05 51 12:57 24.02.2020
2199 Rain 27 1011 84 0 6.05 51 12:38 24.02.2020
2200 Rain 27 1011 84 0 6.05 51 12:38 24.02.2020
2201 Rain 27 1011 84 0 6.05 51 12:19 24.02.2020
2202 Rain 27 1011 84 0 6.05 51 11:44 24.02.2020
2203 Rain 27 1011 84 0 6.05 51 11:26 24.02.2020
2204 Rain 29 1009 75 0 2.1 321 10:45 24.02.2020
2205 Haze 31 1008 70 10000 5.1 230 10:26 24.02.2020
2206 Haze 31 1008 70 10000 5.1 230 09:54 24.02.2020
2207 Haze 31 1008 70 10000 5.1 230 09:54 24.02.2020
2208 Haze 31 1008 70 10000 5.1 230 09:36 24.02.2020
2209 Rain 29 1009 75 0 2.1 321 09:18 24.02.2020
2210 Rain 29 1009 75 0 2.1 321 08:44 24.02.2020
2211 Haze 33 1007 63 10000 6.2 230 08:25 24.02.2020
2212 Haze 33 1007 63 10000 6.2 230 07:44 24.02.2020
2213 Clouds 34 1007 59 10000 4.24 282 07:24 24.02.2020
2214 Clouds 34 1007 59 10000 4.24 282 06:36 24.02.2020
2215 Clouds 33 1008 59 10000 5.7 240 06:18 24.02.2020
2216 Clouds 32 1009 66 10000 3.1 240 05:28 24.02.2020
2217 Clouds 31 1011 74 10000 3.1 310 03:27 24.02.2020
2218 Clouds 31 1011 74 10000 3.1 310 02:51 24.02.2020
2219 Clouds 29 1012 83 10000 6.2 350 01:42 24.02.2020
2220 Clouds 27 1012 88 10000 5.1 340 00:52 24.02.2020
2221 Clouds 27 1011 88 10000 5.1 360 00:22 24.02.2020
2222 Clouds 27 1011 88 10000 5.1 360 23:58 23.02.2020
2223 Clouds 27 1011 88 10000 5.1 360 23:40 23.02.2020
2224 Clouds 25 1011 94 10000 2.6 320 23:18 23.02.2020
2225 Clouds 25 1011 94 10000 2.6 320 22:54 23.02.2020
2226 Clouds 25 1011 94 10000 2.6 320 22:36 23.02.2020
2227 Clouds 25 1010 94 10000 2.1 330 22:18 23.02.2020
2228 Clouds 25 1010 94 10000 2.1 330 21:43 23.02.2020
2229 Clouds 25 1009 94 10000 5.1 320 21:19 23.02.2020
2230 Clouds 25 1009 94 10000 5.1 320 20:55 23.02.2020
2231 Clouds 25 1009 94 10000 5.1 320 20:55 23.02.2020
2232 Clouds 25 1009 94 10000 5.1 320 20:37 23.02.2020
2233 Clouds 24 1009 100 10000 5.1 20 20:18 23.02.2020
2234 Clouds 24 1009 100 10000 5.1 20 19:54 23.02.2020
2235 Clouds 24 1009 100 10000 5.1 20 19:36 23.02.2020
2236 Clouds 24 1010 100 10000 2.6 20 19:18 23.02.2020
2237 Clouds 24 1010 100 10000 2.6 20 19:18 23.02.2020
2238 Clouds 24 1010 100 10000 2.6 20 18:41 23.02.2020
2239 Clouds 24 1011 100 10000 5.1 50 18:21 23.02.2020
2240 Clouds 24 1011 100 10000 5.1 50 17:58 23.02.2020
2241 Clouds 24 1011 100 10000 5.1 50 17:40 23.02.2020
2242 Clouds 26 1012 94 10000 7.7 350 17:21 23.02.2020
2243 Clouds 26 1012 94 10000 7.7 350 16:56 23.02.2020
2244 Clouds 26 1012 94 10000 7.7 350 16:38 23.02.2020
2245 Clouds 26 1012 94 10000 3.6 10 16:19 23.02.2020
2246 Clouds 26 1012 94 10000 3.6 10 15:54 23.02.2020
2247 Clouds 26 1012 94 10000 3.6 10 15:36 23.02.2020
2248 Rain 29 1009 77 0 3.03 135 15:18 23.02.2020
2249 Rain 29 1009 77 0 3.03 135 14:55 23.02.2020
2250 Rain 29 1009 77 0 3.03 135 14:55 23.02.2020
2251 Rain 29 1009 77 0 3.03 135 14:37 23.02.2020
2252 Rain 29 1011 78 0 3.44 163 14:18 23.02.2020
2253 Rain 29 1011 78 0 3.44 163 13:42 23.02.2020
2254 Rain 29 1010 80 0 3.9 177 13:22 23.02.2020
2255 Rain 29 1010 80 0 3.9 177 12:59 23.02.2020
2256 Rain 29 1010 80 0 3.9 177 12:39 23.02.2020
2257 Rain 29 1010 80 0 3.9 177 12:20 23.02.2020
2258 Rain 29 1010 80 0 3.9 177 11:38 23.02.2020
2259 Clouds 29 1008 78 0 3.62 197 11:20 23.02.2020
2260 Clouds 29 1008 78 0 3.62 197 10:56 23.02.2020
2261 Clouds 29 1008 78 0 3.62 197 10:38 23.02.2020
2262 Clouds 29 1007 83 10000 7.7 190 10:20 23.02.2020
2263 Clouds 29 1007 83 10000 7.7 190 09:54 23.02.2020
2264 Clouds 29 1007 83 10000 7.7 190 09:36 23.02.2020
2265 Clouds 29 1007 83 10000 7.7 190 09:36 23.02.2020
2266 Haze 31 1006 74 10000 7.7 200 09:18 23.02.2020
2267 Haze 31 1006 74 10000 7.7 200 08:42 23.02.2020
2268 Haze 32 1006 70 10000 7.7 220 08:23 23.02.2020
2269 Haze 32 1006 70 10000 7.7 220 07:41 23.02.2020
2270 Clouds 33 1006 63 10000 7.7 170 07:18 23.02.2020
2271 Clouds 33 1006 66 10000 7.7 200 06:19 23.02.2020
2272 Clouds 32 1007 75 10000 7.7 260 04:49 23.02.2020
2273 Clouds 34 1008 56 10000 5.1 240 03:50 23.02.2020
2274 Haze 34 1009 56 10000 4.1 240 02:38 23.02.2020
2275 Haze 32 1010 62 10000 3.6 350 01:27 23.02.2020
2276 Haze 32 1010 62 10000 3.6 350 00:55 23.02.2020
2277 Haze 32 1010 62 10000 3.6 350 00:37 23.02.2020
2278 Haze 29 1009 79 10000 5.1 320 00:18 23.02.2020
2279 Haze 29 1009 79 10000 5.1 320 23:41 22.02.2020
2280 Haze 29 1009 79 10000 5.1 320 23:19 22.02.2020
2281 Clouds 27 1008 83 10000 2.6 340 22:44 22.02.2020
2282 Clouds 25 1007 94 10000 3.6 350 22:19 22.02.2020
2283 Clouds 25 1007 94 10000 3.6 350 21:43 22.02.2020
2284 Clouds 26 1007 88 10000 1.5 320 21:24 22.02.2020
2285 Clouds 26 1007 88 10000 1.5 320 20:54 22.02.2020
2286 Clouds 26 1007 88 10000 1.5 320 20:36 22.02.2020
2287 Clouds 26 1007 88 10000 1.5 320 20:18 22.02.2020
2288 Rain 29 1008 74 0 2.26 66 19:42 22.02.2020
2289 Rain 29 1008 74 0 2.26 66 19:21 22.02.2020
2290 Rain 29 1008 74 0 2.26 66 18:41 22.02.2020
2291 Rain 29 1008 74 0 2.26 66 18:22 22.02.2020
2292 Rain 29 1008 74 0 2.26 66 17:58 22.02.2020
2293 Rain 29 1008 74 0 2.26 66 17:58 22.02.2020
2294 Rain 29 1008 74 0 2.26 66 17:40 22.02.2020
2295 Rain 29 1008 74 0 2.26 66 17:22 22.02.2020
2296 Clouds 29 1009 78 0 5.25 129 16:58 22.02.2020
2297 Clouds 29 1009 78 0 5.25 129 16:39 22.02.2020
2298 Clouds 29 1009 78 0 5.25 129 16:20 22.02.2020
2299 Clouds 29 1009 78 0 5.25 129 15:45 22.02.2020
2300 Clouds 29 1009 78 0 5.25 129 15:45 22.02.2020
2301 Clouds 27 1009 94 10000 1.5 0 15:26 22.02.2020
2302 Clouds 27 1009 94 10000 1.5 0 14:56 22.02.2020
2303 Clouds 27 1009 94 10000 1.5 0 14:38 22.02.2020
2304 Clouds 28 1010 88 10000 2.6 140 14:19 22.02.2020
2305 Clouds 29 1010 78 0 4.84 137 13:41 22.02.2020
2306 Clouds 29 1010 78 0 5.89 130 13:19 22.02.2020
2307 Clouds 29 1010 78 0 5.89 130 12:47 22.02.2020
2308 Clouds 28 1009 78 10000 2.6 150 12:24 22.02.2020
2309 Clouds 28 1009 78 10000 2.6 150 11:56 22.02.2020
2310 Clouds 28 1009 78 10000 2.6 150 11:36 22.02.2020
2311 Clouds 30 1008 70 10000 2.44 108 11:18 22.02.2020
2312 Clouds 30 1008 70 10000 2.44 108 10:40 22.02.2020
2313 Clouds 32 1007 62 10000 2.6 270 10:20 22.02.2020
2314 Clouds 32 1007 62 10000 2.6 270 09:58 22.02.2020
2315 Clouds 32 1007 62 10000 2.6 270 09:39 22.02.2020
2316 -273 0 0 0 0 0 09:21 22.02.2020
2317 Clouds 33 1006 59 10000 5.1 260 08:48 22.02.2020
2318 Clouds 33 1006 59 10000 7.2 270 08:28 22.02.2020
2319 Clouds 33 1006 59 10000 7.2 270 07:49 22.02.2020
2320 Clouds 34 1006 63 10000 6.7 280 07:20 22.02.2020
2321 Clouds 34 1006 63 10000 6.7 280 06:48 22.02.2020
2322 Clouds 34 1007 63 10000 6.7 280 06:29 22.02.2020
2323 Clouds 33 1008 63 10000 5.1 260 04:33 22.02.2020
2324 Clouds 28 1009 75 0 7.54 329 03:22 22.02.2020
2325 Clouds 30 1011 74 10000 5.1 340 02:29 22.02.2020
2326 Clouds 30 1011 74 10000 5.1 340 01:45 22.02.2020
2327 Clouds 30 1011 74 10000 5.1 340 01:45 22.02.2020
2328 Clouds 29 1011 79 10000 27.3 330 01:25 22.02.2020
2329 Clouds 29 1011 79 10000 27.3 330 00:45 22.02.2020
2330 Clouds 27 1011 88 10000 2.6 330 00:26 22.02.2020
2331 Clouds 27 1011 88 10000 2.6 330 23:45 21.02.2020
2332 Clouds 26 1010 94 10000 2.1 330 23:22 21.02.2020
2333 Clouds 26 1010 94 10000 2.1 330 22:54 21.02.2020
2334 Clouds 26 1010 94 10000 2.1 330 22:36 21.02.2020
2335 Clouds 26 1009 88 10000 2.6 330 22:18 21.02.2020
2336 Clouds 26 1009 88 10000 2.6 330 21:41 21.02.2020
2337 Clouds 26 1009 94 10000 3.1 320 21:23 21.02.2020
2338 Clouds 26 1009 94 10000 3.1 320 20:48 21.02.2020
2339 Clouds 26 1009 94 10000 3.1 320 20:29 21.02.2020
2340 Clouds 25 1009 94 10000 4.1 310 19:42 21.02.2020
2341 Clouds 25 1009 94 10000 4.1 310 19:24 21.02.2020
2342 Clouds 28 1008 70 0 1.58 353 18:56 21.02.2020
2343 Clouds 28 1008 70 0 1.58 353 18:38 21.02.2020
2344 Clouds 26 1009 88 10000 2.6 310 18:19 21.02.2020
2345 Clouds 26 1009 88 10000 2.6 310 17:40 21.02.2020
2346 Clouds 26 1009 88 10000 2.6 300 17:21 21.02.2020
2347 Clouds 26 1009 88 10000 2.6 300 17:21 21.02.2020
2348 Clouds 26 1009 88 10000 2.6 300 16:57 21.02.2020
2349 Clouds 26 1009 88 10000 2.6 300 16:39 21.02.2020
2350 Clouds 26 1009 88 10000 2.1 320 16:20 21.02.2020
2351 Clouds 26 1009 88 10000 2.1 320 15:45 21.02.2020
2352 Clouds 26 1010 88 10000 2.1 320 15:19 21.02.2020
2353 Clouds 26 1010 88 10000 2.1 320 14:57 21.02.2020
2354 Clouds 26 1010 88 10000 2.1 320 14:39 21.02.2020
2355 Clouds 27 1010 78 10000 2.1 320 14:19 21.02.2020
2356 Clouds 27 1010 78 10000 2.1 320 13:42 21.02.2020
2357 Clouds 28 1010 74 10000 2.1 360 13:23 21.02.2020
2358 Clouds 28 1010 74 10000 2.1 360 12:50 21.02.2020
2359 Clouds 28 1009 74 10000 2.1 0 12:28 21.02.2020
2360 Clouds 28 1009 74 10000 2.1 0 11:59 21.02.2020
2361 Clouds 28 1009 74 10000 2.1 0 11:40 21.02.2020
2362 Haze 30 1009 66 10000 4.1 310 11:21 21.02.2020
2363 Haze 30 1009 66 10000 4.1 310 10:55 21.02.2020
2364 Haze 30 1009 66 10000 4.1 310 10:36 21.02.2020
2365 Haze 30 1009 66 10000 4.1 310 10:18 21.02.2020
2366 Haze 30 1009 66 10000 4.1 310 10:18 21.02.2020
2367 Haze 32 1007 55 10000 7.7 310 09:42 21.02.2020
2368 Haze 33 1007 55 10000 5.1 300 09:24 21.02.2020
2369 Haze 33 1007 55 10000 5.1 300 08:58 21.02.2020
2370 Haze 33 1007 55 10000 5.1 300 08:39 21.02.2020
2371 Haze 33 1006 59 10000 7.7 300 08:21 21.02.2020
2372 Haze 33 1006 59 10000 7.7 300 07:55 21.02.2020
2373 Haze 33 1006 59 10000 7.7 300 07:36 21.02.2020
2374 Haze 34 1007 52 10000 5.1 280 07:18 21.02.2020
2375 Haze 34 1007 52 10000 5.1 280 06:39 21.02.2020
2376 Clouds 30 1006 74 0 5.51 279 06:21 21.02.2020
2377 Clouds 30 1006 74 0 5.51 279 05:35 21.02.2020
2378 Clouds 30 1008 73 0 7.04 294 04:26 21.02.2020
2379 Clouds 30 1008 73 0 7.04 294 03:52 21.02.2020
2380 Clouds 34 1009 56 10000 10.3 320 02:59 21.02.2020
2381 Clouds 33 1010 63 10000 10.3 320 01:44 21.02.2020
2382 Clouds 31 1010 66 10000 5.7 320 01:22 21.02.2020
2383 Clouds 31 1010 66 10000 5.7 320 00:39 21.02.2020
2384 Clouds 31 1010 66 10000 5.7 320 00:39 21.02.2020
2385 Clouds 29 1010 74 0 6.35 324 00:19 21.02.2020
2386 Clouds 29 1010 74 0 6.35 324 23:41 20.02.2020
2387 Clouds 29 1010 74 0 6.35 324 23:22 20.02.2020
2388 Clouds 27 1010 79 0 5.39 347 22:42 20.02.2020
2389 Clouds 26 1009 88 10000 4.1 350 22:23 20.02.2020
2390 Clouds 26 1009 88 10000 4.1 350 21:58 20.02.2020
2391 Clouds 26 1009 88 10000 4.1 350 21:39 20.02.2020
2392 Clouds 26 1009 88 10000 4.1 350 21:39 20.02.2020
2393 Clouds 25 1008 94 10000 2.6 340 21:20 20.02.2020
2394 Clouds 25 1008 94 10000 2.6 340 20:57 20.02.2020
2395 Clouds 25 1008 94 10000 2.6 340 20:39 20.02.2020
2396 Rain 27 1008 82 0 5.03 6 20:19 20.02.2020
2397 Rain 27 1008 82 0 5.03 6 20:19 20.02.2020
2398 Rain 27 1008 82 0 5.03 6 19:59 20.02.2020
2399 Rain 27 1008 82 0 5.03 6 19:40 20.02.2020
2400 Rain 27 1008 82 0 5.03 6 19:22 20.02.2020
2401 Rain 27 1008 82 0 5.03 6 18:55 20.02.2020
2402 Rain 27 1008 82 0 5.03 6 18:36 20.02.2020
2403 Rain 27 1008 82 0 5.03 6 18:18 20.02.2020
2404 Rain 27 1008 82 0 5.03 6 17:39 20.02.2020
2405 Rain 28 1009 75 0 2.26 326 17:19 20.02.2020
2406 Rain 28 1009 75 0 2.26 326 16:56 20.02.2020
2407 Rain 28 1009 75 0 2.26 326 16:38 20.02.2020
2408 Clouds 26 1010 88 10000 2.6 340 16:18 20.02.2020
2409 Clouds 26 1010 88 10000 2.6 340 15:42 20.02.2020
2410 Rain 28 1009 75 0 2.26 326 15:22 20.02.2020
2411 Rain 28 1009 75 0 2.26 326 14:57 20.02.2020
2412 Rain 28 1009 75 0 2.26 326 14:39 20.02.2020
2413 Clouds 29 1010 76 0 3.56 299 14:21 20.02.2020
2414 Clouds 29 1010 76 0 3.56 299 13:54 20.02.2020
2415 Clouds 29 1010 76 0 3.56 299 13:36 20.02.2020
2416 Clouds 29 1009 70 10000 3.1 360 13:18 20.02.2020
2417 Clouds 29 1009 70 10000 3.1 360 12:42 20.02.2020
2418 Clouds 29 1009 70 10000 3.1 360 12:21 20.02.2020
2419 Clouds 29 1010 77 0 3.14 311 11:57 20.02.2020
2420 Clouds 29 1010 77 0 3.14 311 11:39 20.02.2020
2421 Clouds 29 1010 77 0 3.14 311 11:39 20.02.2020
2422 Clouds 29 1007 76 0 5.62 299 11:20 20.02.2020
2423 Clouds 29 1007 76 0 5.62 299 10:55 20.02.2020
2424 Clouds 29 1007 76 0 5.62 299 10:36 20.02.2020
2425 Haze 32 1006 59 10000 7.7 310 10:18 20.02.2020
2426 Haze 32 1006 59 10000 7.7 310 09:37 20.02.2020
2427 Clouds 32 1006 59 10000 10.3 290 09:19 20.02.2020
2428 Clouds 32 1006 59 10000 10.3 290 08:41 20.02.2020
2429 Haze 35 1005 53 10000 5.1 310 08:22 20.02.2020
2430 Haze 35 1005 53 10000 5.1 310 07:47 20.02.2020
2431 Rain 30 1006 72 0 8.61 308 07:27 20.02.2020
2432 Rain 30 1006 72 0 8.61 308 06:57 20.02.2020
2433 Rain 30 1006 72 0 8.61 308 06:31 20.02.2020
2434 Haze 35 1006 53 10000 5.1 310 05:47 20.02.2020
2435 Haze 35 1007 56 10000 7.7 300 05:19 20.02.2020
2436 Haze 34 1008 56 10000 10.3 300 04:29 20.02.2020
2437 Haze 34 1008 56 10000 10.3 300 03:40 20.02.2020
2438 Haze 33 1009 63 10000 10.3 330 02:37 20.02.2020
2439 Clouds 30 1009 70 10000 7.7 330 01:21 20.02.2020
2440 Clouds 30 1009 70 10000 7.7 330 00:34 20.02.2020
2441 Clouds 28 1010 78 10000 7.7 340 23:54 19.02.2020
2442 Clouds 25 1008 88 10000 7.7 330 23:24 19.02.2020
2443 Clouds 25 1008 88 10000 7.7 330 22:56 19.02.2020
2444 Clouds 25 1008 88 10000 7.7 330 22:38 19.02.2020
2445 Clouds 25 1008 94 10000 5.1 330 22:20 19.02.2020
2446 Clouds 25 1008 94 10000 5.1 330 21:55 19.02.2020
2447 Clouds 25 1008 94 10000 5.1 330 21:37 19.02.2020
2448 Clouds 24 1007 100 10000 5.1 320 21:18 19.02.2020
2449 Clouds 24 1007 100 10000 5.1 320 20:55 19.02.2020
2450 Clouds 24 1007 100 10000 5.1 320 20:36 19.02.2020
2451 Rain 28 1007 78 0 3.21 8 20:18 19.02.2020
2452 Clouds 27 1006 78 0 3.38 2 19:55 19.02.2020
2453 Clouds 27 1006 78 0 3.38 2 19:36 19.02.2020
2454 Clouds 27 1006 78 0 3.38 2 19:18 19.02.2020
2455 Clouds 27 1006 78 0 3.38 2 18:55 19.02.2020
2456 Clouds 27 1006 78 0 3.38 2 18:37 19.02.2020
2457 Clouds 27 1006 78 0 3.38 2 18:19 19.02.2020
2458 Clouds 27 1006 78 0 3.38 2 17:42 19.02.2020
2459 Clouds 27 1006 78 0 3.38 2 17:42 19.02.2020
2460 Clouds 27 1007 82 0 3.33 15 17:19 19.02.2020
2461 Clouds 27 1007 82 0 3.33 15 16:44 19.02.2020
2462 Clouds 27 1007 82 0 3.33 15 16:19 19.02.2020
2463 Clouds 27 1007 82 0 3.33 15 15:58 19.02.2020
2464 Clouds 27 1007 82 0 3.33 15 15:38 19.02.2020
2465 Clouds 27 1007 82 0 3.33 15 15:20 19.02.2020
2466 Clouds 27 1007 82 0 3.33 15 14:41 19.02.2020
2467 Clouds 27 1007 82 0 3.33 15 14:23 19.02.2020
2468 Rain 29 1009 77 0 1.95 337 13:56 19.02.2020
2469 Rain 29 1009 77 0 1.95 337 13:37 19.02.2020
2470 Rain 29 1009 77 0 1.95 337 13:18 19.02.2020
2471 Rain 29 1008 76 0 1.65 346 12:39 19.02.2020
2472 Rain 29 1008 76 0 1.65 346 12:19 19.02.2020
2473 Rain 29 1008 76 0 1.65 346 11:55 19.02.2020
2474 Rain 29 1008 76 0 1.65 346 11:37 19.02.2020
2475 Clouds 29 1007 77 0 3.14 281 11:18 19.02.2020
2476 Clouds 29 1007 77 0 3.14 281 10:56 19.02.2020
2477 Clouds 29 1007 77 0 3.14 281 10:36 19.02.2020
2478 Clouds 31 1006 66 10000 7.7 290 10:18 19.02.2020
2479 Clouds 31 1006 66 10000 7.7 290 09:42 19.02.2020
2480 Clouds 32 1005 66 10000 9.3 300 09:20 19.02.2020
2481 Clouds 32 1005 66 10000 9.3 300 08:56 19.02.2020
2482 Clouds 32 1005 66 10000 9.3 300 08:37 19.02.2020
2483 Clouds 33 1004 63 10000 7.7 290 08:18 19.02.2020
2484 Clouds 33 1004 63 10000 7.7 290 07:41 19.02.2020
2485 Clouds 33 1005 66 10000 9.3 250 07:20 19.02.2020
2486 Clouds 33 1005 66 10000 9.3 250 06:46 19.02.2020
2487 Clouds 33 1005 63 10000 9.3 250 05:35 19.02.2020
2488 Clouds 34 1007 56 10000 9.3 290 03:56 19.02.2020
2489 Rain 30 1006 71 0 5.93 280 02:45 19.02.2020
2490 Clouds 32 1008 62 10000 5.1 360 01:53 19.02.2020
2491 Clouds 30 1008 70 10000 5.1 320 01:23 19.02.2020
2492 Clouds 30 1008 70 10000 5.1 320 00:42 19.02.2020
2493 Clouds 27 1008 88 10000 5.1 320 00:22 19.02.2020
2494 Clouds 27 1008 88 10000 5.1 320 23:41 18.02.2020
2495 Clouds 23 1007 100 10000 5.1 320 23:20 18.02.2020
2496 Clouds 23 1007 100 10000 5.1 320 22:55 18.02.2020
2497 Clouds 23 1007 100 10000 5.1 320 22:37 18.02.2020
2498 Clouds 23 1007 100 10000 5.1 310 22:19 18.02.2020
2499 Clouds 23 1007 100 10000 5.1 310 21:55 18.02.2020
2500 Clouds 23 1007 100 10000 5.1 310 21:36 18.02.2020
2501 Clouds 24 1006 100 10000 5.1 320 21:18 18.02.2020
2502 Clouds 24 1006 100 10000 5.1 320 20:54 18.02.2020
2503 Clouds 24 1006 100 10000 5.1 320 20:36 18.02.2020
2504 Clouds 24 1006 100 10000 5.1 320 20:18 18.02.2020
2505 Clouds 24 1006 100 10000 5.1 320 19:42 18.02.2020
2506 Clouds 24 1006 100 10000 5.1 320 19:19 18.02.2020
2507 Clouds 24 1006 100 10000 5.1 320 18:56 18.02.2020
2508 Clouds 24 1006 100 10000 5.1 320 18:38 18.02.2020
2509 Clouds 25 1007 94 10000 5.1 320 18:18 18.02.2020
2510 Clouds 25 1007 94 10000 5.1 320 17:40 18.02.2020
2511 Clouds 25 1007 94 10000 2.6 320 17:19 18.02.2020
2512 Clouds 25 1007 94 10000 2.6 320 16:40 18.02.2020
2513 -273 0 0 0 0 0 16:21 18.02.2020
2514 Clouds 25 1008 94 10000 2.6 350 15:55 18.02.2020
2515 Clouds 25 1008 94 10000 2.6 350 15:36 18.02.2020
2516 Clouds 25 1008 94 10000 2.6 350 15:36 18.02.2020
2517 Clouds 25 1008 94 10000 2.6 350 15:18 18.02.2020
2518 Clouds 26 1008 94 10000 2.1 0 14:54 18.02.2020
2519 Clouds 26 1008 94 10000 2.1 0 14:36 18.02.2020
2520 Clouds 27 1008 88 10000 1.5 0 14:18 18.02.2020
2521 Clouds 27 1008 88 10000 1.5 0 13:41 18.02.2020
2522 Clouds 27 1008 88 10000 1.5 0 13:41 18.02.2020
2523 Clouds 27 1008 88 10000 1.5 0 13:21 18.02.2020
2524 Clouds 27 1008 88 10000 2.6 350 12:44 18.02.2020
2525 Clouds 27 1008 88 10000 2.6 350 12:25 18.02.2020
2526 Clouds 28 1008 83 10000 5.1 310 11:59 18.02.2020
2527 Clouds 28 1008 83 10000 5.1 310 11:41 18.02.2020
2528 Clouds 29 1007 79 10000 5.1 290 11:22 18.02.2020
2529 Clouds 29 1007 79 10000 5.1 290 10:44 18.02.2020
2530 Clouds 29 1007 79 10000 5.1 290 10:23 18.02.2020
2531 Clouds 30 1006 74 10000 5.1 280 09:57 18.02.2020
2532 Clouds 30 1006 74 10000 5.1 280 09:38 18.02.2020
2533 Rain 29 1007 76 0 4.31 303 09:20 18.02.2020
2534 Rain 29 1007 76 0 4.31 303 08:55 18.02.2020
2535 Rain 29 1007 76 0 4.31 303 08:37 18.02.2020
2536 Rain 30 1005 72 0 6.19 284 08:19 18.02.2020
2537 Rain 30 1005 72 0 6.19 284 08:19 18.02.2020
2538 Rain 30 1005 72 0 6.19 284 07:46 18.02.2020
2539 Clouds 33 1005 63 10000 10.3 280 07:25 18.02.2020
2540 Clouds 33 1005 63 10000 10.3 280 06:51 18.02.2020
2541 Clouds 32 1006 70 10000 7.7 280 06:28 18.02.2020
2542 Clouds 32 1006 70 10000 7.7 280 05:48 18.02.2020
2543 Clouds 34 1007 59 10000 7.7 270 05:20 18.02.2020
2544 Clouds 33 1008 63 10000 5.1 330 03:49 18.02.2020
2545 Clouds 32 1008 66 10000 5.1 330 02:58 18.02.2020
2546 Clouds 30 1010 70 10000 5.7 320 01:25 18.02.2020
2547 Clouds 30 1010 70 10000 5.7 320 00:40 18.02.2020
2548 Haze 27 1009 88 10000 4.1 330 00:18 18.02.2020
2549 Haze 27 1009 88 10000 4.1 330 23:39 17.02.2020
2550 Haze 25 1009 94 10000 3.1 310 23:19 17.02.2020
2551 Haze 25 1009 94 10000 3.1 310 22:57 17.02.2020
2552 Haze 25 1009 94 10000 3.1 310 22:38 17.02.2020
2553 Haze 23 1008 100 10000 3.1 320 22:18 17.02.2020
2554 Haze 23 1008 100 10000 3.1 320 21:39 17.02.2020
2555 Clouds 24 1008 100 10000 2.6 300 21:19 17.02.2020
2556 Clouds 24 1008 100 10000 2.6 300 20:55 17.02.2020
2557 Clouds 24 1008 100 10000 2.6 300 20:36 17.02.2020
2558 Clouds 24 1008 100 10000 2.6 300 20:36 17.02.2020
2559 Clouds 24 1007 100 10000 2.6 300 20:18 17.02.2020
2560 Clouds 24 1007 100 10000 2.6 300 19:42 17.02.2020
2561 -273 0 0 0 0 0 19:20 17.02.2020
2562 Clouds 24 1008 100 10000 2.6 300 18:39 17.02.2020
2563 Clouds 24 1008 100 10000 2.6 300 18:39 17.02.2020
2564 Clouds 24 1008 100 10000 2.6 320 18:20 17.02.2020
2565 Clouds 24 1008 100 10000 2.6 320 17:59 17.02.2020
2566 Clouds 24 1008 100 10000 2.6 320 17:38 17.02.2020
2567 Clouds 25 1009 94 10000 2.6 320 17:19 17.02.2020
2568 Clouds 25 1009 94 10000 2.6 320 16:58 17.02.2020
2569 Clouds 25 1009 94 10000 2.6 320 16:40 17.02.2020
2570 Clouds 25 1009 94 10000 3.6 340 16:21 17.02.2020
2571 Clouds 25 1009 94 10000 3.6 340 15:45 17.02.2020
2572 Clouds 25 1009 94 10000 3.6 340 15:45 17.02.2020
2573 Rain 27 1008 79 0 3.99 4 15:26 17.02.2020
2574 Rain 27 1008 79 0 3.99 4 14:56 17.02.2020
2575 -273 0 0 0 0 0 14:38 17.02.2020
2576 Clouds 26 1009 88 10000 2.6 30 14:19 17.02.2020
2577 Clouds 26 1009 88 10000 2.6 30 13:41 17.02.2020
2578 Clouds 26 1009 88 10000 2.6 20 13:21 17.02.2020
2579 Clouds 26 1009 88 10000 2.6 20 12:59 17.02.2020
2580 Clouds 26 1009 88 10000 2.6 20 12:40 17.02.2020
2581 Rain 29 1010 76 0 2.92 339 12:22 17.02.2020
2582 Rain 29 1010 76 0 2.92 339 11:47 17.02.2020
2583 Rain 29 1010 76 0 2.92 339 11:27 17.02.2020
2584 Rain 29 1008 77 0 4.01 307 10:58 17.02.2020
2585 Rain 29 1008 77 0 4.01 307 10:39 17.02.2020
2586 Rain 29 1008 77 0 4.01 307 10:20 17.02.2020
2587 Rain 29 1008 77 0 4.01 307 09:58 17.02.2020
2588 Rain 29 1008 77 0 4.01 307 09:39 17.02.2020
2589 Haze 31 1007 70 10000 7.7 280 09:19 17.02.2020
2590 Haze 31 1007 70 10000 7.7 280 08:45 17.02.2020
2591 Haze 32 1006 66 10000 7.7 280 08:23 17.02.2020
2592 Haze 32 1006 66 10000 7.7 280 07:59 17.02.2020
2593 Haze 32 1006 66 10000 7.7 280 07:39 17.02.2020
2594 Haze 32 1006 70 10000 7.7 280 07:21 17.02.2020
2595 Haze 32 1006 70 10000 7.7 280 06:46 17.02.2020
2596 Clouds 33 1007 66 10000 9.3 280 06:27 17.02.2020
2597 Clouds 33 1007 66 10000 9.3 280 05:40 17.02.2020
2598 Clouds 31 1008 74 10000 5.1 330 04:26 17.02.2020
2599 Haze 30 1009 70 10000 5.1 360 02:49 17.02.2020
2600 Clouds 28 1010 83 10000 4.1 310 01:23 17.02.2020
2601 Clouds 28 1010 83 10000 4.1 310 00:39 17.02.2020
2602 Clouds 26 1009 88 10000 5.1 320 00:19 17.02.2020
2603 Clouds 26 1009 88 10000 5.1 320 23:48 16.02.2020
2604 Clouds 23 1009 100 10000 4.6 320 23:27 16.02.2020
2605 Clouds 23 1009 100 10000 4.6 320 22:56 16.02.2020
2606 Clouds 23 1009 100 10000 4.6 320 22:38 16.02.2020
2607 Clouds 23 1008 100 10000 2.6 310 22:18 16.02.2020
2608 Clouds 23 1008 100 10000 2.6 310 21:43 16.02.2020
2609 Clouds 23 1008 100 10000 2.6 330 21:24 16.02.2020
2610 Clouds 23 1008 100 10000 2.6 330 20:59 16.02.2020
2611 Clouds 23 1008 100 10000 2.6 330 20:41 16.02.2020
2612 Clouds 23 1007 100 10000 2.6 330 20:22 16.02.2020
2613 Clouds 23 1007 100 10000 2.6 330 19:59 16.02.2020
2614 Clouds 23 1007 100 10000 2.6 330 19:40 16.02.2020
2615 Clouds 25 1008 100 10000 2.6 330 19:19 16.02.2020
2616 Clouds 25 1008 100 10000 2.6 330 18:59 16.02.2020
2617 Clouds 25 1008 100 10000 2.6 330 18:41 16.02.2020
2618 Clouds 25 1008 100 10000 2.6 310 18:22 16.02.2020
2619 Clouds 25 1008 100 10000 2.6 310 17:44 16.02.2020
2620 Clouds 25 1009 100 10000 2.6 320 17:21 16.02.2020
2621 Clouds 25 1009 100 10000 2.6 320 16:57 16.02.2020
2622 Clouds 25 1009 100 10000 2.6 320 16:39 16.02.2020
2623 Clouds 25 1009 94 10000 5.1 320 16:21 16.02.2020
2624 Clouds 25 1009 94 10000 5.1 320 15:56 16.02.2020
2625 Clouds 25 1009 94 10000 5.1 320 15:37 16.02.2020
2626 Clouds 28 1009 79 0 4.86 332 15:18 16.02.2020
2627 Clouds 28 1009 79 0 4.86 332 14:39 16.02.2020
2628 Clouds 29 1010 80 0 5.27 324 14:21 16.02.2020
2629 Clouds 29 1010 80 0 5.27 324 13:45 16.02.2020
2630 Clouds 28 1010 81 0 5.34 326 13:24 16.02.2020
2631 Clouds 28 1010 81 0 5.34 326 12:55 16.02.2020
2632 Clouds 28 1010 81 0 5.34 326 12:36 16.02.2020
2633 Clouds 28 1010 81 0 5.34 326 12:18 16.02.2020
2634 Clouds 28 1010 81 0 5.34 326 11:38 16.02.2020
2635 Clouds 29 1008 79 0 5.74 305 11:18 16.02.2020
2636 Clouds 29 1008 79 0 5.74 305 10:56 16.02.2020
2637 Clouds 29 1008 79 0 5.74 305 10:38 16.02.2020
2638 Haze 29 1007 79 10000 7.7 280 10:19 16.02.2020
2639 Haze 29 1007 79 10000 7.7 280 09:55 16.02.2020
2640 Haze 29 1007 79 10000 7.7 280 09:36 16.02.2020
2641 Haze 31 1006 70 10000 7.7 280 09:18 16.02.2020
2642 Haze 31 1006 70 10000 7.7 280 08:44 16.02.2020
2643 Haze 32 1006 62 10000 7.7 280 08:21 16.02.2020
2644 Haze 32 1006 62 10000 7.7 280 07:51 16.02.2020
2645 Haze 32 1006 62 10000 7.7 280 07:33 16.02.2020
2646 Haze 33 1006 59 10000 10.3 270 06:33 16.02.2020
2647 Clouds 34 1007 56 10000 5.1 360 04:42 16.02.2020
2648 Clouds 33 1009 59 10000 5.1 350 03:29 16.02.2020
2649 Clouds 33 1009 59 10000 5.1 350 02:32 16.02.2020
2650 Clouds 32 1010 62 10000 4.1 330 01:42 16.02.2020
2651 Clouds 30 1010 66 10000 3.6 360 01:22 16.02.2020
2652 Clouds 30 1010 66 10000 3.6 360 00:52 16.02.2020
2653 Clouds 28 1010 70 0 3.87 332 00:31 16.02.2020
2654 Clouds 25 1010 94 10000 2.6 320 23:46 15.02.2020
2655 Clouds 23 1009 94 10000 3.6 331 23:26 15.02.2020
2656 Clouds 23 1009 94 10000 3.6 331 22:59 15.02.2020
2657 Clouds 23 1009 94 10000 3.6 331 22:41 15.02.2020
2658 Clouds 22 1009 100 10000 3.6 330 22:21 15.02.2020
2659 Clouds 22 1009 100 10000 3.6 330 21:58 15.02.2020
2660 Clouds 22 1009 100 10000 3.6 330 21:39 15.02.2020
2661 Clouds 27 1009 74 0 2.93 354 21:21 15.02.2020
2662 Clouds 27 1009 74 0 2.93 354 20:39 15.02.2020
2663 Clouds 27 1008 77 0 3.34 356 20:21 15.02.2020
2664 Clouds 26 1008 77 0 3.12 356 19:44 15.02.2020
2665 Clouds 26 1008 77 0 3.12 356 19:22 15.02.2020
2666 Clouds 26 1008 77 0 3.12 356 18:45 15.02.2020
2667 Clouds 26 1008 77 0 3.12 356 18:24 15.02.2020
2668 Clouds 26 1008 77 0 3.12 356 17:58 15.02.2020
2669 Clouds 26 1008 77 0 3.12 356 17:58 15.02.2020
2670 Clouds 26 1008 77 0 3.12 356 17:58 15.02.2020
2671 Clouds 26 1008 77 0 3.12 356 17:39 15.02.2020
2672 Clouds 26 1008 77 0 3.12 356 17:39 15.02.2020
2673 Clouds 27 1009 78 0 4.07 340 17:21 15.02.2020
2674 Clouds 27 1009 78 0 4.07 340 16:43 15.02.2020
2675 Clouds 27 1009 78 0 4.07 340 16:25 15.02.2020
2676 Clouds 27 1009 78 0 4.07 340 15:59 15.02.2020
2677 Clouds 27 1009 78 0 4.07 340 15:41 15.02.2020
2678 Clouds 25 1010 94 10000 5.1 350 15:22 15.02.2020
2679 Clouds 25 1010 94 10000 5.1 350 14:45 15.02.2020
2680 Clouds 26 1010 94 10000 2.6 2 14:19 15.02.2020
2681 Clouds 26 1010 94 10000 2.6 2 13:56 15.02.2020
2682 Clouds 26 1010 94 10000 2.6 2 13:37 15.02.2020
2683 Clouds 26 1009 94 10000 2.6 8 13:19 15.02.2020
2684 Clouds 26 1009 94 10000 2.6 8 12:42 15.02.2020
2685 Clouds 26 1009 94 10000 1.5 0 12:23 15.02.2020
2686 Clouds 26 1009 94 10000 1.5 0 11:49 15.02.2020
2687 Clouds 27 1008 88 10000 5.1 340 11:31 15.02.2020
2688 Clouds 27 1008 88 10000 5.1 340 10:56 15.02.2020
2689 Clouds 27 1008 88 10000 5.1 340 10:38 15.02.2020
2690 Clouds 29 1008 79 10000 5.1 330 10:19 15.02.2020
2691 Clouds 29 1008 79 10000 5.1 330 09:43 15.02.2020
2692 Clouds 29 1008 83 10000 7.7 350 09:25 15.02.2020
2693 Clouds 29 1008 83 10000 7.7 350 08:44 15.02.2020
2694 Clouds 28 1008 88 10000 5.1 330 08:25 15.02.2020
2695 Clouds 28 1008 88 10000 5.1 330 07:59 15.02.2020
2696 Clouds 28 1008 88 10000 5.1 330 07:39 15.02.2020
2697 Clouds 30 1008 74 10000 5.1 320 07:18 15.02.2020
2698 Clouds 30 1008 74 10000 5.1 320 06:37 15.02.2020
2699 Clouds 30 1008 74 10000 5.1 330 05:54 15.02.2020
2700 Clouds 30 1009 74 10000 2.6 330 04:48 15.02.2020
2701 Clouds 29 1010 79 10000 2.6 340 03:43 15.02.2020
2702 Clouds 29 1010 79 10000 7.7 320 02:58 15.02.2020
2703 Clouds 29 1011 79 10000 7.7 340 02:23 15.02.2020
2704 Clouds 29 1011 79 10000 7.7 340 01:41 15.02.2020
2705 Clouds 27 1011 88 10000 5.1 320 00:43 15.02.2020
2706 Clouds 26 1011 88 10000 5.1 340 00:24 15.02.2020
2707 Clouds 26 1011 88 10000 5.1 340 23:42 14.02.2020
2708 Clouds 25 1010 94 10000 5.1 320 23:20 14.02.2020
2709 Clouds 25 1010 94 10000 5.1 320 22:44 14.02.2020
2710 Clouds 25 1009 94 10000 2.6 320 22:24 14.02.2020
2711 Clouds 25 1009 94 10000 2.6 320 21:54 14.02.2020
2712 Clouds 25 1009 94 10000 2.6 320 21:36 14.02.2020
2713 Clouds 25 1009 94 10000 2.6 320 21:36 14.02.2020
2714 Rain 27 1010 80 0 6.65 344 21:18 14.02.2020
2715 Rain 27 1010 80 0 6.65 344 20:42 14.02.2020
2716 Clouds 23 1008 100 10000 2.6 310 20:19 14.02.2020
2717 Clouds 23 1008 100 10000 2.6 310 19:55 14.02.2020
2718 Clouds 23 1008 100 10000 2.6 310 19:37 14.02.2020
2719 Clouds 23 1008 100 10000 2.6 310 19:18 14.02.2020
2720 Rain 27 1008 81 0 5.13 347 18:55 14.02.2020
2721 Rain 27 1008 81 0 5.13 347 18:36 14.02.2020
2722 Clouds 24 1008 100 10000 2.6 330 18:18 14.02.2020
2723 Clouds 24 1008 100 10000 2.6 330 17:40 14.02.2020
2724 Clouds 24 1008 100 10000 2.6 330 17:19 14.02.2020
2725 Rain 28 1009 79 0 4.65 333 16:43 14.02.2020
2726 Clouds 25 1009 94 10000 2.6 310 16:24 14.02.2020
2727 Clouds 25 1009 94 10000 2.6 310 15:58 14.02.2020
2728 Clouds 25 1009 94 10000 2.6 310 15:40 14.02.2020
2729 Clouds 26 1010 88 10000 1.5 300 15:21 14.02.2020
2730 Clouds 26 1010 88 10000 1.5 300 14:59 14.02.2020
2731 Clouds 26 1010 88 10000 1.5 300 14:41 14.02.2020
2732 Clouds 26 1010 88 10000 1.5 300 14:41 14.02.2020
2733 Clouds 27 1010 83 10000 2.6 350 14:22 14.02.2020
2734 Clouds 27 1010 83 10000 2.6 350 13:56 14.02.2020
2735 Clouds 27 1010 83 10000 2.6 350 13:38 14.02.2020
2736 Clouds 27 1009 83 10000 2.6 330 13:19 14.02.2020
2737 Clouds 27 1009 83 10000 2.6 330 12:56 14.02.2020
2738 Clouds 27 1009 83 10000 2.6 330 12:38 14.02.2020
2739 Clouds 28 1009 74 10000 5.1 320 12:20 14.02.2020
2740 Clouds 28 1009 74 10000 5.1 320 11:55 14.02.2020
2741 Clouds 28 1009 74 10000 5.1 320 11:37 14.02.2020
2742 Clouds 29 1008 74 10000 5.1 310 11:19 14.02.2020
2743 Clouds 29 1008 74 10000 5.1 310 10:41 14.02.2020
2744 Clouds 29 1007 74 10000 5.7 330 10:22 14.02.2020
2745 Clouds 29 1007 74 10000 5.7 330 10:22 14.02.2020
2746 Clouds 29 1007 74 10000 5.7 330 09:45 14.02.2020
2747 Clouds 30 1006 70 10000 2.6 330 09:24 14.02.2020
2748 Clouds 30 1006 70 10000 2.6 330 08:58 14.02.2020
2749 Clouds 30 1006 70 10000 2.6 330 08:39 14.02.2020
2750 Clouds 30 1006 70 10000 5.1 330 08:21 14.02.2020
2751 Clouds 30 1006 70 10000 5.1 330 07:50 14.02.2020
2752 Clouds 31 1007 66 10000 5.1 310 07:29 14.02.2020
2753 Clouds 31 1007 66 10000 5.1 310 06:39 14.02.2020
2754 Clouds 31 1007 66 10000 5.1 310 06:20 14.02.2020
2755 Clouds 32 1008 62 10000 8.2 300 05:29 14.02.2020
2756 Clouds 31 1009 74 10000 5.1 330 03:49 14.02.2020
2757 Rain 29 1008 74 0 9.02 302 02:58 14.02.2020
2758 Clouds 28 1010 83 10000 7.7 330 01:57 14.02.2020
2759 Clouds 25 1010 94 10000 5.1 320 00:46 14.02.2020
2760 Clouds 25 1010 94 10000 5.1 330 00:27 14.02.2020
2761 Clouds 25 1010 94 10000 5.1 330 23:57 13.02.2020
2762 Clouds 25 1010 94 10000 5.1 330 23:38 13.02.2020
2763 Clouds 24 1010 100 10000 7.7 320 23:18 13.02.2020
2764 Clouds 24 1010 100 10000 7.7 320 22:40 13.02.2020
2765 Clouds 23 1009 100 10000 5.1 340 22:19 13.02.2020
2766 Clouds 23 1009 100 10000 5.1 340 21:57 13.02.2020
2767 Clouds 23 1009 100 10000 5.1 340 21:37 13.02.2020
2768 Clouds 23 1009 100 10000 5.1 330 21:19 13.02.2020
2769 Clouds 23 1009 100 10000 5.1 330 20:42 13.02.2020
2770 Clouds 23 1009 100 10000 3.1 330 20:22 13.02.2020
2771 Clouds 23 1009 100 10000 3.1 330 20:22 13.02.2020
2772 Clouds 23 1009 100 10000 3.1 330 19:57 13.02.2020
2773 Clouds 23 1009 100 10000 3.1 330 19:38 13.02.2020
2774 Clouds 23 1009 100 10000 7.7 340 19:20 13.02.2020
2775 Clouds 23 1009 100 10000 7.7 340 18:56 13.02.2020
2776 Clouds 23 1009 100 10000 7.7 340 18:37 13.02.2020
2777 Clouds 23 1010 100 10000 7.7 340 18:19 13.02.2020
2778 Clouds 23 1010 100 10000 7.7 340 17:54 13.02.2020
2779 Clouds 23 1010 100 10000 7.7 340 17:36 13.02.2020
2780 Clouds 23 1010 100 10000 5.1 340 17:18 13.02.2020
2781 Rain 27 1008 76 0 5.94 347 16:41 13.02.2020
2782 Rain 27 1008 76 0 5.94 347 16:20 13.02.2020
2783 Rain 27 1008 76 0 5.94 347 15:57 13.02.2020
2784 Rain 27 1008 76 0 5.94 347 15:39 13.02.2020
2785 Rain 27 1008 76 0 5.94 347 15:19 13.02.2020
2786 Rain 27 1008 76 0 5.94 347 14:58 13.02.2020
2787 Rain 27 1008 76 0 5.94 347 14:39 13.02.2020
2788 Rain 29 1010 76 0 5.05 311 14:21 13.02.2020
2789 Rain 29 1010 76 0 5.05 311 14:21 13.02.2020
2790 Rain 29 1010 76 0 5.05 311 13:48 13.02.2020
2791 Clouds 29 1010 76 0 4.57 320 13:19 13.02.2020
2792 Clouds 29 1010 76 0 4.57 320 12:56 13.02.2020
2793 Clouds 29 1010 76 0 4.57 320 12:56 13.02.2020
2794 Clouds 29 1010 76 0 4.57 320 12:38 13.02.2020
2795 Clouds 29 1010 76 0 4.57 320 12:38 13.02.2020
2796 Clouds 29 1010 76 0 4.57 320 12:38 13.02.2020
2797 Clouds 29 1010 76 0 4.57 320 12:19 13.02.2020
2798 Clouds 29 1010 76 0 4.57 320 11:45 13.02.2020
2799 Clouds 29 1008 74 0 7.16 302 11:20 13.02.2020
2800 Clouds 29 1008 74 0 7.16 302 10:49 13.02.2020
2801 Clouds 30 1007 66 10000 7.7 310 10:28 13.02.2020
2802 -273 0 0 0 0 0 09:57 13.02.2020
2803 Clouds 30 1007 66 10000 7.7 310 09:38 13.02.2020
2804 Clouds 30 1006 66 10000 7.7 330 09:20 13.02.2020
2805 Clouds 30 1006 66 10000 7.7 330 08:41 13.02.2020
2806 Clouds 31 1006 62 10000 5.1 330 08:19 13.02.2020
2807 Clouds 31 1006 62 10000 5.1 330 07:40 13.02.2020
2808 Clouds 29 1006 72 0 9.05 312 07:22 13.02.2020
2809 Clouds 29 1006 72 0 9.05 312 06:49 13.02.2020
2810 Clouds 32 1007 62 10000 7.7 310 06:29 13.02.2020
2811 Clouds 32 1007 62 10000 7.7 310 05:37 13.02.2020
2812 Clouds 31 1008 66 10000 7.7 320 04:28 13.02.2020
2813 Clouds 31 1008 66 10000 7.7 320 03:52 13.02.2020
2814 Haze 31 1009 62 10000 5.1 320 03:26 13.02.2020
2815 Haze 31 1009 62 10000 5.1 320 02:53 13.02.2020
2816 Clouds 29 1010 70 10000 7.7 320 02:19 13.02.2020
2817 Clouds 29 1010 70 10000 7.7 320 01:35 13.02.2020
2818 Haze 28 1010 78 10000 7.7 330 00:40 13.02.2020
2819 Clouds 27 1009 83 10000 7.7 330 00:21 13.02.2020
2820 Clouds 27 1009 83 10000 7.7 330 23:40 12.02.2020
2821 Clouds 25 1009 88 10000 2.6 330 23:21 12.02.2020
2822 Clouds 25 1009 88 10000 2.6 330 22:45 12.02.2020
2823 Clouds 24 1008 94 10000 5.1 320 22:26 12.02.2020
2824 Clouds 24 1008 94 10000 5.1 320 21:58 12.02.2020
2825 Clouds 24 1008 94 10000 5.1 320 21:40 12.02.2020
2826 Clouds 24 1008 94 10000 5.1 330 21:19 12.02.2020
2827 Clouds 24 1008 94 10000 5.1 330 20:57 12.02.2020
2828 Clouds 24 1008 94 10000 5.1 330 20:39 12.02.2020
2829 Rain 27 1006 84 0 12.44 325 20:19 12.02.2020
2830 Rain 27 1006 84 0 11.5 327 19:54 12.02.2020
2831 Rain 27 1006 84 0 12.44 325 19:36 12.02.2020
2832 Rain 27 1006 84 0 11.5 327 19:18 12.02.2020
2833 Rain 27 1006 84 0 11.5 327 18:45 12.02.2020
2834 Rain 27 1006 84 0 11.5 327 18:18 12.02.2020
2835 Rain 27 1006 84 0 12.44 325 17:42 12.02.2020
2836 Rain 29 1008 77 0 9.09 313 17:20 12.02.2020
2837 Clouds 29 1008 77 0 8.8 308 16:59 12.02.2020
2838 Rain 29 1008 77 0 9.09 313 16:39 12.02.2020
2839 Clouds 29 1008 77 0 8.8 308 16:19 12.02.2020
2840 Rain 29 1008 77 0 9.09 313 15:41 12.02.2020
2841 Rain 29 1008 77 0 9.09 313 15:23 12.02.2020
2842 Rain 29 1008 77 0 9.09 313 14:57 12.02.2020
2843 Rain 29 1008 77 0 9.09 313 14:39 12.02.2020
2844 Clouds 29 1008 77 0 8.8 308 14:39 12.02.2020
2845 Clouds 29 1009 76 0 7.33 305 14:19 12.02.2020
2846 Clouds 29 1009 76 0 7.33 305 13:56 12.02.2020
2847 Clouds 29 1009 76 0 7.33 305 13:56 12.02.2020
2848 Rain 29 1009 76 0 7.65 303 13:37 12.02.2020
2849 Rain 29 1009 76 0 7.65 303 13:19 12.02.2020
2850 Rain 29 1009 76 0 7.65 303 12:56 12.02.2020
2851 Rain 29 1009 76 0 7.65 303 12:37 12.02.2020
2852 Rain 29 1009 76 0 7.65 303 12:18 12.02.2020
2853 Rain 29 1009 76 0 7.65 303 11:54 12.02.2020
2854 Rain 29 1009 76 0 7.65 303 11:36 12.02.2020
2855 Clouds 30 1008 66 10000 7.7 330 11:18 12.02.2020
2856 Clouds 30 1008 66 10000 7.7 330 10:42 12.02.2020
2857 Clouds 30 1008 66 10000 7.7 330 10:21 12.02.2020
2858 Clouds 30 1007 66 10000 5.1 310 09:58 12.02.2020
2859 Clouds 30 1007 66 10000 5.1 310 09:40 12.02.2020
2860 Clouds 31 1006 62 10000 10.3 320 09:19 12.02.2020
2861 Clouds 31 1006 62 10000 10.3 320 08:57 12.02.2020
2862 Clouds 31 1006 62 10000 10.3 320 08:37 12.02.2020
2863 Haze 33 1006 59 10000 7.7 320 08:19 12.02.2020
2864 Haze 33 1006 59 10000 7.7 320 07:43 12.02.2020
2865 Clouds 33 1006 63 10000 10.3 320 07:22 12.02.2020
2866 Clouds 33 1006 63 10000 10.3 320 06:52 12.02.2020
2867 Haze 33 1006 63 10000 7.7 320 06:20 12.02.2020
2868 Haze 33 1006 63 10000 7.7 320 05:35 12.02.2020
2869 Clouds 33 1007 63 10000 7.7 330 04:56 12.02.2020
2870 Clouds 33 1007 63 10000 7.7 330 04:38 12.02.2020
2871 Rain 30 1008 68 0 10.88 317 03:31 12.02.2020
2872 Clouds 31 1010 70 10000 10.3 320 02:58 12.02.2020
2873 Clouds 30 1010 74 10000 5.1 320 02:28 12.02.2020
2874 Clouds 30 1010 74 10000 5.1 320 01:40 12.02.2020
2875 Clouds 28 1011 83 10000 5.1 350 00:44 12.02.2020
2876 Clouds 26 1011 94 10000 5.1 330 00:25 12.02.2020
2877 Clouds 26 1011 94 10000 5.1 330 23:53 11.02.2020
2878 Clouds 26 1011 94 10000 5.1 330 23:35 11.02.2020
2879 Clouds 25 1010 94 10000 5.1 340 22:59 11.02.2020
2880 Clouds 25 1010 94 10000 5.1 340 22:40 11.02.2020
2881 Clouds 25 1009 94 10000 5.1 340 22:20 11.02.2020
2882 Clouds 25 1009 94 10000 5.1 340 22:20 11.02.2020
2883 Clouds 25 1009 94 10000 5.1 340 21:57 11.02.2020
2884 Clouds 25 1009 94 10000 5.1 340 21:39 11.02.2020
2885 Clouds 25 1009 100 10000 3.6 320 21:19 11.02.2020
2886 Clouds 25 1009 100 10000 3.6 320 20:59 11.02.2020
2887 Clouds 25 1009 100 10000 3.6 320 20:39 11.02.2020
2888 Clouds 26 1008 94 10000 2.6 330 20:19 11.02.2020
2889 Clouds 26 1008 94 10000 2.6 330 19:58 11.02.2020
2890 Clouds 26 1008 94 10000 2.6 330 19:39 11.02.2020
2891 Clouds 26 1008 94 10000 2.6 330 19:39 11.02.2020
2892 Clouds 25 1008 100 10000 3.6 350 19:21 11.02.2020
2893 Clouds 25 1008 100 10000 3.6 350 18:45 11.02.2020
2894 Clouds 25 1008 100 10000 3.6 350 18:27 11.02.2020
2895 Clouds 25 1008 100 10000 3.6 350 17:57 11.02.2020
2896 Clouds 25 1008 100 10000 3.6 350 17:39 11.02.2020
2897 Clouds 25 1009 94 10000 2.6 320 17:19 11.02.2020
2898 Clouds 25 1009 94 10000 2.6 320 16:58 11.02.2020
2899 Clouds 25 1009 94 10000 2.6 320 16:39 11.02.2020
2900 Clouds 26 1010 88 10000 3.6 320 16:21 11.02.2020
2901 Clouds 26 1010 88 10000 3.6 320 16:21 11.02.2020
2902 Clouds 26 1010 88 10000 3.6 320 15:57 11.02.2020
2903 Clouds 26 1010 88 10000 3.6 320 15:39 11.02.2020
2904 Rain 27 1009 80 0 4.28 7 15:20 11.02.2020
2905 Rain 27 1009 80 0 4.28 7 14:41 11.02.2020
2906 Clouds 29 1011 77 0 5.16 313 14:19 11.02.2020
2907 Clouds 29 1011 77 0 5.16 313 13:55 11.02.2020
2908 Clouds 29 1011 77 0 5.16 313 13:37 11.02.2020
2909 Rain 29 1010 78 0 4.75 310 13:18 11.02.2020
2910 Rain 29 1010 78 0 4.75 310 12:41 11.02.2020
2911 Rain 29 1010 78 0 4.75 310 12:22 11.02.2020
2912 Rain 29 1010 78 0 4.75 310 11:58 11.02.2020
2913 Rain 29 1010 78 0 4.75 310 11:40 11.02.2020
2914 Clouds 29 1008 76 0 7.67 294 11:19 11.02.2020
2915 Clouds 29 1008 76 0 7.67 294 10:40 11.02.2020
2916 Clouds 29 1008 76 0 7.67 294 10:21 11.02.2020
2917 Clouds 29 1008 76 0 7.67 294 09:58 11.02.2020
2918 Clouds 29 1008 76 0 7.67 294 09:40 11.02.2020
2919 Clouds 32 1007 59 10000 10.3 310 09:22 11.02.2020
2920 Clouds 32 1007 59 10000 10.3 310 08:49 11.02.2020
2921 Clouds 30 1007 74 10000 5.1 330 08:25 11.02.2020
2922 Clouds 30 1007 74 10000 5.1 330 08:25 11.02.2020
2923 Clouds 30 1007 74 10000 5.1 330 07:55 11.02.2020
2924 Clouds 30 1007 74 10000 5.1 330 07:55 11.02.2020
2925 Clouds 30 1007 74 10000 5.1 330 07:33 11.02.2020
2926 Clouds 29 1007 74 0 8.53 302 06:58 11.02.2020
2927 Clouds 29 1007 74 0 8.53 302 06:38 11.02.2020
2928 Clouds 29 1007 74 0 8.53 302 06:20 11.02.2020
2929 Clouds 29 1007 74 0 8.53 302 06:20 11.02.2020
2930 Clouds 29 1007 74 0 8.53 302 05:39 11.02.2020
2931 Clouds 32 1009 66 10000 7.7 330 05:19 11.02.2020
2932 Clouds 31 1010 70 10000 7.7 330 03:32 11.02.2020
2933 Clouds 32 1010 66 10000 7.7 340 02:37 11.02.2020
2934 Clouds 30 1011 74 10000 8.2 340 01:52 11.02.2020
2935 Clouds 28 1011 78 10000 8.2 340 01:30 11.02.2020
2936 Clouds 26 1011 88 10000 4.1 360 00:23 11.02.2020
2937 Clouds 26 1011 88 10000 4.1 360 23:45 10.02.2020
2938 Rain 25 1011 100 10000 6.2 360 23:26 10.02.2020
2939 Rain 25 1011 100 10000 6.2 360 22:57 10.02.2020
2940 Rain 25 1011 100 10000 6.2 360 22:37 10.02.2020
2941 Clouds 26 1010 94 10000 8.7 300 22:18 10.02.2020
2942 Clouds 26 1010 94 10000 8.7 300 21:40 10.02.2020
2943 Clouds 26 1008 94 10000 5.1 310 21:22 10.02.2020
2944 Clouds 26 1008 94 10000 5.1 310 20:56 10.02.2020
2945 Clouds 26 1008 94 10000 5.1 310 20:37 10.02.2020
2946 Clouds 26 1008 94 10000 5.1 310 20:19 10.02.2020
2947 Clouds 26 1008 94 10000 5.1 310 19:57 10.02.2020
2948 Clouds 26 1008 94 10000 5.1 310 19:36 10.02.2020
2949 Clouds 26 1008 94 10000 2.6 330 19:18 10.02.2020
2950 Clouds 26 1008 94 10000 2.6 330 18:55 10.02.2020
2951 Clouds 26 1008 94 10000 2.6 330 18:37 10.02.2020
2952 Clouds 26 1008 94 10000 2.6 320 18:18 10.02.2020
2953 Clouds 26 1008 94 10000 2.6 320 17:40 10.02.2020
2954 Clouds 26 1009 94 10000 2.6 320 17:22 10.02.2020
2955 Clouds 26 1009 94 10000 2.6 320 16:59 10.02.2020
2956 Clouds 26 1009 94 10000 2.6 320 16:40 10.02.2020
2957 Rain 28 1008 77 0 3.11 343 16:20 10.02.2020
2958 Rain 28 1008 77 0 3.11 343 16:20 10.02.2020
2959 Rain 28 1008 77 0 3.11 343 15:58 10.02.2020
2960 Rain 28 1008 77 0 3.11 343 15:39 10.02.2020
2961 Rain 28 1008 77 0 3.11 343 15:39 10.02.2020
2962 Rain 28 1008 77 0 3.11 343 15:21 10.02.2020
2963 Rain 28 1008 77 0 3.11 343 14:57 10.02.2020
2964 Rain 28 1008 77 0 3.11 343 14:39 10.02.2020
2965 Clouds 29 1011 75 0 4.55 306 14:19 10.02.2020
2966 Clouds 29 1011 75 0 4.55 306 13:44 10.02.2020
2967 Clouds 29 1010 75 0 3.4 300 13:25 10.02.2020
2968 Clouds 29 1010 75 0 3.4 300 12:56 10.02.2020
2969 Clouds 29 1010 75 0 3.4 300 12:38 10.02.2020
2970 Clouds 29 1010 75 0 3.4 300 12:19 10.02.2020
2971 Clouds 29 1010 75 0 3.4 300 11:45 10.02.2020
2972 Clouds 29 1008 74 0 6.15 294 11:21 10.02.2020
2973 Clouds 29 1008 74 0 6.15 294 10:48 10.02.2020
2974 Clouds 31 1007 66 10000 5.1 310 10:29 10.02.2020
2975 Clouds 31 1007 66 10000 5.1 310 09:48 10.02.2020
2976 Clouds 31 1007 70 10000 5.1 300 09:27 10.02.2020
2977 Clouds 31 1007 70 10000 5.1 300 08:59 10.02.2020
2978 Clouds 31 1007 70 10000 5.1 300 08:59 10.02.2020
2979 Clouds 31 1007 70 10000 5.1 300 08:38 10.02.2020
2980 Clouds 31 1006 66 10000 7.7 300 08:19 10.02.2020
2981 -273 0 0 0 0 0 07:52 10.02.2020
2982 Clouds 31 1006 66 10000 7.7 300 07:32 10.02.2020
2983 Clouds 32 1006 70 10000 9.3 300 06:30 10.02.2020
2984 Clouds 34 1007 59 10000 7.2 280 04:47 10.02.2020
2985 Clouds 33 1008 63 10000 5.1 270 03:52 10.02.2020
2986 Clouds 32 1009 70 10000 5.1 330 02:56 10.02.2020
2987 Clouds 32 1009 70 10000 5.1 330 02:35 10.02.2020
2988 Clouds 28 1010 83 10000 5.1 320 00:55 10.02.2020
2989 Clouds 28 1010 83 10000 5.1 320 00:36 10.02.2020
2990 Clouds 26 1010 94 10000 5.1 330 23:58 09.02.2020
2991 Clouds 26 1010 94 10000 5.1 330 23:58 09.02.2020
2992 Clouds 26 1010 94 10000 5.1 330 23:39 09.02.2020
2993 Clouds 25 1009 94 10000 4.1 360 23:21 09.02.2020
2994 Clouds 25 1009 94 10000 4.1 360 22:43 09.02.2020
2995 Clouds 25 1008 94 10000 4.1 320 22:21 09.02.2020
2996 Clouds 25 1008 94 10000 4.1 320 21:45 09.02.2020
2997 Clouds 27 1008 78 0 5.1 348 21:25 09.02.2020
2998 Clouds 27 1008 78 0 5.1 348 20:58 09.02.2020
2999 Clouds 27 1008 78 0 5.1 348 20:40 09.02.2020
3000 Clouds 27 1007 76 0 3.55 342 20:19 09.02.2020
3001 Clouds 27 1007 77 0 3.38 354 19:40 09.02.2020
3002 -273 0 0 0 0 0 19:21 09.02.2020
3003 Clouds 27 1007 77 0 3.38 354 18:57 09.02.2020
3004 Clouds 27 1007 77 0 3.38 354 18:39 09.02.2020
3005 Clouds 27 1007 77 0 3.38 354 18:21 09.02.2020
3006 Clouds 27 1007 77 0 3.38 354 17:43 09.02.2020
3007 Clouds 27 1007 77 0 3.38 354 17:23 09.02.2020
3008 Clouds 28 1008 80 0 4.1 3 16:56 09.02.2020
3009 Clouds 28 1008 80 0 4.1 3 16:38 09.02.2020
3010 Clouds 26 1009 94 10000 3.1 350 16:18 09.02.2020
3011 Clouds 26 1009 94 10000 3.1 350 15:56 09.02.2020
3012 Clouds 26 1009 94 10000 3.1 350 15:38 09.02.2020
3013 Clouds 26 1009 94 10000 1.5 0 15:19 09.02.2020
3014 Clouds 26 1009 94 10000 1.5 0 14:42 09.02.2020
3015 Clouds 26 1009 94 10000 1.5 0 14:23 09.02.2020
3016 Clouds 26 1009 94 10000 1.5 0 13:47 09.02.2020
3017 Rain 29 1009 74 0 3.67 319 13:28 09.02.2020
3018 Rain 29 1009 75 0 3.15 308 12:57 09.02.2020
3019 Rain 29 1009 75 0 3.15 308 12:39 09.02.2020
3020 Clouds 26 1008 94 10000 1.5 0 12:19 09.02.2020
3021 Rain 29 1009 75 0 3.15 308 11:55 09.02.2020
3022 Rain 29 1009 75 0 3.15 308 11:36 09.02.2020
3023 Clouds 27 1007 88 10000 3.1 300 11:18 09.02.2020
3024 Clouds 27 1007 88 10000 3.1 300 10:41 09.02.2020
3025 Clouds 29 1006 74 10000 5.1 300 10:22 09.02.2020
3026 Clouds 29 1006 74 10000 5.1 300 09:47 09.02.2020
3027 Clouds 30 1006 70 10000 7.7 280 09:28 09.02.2020
3028 Clouds 30 1006 70 10000 7.7 280 08:54 09.02.2020
3029 Clouds 30 1006 70 10000 7.7 280 08:36 09.02.2020
3030 Clouds 31 1006 66 10000 7.7 270 08:18 09.02.2020
3031 Clouds 31 1006 66 10000 7.7 270 07:44 09.02.2020
3032 Clouds 32 1006 66 10000 7.7 270 06:49 09.02.2020
3033 Clouds 32 1007 62 10000 7.7 300 06:29 09.02.2020
3034 Clouds 32 1007 62 10000 7.7 300 05:43 09.02.2020
3035 Clouds 31 1007 74 10000 7.7 330 05:19 09.02.2020
3036 Rain 30 1007 70 0 9.53 304 03:53 09.02.2020
3037 Rain 26 1010 94 10000 4.6 320 02:46 09.02.2020
3038 Rain 26 1010 94 5000 5.1 300 02:26 09.02.2020
3039 Rain 26 1010 94 5000 5.1 300 01:35 09.02.2020
3040 Rain 27 1010 88 10000 4.6 320 00:47 09.02.2020
3041 Clouds 27 1009 83 10000 5.1 300 00:25 09.02.2020
3042 Clouds 27 1009 83 10000 5.1 300 23:44 08.02.2020
3043 Clouds 26 1008 88 10000 5.1 320 23:22 08.02.2020
3044 Clouds 26 1008 88 10000 5.1 320 22:43 08.02.2020
3045 Clouds 24 1008 94 10000 2.6 340 22:22 08.02.2020
3046 Clouds 24 1008 94 10000 2.6 340 21:59 08.02.2020
3047 Clouds 24 1008 94 10000 2.6 340 21:40 08.02.2020
3048 Clouds 24 1008 94 10000 2.6 340 21:40 08.02.2020
3049 Clouds 23 1007 100 10000 2.6 320 21:21 08.02.2020
3050 Clouds 23 1007 100 10000 2.6 320 20:57 08.02.2020
3051 Clouds 23 1007 100 10000 2.6 320 20:38 08.02.2020
3052 Rain 27 1007 79 0 6.17 332 20:19 08.02.2020
3053 Rain 27 1007 79 0 6.17 332 19:55 08.02.2020
3054 Rain 27 1007 79 0 6.17 332 19:37 08.02.2020
3055 Clouds 24 1007 94 10000 2.6 340 19:19 08.02.2020
3056 Clouds 24 1007 94 10000 2.6 340 18:43 08.02.2020
3057 Rain 27 1007 79 0 6.17 332 18:23 08.02.2020
3058 Rain 27 1007 79 0 6.17 332 17:44 08.02.2020
3059 Rain 27 1007 79 0 6.17 332 17:22 08.02.2020
3060 Rain 27 1008 80 0 5.92 337 16:59 08.02.2020
3061 Rain 27 1008 80 0 5.92 337 16:40 08.02.2020
3062 Rain 27 1008 80 0 5.92 337 16:21 08.02.2020
3063 Rain 27 1008 80 0 5.92 337 16:21 08.02.2020
3064 Rain 27 1008 80 0 5.92 337 15:43 08.02.2020
3065 Clouds 25 1009 88 10000 2.6 310 15:19 08.02.2020
3066 Clouds 25 1009 88 10000 2.6 310 14:59 08.02.2020
3067 Clouds 25 1009 88 10000 2.6 310 14:40 08.02.2020
3068 Clouds 25 1009 88 10000 2.6 350 14:19 08.02.2020
3069 Clouds 25 1009 88 10000 2.6 350 13:43 08.02.2020
3070 Clouds 25 1009 88 10000 4.1 350 13:23 08.02.2020
3071 Clouds 25 1009 88 10000 4.1 350 12:57 08.02.2020
3072 Clouds 25 1009 88 10000 4.1 350 12:37 08.02.2020
3073 Clouds 26 1009 88 10000 4.1 350 12:19 08.02.2020
3074 Clouds 26 1009 88 10000 4.1 350 11:43 08.02.2020
3075 -273 0 0 0 0 0 11:21 08.02.2020
3076 Clouds 26 1007 88 10000 3.1 340 10:55 08.02.2020
3077 Clouds 26 1007 88 10000 3.1 340 10:37 08.02.2020
3078 Clouds 27 1007 83 10000 5.1 340 10:19 08.02.2020
3079 Clouds 27 1007 83 10000 5.1 340 09:46 08.02.2020
3080 Clouds 27 1007 83 10000 7.7 330 09:23 08.02.2020
3081 Clouds 27 1007 83 10000 7.7 330 08:41 08.02.2020
3082 Clouds 27 1007 83 10000 7.7 330 08:41 08.02.2020
3083 Clouds 27 1007 83 10000 7.7 330 08:22 08.02.2020
3084 Clouds 27 1007 83 10000 7.7 320 07:53 08.02.2020
3085 Clouds 27 1007 83 10000 7.7 320 07:33 08.02.2020
3086 Clouds 27 1007 88 10000 7.7 320 06:49 08.02.2020
3087 Clouds 29 1007 74 10000 10.3 300 06:21 08.02.2020
3088 Clouds 29 1007 74 10000 10.3 300 05:33 08.02.2020
3089 Clouds 32 1008 62 10000 12.9 320 04:53 08.02.2020
3090 Clouds 31 1009 70 10000 10.3 310 04:24 08.02.2020
3091 Clouds 31 1009 70 10000 10.3 310 03:35 08.02.2020
3092 Clouds 30 1010 74 10000 7.7 310 02:28 08.02.2020
3093 Clouds 30 1010 74 10000 7.7 310 02:28 08.02.2020
3094 Clouds 28 1010 88 10000 7.7 340 01:29 08.02.2020
3095 Clouds 28 1010 88 10000 7.7 340 00:46 08.02.2020
3096 Clouds 27 1010 88 10000 5.1 340 00:25 08.02.2020
3097 Clouds 27 1010 88 10000 5.1 340 23:57 07.02.2020
3098 Clouds 27 1010 88 10000 5.1 340 23:38 07.02.2020
3099 Clear 25 1009 100 10000 2.6 310 23:19 07.02.2020
3100 Clear 25 1009 100 10000 2.6 310 22:41 07.02.2020
3101 Clouds 25 1008 100 10000 2.6 320 22:19 07.02.2020
3102 Clouds 25 1008 100 10000 2.6 320 21:57 07.02.2020
3103 Clouds 25 1008 100 10000 2.6 320 21:39 07.02.2020
3104 Clouds 25 1007 100 10000 2.1 320 21:19 07.02.2020
3105 Clouds 25 1007 100 10000 2.1 320 20:39 07.02.2020
3106 Clouds 25 1007 100 10000 2.1 320 20:19 07.02.2020
3107 Clouds 25 1007 100 10000 2.1 320 19:43 07.02.2020
3108 Clouds 25 1008 100 10000 2.1 320 19:22 07.02.2020
3109 Clouds 25 1008 100 10000 2.1 320 18:59 07.02.2020
3110 Clouds 25 1008 100 10000 2.1 320 18:41 07.02.2020
3111 Clouds 25 1008 100 10000 2.1 320 18:23 07.02.2020
3112 Clouds 25 1008 100 10000 2.1 320 17:44 07.02.2020
3113 Clouds 25 1008 100 10000 2.1 320 17:44 07.02.2020
3114 Clouds 26 1009 94 10000 2.1 320 17:22 07.02.2020
3115 Clouds 26 1009 94 10000 2.1 320 16:58 07.02.2020
3116 Clouds 26 1009 94 10000 2.1 320 16:39 07.02.2020
3117 Clouds 26 1009 94 10000 2.1 315 16:21 07.02.2020
3118 Clouds 26 1009 94 10000 2.1 315 15:52 07.02.2020
3119 Rain 28 1008 79 0 3.3 346 15:28 07.02.2020
3120 Rain 28 1008 79 0 3.3 346 14:55 07.02.2020
3121 Rain 28 1008 79 0 3.3 346 14:37 07.02.2020
3122 Rain 29 1010 76 0 2.44 285 14:19 07.02.2020
3123 Rain 29 1010 76 0 2.44 285 13:40 07.02.2020
3124 Rain 28 1010 75 0 0.8 29 13:22 07.02.2020
3125 Rain 28 1010 75 0 0.8 29 12:58 07.02.2020
3126 Rain 28 1010 75 0 0.8 29 12:40 07.02.2020
3127 Rain 28 1010 75 0 0.8 29 12:21 07.02.2020
3128 Rain 28 1010 75 0 0.8 29 11:42 07.02.2020
3129 Rain 28 1010 75 0 0.8 29 11:22 07.02.2020
3130 Rain 29 1008 76 0 2.79 237 10:43 07.02.2020
3131 Clouds 29 1007 79 10000 5.1 290 10:24 07.02.2020
3132 Clouds 29 1007 79 10000 5.1 290 09:59 07.02.2020
3133 Clouds 29 1007 79 10000 5.1 290 09:40 07.02.2020
3134 Clouds 30 1006 74 10000 4.1 290 09:21 07.02.2020
3135 Clouds 30 1006 74 10000 4.1 290 08:44 07.02.2020
3136 Clouds 30 1006 74 10000 4.1 290 08:44 07.02.2020
3137 Clouds 30 1006 79 10000 4.6 270 08:21 07.02.2020
3138 Clouds 30 1006 79 10000 4.6 270 07:52 07.02.2020
3139 Clouds 30 1006 74 10000 6.2 270 07:30 07.02.2020
3140 Clouds 30 1006 74 10000 6.2 270 06:47 07.02.2020
3141 Clouds 32 1006 70 10000 5.1 270 06:27 07.02.2020
3142 Clouds 32 1006 70 10000 5.1 270 05:58 07.02.2020
3143 Clouds 32 1006 70 10000 5.1 270 05:36 07.02.2020
3144 Haze 31 1008 70 10000 5.1 310 03:43 07.02.2020
3145 Haze 30 1009 74 10000 5.1 320 01:51 07.02.2020
3146 Haze 27 1010 94 10000 2.6 350 00:51 07.02.2020
3147 Haze 25 1009 100 10000 2.6 350 00:25 07.02.2020
3148 Haze 25 1009 100 10000 2.6 350 23:38 06.02.2020
3149 Haze 25 1009 100 10000 3.6 330 23:19 06.02.2020
3150 Haze 25 1009 100 10000 3.6 330 22:46 06.02.2020
3151 Haze 24 1008 100 10000 2.6 330 22:26 06.02.2020
3152 Haze 24 1008 100 10000 2.6 330 21:57 06.02.2020
3153 Haze 24 1008 100 10000 2.6 330 21:36 06.02.2020
3154 Clouds 27 1009 79 0 2.21 20 21:18 06.02.2020
3155 Clouds 27 1009 79 0 2.21 20 20:54 06.02.2020
3156 Clouds 27 1009 79 0 2.21 20 20:36 06.02.2020
3157 Clouds 27 1008 84 0 2.51 37 20:18 06.02.2020
3158 Clouds 27 1008 84 0 2.51 37 20:18 06.02.2020
3159 Clouds 27 1008 84 0 2.51 37 19:55 06.02.2020
3160 Clouds 27 1008 84 0 2.51 37 19:55 06.02.2020
3161 Clouds 27 1008 84 0 2.51 37 19:36 06.02.2020
3162 Clouds 27 1008 84 0 2.51 37 19:18 06.02.2020
3163 Clouds 27 1008 84 0 2.51 37 18:40 06.02.2020
3164 Clouds 27 1008 84 0 2.51 37 18:22 06.02.2020
3165 Clouds 27 1008 84 0 2.51 37 17:46 06.02.2020
3166 Clouds 27 1008 84 0 2.51 37 17:22 06.02.2020
3167 Clouds 28 1009 76 0 1.68 11 16:59 06.02.2020
3168 Clouds 28 1009 76 0 1.68 11 16:41 06.02.2020
3169 Clouds 28 1009 76 0 1.68 11 16:22 06.02.2020
3170 Clouds 28 1009 76 0 1.68 11 15:43 06.02.2020
3171 Clouds 28 1009 76 0 1.68 11 15:43 06.02.2020
3172 Clouds 28 1009 76 0 1.68 11 15:22 06.02.2020
3173 Clouds 28 1009 76 0 1.68 11 14:51 06.02.2020
3174 Clouds 25 1009 100 10000 2.6 320 14:28 06.02.2020
3175 Clouds 25 1009 100 10000 2.6 320 13:59 06.02.2020
3176 Clouds 25 1009 100 10000 2.6 320 13:40 06.02.2020
3177 Clouds 25 1009 100 10000 2.6 320 13:20 06.02.2020
3178 Clouds 26 1009 94 10000 2.6 340 12:44 06.02.2020
3179 -273 0 0 0 0 0 12:19 06.02.2020
3180 Clouds 26 1009 94 10000 2.6 340 12:19 06.02.2020
3181 Clouds 26 1009 94 10000 4.1 330 11:57 06.02.2020
3182 Clouds 26 1009 94 10000 4.1 330 11:39 06.02.2020
3183 Clouds 27 1008 88 10000 4.1 30 11:19 06.02.2020
3184 Clouds 27 1008 88 10000 4.1 30 10:56 06.02.2020
3185 Clouds 27 1008 88 10000 4.1 30 10:38 06.02.2020
3186 Clouds 30 1008 74 10000 5.1 290 10:19 06.02.2020
3187 Clouds 30 1008 74 10000 5.1 290 09:55 06.02.2020
3188 Clouds 30 1008 74 10000 5.1 290 09:36 06.02.2020
3189 Clouds 30 1008 74 10000 5.1 290 09:36 06.02.2020
3190 Clouds 31 1007 70 10000 7.7 260 09:18 06.02.2020
3191 Clouds 31 1007 70 10000 7.7 260 08:40 06.02.2020
3192 Clouds 30 1007 74 10000 7.7 250 08:20 06.02.2020
3193 Clouds 30 1007 74 10000 7.7 250 07:46 06.02.2020
3194 Rain 29 1007 77 0 8.58 282 07:24 06.02.2020
3195 Clouds 30 1008 79 10000 5.1 280 06:21 06.02.2020
3196 Clouds 30 1008 79 10000 5.1 280 06:21 06.02.2020
3197 Clouds 30 1008 79 10000 5.1 280 05:48 06.02.2020
3198 Clouds 28 1010 83 10000 2.6 20 04:20 06.02.2020
3199 Clouds 26 1011 94 10000 10.3 290 03:19 06.02.2020
3200 Rain 29 1008 72 0 8.35 291 02:27 06.02.2020
3201 Clouds 28 1011 88 10000 7.7 270 01:25 06.02.2020
3202 Clouds 28 1011 88 10000 7.7 270 00:53 06.02.2020
3203 Clouds 27 1010 94 10000 2.6 320 00:23 06.02.2020
3204 Clouds 27 1010 94 10000 2.6 320 23:43 05.02.2020
3205 Clouds 24 1009 100 10000 2.6 300 23:24 05.02.2020
3206 Clouds 24 1009 100 10000 2.6 300 22:57 05.02.2020
3207 Clouds 24 1009 100 10000 2.6 300 22:38 05.02.2020
3208 Rain 28 1010 76 0 5.97 344 22:20 05.02.2020
3209 Rain 28 1010 76 0 5.97 344 21:41 05.02.2020
3210 Rain 28 1010 76 0 5.97 344 21:23 05.02.2020
3211 Rain 28 1010 76 0 5.97 344 20:55 05.02.2020
3212 Rain 28 1010 76 0 5.97 344 20:37 05.02.2020
3213 Clouds 25 1008 94 10000 3.6 350 20:18 05.02.2020
3214 Clouds 25 1008 94 10000 3.6 350 19:55 05.02.2020
3215 Clouds 25 1008 94 10000 3.6 350 19:36 05.02.2020
3216 Clouds 25 1008 100 10000 2.6 350 19:18 05.02.2020
3217 Clouds 25 1008 100 10000 2.6 350 18:43 05.02.2020
3218 Clouds 25 1008 100 10000 2.6 320 18:21 05.02.2020
3219 Clouds 25 1008 100 10000 2.6 320 18:21 05.02.2020
3220 Rain 28 1008 76 0 6.16 341 17:58 05.02.2020
3221 Rain 28 1008 76 0 6.16 341 17:37 05.02.2020
3222 Clouds 25 1009 100 10000 2.6 320 17:18 05.02.2020
3223 Clouds 25 1009 100 10000 2.6 320 16:43 05.02.2020
3224 Rain 28 1008 77 0 5.95 337 16:25 05.02.2020
3225 Rain 28 1008 77 0 5.95 337 15:58 05.02.2020
3226 Rain 28 1008 77 0 5.95 337 15:38 05.02.2020
3227 Rain 28 1008 77 0 5.95 337 15:18 05.02.2020
3228 Rain 28 1008 77 0 5.95 337 14:42 05.02.2020
3229 Rain 28 1008 77 0 5.95 337 14:23 05.02.2020
3230 Rain 28 1010 78 0 7.33 337 13:57 05.02.2020
3231 Rain 28 1010 78 0 7.33 337 13:38 05.02.2020
3232 Rain 28 1010 77 0 6 341 13:19 05.02.2020
3233 Rain 28 1010 77 0 6 341 12:40 05.02.2020
3234 Rain 28 1010 77 0 6 341 12:22 05.02.2020
3235 Rain 28 1010 77 0 6 341 11:42 05.02.2020
3236 Rain 28 1010 77 0 6 341 11:24 05.02.2020
3237 Rain 28 1008 77 0 7.1 325 10:59 05.02.2020
3238 Rain 28 1008 77 0 7.1 325 10:39 05.02.2020
3239 Rain 28 1008 77 0 7.1 325 10:19 05.02.2020
3240 Rain 28 1008 77 0 7.1 325 10:19 05.02.2020
3241 Clouds 26 1008 94 10000 5.1 360 09:44 05.02.2020
3242 Clouds 26 1008 94 10000 5.1 20 09:22 05.02.2020
3243 Clouds 26 1008 94 10000 5.1 20 08:58 05.02.2020
3244 Clouds 26 1008 94 10000 5.1 20 08:39 05.02.2020
3245 Clouds 27 1007 94 10000 5.1 330 08:21 05.02.2020
3246 Clouds 27 1007 94 10000 5.1 330 07:43 05.02.2020
3247 Rain 29 1007 73 0 5.52 283 07:20 05.02.2020
3248 Rain 29 1007 73 0 5.52 283 06:42 05.02.2020
3249 Rain 29 1007 73 0 5.52 283 06:21 05.02.2020
3250 Rain 29 1007 73 0 5.52 283 05:48 05.02.2020
3251 Clouds 29 1007 71 0 4.81 278 05:18 05.02.2020
3252 Clouds 29 1007 71 0 4.81 278 04:27 05.02.2020
3253 Clouds 29 1007 71 0 4.81 278 02:59 05.02.2020
3254 Clouds 29 1007 71 0 4.81 278 02:22 05.02.2020
3255 Rain 29 1010 68 0 1.89 325 01:34 05.02.2020
3256 Rain 29 1010 68 0 2.12 325 00:25 05.02.2020
3257 Rain 29 1010 68 0 2.12 325 23:42 04.02.2020
3258 Rain 29 1010 68 0 2.12 325 23:22 04.02.2020
3259 Rain 27 1009 78 0 3.46 4 22:57 04.02.2020
3260 Rain 27 1009 78 0 3.46 4 22:39 04.02.2020
3261 Rain 27 1009 78 0 3.46 4 22:20 04.02.2020
3262 Rain 27 1009 78 0 3.46 4 21:56 04.02.2020
3263 Rain 27 1009 78 0 3.46 4 21:37 04.02.2020
3264 Clouds 24 1008 100 10000 1 0 21:18 04.02.2020
3265 Clouds 24 1008 100 10000 1 0 20:54 04.02.2020
3266 Clouds 24 1008 100 10000 1 0 20:36 04.02.2020
3267 Clouds 25 1008 94 10000 1.5 0 20:18 04.02.2020
3268 Clouds 25 1008 94 10000 1.5 0 19:42 04.02.2020
3269 Clouds 25 1008 94 10000 2.1 320 19:24 04.02.2020
3270 Clouds 25 1008 94 10000 2.1 320 18:59 04.02.2020
3271 Clouds 25 1008 94 10000 2.1 320 18:39 04.02.2020
3272 Clouds 25 1008 94 10000 2.1 320 18:20 04.02.2020
3273 Clouds 25 1008 94 10000 2.1 320 17:54 04.02.2020
3274 Clouds 25 1008 94 10000 2.1 320 17:36 04.02.2020
3275 Clouds 25 1009 94 10000 2.1 320 17:18 04.02.2020
3276 Clouds 25 1009 94 10000 2.1 320 16:38 04.02.2020
3277 Clouds 25 1009 94 10000 2.1 320 16:38 04.02.2020
3278 Clouds 26 1010 88 10000 2.1 320 16:20 04.02.2020
3279 Clouds 26 1010 88 10000 2.1 320 15:56 04.02.2020
3280 Clouds 26 1010 88 10000 2.1 320 15:38 04.02.2020
3281 Clouds 26 1010 88 10000 2.1 320 15:19 04.02.2020
3282 Clouds 27 1009 76 0 2 355 14:45 04.02.2020
3283 Clouds 27 1009 76 0 2 355 14:26 04.02.2020
3284 Clouds 28 1011 71 0 0.52 359 13:59 04.02.2020
3285 Clouds 28 1011 71 0 0.52 359 13:59 04.02.2020
3286 Clouds 28 1011 71 0 0.52 359 13:40 04.02.2020
3287 Rain 28 1010 72 0 1.46 330 13:21 04.02.2020
3288 Rain 28 1010 72 0 1.46 330 12:45 04.02.2020
3289 Rain 28 1010 72 0 1.46 330 12:26 04.02.2020
3290 Rain 28 1010 72 0 1.46 330 11:59 04.02.2020
3291 Rain 28 1010 72 0 1.46 330 11:39 04.02.2020
3292 Clouds 28 1009 76 0 4.04 268 11:21 04.02.2020
3293 Clouds 28 1009 76 0 4.04 268 10:59 04.02.2020
3294 Clouds 28 1009 76 0 4.04 268 10:40 04.02.2020
3295 Clouds 30 1007 70 10000 5.1 330 10:22 04.02.2020
3296 Clouds 30 1007 70 10000 5.1 330 09:41 04.02.2020
3297 Haze 30 1007 70 10000 5.1 350 09:23 04.02.2020
3298 Haze 30 1007 70 10000 5.1 350 08:56 04.02.2020
3299 Haze 30 1007 70 10000 5.1 350 08:38 04.02.2020
3300 Haze 30 1007 70 10000 7.7 310 08:20 04.02.2020
3301 Haze 30 1007 70 10000 7.7 310 07:43 04.02.2020
3302 Haze 31 1006 66 10000 7.7 330 07:22 04.02.2020
3303 Haze 31 1006 66 10000 7.7 330 06:43 04.02.2020
3304 Haze 31 1006 62 10000 10.3 280 05:50 04.02.2020
3305 Haze 32 1008 62 10000 10.3 340 05:22 04.02.2020
3306 Haze 32 1009 62 10000 10.3 340 03:50 04.02.2020
3307 Haze 30 1010 74 10000 5.1 340 03:31 04.02.2020
3308 Haze 30 1010 74 10000 5.1 340 02:51 04.02.2020
3309 Haze 28 1011 78 10000 9.3 340 02:28 04.02.2020
3310 Haze 28 1011 78 10000 9.3 340 01:50 04.02.2020
3311 Haze 28 1011 78 10000 9.3 340 01:32 04.02.2020
3312 Clouds 26 1011 88 10000 7.7 340 00:27 04.02.2020
3313 Clouds 26 1011 88 10000 7.7 340 23:57 03.02.2020
3314 Clouds 26 1011 88 10000 7.7 340 23:57 03.02.2020
3315 Clouds 26 1011 88 10000 7.7 340 23:38 03.02.2020
3316 Clouds 25 1010 94 10000 4.1 340 23:19 03.02.2020
3317 Clouds 25 1010 94 10000 4.1 340 22:39 03.02.2020
3318 Clouds 24 1010 100 10000 2.6 310 22:20 03.02.2020
3319 Clouds 24 1010 100 10000 2.6 310 21:43 03.02.2020
3320 Clouds 24 1010 100 10000 2.6 310 21:43 03.02.2020
3321 Rain 27 1009 77 0 3.56 16 21:20 03.02.2020
3322 Rain 27 1009 77 0 3.56 16 20:59 03.02.2020
3323 Rain 27 1009 77 0 3.56 16 20:40 03.02.2020
3324 Rain 27 1009 80 0 3.8 5 20:18 03.02.2020
3325 Rain 27 1009 80 0 3.77 15 19:56 03.02.2020
3326 Rain 27 1009 80 0 3.77 15 19:37 03.02.2020
3327 Rain 27 1009 80 0 3.77 15 19:37 03.02.2020
3328 Rain 27 1009 80 0 3.77 15 19:18 03.02.2020
3329 Rain 27 1009 80 0 3.77 15 18:41 03.02.2020
3330 Rain 27 1009 80 0 3.77 15 18:22 03.02.2020
3331 Rain 27 1009 80 0 3.77 15 17:58 03.02.2020
3332 Rain 27 1009 80 0 3.77 15 17:39 03.02.2020
3333 Rain 28 1009 78 0 2.98 9 17:19 03.02.2020
3334 Rain 28 1009 78 0 2.98 9 16:40 03.02.2020
3335 Rain 28 1009 78 0 2.98 9 16:22 03.02.2020
3336 Rain 28 1009 78 0 2.98 9 15:58 03.02.2020
3337 Rain 28 1009 78 0 2.98 9 15:39 03.02.2020
3338 Rain 28 1009 78 0 2.98 9 15:20 03.02.2020
3339 Rain 28 1009 78 0 2.98 9 14:57 03.02.2020
3340 Rain 28 1009 78 0 2.98 9 14:39 03.02.2020
3341 Rain 29 1011 74 0 2.22 313 14:21 03.02.2020
3342 Rain 29 1011 74 0 2.22 313 13:43 03.02.2020
3343 Rain 29 1011 74 0 2.22 313 13:21 03.02.2020
3344 Rain 29 1011 72 0 1.09 310 12:58 03.02.2020
3345 Rain 29 1011 72 0 1.09 310 12:39 03.02.2020
3346 Rain 29 1011 72 0 1.09 310 12:21 03.02.2020
3347 Rain 29 1011 72 0 1.09 310 11:55 03.02.2020
3348 Rain 29 1011 72 0 1.09 310 11:36 03.02.2020
3349 Rain 29 1009 77 0 3.21 259 11:18 03.02.2020
3350 Rain 29 1009 77 0 3.21 259 10:40 03.02.2020
3351 Clouds 31 1008 66 10000 7.7 270 10:22 03.02.2020
3352 Clouds 31 1008 66 10000 7.7 270 09:46 03.02.2020
3353 Clouds 31 1008 66 10000 7.7 270 09:23 03.02.2020
3354 Clouds 31 1008 66 10000 7.7 270 08:55 03.02.2020
3355 Clouds 31 1008 66 10000 7.7 270 08:37 03.02.2020
3356 Clouds 32 1007 62 10000 5.1 270 08:18 03.02.2020
3357 Clouds 32 1007 62 10000 5.1 270 07:40 03.02.2020
3358 Clouds 33 1007 59 10000 9.3 270 07:21 03.02.2020
3359 Clouds 33 1007 59 10000 9.3 270 06:50 03.02.2020
3360 Clouds 33 1008 59 10000 5.7 290 06:28 03.02.2020
3361 Clouds 33 1008 59 10000 5.7 290 05:37 03.02.2020
3362 Clouds 33 1008 63 10000 8.2 290 05:18 03.02.2020
3363 Clouds 31 1010 70 10000 7.2 340 03:19 03.02.2020
3364 Clouds 31 1010 70 10000 7.2 340 02:34 03.02.2020
3365 Clouds 29 1011 79 10000 6.2 340 01:41 03.02.2020
3366 Clouds 29 1011 75 0 4.7 328 00:46 03.02.2020
3367 Haze 26 1011 94 10000 6.2 340 00:23 03.02.2020
3368 Haze 26 1011 94 10000 6.2 340 23:39 02.02.2020
3369 Clouds 25 1011 94 10000 5.1 340 23:20 02.02.2020
3370 Clouds 25 1011 94 10000 5.1 340 23:20 02.02.2020
3371 Clouds 25 1011 94 10000 5.1 340 22:57 02.02.2020
3372 Clouds 25 1011 94 10000 5.1 340 22:38 02.02.2020
3373 Haze 24 1010 100 10000 2.6 310 22:19 02.02.2020
3374 Haze 24 1010 100 10000 2.6 310 21:54 02.02.2020
3375 Haze 24 1010 100 10000 2.6 310 21:36 02.02.2020
3376 Clouds 28 1010 79 0 5.01 330 21:18 02.02.2020
3377 Clouds 28 1010 79 0 5.01 330 20:55 02.02.2020
3378 Clouds 28 1010 79 0 5.01 330 20:36 02.02.2020
3379 Rain 28 1009 79 0 5.83 340 20:18 02.02.2020
3380 Rain 27 1009 80 0 4.46 347 19:42 02.02.2020
3381 Rain 27 1009 80 0 4.46 347 19:23 02.02.2020
3382 Rain 27 1009 80 0 4.46 347 18:58 02.02.2020
3383 Rain 27 1009 80 0 4.46 347 18:38 02.02.2020
3384 Rain 27 1009 80 0 4.46 347 18:20 02.02.2020
3385 Rain 27 1009 80 0 4.46 347 17:58 02.02.2020
3386 Rain 27 1009 80 0 4.46 347 17:38 02.02.2020
3387 Rain 27 1009 80 0 4.46 347 17:38 02.02.2020
3388 Rain 28 1010 77 0 4.75 332 17:19 02.02.2020
3389 Rain 28 1010 77 0 4.75 332 16:58 02.02.2020
3390 Rain 28 1010 77 0 4.75 332 16:39 02.02.2020
3391 Rain 28 1010 77 0 4.75 332 16:39 02.02.2020
3392 Rain 28 1010 77 0 4.75 332 16:19 02.02.2020
3393 Rain 28 1010 77 0 4.75 332 15:57 02.02.2020
3394 Rain 28 1010 77 0 4.75 332 15:38 02.02.2020
3395 Clouds 25 1011 94 10000 2.6 320 15:19 02.02.2020
3396 Clouds 25 1011 94 10000 2.6 320 14:45 02.02.2020
3397 Clouds 25 1011 94 10000 2.6 320 14:45 02.02.2020
3398 Clouds 25 1011 94 10000 4.35 313 14:20 02.02.2020
3399 Rain 28 1012 73 0 4.35 313 13:59 02.02.2020
3400 Rain 28 1012 73 0 4.35 313 13:41 02.02.2020
3401 Clouds 25 1010 94 10000 1.5 0 13:22 02.02.2020
3402 Clouds 25 1010 94 10000 1.5 0 12:57 02.02.2020
3403 Clouds 25 1010 94 10000 1.5 0 12:39 02.02.2020
3404 Rain 29 1011 73 0 4.77 315 12:21 02.02.2020
3405 Rain 28 1011 80 0 4.97 352 11:43 02.02.2020
3406 Rain 28 1011 80 0 4.97 352 11:43 02.02.2020
3407 Rain 28 1011 80 0 4.97 352 11:43 02.02.2020
3408 Rain 28 1009 80 0 4.39 342 11:20 02.02.2020
3409 Rain 28 1009 80 0 4.39 342 10:58 02.02.2020
3410 Rain 29 1009 73 0 5.2 302 10:58 02.02.2020
3411 Rain 29 1009 73 0 5.2 302 10:40 02.02.2020
3412 Rain 29 1009 73 0 5.2 302 10:22 02.02.2020
3413 Rain 29 1009 73 0 5.2 302 09:59 02.02.2020
3414 Rain 29 1009 73 0 5.2 302 09:39 02.02.2020
3415 Clouds 26 1009 94 10000 4.1 60 09:21 02.02.2020
3416 Clouds 26 1009 94 10000 4.1 60 08:46 02.02.2020
3417 Clouds 28 1009 88 10000 3.6 250 08:26 02.02.2020
3418 Clouds 28 1009 88 10000 3.6 250 07:48 02.02.2020
3419 Clouds 30 1009 70 10000 5.1 310 07:30 02.02.2020
3420 Clouds 30 1009 70 10000 5.1 310 06:56 02.02.2020
3421 Clouds 30 1009 70 10000 5.1 310 06:37 02.02.2020
3422 Clouds 29 1009 70 10000 10.3 270 06:18 02.02.2020
3423 Rain 29 1009 79 10000 12.9 270 05:19 02.02.2020
3424 Clouds 30 1010 79 10000 5.1 340 03:42 02.02.2020
3425 Clouds 29 1011 79 10000 5.1 310 03:21 02.02.2020
3426 Clouds 27 1012 88 10000 5.1 340 02:19 02.02.2020
3427 Clouds 27 1012 88 10000 5.1 340 01:36 02.02.2020
3428 Clouds 26 1011 94 10000 5.1 340 00:49 02.02.2020
3429 Clouds 26 1011 94 10000 5.7 350 00:24 02.02.2020
3430 Clouds 26 1011 94 10000 5.7 350 23:55 01.02.2020
3431 Clouds 26 1011 94 10000 5.7 350 23:36 01.02.2020
3432 Clouds 24 1010 100 10000 3.1 330 23:18 01.02.2020
3433 Clouds 24 1010 100 10000 3.1 330 22:42 01.02.2020
3434 Clouds 23 1010 100 10000 3.1 330 22:18 01.02.2020
3435 Clouds 23 1010 100 10000 3.1 330 21:40 01.02.2020
3436 Rain 28 1009 78 0 5.48 348 21:19 01.02.2020
3437 Rain 28 1009 78 0 5.48 348 20:43 01.02.2020
3438 Rain 28 1008 78 0 4.42 350 20:21 01.02.2020
3439 Rain 27 1008 79 0 3.81 340 19:58 01.02.2020
3440 Rain 27 1008 79 0 3.81 340 19:40 01.02.2020
3441 Rain 27 1008 79 0 3.81 340 19:20 01.02.2020
3442 Rain 27 1008 79 0 3.81 340 18:59 01.02.2020
3443 Rain 27 1008 79 0 3.81 340 18:59 01.02.2020
3444 Rain 27 1008 79 0 3.81 340 18:41 01.02.2020
3445 Rain 27 1008 79 0 3.81 340 18:23 01.02.2020
3446 Rain 27 1008 79 0 3.81 340 17:58 01.02.2020
3447 Rain 27 1008 79 0 3.81 340 17:40 01.02.2020
3448 Rain 28 1009 77 0 2.21 349 17:20 01.02.2020
3449 Rain 28 1009 77 0 2.21 349 16:56 01.02.2020
3450 Rain 28 1009 77 0 2.21 349 16:38 01.02.2020
3451 Rain 28 1009 77 0 2.21 349 16:38 01.02.2020
3452 Clouds 24 1010 100 10000 3.6 330 16:19 01.02.2020
3453 Clouds 24 1010 100 10000 3.6 330 15:41 01.02.2020
3454 Clouds 25 1011 94 10000 3.6 340 15:22 01.02.2020
3455 Clouds 25 1011 94 10000 3.6 340 14:54 01.02.2020
3456 Clouds 25 1011 94 10000 3.6 340 14:36 01.02.2020
3457 Clouds 25 1011 94 10000 2.6 350 14:18 01.02.2020
3458 Clouds 25 1011 94 10000 2.6 350 13:42 01.02.2020
3459 Clouds 24 1011 100 10000 5.1 350 13:18 01.02.2020
3460 Clouds 24 1011 100 10000 5.1 350 13:18 01.02.2020
3461 Clouds 24 1011 100 10000 5.1 350 12:43 01.02.2020
3462 Clouds 29 1010 79 10000 2.6 0 12:24 01.02.2020
3463 Clouds 29 1010 79 10000 2.6 0 11:55 01.02.2020
3464 Clouds 29 1010 79 10000 2.6 0 11:37 01.02.2020
3465 Clouds 28 1009 78 10000 2.6 270 11:18 01.02.2020
3466 Clouds 28 1009 78 10000 2.6 270 10:42 01.02.2020
3467 Clouds 30 1008 74 10000 4.1 220 10:24 01.02.2020
3468 Clouds 30 1008 74 10000 4.1 220 09:59 01.02.2020
3469 Clouds 30 1008 74 10000 4.1 220 09:41 01.02.2020
3470 Clouds 31 1008 66 10000 7.7 190 09:21 01.02.2020
3471 Clouds 31 1008 66 10000 7.7 190 08:58 01.02.2020
3472 Clouds 32 1007 66 10000 7.7 230 08:18 01.02.2020
3473 Clouds 32 1007 66 10000 7.7 230 07:41 01.02.2020
3474 Clouds 33 1007 63 10000 7.7 230 07:22 01.02.2020
3475 Clouds 33 1007 63 10000 7.7 230 06:43 01.02.2020
3476 Clouds 33 1007 63 10000 7.7 230 06:43 01.02.2020
3477 Rain 32 1009 62 10000 7.7 230 05:54 01.02.2020
3478 Rain 32 1009 62 10000 7.7 230 05:54 01.02.2020
3479 Rain 32 1009 62 10000 7.7 230 05:54 01.02.2020
3480 Haze 26 1009 88 10000 10.3 40 04:22 01.02.2020
3481 Haze 32 1010 66 10000 5.1 340 03:25 01.02.2020
3482 Haze 32 1010 66 10000 5.1 340 02:53 01.02.2020
3483 Clouds 31 1011 70 10000 3.6 330 02:31 01.02.2020
3484 Clouds 31 1011 70 10000 3.6 330 01:59 01.02.2020
3485 Clouds 31 1011 70 10000 3.6 330 01:38 01.02.2020
3486 Clouds 30 1011 70 10000 5.1 340 00:46 01.02.2020
3487 Haze 28 1011 78 10000 2.34 347 00:23 01.02.2020
3488 Haze 28 1011 78 10000 2.34 347 23:39 31.01.2020
3489 Haze 24 1010 100 10000 1.5 350 23:18 31.01.2020
3490 Haze 24 1010 100 10000 1.5 350 22:55 31.01.2020
3491 Haze 24 1010 100 10000 1.5 350 22:37 31.01.2020
3492 Clouds 24 1010 100 10000 1.5 340 22:19 31.01.2020
3493 Clouds 24 1010 100 10000 1.5 340 21:39 31.01.2020
3494 Clouds 24 1009 94 10000 2.6 310 21:21 31.01.2020
3495 Clouds 24 1009 94 10000 2.6 310 20:57 31.01.2020
3496 Clouds 24 1009 94 10000 2.6 310 20:39 31.01.2020
3497 Clouds 24 1009 94 10000 2.6 320 20:20 31.01.2020
3498 Clouds 24 1009 94 10000 2.6 320 19:56 31.01.2020
3499 Clouds 24 1009 94 10000 2.6 320 19:38 31.01.2020
3500 Clouds 24 1009 94 10000 2.6 320 19:38 31.01.2020
3501 Clouds 24 1009 100 10000 2.6 350 19:19 31.01.2020
3502 Clouds 24 1009 100 10000 2.6 350 18:46 31.01.2020
3503 Clouds 25 1009 94 10000 2.6 310 18:27 31.01.2020
3504 Clouds 25 1009 94 10000 2.6 310 17:56 31.01.2020
3505 Clouds 25 1009 94 10000 2.6 310 17:38 31.01.2020
3506 Clouds 25 1009 94 10000 2.6 320 17:19 31.01.2020
3507 Clouds 29 1009 70 0 2.87 111 16:56 31.01.2020
3508 Clouds 29 1009 70 0 2.87 111 16:37 31.01.2020
3509 Clouds 29 1009 70 0 2.87 111 16:18 31.01.2020
3510 Clouds 29 1009 70 0 2.87 111 15:41 31.01.2020
3511 Clouds 29 1009 70 0 2.87 111 15:21 31.01.2020
3512 Clouds 29 1009 70 0 2.87 111 14:58 31.01.2020
3513 Clouds 29 1009 70 0 2.87 111 14:40 31.01.2020
3514 Clouds 29 1011 70 0 2.8 126 14:20 31.01.2020
3515 Clouds 29 1011 70 0 2.8 126 13:44 31.01.2020
3516 Clouds 28 1011 73 0 4.77 120 13:25 31.01.2020
3517 Clouds 29 1011 68 0 2.46 137 12:46 31.01.2020
3518 Clouds 29 1011 68 0 2.46 137 12:26 31.01.2020
3519 Clouds 29 1011 68 0 2.46 137 11:56 31.01.2020
3520 Clouds 29 1011 68 0 2.46 137 11:38 31.01.2020
3521 Clouds 28 1010 70 0 3.88 132 11:20 31.01.2020
3522 Clouds 28 1010 72 0 5.31 127 10:55 31.01.2020
3523 Clouds 28 1010 70 0 3.88 132 10:37 31.01.2020
3524 Clouds 29 1009 83 10000 3.6 140 10:18 31.01.2020
3525 Clouds 29 1009 83 10000 3.6 140 09:42 31.01.2020
3526 Clouds 29 1009 83 10000 3.6 140 09:42 31.01.2020
3527 Clouds 29 1009 79 10000 5.1 140 09:22 31.01.2020
3528 Clouds 29 1009 79 10000 5.1 140 08:56 31.01.2020
3529 Clouds 29 1009 79 10000 5.1 140 08:38 31.01.2020
3530 Clouds 31 1008 66 10000 5.1 160 08:20 31.01.2020
3531 Clouds 31 1008 66 10000 5.1 160 07:47 31.01.2020
3532 Clouds 31 1008 70 10000 5.1 160 07:19 31.01.2020
3533 Clouds 31 1008 70 10000 5.1 160 07:19 31.01.2020
3534 Clouds 31 1008 70 10000 5.1 160 06:34 31.01.2020
3535 Rain 27 1008 75 0 4.78 61 05:55 31.01.2020
3536 Haze 33 1008 66 10000 5.1 160 05:20 31.01.2020
3537 Haze 33 1009 66 10000 5.1 180 03:52 31.01.2020
3538 Haze 32 1011 66 10000 1.5 0 01:54 31.01.2020
3539 Haze 30 1012 70 10000 2.6 340 01:29 31.01.2020
3540 Haze 30 1012 70 10000 2.6 340 00:38 31.01.2020
3541 Haze 27 1011 83 10000 1.5 350 00:20 31.01.2020
3542 Haze 27 1011 83 10000 1.5 350 23:39 30.01.2020
3543 Haze 26 1011 94 10000 2.6 330 23:20 30.01.2020
3544 Haze 26 1011 94 10000 2.6 330 22:38 30.01.2020
3545 Clouds 25 1010 94 10000 2.1 0 22:19 30.01.2020
3546 Clouds 25 1010 94 10000 2.1 0 21:57 30.01.2020
3547 Clouds 25 1010 94 10000 2.1 0 21:39 30.01.2020
3548 Clouds 25 1009 94 10000 2.6 90 21:18 30.01.2020
3549 Clouds 25 1009 94 10000 2.6 90 21:18 30.01.2020
3550 Clouds 25 1009 94 10000 2.6 90 20:55 30.01.2020
3551 Clouds 25 1009 94 10000 2.6 90 20:37 30.01.2020
3552 Rain 27 1008 76 0 2.94 24 20:18 30.01.2020
3553 Rain 27 1008 76 0 2.94 24 19:42 30.01.2020
3554 Rain 27 1008 76 0 2.94 24 19:19 30.01.2020
3555 Rain 27 1008 76 0 2.94 24 18:42 30.01.2020
3556 Rain 27 1008 76 0 2.94 24 18:23 30.01.2020
3557 Rain 27 1008 76 0 2.94 24 17:58 30.01.2020
3558 Rain 27 1008 76 0 2.94 24 17:39 30.01.2020
3559 Clouds 28 1009 74 0 2.54 22 17:19 30.01.2020
3560 Clouds 28 1009 74 0 2.54 22 16:58 30.01.2020
3561 Clouds 28 1009 74 0 2.54 22 16:39 30.01.2020
3562 Clouds 26 1010 94 10000 1.5 0 16:20 30.01.2020
3563 Clouds 26 1010 94 10000 1.5 0 15:44 30.01.2020
3564 Clouds 26 1010 94 10000 1.5 0 15:21 30.01.2020
3565 Clouds 27 1011 88 10000 1.5 0 14:50 30.01.2020
3566 Clouds 27 1011 88 10000 1.5 0 14:28 30.01.2020
3567 Clouds 27 1011 88 10000 1.5 0 13:59 30.01.2020
3568 Clouds 27 1011 88 10000 1.5 0 13:40 30.01.2020
3569 Clouds 29 1011 74 0 1.16 55 13:21 30.01.2020
3570 Clouds 29 1011 74 0 1.16 55 12:54 30.01.2020
3571 Clouds 29 1011 74 0 1.16 55 12:36 30.01.2020
3572 Clouds 29 1011 74 0 1.16 55 12:18 30.01.2020
3573 Clouds 29 1011 74 0 1.16 55 11:40 30.01.2020
3574 Clouds 30 1010 74 10000 2.6 180 11:21 30.01.2020
3575 Clouds 30 1010 74 10000 2.6 180 10:44 30.01.2020
3576 Haze 30 1009 79 10000 5.1 190 10:26 30.01.2020
3577 Haze 30 1009 79 10000 5.1 190 09:58 30.01.2020
3578 Haze 30 1009 79 10000 5.1 190 09:58 30.01.2020
3579 Haze 30 1009 79 10000 5.1 190 09:39 30.01.2020
3580 Haze 33 1007 63 10000 4.1 220 09:19 30.01.2020
3581 Haze 33 1007 63 10000 4.1 220 08:42 30.01.2020
3582 Haze 33 1007 63 10000 4.1 220 08:42 30.01.2020
3583 Haze 33 1007 63 10000 5.1 230 08:22 30.01.2020
3584 Haze 33 1007 63 10000 5.1 230 07:53 30.01.2020
3585 Haze 33 1007 63 10000 5.1 230 07:35 30.01.2020
3586 Haze 33 1007 59 10000 5.1 300 06:49 30.01.2020
3587 Haze 34 1008 59 10000 7.7 220 06:31 30.01.2020
3588 Haze 34 1008 59 10000 7.7 220 05:47 30.01.2020
3589 Clouds 30 1008 65 0 3.75 212 05:27 30.01.2020
3590 Haze 34 1009 59 10000 5.1 220 04:23 30.01.2020
3591 Haze 34 1009 59 10000 5.1 220 03:46 30.01.2020
3592 Haze 33 1010 59 10000 2.6 290 02:52 30.01.2020
3593 Haze 30 1011 70 10000 2.6 340 00:54 30.01.2020
3594 Haze 28 1010 78 10000 2.6 330 00:23 30.01.2020
3595 Haze 28 1010 78 10000 2.6 330 23:49 29.01.2020
3596 Clouds 26 1009 88 10000 2.6 320 23:22 29.01.2020
3597 Clouds 26 1009 88 10000 2.6 320 22:59 29.01.2020
3598 Clouds 26 1009 88 10000 2.6 320 22:59 29.01.2020
3599 Clouds 26 1009 88 10000 2.6 320 22:39 29.01.2020
3600 Clouds 25 1009 94 10000 2.6 310 22:19 29.01.2020
3601 Clouds 25 1009 94 10000 2.6 310 21:58 29.01.2020
3602 Clouds 25 1009 94 10000 2.6 310 21:39 29.01.2020
3603 Clouds 25 1009 94 10000 2.6 310 21:39 29.01.2020
3604 Clouds 25 1009 94 10000 2.6 310 21:39 29.01.2020
3605 Clouds 25 1008 94 10000 1.5 0 21:19 29.01.2020
3606 Clouds 25 1008 94 10000 1.5 0 20:58 29.01.2020
3607 Clouds 25 1008 94 10000 1.5 0 20:38 29.01.2020
3608 Rain 28 1008 75 0 2.3 49 20:20 29.01.2020
3609 Rain 28 1008 75 0 2.3 49 19:56 29.01.2020
3610 Rain 28 1008 75 0 2.3 49 19:37 29.01.2020
3611 Rain 28 1008 75 0 2.3 49 19:37 29.01.2020
3612 Clouds 25 1008 94 10000 1.5 0 19:18 29.01.2020
3613 Clouds 25 1008 94 10000 1.5 0 18:46 29.01.2020
3614 Clouds 25 1009 94 10000 2.1 0 18:19 29.01.2020
3615 Clouds 25 1009 94 10000 2.1 0 17:58 29.01.2020
3616 Clouds 25 1009 94 10000 2.1 0 17:39 29.01.2020
3617 Clouds 26 1009 88 10000 1.5 0 17:20 29.01.2020
3618 Clouds 26 1009 88 10000 1.5 0 16:41 29.01.2020
3619 Clouds 27 1010 83 10000 1.5 0 16:23 29.01.2020
3620 Clouds 27 1010 83 10000 1.5 0 15:55 29.01.2020
3621 Clouds 27 1010 83 10000 1.5 0 15:37 29.01.2020
3622 Clouds 29 1009 76 0 2.75 68 15:18 29.01.2020
3623 Clouds 29 1009 76 0 2.75 68 14:41 29.01.2020
3624 Rain 29 1011 76 0 3.07 141 14:20 29.01.2020
3625 Rain 29 1011 76 0 3.07 141 13:41 29.01.2020
3626 Rain 29 1011 76 0 3.07 141 13:23 29.01.2020
3627 Rain 29 1011 76 0 3.07 141 13:23 29.01.2020
3628 Rain 29 1010 78 0 4.17 142 12:59 29.01.2020
3629 Rain 29 1010 78 0 4.17 142 12:39 29.01.2020
3630 Rain 29 1010 78 0 4.17 142 12:21 29.01.2020
3631 Rain 29 1010 78 0 4.17 142 11:58 29.01.2020
3632 Rain 29 1010 78 0 4.17 142 11:39 29.01.2020
3633 Rain 30 1009 75 0 2.39 177 11:19 29.01.2020
3634 Rain 30 1009 75 0 2.39 177 10:46 29.01.2020
3635 Clouds 31 1008 70 10000 5.1 200 10:22 29.01.2020
3636 Rain 30 1009 75 0 2.39 177 09:57 29.01.2020
3637 Rain 30 1009 75 0 2.39 177 09:38 29.01.2020
3638 Clouds 33 1007 59 10000 5.1 150 09:18 29.01.2020
3639 Clouds 33 1007 59 10000 5.1 150 09:18 29.01.2020
3640 Clouds 33 1007 59 10000 5.1 150 08:41 29.01.2020
3641 Clouds 33 1006 59 10000 7.7 180 08:22 29.01.2020
3642 Clouds 33 1006 59 10000 7.7 180 07:45 29.01.2020
3643 Clouds 33 1006 59 10000 7.7 180 07:45 29.01.2020
3644 Clouds 34 1006 52 10000 5.1 200 07:26 29.01.2020
3645 Clouds 34 1006 52 10000 5.1 200 06:55 29.01.2020
3646 Clouds 34 1006 52 10000 5.1 200 06:37 29.01.2020
3647 Clouds 34 1006 52 10000 5.1 200 06:37 29.01.2020
3648 Clouds 30 1006 68 0 3.31 211 06:19 29.01.2020
3649 Clouds 30 1006 68 0 3.31 211 05:47 29.01.2020
3650 Clouds 33 1008 59 10000 7.7 220 05:29 29.01.2020
3651 Clouds 33 1008 59 10000 7.7 220 04:38 29.01.2020
3652 Clouds 32 1010 70 10000 5.1 330 03:55 29.01.2020
3653 Clouds 30 1010 74 10000 5.1 360 02:33 29.01.2020
3654 Clouds 28 1011 83 10000 5.7 330 00:57 29.01.2020
3655 Clouds 28 1011 83 10000 5.7 330 00:36 29.01.2020
3656 Haze 28 1009 78 10000 3.6 350 00:18 29.01.2020
3657 Haze 28 1009 78 10000 3.6 350 23:38 28.01.2020
3658 Haze 25 1008 94 10000 3.6 310 23:19 28.01.2020
3659 Haze 25 1008 94 10000 3.6 310 22:44 28.01.2020
3660 Clouds 24 1007 100 10000 3.6 320 22:26 28.01.2020
3661 Clouds 24 1007 100 10000 3.6 320 21:54 28.01.2020
3662 Clouds 24 1007 100 10000 3.6 320 21:36 28.01.2020
3663 Clouds 26 1007 88 10000 5.1 320 21:18 28.01.2020
3664 Clouds 26 1007 88 10000 5.1 320 21:18 28.01.2020
3665 -273 0 0 0 0 0 21:18 28.01.2020
3666 Clouds 26 1007 88 10000 5.1 320 20:45 28.01.2020
3667 Clouds 26 1007 88 10000 5.1 320 20:25 28.01.2020
3668 Clouds 26 1007 88 10000 5.1 320 19:55 28.01.2020
3669 Clouds 26 1007 88 10000 5.1 320 19:36 28.01.2020
3670 Clouds 26 1007 88 10000 2.6 320 19:18 28.01.2020
3671 Clouds 26 1007 88 10000 2.6 320 18:41 28.01.2020
3672 Clouds 26 1008 88 10000 2.6 360 18:22 28.01.2020
3673 Clouds 26 1008 88 10000 2.6 360 17:59 28.01.2020
3674 Clouds 26 1008 88 10000 2.6 360 17:38 28.01.2020
3675 Clouds 26 1008 88 10000 2.6 360 17:38 28.01.2020
3676 Clouds 26 1008 88 10000 2.6 360 17:19 28.01.2020
3677 Clouds 26 1008 88 10000 2.6 360 16:55 28.01.2020
3678 Clouds 26 1008 88 10000 2.6 360 16:37 28.01.2020
3679 Clouds 29 1008 74 0 2.3 80 16:19 28.01.2020
3680 Clouds 29 1008 74 0 2.3 80 15:44 28.01.2020
3681 Clouds 29 1008 74 0 2.3 80 15:19 28.01.2020
3682 Clouds 29 1008 74 0 2.3 80 14:55 28.01.2020
3683 Clouds 29 1008 74 0 2.3 80 14:36 28.01.2020
3684 Clouds 30 1010 74 0 1.45 102 14:18 28.01.2020
3685 Clouds 30 1010 74 0 1.45 102 13:39 28.01.2020
3686 Clouds 30 1009 75 0 1.43 59 13:21 28.01.2020
3687 Clouds 30 1009 75 0 1.43 59 12:42 28.01.2020
3688 Clouds 30 1009 75 0 1.43 59 12:23 28.01.2020
3689 Clouds 30 1009 75 0 1.43 59 12:23 28.01.2020
3690 Clouds 30 1009 75 0 1.43 59 11:48 28.01.2020
3691 Clouds 30 1009 75 0 1.43 59 11:23 28.01.2020
3692 Clouds 30 1007 67 0 1.25 186 10:59 28.01.2020
3693 Clouds 30 1007 67 0 1.25 186 10:40 28.01.2020
3694 Clouds 27 1007 78 10000 2.6 320 10:21 28.01.2020
3695 Clouds 27 1007 78 10000 2.6 320 09:55 28.01.2020
3696 Clouds 27 1007 78 10000 2.6 320 09:55 28.01.2020
3697 Clouds 27 1007 78 10000 2.6 320 09:36 28.01.2020
3698 Clouds 28 1006 74 10000 3.6 30 09:18 28.01.2020
3699 Clouds 28 1006 74 10000 3.6 30 08:40 28.01.2020
3700 Clouds 33 1005 63 10000 6.7 180 08:19 28.01.2020
3701 Clouds 33 1005 63 10000 6.7 180 08:19 28.01.2020
3702 Clouds 33 1005 63 10000 6.7 180 07:37 28.01.2020
3703 Haze 33 1005 63 10000 5.1 220 06:50 28.01.2020
3704 Haze 33 1006 63 10000 5.1 230 06:26 28.01.2020
3705 Haze 33 1006 63 10000 5.1 230 05:54 28.01.2020
3706 Haze 34 1006 63 10000 5.1 200 05:26 28.01.2020
3707 Haze 34 1007 59 10000 6.2 160 04:28 28.01.2020
3708 Haze 34 1008 59 10000 2.6 330 02:58 28.01.2020
3709 Haze 32 1009 66 10000 2.6 330 02:25 28.01.2020
3710 Haze 32 1009 66 10000 2.6 330 01:57 28.01.2020
3711 Haze 32 1008 66 10000 2.6 350 01:24 28.01.2020
3712 Haze 32 1008 66 10000 2.6 350 00:48 28.01.2020
3713 Clear 28 1008 78 10000 1.5 320 00:28 28.01.2020
3714 Clear 28 1008 78 10000 1.5 320 23:49 27.01.2020
3715 Clear 26 1008 88 10000 2.1 320 23:30 27.01.2020
3716 Clear 26 1008 88 10000 2.1 320 22:55 27.01.2020
3717 Clear 26 1008 88 10000 2.1 320 22:36 27.01.2020
3718 Clear 25 1007 94 10000 2.1 300 22:18 27.01.2020
3719 Clear 25 1007 94 10000 2.1 300 22:18 27.01.2020
3720 Clear 25 1007 94 10000 2.1 300 21:54 27.01.2020
3721 Clear 25 1007 94 10000 2.1 300 21:36 27.01.2020
3722 Clear 25 1007 100 10000 1.5 350 21:18 27.01.2020
3723 Clear 25 1007 100 10000 1.5 350 20:42 27.01.2020
3724 Clouds 28 1008 75 0 2.51 26 20:22 27.01.2020
3725 Clouds 28 1007 76 0 1.51 30 19:59 27.01.2020
3726 Clouds 28 1007 76 0 1.51 30 19:40 27.01.2020
3727 Clouds 28 1007 76 0 1.51 30 19:22 27.01.2020
3728 Clouds 28 1007 76 0 1.51 30 18:56 27.01.2020
3729 Clouds 28 1007 76 0 1.51 30 18:37 27.01.2020
3730 Clouds 28 1007 76 0 1.51 30 18:37 27.01.2020
3731 Clouds 28 1007 76 0 1.51 30 18:19 27.01.2020
3732 Clouds 28 1007 76 0 1.51 30 17:39 27.01.2020
3733 Clouds 28 1008 78 0 2.29 44 17:19 27.01.2020
3734 Clouds 28 1008 78 0 2.29 44 16:58 27.01.2020
3735 Clouds 28 1008 78 0 2.29 44 16:58 27.01.2020
3736 Clouds 28 1008 78 0 2.29 44 16:40 27.01.2020
3737 Clouds 26 1009 88 10000 2.1 0 16:22 27.01.2020
3738 -273 0 0 0 0 0 16:22 27.01.2020
3739 Clouds 26 1009 88 10000 2.1 0 15:55 27.01.2020
3740 Clouds 26 1009 88 10000 2.1 0 15:36 27.01.2020
3741 Clouds 26 1009 88 10000 1.5 0 15:18 27.01.2020
3742 Clouds 26 1009 88 10000 1.5 0 14:41 27.01.2020
3743 Clouds 27 1009 83 10000 1.5 0 14:22 27.01.2020
3744 Clouds 27 1009 83 10000 1.5 0 13:54 27.01.2020
3745 Clouds 27 1009 83 10000 1.5 0 13:36 27.01.2020
3746 Clouds 29 1009 71 0 0.47 47 13:18 27.01.2020
3747 Clouds 29 1009 71 0 0.47 47 12:42 27.01.2020
3748 Clouds 29 1009 71 0 0.47 47 12:22 27.01.2020
3749 Clouds 29 1009 71 0 0.47 47 11:43 27.01.2020
3750 Clouds 30 1007 74 10000 1.5 0 11:23 27.01.2020
3751 Clouds 30 1007 74 10000 1.5 0 11:23 27.01.2020
3752 Clouds 30 1007 74 10000 1.5 0 10:57 27.01.2020
3753 Clouds 30 1007 74 10000 1.5 0 10:57 27.01.2020
3754 Clouds 30 1007 74 10000 1.5 0 10:57 27.01.2020
3755 Clouds 30 1007 74 10000 1.5 0 10:39 27.01.2020
3756 Clouds 31 1006 70 10000 5.1 260 10:20 27.01.2020
3757 Clouds 31 1006 70 10000 5.1 260 09:40 27.01.2020
3758 Clouds 32 1006 62 10000 5.1 250 09:19 27.01.2020
3759 Clouds 32 1006 62 10000 5.1 250 09:19 27.01.2020
3760 Clouds 32 1006 62 10000 5.1 250 08:57 27.01.2020
3761 Clouds 32 1006 62 10000 5.1 250 08:39 27.01.2020
3762 Clouds 33 1006 55 10000 7.7 270 08:19 27.01.2020
3763 Clouds 33 1006 55 10000 7.7 270 07:47 27.01.2020
3764 Clouds 34 1006 56 10000 7.7 250 07:29 27.01.2020
3765 Clouds 34 1006 56 10000 7.7 250 06:38 27.01.2020
3766 Clouds 33 1007 59 10000 7.7 260 05:46 27.01.2020
3767 Clouds 34 1007 56 10000 7.7 270 04:37 27.01.2020
3768 Clouds 33 1009 63 10000 5.1 360 03:35 27.01.2020
3769 Clouds 31 1010 70 10000 5.1 330 01:55 27.01.2020
3770 Clouds 29 1010 79 10000 5.1 330 01:27 27.01.2020
3771 Clouds 29 1010 79 10000 5.1 330 00:41 27.01.2020
3772 Clouds 27 1009 88 10000 4.1 330 00:21 27.01.2020
3773 Clouds 27 1009 88 10000 4.1 330 23:43 26.01.2020
3774 Clouds 24 1009 100 10000 2.6 330 23:22 26.01.2020
3775 Clouds 24 1009 100 10000 2.6 330 22:58 26.01.2020
3776 Clouds 24 1009 100 10000 2.6 330 22:38 26.01.2020
3777 Fog 24 1008 100 10000 4.1 310 22:20 26.01.2020
3778 Fog 24 1008 100 10000 4.1 310 22:20 26.01.2020
3779 Fog 24 1008 100 10000 4.1 310 21:58 26.01.2020
3780 Fog 24 1008 100 10000 4.1 310 21:39 26.01.2020
3781 Clouds 24 1007 100 10000 3.6 310 21:20 26.01.2020
3782 Clouds 24 1007 100 10000 3.6 310 20:58 26.01.2020
3783 Clouds 24 1007 100 10000 3.6 310 20:38 26.01.2020
3784 Rain 27 1007 80 0 3.6 23 20:19 26.01.2020
3785 Rain 27 1007 80 0 3.6 23 19:57 26.01.2020
3786 Rain 27 1007 80 0 3.6 23 19:38 26.01.2020
3787 Rain 27 1007 80 0 3.6 23 19:19 26.01.2020
3788 Rain 27 1007 80 0 3.6 23 19:19 26.01.2020
3789 Rain 27 1007 80 0 3.6 23 18:56 26.01.2020
3790 Rain 27 1007 80 0 3.6 23 18:37 26.01.2020
3791 Rain 27 1007 80 0 3.6 23 18:19 26.01.2020
3792 Rain 27 1007 80 0 3.6 23 17:55 26.01.2020
3793 Rain 27 1007 80 0 3.6 23 17:36 26.01.2020
3794 Clouds 25 1009 100 10000 1.5 0 17:18 26.01.2020
3795 Clouds 25 1009 100 10000 1.5 0 16:55 26.01.2020
3796 Clouds 25 1009 100 10000 1.5 0 16:37 26.01.2020
3797 Clouds 25 1009 100 10000 1.5 0 16:18 26.01.2020
3798 Clouds 28 1009 77 0 2.33 21 15:42 26.01.2020
3799 Clouds 26 1010 94 10000 1.5 0 15:19 26.01.2020
3800 Clouds 26 1010 94 10000 1.5 0 14:41 26.01.2020
3801 Clouds 26 1010 94 10000 1.5 0 14:23 26.01.2020
3802 Clouds 26 1010 94 10000 1.5 0 13:59 26.01.2020
3803 Clouds 26 1010 94 10000 1.5 0 13:38 26.01.2020
3804 Clouds 27 1009 94 10000 1.5 0 13:18 26.01.2020
3805 Clouds 27 1009 94 10000 1.5 0 12:43 26.01.2020
3806 Clouds 27 1009 94 10000 1.5 0 12:24 26.01.2020
3807 Clouds 29 1009 79 10000 1.5 200 11:59 26.01.2020
3808 Clouds 29 1009 79 10000 1.5 200 11:40 26.01.2020
3809 Clouds 29 1009 79 10000 1.5 200 11:19 26.01.2020
3810 Clouds 29 1008 83 10000 1.5 190 10:59 26.01.2020
3811 Clouds 29 1008 83 10000 1.5 190 10:39 26.01.2020
3812 Clouds 29 1007 83 10000 3.1 190 10:21 26.01.2020
3813 Clouds 29 1007 83 10000 3.1 190 09:58 26.01.2020
3814 Clouds 29 1007 83 10000 3.1 190 09:40 26.01.2020
3815 Clouds 29 1007 83 10000 3.1 190 09:40 26.01.2020
3816 Clouds 30 1007 79 10000 3.6 190 09:21 26.01.2020
3817 Clouds 30 1007 79 10000 3.6 190 08:45 26.01.2020
3818 -273 0 0 0 0 0 08:23 26.01.2020
3819 Clouds 31 1007 74 10000 5.1 180 07:58 26.01.2020
3820 Clouds 31 1007 74 10000 5.1 180 07:40 26.01.2020
3821 Clouds 32 1007 70 10000 7.7 210 07:21 26.01.2020
3822 Clouds 32 1008 66 10000 7.7 220 06:31 26.01.2020
3823 Clouds 32 1008 66 10000 7.7 220 05:32 26.01.2020
3824 Clouds 31 1009 74 10000 5.1 250 04:45 26.01.2020
3825 Clouds 31 1010 74 10000 2.6 320 02:58 26.01.2020
3826 Haze 31 1011 74 10000 2.6 280 01:50 26.01.2020
3827 Clouds 29 1010 71 0 2.23 338 01:25 26.01.2020
3828 Clouds 29 1010 71 0 2.23 338 00:58 26.01.2020
3829 Clouds 29 1010 71 0 2.23 338 00:37 26.01.2020
3830 Haze 28 1010 78 10000 2.1 0 00:19 26.01.2020
3831 Haze 28 1010 78 10000 2.1 0 23:37 25.01.2020
3832 Clouds 24 1009 100 10000 2.6 320 23:18 25.01.2020
3833 Clouds 27 1010 80 0 3.23 12 22:40 25.01.2020
3834 Clouds 24 1008 100 10000 2.6 320 22:19 25.01.2020
3835 Clouds 24 1008 100 10000 2.6 320 21:57 25.01.2020
3836 Clouds 24 1008 100 10000 2.6 320 21:57 25.01.2020
3837 Clouds 24 1008 100 10000 2.6 320 21:38 25.01.2020
3838 Clouds 24 1008 100 10000 2.6 320 21:38 25.01.2020
3839 Clouds 27 1010 80 0 3.23 12 21:20 25.01.2020
3840 Clouds 27 1010 80 0 3.23 12 20:44 25.01.2020
3841 Clouds 27 1010 80 0 3.23 12 20:44 25.01.2020
3842 Clouds 27 1010 80 0 3.23 12 20:25 25.01.2020
3843 Clouds 27 1010 80 0 3.23 12 20:25 25.01.2020
3844 Clouds 24 1008 100 10000 2.6 330 19:55 25.01.2020
3845 Clouds 27 1008 79 0 3.18 1 19:37 25.01.2020
3846 Clouds 25 1008 94 10000 2.6 330 19:18 25.01.2020
3847 Clouds 27 1008 79 0 3.18 1 18:42 25.01.2020
3848 Clouds 25 1008 100 10000 2.6 330 18:21 25.01.2020
3849 Clouds 25 1008 100 10000 2.6 330 17:58 25.01.2020
3850 Clouds 27 1008 79 0 3.18 1 17:38 25.01.2020
3851 Clouds 25 1009 100 10000 5.1 330 17:18 25.01.2020
3852 Clouds 25 1009 100 10000 5.1 330 16:42 25.01.2020
3853 Clouds 28 1009 78 0 2.84 17 16:23 25.01.2020
3854 Clouds 28 1009 78 0 2.84 17 15:58 25.01.2020
3855 Clouds 28 1009 78 0 2.84 17 15:39 25.01.2020
3856 Clouds 28 1009 78 0 2.84 17 15:20 25.01.2020
3857 Clouds 28 1009 78 0 2.84 17 15:20 25.01.2020
3858 Clouds 28 1009 78 0 2.84 17 14:42 25.01.2020
3859 Rain 29 1011 70 0 0.69 31 14:19 25.01.2020
3860 Rain 29 1011 70 0 0.69 31 13:45 25.01.2020
3861 Rain 29 1011 70 0 0.69 31 13:27 25.01.2020
3862 Rain 29 1011 73 0 1.38 33 12:57 25.01.2020
3863 Rain 29 1011 73 0 1.38 33 12:38 25.01.2020
3864 Rain 29 1011 73 0 1.38 33 12:19 25.01.2020
3865 Rain 29 1011 73 0 1.38 33 12:19 25.01.2020
3866 Rain 29 1011 73 0 1.38 33 11:40 25.01.2020
3867 Rain 29 1011 73 0 1.38 33 11:40 25.01.2020
3868 Rain 29 1009 72 0 2.15 229 11:19 25.01.2020
3869 Rain 29 1009 72 0 2.15 229 10:55 25.01.2020
3870 Rain 29 1009 72 0 2.15 229 10:37 25.01.2020
3871 Clouds 30 1009 74 10000 6.7 230 10:18 25.01.2020
3872 Clouds 30 1009 74 10000 6.7 230 09:40 25.01.2020
3873 Rain 29 1009 72 0 2.15 229 09:19 25.01.2020
3874 Rain 29 1009 72 0 2.15 229 08:43 25.01.2020
3875 Clouds 30 1007 67 0 3.75 234 07:57 25.01.2020
3876 Clouds 33 1008 63 10000 5.1 240 07:28 25.01.2020
3877 Clouds 33 1008 63 10000 5.1 240 06:33 25.01.2020
3878 Clouds 33 1009 63 10000 5.1 240 05:57 25.01.2020
3879 Clouds 33 1009 63 10000 5.1 240 05:38 25.01.2020
3880 Clouds 33 1010 59 10000 6.7 230 03:58 25.01.2020
3881 Clouds 33 1010 59 10000 6.7 230 03:39 25.01.2020
3882 Clouds 33 1011 63 10000 7.2 220 02:36 25.01.2020
3883 Clouds 32 1011 62 10000 5.1 320 01:57 25.01.2020
3884 Clouds 30 1011 70 10000 2.6 25 01:21 25.01.2020
3885 Clouds 30 1011 70 10000 2.6 25 00:37 25.01.2020
3886 Clouds 29 1011 79 10000 2.6 340 00:18 25.01.2020
3887 Clouds 29 1011 79 10000 2.6 340 23:41 24.01.2020
3888 Clouds 29 1011 79 10000 2.6 340 23:41 24.01.2020
3889 Clouds 26 1010 88 10000 2.6 300 23:23 24.01.2020
3890 Clouds 26 1010 88 10000 2.6 300 22:46 24.01.2020
3891 Clouds 25 1010 88 10000 2.6 320 22:27 24.01.2020
3892 Clouds 25 1010 88 10000 2.6 320 21:57 24.01.2020
3893 Clouds 25 1010 88 10000 2.6 320 21:39 24.01.2020
3894 Clouds 27 1010 77 0 2.36 40 21:18 24.01.2020
3895 Clouds 27 1010 77 0 2.36 40 20:43 24.01.2020
3896 Clouds 27 1010 76 0 2.21 30 20:22 24.01.2020
3897 Rain 27 1009 82 0 3.09 29 19:58 24.01.2020
3898 Rain 27 1009 82 0 3.09 29 19:39 24.01.2020
3899 Rain 27 1009 82 0 3.09 29 19:21 24.01.2020
3900 Rain 27 1009 82 0 3.09 29 18:44 24.01.2020
3901 Rain 27 1009 82 0 3.09 29 18:25 24.01.2020
3902 Rain 27 1009 82 0 3.09 29 17:56 24.01.2020
3903 Rain 27 1009 82 0 3.09 29 17:56 24.01.2020
3904 Rain 27 1009 82 0 3.09 29 17:38 24.01.2020
3905 Rain 29 1010 75 0 2.03 125 17:20 24.01.2020
3906 Rain 29 1010 75 0 2.03 125 16:39 24.01.2020
3907 Rain 29 1010 75 0 2.03 125 16:21 24.01.2020
3908 Rain 29 1010 75 0 2.03 125 15:55 24.01.2020
3909 Rain 29 1010 75 0 2.03 125 15:37 24.01.2020
3910 Clouds 29 1011 83 10000 2.6 150 15:18 24.01.2020
3911 Clouds 29 1011 83 10000 2.6 150 14:41 24.01.2020
3912 Clouds 29 1011 83 10000 2.6 150 14:22 24.01.2020
3913 Clouds 28 1010 88 10000 2.6 170 13:44 24.01.2020
3914 Clouds 28 1010 88 10000 3.1 150 13:23 24.01.2020
3915 Clouds 28 1010 88 10000 3.1 150 12:45 24.01.2020
3916 Clouds 28 1010 88 10000 3.1 150 12:45 24.01.2020
3917 Clouds 28 1010 88 10000 3.1 150 12:23 24.01.2020
3918 Rain 29 1011 77 0 3.98 150 11:57 24.01.2020
3919 Rain 29 1011 77 0 3.98 150 11:39 24.01.2020
3920 Clouds 29 1008 83 10000 3.1 150 11:18 24.01.2020
3921 Clouds 29 1008 83 10000 3.1 150 10:42 24.01.2020
3922 Clouds 29 1008 83 10000 3.1 150 10:42 24.01.2020
3923 Haze 30 1008 79 10000 5.1 180 10:21 24.01.2020
3924 Haze 30 1008 79 10000 5.1 180 09:54 24.01.2020
3925 Haze 30 1008 79 10000 5.1 180 09:36 24.01.2020
3926 Haze 32 1007 66 10000 5.1 160 09:18 24.01.2020
3927 Haze 32 1007 66 10000 5.1 160 08:39 24.01.2020
3928 Haze 32 1007 66 10000 5.1 160 08:39 24.01.2020
3929 Haze 32 1007 66 10000 5.1 200 08:19 24.01.2020
3930 Haze 32 1007 66 10000 5.1 200 07:47 24.01.2020
3931 Clouds 33 1007 63 10000 7.7 200 07:22 24.01.2020
3932 Clouds 33 1007 63 10000 7.7 200 07:22 24.01.2020
3933 Clouds 33 1007 63 10000 7.7 200 06:43 24.01.2020
3934 Clouds 33 1008 63 10000 7.7 220 06:23 24.01.2020
3935 Clouds 34 1008 59 10000 3.6 230 05:22 24.01.2020
3936 Haze 34 1009 59 10000 5.1 220 03:34 24.01.2020
3937 Haze 33 1010 59 10000 5.1 150 02:40 24.01.2020
3938 Haze 32 1010 62 10000 5.1 150 02:20 24.01.2020
3939 Haze 32 1010 62 10000 5.1 150 01:38 24.01.2020
3940 Haze 31 1011 70 10000 5.1 160 00:42 24.01.2020
3941 Haze 29 1011 79 10000 2.1 0 00:19 24.01.2020
3942 Haze 29 1011 79 10000 2.1 0 23:41 23.01.2020
3943 Haze 25 1010 100 10000 2.1 0 23:21 23.01.2020
3944 Haze 25 1010 100 10000 2.1 0 22:58 23.01.2020
3945 Haze 25 1010 100 10000 2.1 0 22:36 23.01.2020
3946 Clouds 24 1010 100 10000 2.1 0 22:18 23.01.2020
3947 Clouds 24 1010 100 10000 2.1 0 21:55 23.01.2020
3948 Clouds 24 1010 100 10000 2.1 0 21:37 23.01.2020
3949 Clouds 25 1010 94 10000 1.5 0 21:18 23.01.2020
3950 Clouds 25 1010 94 10000 1.5 0 20:41 23.01.2020
3951 Clouds 27 1011 75 0 1.44 46 20:22 23.01.2020
3952 Clouds 28 1009 76 0 1.92 54 19:57 23.01.2020
3953 Clouds 28 1009 76 0 1.92 54 19:39 23.01.2020
3954 Clouds 25 1010 94 10000 1.5 0 19:21 23.01.2020
3955 Clouds 25 1010 94 10000 1.5 0 18:56 23.01.2020
3956 Clouds 25 1010 94 10000 1.5 0 18:37 23.01.2020
3957 Clouds 26 1010 94 10000 1.5 0 18:19 23.01.2020
3958 Clouds 26 1010 94 10000 1.5 0 18:19 23.01.2020
3959 Clouds 26 1010 94 10000 1.5 0 17:44 23.01.2020
3960 Clouds 29 1010 72 0 2.13 139 17:21 23.01.2020
3961 Clouds 29 1010 72 0 2.13 139 16:58 23.01.2020
3962 Clouds 29 1010 72 0 2.13 139 16:38 23.01.2020
3963 Clouds 26 1011 94 10000 1.5 0 16:19 23.01.2020
3964 Clouds 26 1011 94 10000 1.5 0 15:57 23.01.2020
3965 Clouds 26 1011 94 10000 1.5 0 15:38 23.01.2020
3966 Clouds 26 1011 94 10000 1.5 0 15:38 23.01.2020
3967 Clouds 27 1011 88 10000 1.5 0 15:19 23.01.2020
3968 Clouds 27 1011 88 10000 1.5 0 14:57 23.01.2020
3969 Clouds 27 1011 88 10000 1.5 0 14:39 23.01.2020
3970 Clouds 27 1010 88 10000 1.5 0 14:21 23.01.2020
3971 Clouds 27 1010 88 10000 1.5 0 13:46 23.01.2020
3972 Clouds 28 1010 83 10000 1.5 0 13:21 23.01.2020
3973 Clouds 28 1010 83 10000 1.5 0 12:56 23.01.2020
3974 Clouds 28 1010 83 10000 1.5 0 12:56 23.01.2020
3975 Clouds 28 1010 83 10000 1.5 0 12:56 23.01.2020
3976 Clouds 28 1010 83 10000 1.5 0 12:38 23.01.2020
3977 Clouds 28 1009 83 10000 1.5 0 12:20 23.01.2020
3978 Clouds 28 1009 83 10000 1.5 0 11:43 23.01.2020
3979 Clouds 28 1010 83 10000 2.6 140 11:24 23.01.2020
3980 Clouds 28 1010 83 10000 2.6 140 10:58 23.01.2020
3981 Clouds 28 1010 83 10000 2.6 140 10:40 23.01.2020
3982 Haze 29 1009 79 10000 5.1 180 10:19 23.01.2020
3983 Haze 29 1009 79 10000 5.1 180 09:41 23.01.2020
3984 Haze 29 1009 79 10000 5.1 180 09:41 23.01.2020
3985 Haze 32 1008 62 10000 7.7 200 09:21 23.01.2020
3986 Haze 32 1008 62 10000 7.7 200 08:56 23.01.2020
3987 Haze 32 1008 62 10000 7.7 200 08:38 23.01.2020
3988 Haze 32 1007 62 10000 7.7 220 08:18 23.01.2020
3989 Haze 32 1007 62 10000 7.7 220 07:37 23.01.2020
3990 Haze 33 1008 59 10000 7.7 220 07:18 23.01.2020
3991 Haze 33 1008 59 10000 7.7 220 06:44 23.01.2020
3992 Haze 33 1008 49 10000 5.1 280 06:18 23.01.2020
3993 Haze 32 1010 66 10000 6.2 330 04:25 23.01.2020
3994 Haze 32 1011 62 10000 5.1 330 03:23 23.01.2020
3995 Haze 31 1012 66 10000 5.1 330 01:53 23.01.2020
3996 Haze 30 1012 70 10000 5.1 350 00:44 23.01.2020
3997 Haze 28 1012 78 10000 5.1 350 00:22 23.01.2020
3998 Haze 28 1012 78 10000 5.1 350 23:46 22.01.2020
3999 Clouds 25 1012 94 10000 5.1 300 23:28 22.01.2020
4000 Clouds 25 1012 94 10000 5.1 300 22:43 22.01.2020
4001 Clouds 24 1011 100 10000 2.6 320 22:25 22.01.2020
4002 Clouds 24 1011 100 10000 2.6 320 21:58 22.01.2020
4003 Clouds 24 1011 100 10000 2.6 320 21:36 22.01.2020
4004 Clouds 24 1011 100 10000 2.6 320 21:36 22.01.2020
4005 Clouds 24 1010 100 10000 2.1 320 21:18 22.01.2020
4006 Clouds 24 1010 100 10000 2.1 320 20:41 22.01.2020
4007 Clouds 24 1010 100 10000 2.1 320 20:41 22.01.2020
4008 Clouds 25 1010 94 10000 3.6 310 20:23 22.01.2020
4009 Clouds 25 1010 94 10000 3.6 310 19:58 22.01.2020
4010 Clouds 25 1010 94 10000 3.6 310 19:58 22.01.2020
4011 Clouds 25 1010 94 10000 3.6 310 19:40 22.01.2020
4012 Rain 28 1010 77 0 6.51 327 19:20 22.01.2020
4013 Rain 28 1010 77 0 6.51 327 18:58 22.01.2020
4014 Rain 28 1010 77 0 6.51 327 18:39 22.01.2020
4015 Clouds 25 1011 94 10000 2.6 320 18:20 22.01.2020
4016 Clouds 25 1011 94 10000 2.6 320 17:56 22.01.2020
4017 Clouds 25 1011 94 10000 2.6 320 17:38 22.01.2020
4018 Rain 28 1010 77 0 6.47 330 17:19 22.01.2020
4019 Rain 28 1010 77 0 6.47 330 16:44 22.01.2020
4020 Clouds 25 1012 94 10000 2.1 340 16:24 22.01.2020
4021 Clouds 25 1012 94 10000 2.1 340 15:59 22.01.2020
4022 Clouds 25 1012 94 10000 2.1 340 15:41 22.01.2020
4023 Rain 28 1010 77 0 6.47 330 15:22 22.01.2020
4024 Rain 28 1010 77 0 6.47 330 14:58 22.01.2020
4025 Rain 28 1010 77 0 6.47 330 14:37 22.01.2020
4026 Rain 29 1012 76 0 6.14 320 14:19 22.01.2020
4027 Rain 29 1012 76 0 6.14 320 13:55 22.01.2020
4028 Rain 29 1012 76 0 6.14 320 13:36 22.01.2020
4029 Rain 29 1012 76 0 6.14 320 13:36 22.01.2020
4030 Rain 29 1012 76 0 6.14 320 13:36 22.01.2020
4031 Rain 29 1012 76 0 5.33 319 13:18 22.01.2020
4032 Rain 29 1012 76 0 5.33 319 12:55 22.01.2020
4033 Rain 29 1012 76 0 5.33 319 12:37 22.01.2020
4034 Rain 29 1012 76 0 5.33 319 12:18 22.01.2020
4035 Rain 29 1012 76 0 5.33 319 11:56 22.01.2020
4036 Rain 29 1012 76 0 5.33 319 11:56 22.01.2020
4037 Rain 29 1012 76 0 5.33 319 11:37 22.01.2020
4038 Rain 29 1010 75 0 5.56 302 11:18 22.01.2020
4039 Rain 29 1010 75 0 5.56 302 10:44 22.01.2020
4040 Clouds 29 1010 74 10000 7.7 310 10:20 22.01.2020
4041 Clouds 29 1010 74 10000 7.7 310 09:44 22.01.2020
4042 Clouds 30 1010 74 10000 7.7 270 09:25 22.01.2020
4043 Clouds 30 1010 74 10000 7.7 270 08:58 22.01.2020
4044 Clouds 30 1010 74 10000 7.7 270 08:40 22.01.2020
4045 Clouds 30 1010 74 10000 10.3 300 08:21 22.01.2020
4046 Clouds 30 1010 74 10000 10.3 300 07:54 22.01.2020
4047 Clouds 30 1010 74 10000 10.3 300 07:36 22.01.2020
4048 Clouds 32 1009 66 10000 10.3 300 07:18 22.01.2020
4049 Clouds 33 1010 59 10000 10.3 290 06:30 22.01.2020
4050 Clouds 33 1010 59 10000 10.3 290 05:41 22.01.2020
4051 Clouds 32 1011 70 10000 6.2 350 04:18 22.01.2020
4052 Clouds 31 1012 74 10000 9.3 280 03:22 22.01.2020
4053 Clouds 29 1013 79 10000 10.3 270 01:44 22.01.2020
4054 Clouds 30 1013 74 10000 5.1 330 00:44 22.01.2020
4055 Clouds 29 1013 74 0 4.64 328 00:26 22.01.2020
4056 Clouds 29 1013 74 0 4.64 328 23:38 21.01.2020
4057 Clouds 29 1013 74 0 4.64 328 23:38 21.01.2020
4058 Clouds 26 1012 94 10000 2.6 320 23:20 21.01.2020
4059 Clouds 26 1012 94 10000 2.6 320 22:56 21.01.2020
4060 Clouds 26 1012 94 10000 2.6 320 22:56 21.01.2020
4061 Clouds 26 1012 94 10000 2.6 320 22:37 21.01.2020
4062 Clouds 26 1012 94 10000 2.6 320 22:37 21.01.2020
4063 Clouds 25 1012 100 10000 5.1 330 22:19 21.01.2020
4064 Clouds 25 1012 100 10000 5.1 330 21:55 21.01.2020
4065 Clouds 25 1012 100 10000 5.1 330 21:37 21.01.2020
4066 Rain 28 1011 78 0 4.74 342 21:18 21.01.2020
4067 Rain 28 1011 78 0 4.74 342 20:55 21.01.2020
4068 Rain 28 1011 78 0 4.74 342 20:36 21.01.2020
4069 Rain 28 1011 79 0 4.88 336 20:18 21.01.2020
4070 Rain 28 1011 79 0 4.88 336 19:55 21.01.2020
4071 Rain 28 1011 79 0 4.88 336 19:36 21.01.2020
4072 Rain 28 1011 79 0 4.88 336 19:18 21.01.2020
4073 Rain 28 1011 79 0 4.88 336 18:54 21.01.2020
4074 Rain 28 1011 79 0 4.88 336 18:36 21.01.2020
4075 Rain 28 1011 79 0 4.88 336 18:18 21.01.2020
4076 Rain 28 1011 79 0 4.88 336 17:42 21.01.2020
4077 Rain 28 1011 82 0 4.62 353 17:19 21.01.2020
4078 Rain 28 1011 82 0 4.62 353 16:55 21.01.2020
4079 Rain 28 1011 82 0 4.62 353 16:36 21.01.2020
4080 Rain 28 1011 82 0 4.62 353 16:18 21.01.2020
4081 Rain 28 1011 82 0 4.62 353 15:39 21.01.2020
4082 Rain 28 1011 82 0 4.62 353 15:20 21.01.2020
4083 Rain 28 1011 82 0 4.62 353 14:40 21.01.2020
4084 Rain 28 1011 82 0 4.62 353 14:22 21.01.2020
4085 Rain 29 1012 78 0 4.8 305 13:58 21.01.2020
4086 Rain 29 1012 78 0 4.8 305 13:38 21.01.2020
4087 Rain 29 1012 78 0 4.29 314 13:18 21.01.2020
4088 Rain 29 1012 78 0 4.29 314 12:42 21.01.2020
4089 Rain 29 1012 78 0 4.29 314 12:24 21.01.2020
4090 Rain 29 1012 78 0 4.29 314 11:56 21.01.2020
4091 Rain 29 1012 78 0 4.29 314 11:38 21.01.2020
4092 Rain 29 1012 78 0 4.29 314 11:38 21.01.2020
4093 Rain 29 1012 78 0 4.29 314 11:38 21.01.2020
4094 Rain 29 1011 78 0 4.89 288 11:19 21.01.2020
4095 Rain 29 1011 78 0 4.89 288 11:19 21.01.2020
4096 Rain 29 1011 78 0 4.89 288 10:43 21.01.2020
4097 Haze 31 1008 70 10000 5.1 280 10:23 21.01.2020
4098 Haze 31 1008 70 10000 5.1 280 09:56 21.01.2020
4099 Haze 31 1008 70 10000 5.1 280 09:56 21.01.2020
4100 Haze 31 1008 70 10000 5.1 280 09:38 21.01.2020
4101 Clouds 31 1008 70 10000 5.1 260 09:20 21.01.2020
4102 Clouds 31 1008 70 10000 5.1 260 08:44 21.01.2020
4103 Haze 31 1008 74 10000 5.1 270 08:26 21.01.2020
4104 Haze 31 1008 74 10000 5.1 270 07:43 21.01.2020
4105 Haze 32 1008 70 10000 7.7 250 07:24 21.01.2020
4106 Haze 32 1008 70 10000 7.7 250 06:57 21.01.2020
4107 Haze 32 1008 70 10000 7.7 250 06:38 21.01.2020
4108 Clouds 30 1009 72 0 6.17 284 05:53 21.01.2020
4109 Clouds 30 1009 72 0 6.17 284 05:32 21.01.2020
4110 Clear 30 1010 71 0 5.09 292 04:37 21.01.2020
4111 Clouds 31 1013 66 10000 3.1 340 02:27 21.01.2020
4112 Clouds 31 1013 66 10000 3.1 340 01:36 21.01.2020
4113 Clouds 30 1013 74 10000 3.1 340 00:45 21.01.2020
4114 Rain 29 1012 72 0 3.38 328 00:25 21.01.2020
4115 Rain 29 1012 72 0 3.38 328 23:56 20.01.2020
4116 Rain 29 1012 72 0 3.38 328 23:36 20.01.2020
4117 Clouds 25 1012 94 10000 2.6 340 23:18 20.01.2020
4118 Clouds 25 1012 94 10000 2.6 340 22:40 20.01.2020
4119 Rain 28 1012 78 0 3.54 346 22:21 20.01.2020
4120 Rain 28 1012 78 0 3.54 346 21:58 20.01.2020
4121 Rain 28 1012 78 0 3.54 346 21:58 20.01.2020
4122 Rain 28 1012 78 0 3.54 346 21:38 20.01.2020
4123 Clear 24 1010 100 10000 2.6 340 21:20 20.01.2020
4124 Clear 24 1010 100 10000 2.6 340 20:58 20.01.2020
4125 Clear 24 1010 100 10000 2.6 340 20:39 20.01.2020
4126 Clouds 27 1010 79 0 3.03 348 20:20 20.01.2020
4127 Clouds 27 1010 79 0 3.03 348 19:58 20.01.2020
4128 Clouds 27 1010 79 0 3.03 348 19:40 20.01.2020
4129 Clouds 27 1010 79 0 3.03 348 19:19 20.01.2020
4130 Clouds 27 1010 79 0 3.03 348 18:45 20.01.2020
4131 Clouds 27 1010 79 0 3.03 348 18:24 20.01.2020
4132 Clouds 27 1010 79 0 3.03 348 17:59 20.01.2020
4133 Clouds 27 1010 79 0 3.03 348 17:38 20.01.2020
4134 Clouds 27 1010 83 0 3.64 3 17:18 20.01.2020
4135 Clouds 27 1010 83 0 3.64 3 16:45 20.01.2020
4136 Clouds 27 1010 83 0 3.64 3 16:25 20.01.2020
4137 Clouds 27 1010 83 0 3.64 3 15:58 20.01.2020
4138 Clouds 27 1010 83 0 3.64 3 15:58 20.01.2020
4139 Clouds 27 1010 83 0 3.64 3 15:40 20.01.2020
4140 Clouds 26 1011 94 10000 2.6 320 15:21 20.01.2020
4141 Clouds 26 1011 94 10000 2.6 320 14:55 20.01.2020
4142 Clouds 26 1011 94 10000 2.6 320 14:36 20.01.2020
4143 Clouds 27 1010 83 10000 2.6 14 14:18 20.01.2020
4144 Clouds 27 1010 83 10000 2.6 14 13:41 20.01.2020
4145 Clouds 27 1010 83 10000 2.6 14 13:22 20.01.2020
4146 Clouds 27 1010 83 10000 2.6 14 12:48 20.01.2020
4147 Clouds 27 1010 88 10000 3.6 310 12:29 20.01.2020
4148 Clouds 27 1010 88 10000 3.6 310 11:59 20.01.2020
4149 Clouds 27 1010 88 10000 3.6 310 11:40 20.01.2020
4150 Clouds 29 1009 70 10000 5.1 280 11:22 20.01.2020
4151 Clouds 29 1009 70 10000 5.1 280 10:57 20.01.2020
4152 Clouds 29 1009 70 10000 5.1 280 10:39 20.01.2020
4153 Clouds 31 1008 62 10000 10.3 280 10:19 20.01.2020
4154 Clouds 31 1008 62 10000 10.3 280 10:19 20.01.2020
4155 Clouds 31 1008 62 10000 10.3 280 10:19 20.01.2020
4156 Clouds 31 1008 62 10000 10.3 280 09:41 20.01.2020
4157 Clouds 33 1007 63 10000 10.3 300 09:21 20.01.2020
4158 Clouds 33 1007 63 10000 10.3 300 08:49 20.01.2020
4159 Clouds 34 1007 59 10000 10.3 290 08:30 20.01.2020
4160 Clouds 34 1007 59 10000 10.3 290 07:53 20.01.2020
4161 Clouds 34 1007 59 10000 10.3 300 07:30 20.01.2020
4162 Clouds 34 1007 59 10000 10.3 300 06:59 20.01.2020
4163 Clouds 34 1008 59 10000 10.3 300 06:28 20.01.2020
4164 Clouds 34 1008 59 10000 10.3 300 05:44 20.01.2020
4165 Clouds 33 1009 63 10000 10.3 320 05:23 20.01.2020
4166 Clouds 33 1009 63 10000 10.3 320 04:48 20.01.2020
4167 Clouds 32 1011 66 10000 7.7 330 02:59 20.01.2020
4168 Clouds 32 1011 66 10000 7.7 330 02:59 20.01.2020
4169 Rain 28 1011 75 0 5.29 335 01:57 20.01.2020
4170 Rain 28 1011 75 0 5.29 335 01:37 20.01.2020
4171 Clouds 29 1012 79 10000 9.3 330 00:45 20.01.2020
4172 Clouds 26 1011 94 10000 3.1 330 00:25 20.01.2020
4173 Clouds 26 1011 94 10000 3.1 330 23:40 19.01.2020
4174 Clouds 25 1010 94 10000 3.6 350 23:20 19.01.2020
4175 Clouds 25 1010 94 10000 3.6 350 22:57 19.01.2020
4176 Clouds 25 1010 94 10000 3.6 350 22:39 19.01.2020
4177 Clouds 24 1009 100 10000 2.6 340 22:20 19.01.2020
4178 Clouds 24 1009 100 10000 2.6 340 21:57 19.01.2020
4179 Clouds 24 1009 100 10000 2.6 340 21:39 19.01.2020
4180 Rain 27 1010 82 0 5.21 356 21:20 19.01.2020
4181 Rain 27 1010 82 0 5.21 356 20:57 19.01.2020
4182 Rain 27 1010 82 0 5.21 356 20:39 19.01.2020
4183 Clouds 25 1008 94 10000 4.1 300 20:21 19.01.2020
4184 Clouds 25 1008 94 10000 4.1 300 19:57 19.01.2020
4185 Clouds 25 1008 94 10000 4.1 300 19:39 19.01.2020
4186 Clouds 25 1008 94 10000 4.1 300 19:20 19.01.2020
4187 Clouds 25 1008 94 10000 4.1 310 18:57 19.01.2020
4188 Clouds 25 1008 94 10000 4.1 310 18:39 19.01.2020
4189 Clouds 26 1008 88 10000 4.1 330 18:20 19.01.2020
4190 Clouds 26 1008 88 10000 4.1 330 17:58 19.01.2020
4191 Clouds 26 1008 88 10000 4.1 330 17:58 19.01.2020
4192 Clouds 26 1008 88 10000 4.1 330 17:40 19.01.2020
4193 Rain 27 1009 79 0 3.14 5 17:21 19.01.2020
4194 Rain 27 1009 79 0 3.14 5 16:59 19.01.2020
4195 Rain 27 1009 79 0 3.14 5 16:59 19.01.2020
4196 Rain 27 1009 79 0 3.14 5 16:39 19.01.2020
4197 Clouds 27 1010 83 10000 3.6 340 16:21 19.01.2020
4198 Clouds 27 1010 83 10000 3.6 340 15:58 19.01.2020
4199 Clouds 27 1010 83 10000 3.6 340 15:58 19.01.2020
4200 Clouds 27 1010 83 10000 3.6 340 15:38 19.01.2020
4201 Rain 27 1009 79 0 3.14 5 15:20 19.01.2020
4202 Clouds 26 1010 88 10000 5.1 360 14:58 19.01.2020
4203 Clouds 26 1010 88 10000 5.1 360 14:39 19.01.2020
4204 Clouds 29 1010 74 10000 5.1 360 14:18 19.01.2020
4205 Clouds 29 1010 74 10000 5.1 360 13:57 19.01.2020
4206 Clouds 29 1010 74 10000 5.1 360 13:38 19.01.2020
4207 Clouds 28 1010 78 10000 2.6 350 13:19 19.01.2020
4208 Clouds 28 1010 78 10000 2.6 350 12:55 19.01.2020
4209 Clouds 28 1010 78 10000 2.6 350 12:36 19.01.2020
4210 Clouds 28 1009 74 10000 3.6 320 12:18 19.01.2020
4211 Clouds 28 1009 74 10000 3.6 320 11:42 19.01.2020
4212 Clouds 30 1008 66 10000 7.7 290 11:20 19.01.2020
4213 Clouds 30 1008 66 10000 7.7 290 10:56 19.01.2020
4214 Clouds 30 1008 66 10000 7.7 290 10:56 19.01.2020
4215 Clouds 30 1008 66 10000 7.7 290 10:37 19.01.2020
4216 Clouds 32 1008 59 10000 2.6 290 10:19 19.01.2020
4217 Clouds 32 1008 59 10000 2.6 290 10:18 19.01.2020
4218 -273 0 0 0 0 0 09:44 19.01.2020
4219 Clouds 28 1008 82 0 5.95 298 09:25 19.01.2020
4220 Clouds 28 1008 82 0 5.95 298 08:58 19.01.2020
4221 Clouds 28 1008 82 0 5.95 298 08:39 19.01.2020
4222 Clouds 33 1006 59 10000 5.1 270 08:20 19.01.2020
4223 Clouds 33 1006 59 10000 5.1 270 07:42 19.01.2020
4224 Clouds 34 1006 56 10000 5.1 280 07:21 19.01.2020
4225 Clouds 34 1006 56 10000 5.1 280 06:50 19.01.2020
4226 Clouds 32 1008 66 10000 5.1 340 05:21 19.01.2020
4227 Clouds 32 1009 66 10000 7.7 320 02:43 19.01.2020
4228 Clouds 31 1010 70 10000 10.3 330 02:21 19.01.2020
4229 Clouds 27 1010 83 10000 5.7 330 01:24 19.01.2020
4230 Clouds 27 1010 83 10000 5.7 330 01:24 19.01.2020
4231 Clouds 27 1010 83 10000 5.7 330 00:45 19.01.2020
4232 Clouds 26 1010 88 10000 3.6 340 00:27 19.01.2020
4233 Clouds 26 1010 88 10000 3.6 340 23:55 18.01.2020
4234 Clouds 26 1010 88 10000 3.6 340 23:36 18.01.2020
4235 Clouds 26 1009 88 10000 3.6 340 23:18 18.01.2020
4236 Clouds 26 1009 88 10000 3.6 340 22:54 18.01.2020
4237 Clouds 26 1009 88 10000 3.6 340 22:54 18.01.2020
4238 Clouds 26 1009 88 10000 3.6 340 22:54 18.01.2020
4239 Clouds 26 1009 88 10000 3.6 340 22:36 18.01.2020
4240 Clouds 26 1009 88 10000 3.6 340 22:36 18.01.2020
4241 Clouds 25 1008 94 10000 5.1 340 22:18 18.01.2020
4242 Clouds 25 1008 94 10000 5.1 340 21:55 18.01.2020
4243 Clouds 25 1008 94 10000 5.1 340 21:36 18.01.2020
4244 Clouds 26 1007 83 10000 3.6 350 21:18 18.01.2020
4245 Clouds 26 1007 83 10000 3.6 350 21:18 18.01.2020
4246 Clouds 26 1007 83 10000 3.6 350 20:41 18.01.2020
4247 Clouds 25 1007 94 10000 5.1 330 20:19 18.01.2020
4248 Clouds 25 1007 94 10000 5.1 330 19:44 18.01.2020
4249 Clouds 25 1007 94 10000 5.1 330 19:44 18.01.2020
4250 Clouds 25 1006 94 10000 3.1 330 19:25 18.01.2020
4251 Clouds 25 1006 94 10000 3.1 330 19:25 18.01.2020
4252 Clouds 25 1006 94 10000 3.1 330 18:56 18.01.2020
4253 Clouds 25 1006 94 10000 3.1 330 18:37 18.01.2020
4254 Clouds 26 1007 88 10000 3.1 340 18:19 18.01.2020
4255 Clouds 26 1007 88 10000 3.1 340 17:41 18.01.2020
4256 Clouds 26 1008 94 10000 3.1 290 17:21 18.01.2020
4257 Clouds 26 1008 94 10000 3.1 290 16:57 18.01.2020
4258 Clouds 26 1008 94 10000 3.1 290 16:38 18.01.2020
4259 Rain 27 1007 81 0 3.88 355 16:20 18.01.2020
4260 Rain 27 1007 81 0 3.88 355 15:56 18.01.2020
4261 Rain 27 1007 81 0 3.88 355 15:38 18.01.2020
4262 Rain 27 1007 81 0 3.88 355 15:20 18.01.2020
4263 Rain 27 1007 81 0 3.88 355 14:41 18.01.2020
4264 Clear 29 1009 79 0 4.37 308 14:20 18.01.2020
4265 Clear 29 1009 79 0 4.37 308 13:57 18.01.2020
4266 Clear 29 1009 79 0 4.37 308 13:36 18.01.2020
4267 Clear 29 1009 79 0 4.37 308 13:18 18.01.2020
4268 Clouds 29 1009 79 0 4.21 303 12:43 18.01.2020
4269 Clouds 29 1009 79 0 4.21 303 12:22 18.01.2020
4270 Clouds 29 1009 79 0 4.21 303 11:57 18.01.2020
4271 Clouds 29 1009 79 0 4.21 303 11:38 18.01.2020
4272 Clouds 29 1009 79 0 4.21 303 11:38 18.01.2020
4273 Clouds 29 1007 76 0 7.45 301 11:19 18.01.2020
4274 Clouds 29 1007 76 0 7.45 301 10:43 18.01.2020
4275 Clouds 32 1006 55 10000 7.7 310 10:21 18.01.2020
4276 Clouds 32 1006 55 10000 7.7 310 09:55 18.01.2020
4277 Clouds 32 1006 55 10000 7.7 310 09:37 18.01.2020
4278 Clouds 34 1005 52 10000 7.7 320 08:59 18.01.2020
4279 Clouds 34 1005 52 10000 7.7 320 08:41 18.01.2020
4280 Clouds 34 1005 52 10000 7.7 320 08:41 18.01.2020
4281 Clouds 34 1004 56 10000 7.7 300 08:20 18.01.2020
4282 Clouds 34 1004 56 10000 7.7 300 07:52 18.01.2020
4283 Clouds 34 1004 56 10000 7.7 300 07:34 18.01.2020
4284 Clouds 34 1004 56 10000 9.3 310 06:48 18.01.2020
4285 Clouds 34 1005 59 10000 7.7 300 06:19 18.01.2020
4286 Clouds 34 1005 59 10000 7.7 300 06:19 18.01.2020
4287 Clouds 34 1006 63 10000 5.7 300 05:30 18.01.2020
4288 Clouds 34 1007 59 10000 5.1 340 03:46 18.01.2020
4289 Clouds 32 1009 70 10000 5.1 330 02:20 18.01.2020
4290 Clouds 32 1009 70 10000 5.1 330 01:36 18.01.2020
4291 Clouds 30 1009 79 10000 7.7 340 00:38 18.01.2020
4292 Clouds 27 1009 88 10000 5.1 340 00:19 18.01.2020
4293 Clouds 27 1009 88 10000 5.1 340 23:44 17.01.2020
4294 Clouds 25 1008 94 10000 3.6 330 23:20 17.01.2020
4295 Clouds 25 1008 94 10000 3.6 330 22:59 17.01.2020
4296 Clouds 25 1008 94 10000 3.6 330 22:40 17.01.2020
4297 Clouds 25 1008 94 10000 2.6 330 22:19 17.01.2020
4298 Clouds 25 1008 94 10000 2.6 330 21:42 17.01.2020
4299 Clouds 26 1008 80 0 7.74 5 21:24 17.01.2020
4300 Clouds 26 1008 80 0 7.74 5 20:59 17.01.2020
4301 Clouds 26 1008 80 0 7.74 5 20:40 17.01.2020
4302 Rain 26 1007 82 0 6.94 6 20:20 17.01.2020
4303 Rain 26 1007 82 0 6.94 6 19:57 17.01.2020
4304 Rain 26 1007 82 0 6.94 6 19:38 17.01.2020
4305 Rain 26 1007 82 0 6.94 6 19:19 17.01.2020
4306 Rain 26 1007 82 0 6.94 6 18:57 17.01.2020
4307 Rain 26 1007 82 0 6.94 6 18:36 17.01.2020
4308 Rain 26 1007 82 0 6.94 6 18:18 17.01.2020
4309 Rain 26 1007 82 0 6.94 6 17:39 17.01.2020
4310 Rain 27 1008 82 0 5.72 7 17:21 17.01.2020
4311 Rain 27 1008 82 0 5.72 7 16:44 17.01.2020
4312 Rain 27 1008 82 0 5.72 7 16:21 17.01.2020
4313 Rain 27 1008 82 0 5.72 7 16:21 17.01.2020
4314 Rain 27 1008 82 0 5.72 7 15:58 17.01.2020
4315 Rain 27 1008 82 0 5.72 7 15:58 17.01.2020
4316 Rain 27 1008 82 0 5.72 7 15:39 17.01.2020
4317 Rain 27 1008 82 0 5.72 7 15:20 17.01.2020
4318 Rain 27 1008 82 0 5.72 7 14:43 17.01.2020
4319 Rain 27 1008 82 0 5.72 7 14:24 17.01.2020
4320 Rain 29 1009 76 0 5.75 311 13:43 17.01.2020
4321 Rain 29 1009 76 0 5.63 310 13:23 17.01.2020
4322 Rain 29 1009 76 0 5.63 310 12:47 17.01.2020
4323 Rain 29 1009 76 0 5.63 310 12:23 17.01.2020
4324 Rain 29 1009 76 0 5.63 310 11:43 17.01.2020
4325 Clouds 30 1007 72 0 7.46 310 11:20 17.01.2020
4326 Clouds 30 1007 72 0 7.46 310 10:57 17.01.2020
4327 Clouds 30 1007 72 0 7.46 310 10:57 17.01.2020
4328 Clouds 30 1007 72 0 7.46 310 10:39 17.01.2020
4329 Clouds 31 1006 62 10000 5.1 330 10:20 17.01.2020
4330 Clouds 31 1006 62 10000 5.1 330 09:44 17.01.2020
4331 Clouds 33 1005 59 10000 6.7 300 09:22 17.01.2020
4332 Clouds 33 1005 59 10000 6.7 300 08:58 17.01.2020
4333 Clouds 33 1005 59 10000 6.7 300 08:40 17.01.2020
4334 Clouds 33 1005 59 10000 7.7 300 08:21 17.01.2020
4335 Clouds 33 1005 59 10000 7.7 300 07:48 17.01.2020
4336 Clouds 33 1005 59 10000 6.7 300 07:29 17.01.2020
4337 Clouds 33 1005 59 10000 6.7 300 06:56 17.01.2020
4338 Clouds 33 1005 59 10000 6.7 300 06:36 17.01.2020
4339 Clouds 31 1007 66 10000 7.7 330 05:19 17.01.2020
4340 Clouds 31 1010 66 10000 7.7 330 03:38 17.01.2020
4341 Rain 27 1010 83 10000 5.1 330 02:39 17.01.2020
4342 Clouds 28 1010 78 10000 5.1 330 01:44 17.01.2020
4343 Clouds 28 1010 78 10000 5.1 330 01:25 17.01.2020
4344 Clouds 27 1010 78 10000 5.1 330 00:37 17.01.2020
4345 Clouds 27 1010 78 10000 5.1 330 00:19 17.01.2020
4346 Clouds 25 1010 94 10000 5.1 330 23:41 16.01.2020
4347 Clouds 23 1009 100 10000 5.1 340 23:22 16.01.2020
4348 Clouds 23 1009 100 10000 5.1 340 22:41 16.01.2020
4349 Clouds 24 1006 78 10000 3.1 230 22:21 16.01.2020
4350 Clouds 24 1006 78 10000 3.1 230 21:57 16.01.2020
4351 Clouds 24 1006 78 10000 3.1 230 21:38 16.01.2020
4352 Clouds 24 1006 78 10000 3.1 230 21:19 16.01.2020
4353 Clouds 23 1006 100 10000 5.1 340 20:57 16.01.2020
4354 Clouds 23 1006 100 10000 5.1 340 20:38 16.01.2020
4355 Rain 23 1006 100 10000 5.1 320 20:19 16.01.2020
4356 Rain 23 1006 100 10000 5.1 320 19:56 16.01.2020
4357 Rain 23 1006 100 10000 5.1 320 19:37 16.01.2020
4358 Rain 23 1007 100 10000 5.1 320 19:19 16.01.2020
4359 Rain 23 1007 100 10000 5.1 320 19:19 16.01.2020
4360 Rain 23 1007 100 10000 5.1 320 18:55 16.01.2020
4361 Rain 23 1007 100 10000 5.1 320 18:36 16.01.2020
4362 Rain 23 1007 100 10000 5.1 320 18:36 16.01.2020
4363 Clouds 24 1009 94 10000 5.1 330 18:18 16.01.2020
4364 Clouds 24 1009 94 10000 5.1 330 17:41 16.01.2020
4365 Clouds 24 1009 94 10000 5.1 330 17:41 16.01.2020
4366 Rain 26 1007 86 0 9.98 343 17:22 16.01.2020
4367 Rain 28 1008 74 0 8.4 329 16:57 16.01.2020
4368 Rain 28 1008 74 0 8.4 329 16:38 16.01.2020
4369 Clouds 26 1009 88 10000 4.1 300 16:19 16.01.2020
4370 Clouds 26 1009 88 10000 4.1 300 15:44 16.01.2020
4371 Clouds 27 1009 88 10000 4.1 310 15:22 16.01.2020
4372 Clouds 27 1009 88 10000 4.1 310 14:56 16.01.2020
4373 Clouds 27 1009 88 10000 4.1 310 14:37 16.01.2020
4374 Clouds 27 1009 88 10000 4.1 340 14:19 16.01.2020
4375 Clouds 27 1009 88 10000 4.1 340 13:44 16.01.2020
4376 Clouds 27 1009 88 10000 4.1 350 13:25 16.01.2020
4377 Clouds 27 1009 88 10000 4.1 350 12:46 16.01.2020
4378 Clouds 28 1009 78 10000 5.1 330 12:28 16.01.2020
4379 Clouds 28 1009 78 10000 5.1 330 11:57 16.01.2020
4380 Clouds 28 1009 78 10000 5.1 330 11:39 16.01.2020
4381 Clouds 28 1008 74 10000 6.2 320 11:21 16.01.2020
4382 Clouds 28 1008 74 10000 6.2 320 10:39 16.01.2020
4383 Clouds 30 1007 66 10000 6.2 300 10:21 16.01.2020
4384 Clouds 30 1007 66 10000 6.2 300 09:57 16.01.2020
4385 Clouds 30 1007 66 10000 6.2 300 09:38 16.01.2020
4386 Clouds 30 1006 70 10000 10.3 320 09:19 16.01.2020
4387 Clouds 30 1006 70 10000 10.3 320 08:51 16.01.2020
4388 Clouds 31 1006 66 10000 12.9 330 08:30 16.01.2020
4389 Clouds 31 1006 66 10000 12.9 330 07:58 16.01.2020
4390 Clouds 31 1006 66 10000 12.9 330 07:38 16.01.2020
4391 Clouds 32 1006 62 10000 12.9 330 07:19 16.01.2020
4392 Clouds 32 1006 62 10000 12.9 330 06:42 16.01.2020
4393 Clouds 32 1006 66 10000 10.3 330 05:59 16.01.2020
4394 Clouds 32 1006 66 10000 10.3 330 05:40 16.01.2020
4395 Clouds 31 1007 70 10000 10.3 330 04:37 16.01.2020
4396 Rain 26 1009 88 10000 7.7 330 03:28 16.01.2020
4397 Rain 26 1009 88 10000 7.7 330 02:42 16.01.2020
4398 Rain 28 1009 75 0 7.89 323 00:53 16.01.2020
4399 Rain 28 1009 75 0 7.89 323 00:24 16.01.2020
4400 Rain 28 1009 75 0 7.89 323 23:48 15.01.2020
4401 Clouds 25 1009 100 10000 2.1 0 23:23 15.01.2020
4402 Clouds 25 1009 100 10000 2.1 0 22:57 15.01.2020
4403 Clouds 25 1009 100 10000 2.1 0 22:57 15.01.2020
4404 Clouds 25 1009 100 10000 2.1 0 22:39 15.01.2020
4405 Clouds 24 1008 100 10000 1.5 0 22:19 15.01.2020
4406 Clouds 24 1008 100 10000 1.5 0 21:57 15.01.2020
4407 Clouds 24 1008 100 10000 1.5 0 21:37 15.01.2020
4408 Clouds 24 1007 100 10000 2.6 310 21:19 15.01.2020
4409 Clouds 24 1007 100 10000 2.6 310 20:57 15.01.2020
4410 Clouds 24 1007 100 10000 2.6 310 20:57 15.01.2020
4411 Clouds 24 1007 100 10000 2.6 310 20:57 15.01.2020
4412 Clouds 24 1007 100 10000 2.6 310 20:39 15.01.2020
4413 Clouds 24 1007 100 10000 3.6 310 20:20 15.01.2020
4414 Clouds 24 1007 100 10000 3.6 310 19:55 15.01.2020
4415 Clouds 24 1007 100 10000 3.6 310 19:37 15.01.2020
4416 Clouds 25 1007 100 10000 3.1 310 19:19 15.01.2020
4417 Clouds 25 1007 100 10000 3.1 310 18:56 15.01.2020
4418 Clouds 25 1007 100 10000 3.1 310 18:38 15.01.2020
4419 Clouds 25 1007 100 10000 3.1 310 18:38 15.01.2020
4420 Clouds 24 1007 100 10000 3.1 320 18:19 15.01.2020
4421 Clouds 24 1007 100 10000 3.1 320 17:57 15.01.2020
4422 Clouds 24 1007 100 10000 3.1 320 17:38 15.01.2020
4423 Clouds 25 1008 100 10000 3.1 300 17:19 15.01.2020
4424 Clouds 25 1008 100 10000 3.1 300 16:41 15.01.2020
4425 Clouds 25 1008 100 10000 5.1 350 16:22 15.01.2020
4426 Clouds 25 1008 100 10000 5.1 350 15:57 15.01.2020
4427 Clouds 25 1008 100 10000 5.1 350 15:39 15.01.2020
4428 Rain 27 1007 82 0 2.71 26 15:19 15.01.2020
4429 Rain 27 1007 82 0 2.71 26 14:43 15.01.2020
4430 Rain 28 1009 74 0 1.12 277 14:20 15.01.2020
4431 Rain 28 1009 74 0 1.12 277 13:46 15.01.2020
4432 Rain 28 1009 74 0 1.12 277 13:27 15.01.2020
4433 Rain 28 1009 74 0 1.37 305 12:59 15.01.2020
4434 Rain 28 1009 74 0 1.37 305 12:40 15.01.2020
4435 Rain 28 1009 74 0 1.37 305 12:20 15.01.2020
4436 Rain 28 1009 74 0 1.37 305 11:57 15.01.2020
4437 Rain 28 1009 74 0 1.37 305 11:37 15.01.2020
4438 Rain 29 1008 75 0 3.63 264 11:19 15.01.2020
4439 Rain 29 1008 75 0 3.63 264 10:43 15.01.2020
4440 Clouds 30 1007 74 10000 5.1 250 10:25 15.01.2020
4441 Clouds 30 1007 74 10000 5.1 250 09:45 15.01.2020
4442 Rain 29 1008 75 0 3.63 264 09:26 15.01.2020
4443 Rain 29 1008 75 0 3.63 264 08:58 15.01.2020
4444 Rain 29 1008 75 0 3.63 264 08:39 15.01.2020
4445 Clouds 32 1005 66 10000 5.1 270 08:21 15.01.2020
4446 Clouds 32 1005 66 10000 5.1 270 07:51 15.01.2020
4447 Clouds 32 1005 70 10000 5.1 280 07:31 15.01.2020
4448 Clouds 32 1005 70 10000 5.1 280 06:46 15.01.2020
4449 Clouds 32 1007 66 10000 2.6 260 06:20 15.01.2020
4450 Clouds 32 1007 62 10000 2.6 270 04:42 15.01.2020
4451 Clouds 30 1009 74 10000 5.1 330 02:38 15.01.2020
4452 Clouds 28 1010 78 10000 3.1 330 01:28 15.01.2020
4453 Clouds 28 1010 78 10000 3.1 330 00:45 15.01.2020
4454 Clouds 26 1010 83 10000 5.1 340 00:26 15.01.2020
4455 Clouds 26 1010 83 10000 5.1 340 23:55 14.01.2020
4456 Clouds 26 1010 83 10000 5.1 340 23:36 14.01.2020
4457 Clouds 24 1009 94 10000 3.6 340 23:18 14.01.2020
4458 Clouds 24 1009 94 10000 3.6 340 22:41 14.01.2020
4459 Clouds 23 1008 100 10000 3.6 350 22:19 14.01.2020
4460 Clouds 23 1008 100 10000 3.6 350 22:19 14.01.2020
4461 Clouds 23 1008 100 10000 3.6 350 21:58 14.01.2020
4462 Clouds 23 1008 100 10000 3.6 350 21:40 14.01.2020
4463 Clouds 26 1010 75 0 5.23 353 21:21 14.01.2020
4464 Clouds 26 1010 75 0 5.23 353 21:21 14.01.2020
4465 Clouds 26 1010 75 0 5.23 353 20:58 14.01.2020
4466 Clouds 26 1010 75 0 5.23 353 20:40 14.01.2020
4467 Clouds 26 1007 77 0 5.18 347 20:19 14.01.2020
4468 Clouds 26 1007 77 0 5.54 346 19:55 14.01.2020
4469 Clouds 26 1007 77 0 5.54 346 19:37 14.01.2020
4470 Clouds 26 1007 77 0 5.54 346 19:18 14.01.2020
4471 Clouds 26 1007 77 0 5.54 346 18:41 14.01.2020
4472 Clouds 26 1007 77 0 5.54 346 18:20 14.01.2020
4473 Clouds 26 1007 77 0 5.54 346 17:59 14.01.2020
4474 Clouds 26 1007 77 0 5.54 346 17:37 14.01.2020
4475 Clouds 27 1009 74 0 6.06 336 17:18 14.01.2020
4476 Clouds 27 1009 74 0 6.06 336 17:18 14.01.2020
4477 Clouds 27 1009 74 0 6.06 336 16:55 14.01.2020
4478 Clouds 27 1009 74 0 6.06 336 16:36 14.01.2020
4479 Clouds 27 1009 74 0 6.06 336 16:18 14.01.2020
4480 Clouds 27 1009 74 0 6.06 336 15:42 14.01.2020
4481 Clouds 24 1009 100 10000 1.5 0 15:19 14.01.2020
4482 Clouds 24 1009 100 10000 1.5 0 14:46 14.01.2020
4483 Clouds 25 1009 94 10000 1.5 0 14:23 14.01.2020
4484 Clouds 25 1009 94 10000 1.5 0 13:58 14.01.2020
4485 Clouds 25 1009 94 10000 1.5 0 13:39 14.01.2020
4486 Clouds 25 1009 94 10000 7.02 343 13:19 14.01.2020
4487 Clouds 25 1009 94 10000 7.02 343 12:42 14.01.2020
4488 Clouds 25 1009 94 10000 2.1 0 12:22 14.01.2020
4489 Clouds 25 1009 94 10000 2.1 0 11:56 14.01.2020
4490 Clouds 25 1009 94 10000 2.1 0 11:36 14.01.2020
4491 Clouds 26 1009 88 10000 1.5 0 11:18 14.01.2020
4492 Clouds 26 1009 88 10000 1.5 0 10:41 14.01.2020
4493 Clouds 27 1008 83 10000 3.1 320 10:20 14.01.2020
4494 Clouds 27 1008 83 10000 3.1 320 09:58 14.01.2020
4495 Clouds 27 1008 83 10000 3.1 320 09:40 14.01.2020
4496 Clouds 27 1008 83 10000 5.7 350 09:21 14.01.2020
4497 Clouds 27 1008 83 10000 5.7 350 08:56 14.01.2020
4498 Clouds 27 1008 83 10000 5.7 350 08:38 14.01.2020
4499 Clouds 27 1007 83 10000 7.7 330 08:19 14.01.2020
4500 Clouds 27 1007 83 10000 7.7 330 07:37 14.01.2020
4501 Clouds 29 1008 74 10000 7.2 320 06:57 14.01.2020
4502 Clouds 29 1008 74 10000 7.2 320 06:39 14.01.2020
4503 Clouds 29 1008 74 10000 7.2 320 06:39 14.01.2020
4504 Clouds 28 1008 83 10000 8.2 340 05:33 14.01.2020
4505 Clouds 26 1009 88 10000 5.1 340 04:22 14.01.2020
4506 Clouds 26 1009 88 10000 5.1 340 03:35 14.01.2020
4507 Rain 24 1010 100 10000 7.7 340 02:26 14.01.2020
4508 Rain 24 1010 100 0 7.7 340 01:18 14.01.2020
4509 Rain 24 1010 100 0 7.7 340 00:38 14.01.2020
4510 Rain 24 1010 100 0 7.7 340 23:59 13.01.2020
4511 Rain 24 1010 100 0 7.7 340 23:37 13.01.2020
4512 Rain 24 1010 100 0 7.7 340 23:18 13.01.2020
4513 Rain 24 1010 94 4000 3.1 340 22:45 13.01.2020
4514 Rain 24 1010 94 0 7.7 330 22:22 13.01.2020
4515 Rain 24 1009 94 0 7.7 330 21:58 13.01.2020
4516 Rain 24 1009 94 0 7.7 330 21:39 13.01.2020
4517 Rain 24 1009 94 0 7.7 330 21:19 13.01.2020
4518 Rain 26 1009 89 0 9.15 330 20:59 13.01.2020
4519 Rain 26 1009 89 0 9.15 330 20:41 13.01.2020
4520 Rain 24 1008 100 0 10.3 330 20:22 13.01.2020
4521 Rain 24 1008 100 0 10.3 330 20:22 13.01.2020
4522 Rain 24 1008 100 0 10.3 330 19:59 13.01.2020
4523 Rain 24 1008 100 0 10.3 330 19:40 13.01.2020
4524 Rain 24 1008 100 0 10.3 330 19:20 13.01.2020
4525 Rain 24 1007 100 0 5.1 340 18:56 13.01.2020
4526 Rain 24 1007 100 0 5.1 340 18:37 13.01.2020
4527 Rain 24 1007 100 0 5.1 340 18:19 13.01.2020
4528 Rain 24 1007 100 0 7.7 340 17:43 13.01.2020
4529 Rain 24 1008 100 0 5.1 330 17:25 13.01.2020
4530 Rain 24 1008 100 0 5.1 330 16:57 13.01.2020
4531 Rain 24 1008 100 0 5.1 330 16:38 13.01.2020
4532 Rain 24 1008 100 0 5.1 360 16:20 13.01.2020
4533 Rain 27 1007 82 0 8.62 337 15:44 13.01.2020
4534 Rain 27 1007 82 0 8.62 337 15:24 13.01.2020
4535 Rain 27 1007 82 0 8.62 337 14:58 13.01.2020
4536 Rain 27 1007 82 0 8.62 337 14:38 13.01.2020
4537 Rain 24 1009 100 0 6.2 350 14:20 13.01.2020
4538 Rain 24 1009 100 0 6.2 350 14:20 13.01.2020
4539 Rain 24 1009 100 0 6.2 350 13:43 13.01.2020
4540 Rain 24 1009 100 0 6.2 350 13:43 13.01.2020
4541 Rain 24 1009 100 0 6.2 350 13:25 13.01.2020
4542 Rain 27 1008 80 0 6.4 328 12:59 13.01.2020
4543 Rain 27 1008 80 0 6.4 328 12:41 13.01.2020
4544 Rain 24 1008 100 0 6.7 330 12:23 13.01.2020
4545 Rain 24 1008 100 0 6.7 330 11:57 13.01.2020
4546 Rain 24 1008 100 0 6.7 330 11:37 13.01.2020
4547 Rain 24 1008 100 0 6.7 330 11:19 13.01.2020
4548 Rain 24 1008 100 0 6.2 340 10:56 13.01.2020
4549 Rain 24 1008 100 0 6.2 340 10:37 13.01.2020
4550 Rain 24 1008 100 0 6.2 340 10:37 13.01.2020
4551 Rain 24 1007 100 0 5.1 330 10:19 13.01.2020
4552 Rain 24 1006 100 0 5.1 350 09:43 13.01.2020
4553 Rain 25 1005 94 0 5.1 350 09:23 13.01.2020
4554 Rain 25 1005 94 0 5.1 350 08:44 13.01.2020
4555 Rain 25 1005 94 0 5.1 340 08:24 13.01.2020
4556 Rain 25 1005 94 0 5.1 330 07:59 13.01.2020
4557 Rain 25 1005 94 0 5.1 330 07:59 13.01.2020
4558 Rain 25 1005 94 0 5.1 330 07:41 13.01.2020
4559 Rain 25 1004 100 0 5.1 340 07:19 13.01.2020
4560 Rain 25 1004 100 0 5.1 340 06:37 13.01.2020
4561 Clouds 26 1005 94 0 2.6 320 05:37 13.01.2020
4562 Rain 26 1006 88 0 5.1 300 04:26 13.01.2020
4563 Rain 25 1006 100 0 9.3 310 03:35 13.01.2020
4564 Rain 25 1006 100 0 4.1 330 02:49 13.01.2020
4565 Rain 26 1006 90 0 7.21 340 02:29 13.01.2020
4566 Rain 26 1007 89 0 9.64 337 01:33 13.01.2020
4567 Rain 26 1007 89 0 9.64 337 00:43 13.01.2020
4568 Rain 26 1007 89 0 9.64 337 00:24 13.01.2020
4569 Rain 26 1007 89 0 9.64 337 23:57 12.01.2020
4570 Rain 26 1007 89 0 9.64 337 23:37 12.01.2020
4571 Rain 24 1006 100 10000 4.1 330 23:19 12.01.2020
4572 Rain 24 1006 100 10000 4.1 330 22:42 12.01.2020
4573 Rain 24 1006 100 10000 4.1 330 22:24 12.01.2020
4574 Rain 25 1006 94 10000 2.6 350 21:57 12.01.2020
4575 Rain 25 1006 94 10000 2.6 350 21:39 12.01.2020
4576 Rain 25 1006 94 10000 2.6 350 21:20 12.01.2020
4577 Rain 26 1006 84 0 7.7 358 20:57 12.01.2020
4578 Rain 26 1006 84 0 7.7 358 20:38 12.01.2020
4579 Fog 25 1004 100 10000 2.6 320 20:20 12.01.2020
4580 Fog 25 1004 100 10000 2.6 320 19:56 12.01.2020
4581 Fog 25 1004 100 10000 2.6 320 19:38 12.01.2020
4582 Clouds 25 1004 94 10000 2.6 340 19:19 12.01.2020
4583 Clouds 25 1004 94 10000 2.6 340 18:57 12.01.2020
4584 Clouds 25 1004 94 10000 2.6 340 18:39 12.01.2020
4585 Clouds 24 1004 100 10000 2.6 330 18:21 12.01.2020
4586 Clouds 24 1004 100 10000 2.6 330 17:55 12.01.2020
4587 Clouds 24 1004 100 10000 2.6 330 17:37 12.01.2020
4588 Clouds 25 1005 94 10000 2.6 330 17:18 12.01.2020
4589 Clouds 25 1005 94 10000 2.6 330 16:54 12.01.2020
4590 Clouds 25 1005 94 10000 2.6 330 16:36 12.01.2020
4591 Rain 27 1005 81 0 2.58 10 16:18 12.01.2020
4592 Rain 27 1005 81 0 2.58 10 15:40 12.01.2020
4593 Rain 27 1005 81 0 2.58 10 15:21 12.01.2020
4594 Rain 27 1005 81 0 2.58 10 14:44 12.01.2020
4595 Rain 27 1005 81 0 2.58 10 14:25 12.01.2020
4596 Rain 27 1007 79 0 2.34 2 13:58 12.01.2020
4597 Rain 27 1007 79 0 2.34 2 13:40 12.01.2020
4598 Rain 27 1007 78 0 2.9 337 13:22 12.01.2020
4599 Rain 27 1007 78 0 2.9 337 12:58 12.01.2020
4600 Rain 27 1007 78 0 2.9 337 12:38 12.01.2020
4601 Rain 27 1007 78 0 2.9 337 12:19 12.01.2020
4602 Rain 27 1007 78 0 2.9 337 11:43 12.01.2020
4603 Rain 27 1007 78 0 2.9 337 11:23 12.01.2020
4604 Rain 27 1006 80 0 4.68 301 10:59 12.01.2020
4605 Rain 27 1006 80 0 4.68 301 10:40 12.01.2020
4606 Clouds 29 1003 74 10000 5.1 290 10:21 12.01.2020
4607 Clouds 29 1003 74 10000 5.1 290 09:44 12.01.2020
4608 Clouds 30 1003 74 10000 5.1 280 09:24 12.01.2020
4609 Clouds 30 1003 74 10000 5.1 280 08:48 12.01.2020
4610 Clouds 30 1003 74 10000 7.7 300 08:25 12.01.2020
4611 Clouds 30 1003 74 10000 7.7 300 07:58 12.01.2020
4612 Clouds 30 1003 74 10000 7.7 300 07:38 12.01.2020
4613 Clouds 32 1003 70 10000 7.7 300 07:19 12.01.2020
4614 Clouds 32 1003 70 10000 7.7 300 06:40 12.01.2020
4615 Clouds 32 1004 66 10000 7.7 290 05:58 12.01.2020
4616 Clouds 32 1005 66 10000 9.3 280 05:18 12.01.2020
4617 Clouds 33 1005 63 10000 8.2 320 03:44 12.01.2020
4618 Clouds 31 1006 66 10000 9.3 310 02:55 12.01.2020
4619 Clouds 29 1007 74 10000 2.6 350 02:30 12.01.2020
4620 Clouds 29 1007 74 10000 2.6 350 01:39 12.01.2020
4621 Clouds 27 1006 83 10000 2.6 320 00:57 12.01.2020
4622 Clouds 27 1006 83 10000 2.6 320 00:37 12.01.2020
4623 Clouds 26 1006 88 10000 2.6 320 00:18 12.01.2020
4624 Clouds 26 1006 88 10000 2.6 320 23:41 11.01.2020
4625 Clouds 24 1006 100 10000 5.1 330 23:19 11.01.2020
4626 Clouds 24 1006 100 10000 5.1 330 22:56 11.01.2020
4627 Clouds 24 1006 100 10000 5.1 330 22:38 11.01.2020
4628 Clouds 24 1006 94 10000 3.6 350 22:20 11.01.2020
4629 Clouds 24 1006 94 10000 3.6 350 21:44 11.01.2020
4630 Clouds 24 1006 94 10000 4.95 352 21:20 11.01.2020
4631 Clouds 24 1006 94 10000 4.95 352 20:59 11.01.2020
4632 Clouds 24 1006 94 10000 4.95 352 20:39 11.01.2020
4633 Clouds 25 1006 94 10000 2.87 333 20:19 11.01.2020
4634 Clouds 25 1006 94 10000 0.73 37 19:57 11.01.2020
4635 Clouds 25 1006 94 10000 0.73 37 19:38 11.01.2020
4636 Clouds 25 1006 94 10000 0.73 37 19:38 11.01.2020
4637 Clouds 25 1006 94 10000 0.73 37 19:38 11.01.2020
4638 Clouds 26 1004 81 0 0.73 37 19:20 11.01.2020
4639 Clouds 26 1004 81 0 0.73 37 18:55 11.01.2020
4640 Clouds 26 1004 81 0 0.73 37 18:37 11.01.2020
4641 Clouds 24 1005 100 10000 1.5 0 18:18 11.01.2020
4642 Clouds 24 1005 100 10000 1.5 0 17:57 11.01.2020
4643 Clouds 24 1005 100 10000 1.5 0 17:57 11.01.2020
4644 Clouds 24 1005 100 10000 1.5 0 17:39 11.01.2020
4645 Rain 26 1005 85 0 4.06 26 17:18 11.01.2020
4646 Rain 26 1005 85 0 4.06 26 16:44 11.01.2020
4647 Clouds 25 1007 100 10000 0.5 0 16:24 11.01.2020
4648 Clouds 25 1007 100 10000 0.5 0 15:56 11.01.2020
4649 Clouds 25 1007 100 10000 0.5 0 15:38 11.01.2020
4650 Clouds 25 1007 94 10000 1 0 15:19 11.01.2020
4651 Clouds 25 1007 94 10000 1 0 14:46 11.01.2020
4652 Rain 26 1005 85 0 4.06 26 14:25 11.01.2020
4653 Rain 27 1007 80 0 3.84 110 13:57 11.01.2020
4654 Rain 27 1007 80 0 3.84 110 13:37 11.01.2020
4655 Rain 26 1007 90 0 3.75 93 13:19 11.01.2020
4656 Rain 26 1007 90 0 3.75 93 12:44 11.01.2020
4657 Rain 25 1006 94 10000 1.5 0 12:26 11.01.2020
4658 Rain 25 1006 94 10000 1.5 0 11:56 11.01.2020
4659 Rain 25 1006 94 10000 1.5 0 11:37 11.01.2020
4660 Rain 27 1006 85 0 9.26 135 11:18 11.01.2020
4661 Rain 27 1006 85 0 9.26 135 10:44 11.01.2020
4662 Clouds 26 1005 94 10000 1.5 0 10:24 11.01.2020
4663 Clouds 26 1005 94 10000 1.5 0 09:42 11.01.2020
4664 Clouds 27 1004 88 10000 5.1 330 09:21 11.01.2020
4665 Clouds 27 1004 88 10000 5.1 330 08:43 11.01.2020
4666 Clouds 31 1004 70 10000 5.1 200 08:23 11.01.2020
4667 Clouds 31 1004 70 10000 5.1 200 07:45 11.01.2020
4668 Clouds 32 1003 70 10000 5.1 220 07:26 11.01.2020
4669 Clouds 32 1003 70 10000 5.1 220 07:26 11.01.2020
4670 Clouds 32 1003 70 10000 5.1 220 06:56 11.01.2020
4671 Clouds 31 1004 74 10000 3.1 200 06:28 11.01.2020
4672 Clouds 29 1005 79 10000 5.1 300 04:49 11.01.2020
4673 Rain 29 1005 73 0 3.55 263 04:30 11.01.2020
4674 Rain 29 1005 73 0 3.55 263 03:58 11.01.2020
4675 Rain 29 1005 73 0 3.55 263 02:43 11.01.2020
4676 Rain 29 1008 72 0 2.92 320 01:44 11.01.2020
4677 Clouds 28 1008 83 10000 1 0 01:21 11.01.2020
4678 Clouds 28 1008 83 10000 1 0 00:46 11.01.2020
4679 Clouds 26 1007 94 10000 1 0 00:20 11.01.2020
4680 Clouds 26 1007 94 10000 1 0 23:41 10.01.2020
4681 Haze 25 1007 100 10000 1 0 23:22 10.01.2020
4682 Haze 25 1007 100 10000 1 0 22:59 10.01.2020
4683 Haze 25 1007 100 10000 1 0 22:40 10.01.2020
4684 Clouds 25 1007 100 10000 2.1 310 22:21 10.01.2020
4685 Clouds 25 1007 100 10000 2.1 310 21:58 10.01.2020
4686 Clouds 25 1007 100 10000 2.1 310 21:39 10.01.2020
4687 Clouds 25 1006 100 10000 2.6 320 21:19 10.01.2020
4688 Clouds 25 1006 100 10000 2.6 320 20:55 10.01.2020
4689 Clouds 25 1006 100 10000 2.6 320 20:37 10.01.2020
4690 Clouds 25 1006 100 10000 2.6 320 20:18 10.01.2020
4691 Clouds 25 1006 100 10000 2.6 320 19:39 10.01.2020
4692 Clouds 25 1006 100 10000 2.6 0 19:20 10.01.2020
4693 Clouds 25 1006 100 10000 2.6 0 18:44 10.01.2020
4694 Clouds 25 1006 100 10000 1.5 0 18:20 10.01.2020
4695 Clouds 25 1006 100 10000 1.5 0 17:58 10.01.2020
4696 Clouds 25 1006 100 10000 1.5 0 17:39 10.01.2020
4697 Clouds 25 1007 100 10000 1 0 17:20 10.01.2020
4698 Clouds 25 1007 100 10000 1 0 16:59 10.01.2020
4699 Clouds 25 1007 100 10000 1 0 16:39 10.01.2020
4700 Clouds 26 1007 94 10000 0.83 37 16:20 10.01.2020
4701 Clouds 26 1007 94 10000 0.83 37 15:56 10.01.2020
4702 Clouds 26 1007 94 10000 0.83 37 15:37 10.01.2020
4703 Clouds 25 1008 100 10000 1.5 0 15:18 10.01.2020
4704 Clouds 25 1008 100 10000 1.5 0 14:55 10.01.2020
4705 Clouds 25 1008 100 10000 1.5 0 14:37 10.01.2020
4706 Clouds 26 1007 94 10000 0.2 161 14:18 10.01.2020
4707 Clouds 26 1007 94 10000 0.2 161 13:44 10.01.2020
4708 Clouds 26 1007 94 10000 0.2 161 13:44 10.01.2020
4709 Clouds 25 1007 100 10000 1 0 13:26 10.01.2020
4710 Clouds 25 1007 100 10000 1 0 12:59 10.01.2020
4711 Clouds 25 1007 100 10000 1 0 12:39 10.01.2020
4712 Clouds 26 1007 94 10000 1.5 330 12:21 10.01.2020
4713 Clouds 26 1007 94 10000 1.5 330 11:56 10.01.2020
4714 Clouds 26 1007 94 10000 1.5 330 11:38 10.01.2020
4715 Clouds 26 1007 94 10000 1.5 330 11:38 10.01.2020
4716 Clouds 26 1007 94 10000 1.5 330 11:38 10.01.2020
4717 Clouds 26 1007 94 10000 3.1 200 11:18 10.01.2020
4718 Clouds 26 1007 94 10000 3.1 200 10:58 10.01.2020
4719 Clouds 26 1007 94 10000 3.1 200 10:36 10.01.2020
4720 Clouds 28 1007 73 0 1.02 249 10:18 10.01.2020
4721 Clouds 28 1007 73 0 1.02 249 09:43 10.01.2020
4722 Clouds 29 1005 79 10000 5.1 210 09:24 10.01.2020
4723 Clouds 29 1005 79 10000 5.1 210 08:43 10.01.2020
4724 Clouds 30 1005 79 10000 6.2 220 08:24 10.01.2020
4725 Clouds 30 1005 79 10000 6.2 220 07:47 10.01.2020
4726 Clouds 28 1005 88 10000 5.1 130 07:28 10.01.2020
4727 Clouds 28 1005 88 10000 5.1 130 06:55 10.01.2020
4728 Rain 28 1005 77 0 5.21 273 06:27 10.01.2020
4729 Rain 28 1005 77 0 5.21 273 05:52 10.01.2020
4730 Clouds 31 1007 70 10000 5.1 320 03:47 10.01.2020
4731 Clouds 30 1008 70 10000 5.1 330 03:28 10.01.2020
4732 Clouds 30 1008 70 10000 5.1 330 02:51 10.01.2020
4733 Rain 28 1009 80 0 5.22 329 01:49 10.01.2020
4734 Clouds 28 1008 83 10000 5.1 320 01:28 10.01.2020
4735 Clouds 28 1008 83 10000 5.1 320 00:47 10.01.2020
4736 Clouds 28 1009 79 0 5.46 319 00:29 10.01.2020
4737 Clouds 28 1009 79 0 5.46 319 23:39 09.01.2020
4738 Clouds 28 1009 79 0 5.46 319 23:39 09.01.2020
4739 Clouds 28 1009 79 0 5.46 319 23:39 09.01.2020
4740 Clouds 28 1009 79 0 5.46 319 23:39 09.01.2020
4741 Clouds 24 1008 100 10000 2.6 320 23:20 09.01.2020
4742 Clouds 24 1008 100 10000 2.6 320 22:58 09.01.2020
4743 Clouds 24 1008 100 10000 2.6 320 22:58 09.01.2020
4744 Clouds 24 1008 100 10000 2.6 320 22:39 09.01.2020
4745 Clouds 24 1008 100 10000 2.6 320 22:39 09.01.2020
4746 Clouds 24 1007 100 10000 2.6 340 22:19 09.01.2020
4747 Clouds 24 1007 100 10000 2.6 340 21:57 09.01.2020
4748 Clouds 24 1007 100 10000 2.6 340 21:38 09.01.2020
4749 Clouds 24 1007 100 10000 2.6 330 21:19 09.01.2020
4750 Clouds 24 1007 100 10000 2.6 330 20:58 09.01.2020
4751 Clouds 24 1007 100 10000 2.6 330 20:39 09.01.2020
4752 Clouds 24 1007 100 10000 2.6 330 20:39 09.01.2020
4753 Clouds 24 1006 100 10000 2.6 320 20:20 09.01.2020
4754 Clouds 24 1006 100 10000 2.6 320 19:57 09.01.2020
4755 Clouds 24 1006 100 10000 2.6 320 19:38 09.01.2020
4756 Clouds 24 1006 100 10000 1.5 0 19:19 09.01.2020
4757 Clouds 24 1006 100 10000 1.5 0 18:55 09.01.2020
4758 Clouds 24 1006 100 10000 1.5 0 18:36 09.01.2020
4759 Clouds 24 1006 100 10000 1.5 0 18:18 09.01.2020
4760 Clouds 24 1006 100 10000 1.5 0 17:41 09.01.2020
4761 Clouds 24 1006 100 10000 1.5 0 17:18 09.01.2020
4762 Clouds 24 1006 100 10000 1.5 0 16:49 09.01.2020
4763 Clouds 24 1007 100 10000 3.1 330 16:25 09.01.2020
4764 Clouds 24 1007 100 10000 3.1 330 15:59 09.01.2020
4765 Clouds 24 1007 100 10000 3.1 330 15:40 09.01.2020
4766 Clouds 24 1008 100 10000 6.2 350 15:19 09.01.2020
4767 Clouds 24 1008 100 10000 6.2 350 14:43 09.01.2020
4768 Clouds 24 1008 94 10000 5.1 330 14:22 09.01.2020
4769 Rain 26 1009 88 0 5.25 14 13:57 09.01.2020
4770 Rain 26 1009 88 0 5.25 14 13:39 09.01.2020
4771 Clouds 24 1009 100 10000 6.2 350 13:20 09.01.2020
4772 Clouds 24 1009 100 10000 6.2 350 12:59 09.01.2020
4773 Clouds 24 1009 100 10000 6.2 350 12:40 09.01.2020
4774 Clouds 24 1009 100 10000 6.2 350 12:40 09.01.2020
4775 Rain 24 1009 100 0 7.7 360 12:20 09.01.2020
4776 Rain 24 1009 100 0 7.7 360 11:57 09.01.2020
4777 Rain 24 1009 100 0 7.7 360 11:38 09.01.2020
4778 Rain 27 1008 79 0 2.43 25 11:20 09.01.2020
4779 Rain 24 1009 100 0 2.1 0 10:43 09.01.2020
4780 Rain 24 1009 100 0 2.1 0 10:22 09.01.2020
4781 Rain 25 1008 100 1000 2.6 0 09:56 09.01.2020
4782 Rain 25 1008 100 1000 2.6 0 09:38 09.01.2020
4783 Rain 25 1008 100 1000 2.6 0 09:18 09.01.2020
4784 Rain 25 1008 100 1000 2.6 0 08:55 09.01.2020
4785 Rain 25 1008 100 1000 2.6 0 08:37 09.01.2020
4786 Rain 25 1007 100 1000 2.6 0 08:19 09.01.2020
4787 Clouds 26 1006 94 10000 2.6 0 07:42 09.01.2020
4788 Rain 28 1006 80 0 4.7 251 07:23 09.01.2020
4789 Rain 28 1006 80 0 4.7 251 06:38 09.01.2020
4790 Rain 28 1006 80 0 4.7 251 06:18 09.01.2020
4791 Rain 28 1006 80 0 4.7 251 05:43 09.01.2020
4792 Clouds 28 1007 88 10000 3.6 200 04:42 09.01.2020
4793 Clouds 31 1009 70 10000 6.7 320 03:30 09.01.2020
4794 Clouds 31 1009 70 10000 6.7 320 02:48 09.01.2020
4795 Clouds 30 1010 74 10000 5.7 310 01:56 09.01.2020
4796 Clouds 30 1010 74 10000 5.7 310 01:34 09.01.2020
4797 Clouds 28 1010 83 10000 5.7 340 00:40 09.01.2020
4798 Clouds 26 1010 94 10000 5.1 350 00:19 09.01.2020
4799 Clouds 26 1010 94 10000 5.1 350 23:41 08.01.2020
4800 Clouds 25 1009 100 10000 2.6 340 23:23 08.01.2020
4801 Clouds 25 1009 100 10000 2.6 340 22:56 08.01.2020
4802 Clouds 25 1009 100 10000 2.6 340 22:38 08.01.2020
4803 Clouds 24 1008 100 10000 2.6 320 22:19 08.01.2020
4804 Clouds 24 1008 100 10000 2.6 320 21:55 08.01.2020
4805 Clouds 24 1008 100 10000 2.6 320 21:37 08.01.2020
4806 Rain 27 1008 81 0 4.14 4 21:18 08.01.2020
4807 Rain 27 1008 81 0 4.14 4 20:55 08.01.2020
4808 Rain 27 1008 81 0 4.14 4 20:37 08.01.2020
4809 Rain 27 1008 81 0 4.14 4 20:37 08.01.2020
4810 Rain 27 1007 81 0 3.67 2 20:18 08.01.2020
4811 Rain 27 1007 81 0 3.67 2 19:39 08.01.2020
4812 Rain 27 1007 81 0 3.67 2 19:20 08.01.2020
4813 Rain 27 1007 81 0 3.67 2 18:58 08.01.2020
4814 Rain 27 1007 81 0 3.67 2 18:39 08.01.2020
4815 Rain 27 1007 81 0 3.67 2 18:39 08.01.2020
4816 Rain 27 1007 81 0 3.67 2 18:19 08.01.2020
4817 Rain 27 1007 81 0 3.67 2 17:57 08.01.2020
4818 Rain 27 1007 81 0 3.67 2 17:38 08.01.2020
4819 Rain 28 1007 77 0 2.24 26 17:19 08.01.2020
4820 Rain 28 1007 77 0 2.24 26 17:19 08.01.2020
4821 Rain 28 1007 77 0 2.24 26 16:56 08.01.2020
4822 Rain 28 1007 77 0 2.24 26 16:38 08.01.2020
4823 Rain 28 1007 77 0 2.24 26 16:19 08.01.2020
4824 Rain 28 1007 77 0 2.24 26 15:45 08.01.2020
4825 Clouds 25 1009 94 10000 5.1 310 15:22 08.01.2020
4826 Clouds 25 1009 94 10000 5.1 310 14:59 08.01.2020
4827 Clouds 25 1009 94 10000 5.1 310 14:40 08.01.2020
4828 Clouds 25 1009 94 10000 5.1 310 14:40 08.01.2020
4829 Clouds 25 1009 94 10000 5.1 310 14:40 08.01.2020
4830 Rain 25 1009 94 10000 5.1 320 14:21 08.01.2020
4831 Rain 25 1009 94 10000 5.1 320 13:41 08.01.2020
4832 Rain 29 1009 73 0 1.93 106 13:22 08.01.2020
4833 Rain 29 1008 77 0 3.27 111 12:55 08.01.2020
4834 Rain 29 1008 77 0 3.27 111 12:36 08.01.2020
4835 Rain 25 1010 94 10000 5.1 320 12:18 08.01.2020
4836 Rain 25 1010 94 10000 5.1 320 11:47 08.01.2020
4837 Rain 27 1009 88 10000 2.6 350 11:19 08.01.2020
4838 Rain 27 1009 88 10000 2.6 350 11:19 08.01.2020
4839 Rain 27 1009 88 10000 2.6 350 10:58 08.01.2020
4840 Rain 27 1009 88 10000 2.6 350 10:40 08.01.2020
4841 Rain 27 1009 88 10000 2.6 350 10:40 08.01.2020
4842 Clouds 27 1008 88 10000 7.7 120 10:20 08.01.2020
4843 Clouds 27 1008 88 10000 7.7 120 09:43 08.01.2020
4844 Clouds 30 1006 74 10000 7.7 180 09:20 08.01.2020
4845 Clouds 30 1006 74 10000 7.7 180 08:58 08.01.2020
4846 Clouds 30 1006 74 10000 7.7 180 08:38 08.01.2020
4847 Clouds 31 1006 70 10000 5.1 180 08:20 08.01.2020
4848 Clouds 31 1006 70 10000 5.1 180 07:51 08.01.2020
4849 Clouds 31 1006 70 10000 5.1 180 07:33 08.01.2020
4850 Clouds 31 1005 70 10000 6.7 180 06:50 08.01.2020
4851 Rain 29 1005 76 0 5.45 169 06:32 08.01.2020
4852 Rain 29 1006 79 10000 5.1 190 05:54 08.01.2020
4853 Clouds 32 1007 62 10000 6.2 210 05:18 08.01.2020
4854 Clouds 33 1009 63 10000 5.1 240 04:27 08.01.2020
4855 Clouds 33 1009 59 10000 2.6 0 02:45 08.01.2020
4856 Clouds 31 1009 66 10000 2.6 0 02:27 08.01.2020
4857 Clouds 31 1009 66 10000 2.6 0 01:50 08.01.2020
4858 Clouds 30 1009 70 10000 2.6 350 01:25 08.01.2020
4859 Clouds 30 1009 70 10000 2.6 350 00:40 08.01.2020
4860 Clouds 27 1009 88 10000 2.6 340 00:20 08.01.2020
4861 Clouds 27 1009 88 10000 2.6 340 23:44 07.01.2020
4862 Clouds 26 1009 94 10000 2.6 320 23:20 07.01.2020
4863 Clouds 26 1009 94 10000 2.6 320 22:40 07.01.2020
4864 Clouds 28 1008 76 0 3.11 119 22:20 07.01.2020
4865 Clouds 28 1008 76 0 3.11 119 21:57 07.01.2020
4866 Clouds 28 1008 76 0 3.11 119 21:38 07.01.2020
4867 Clouds 25 1008 100 10000 2.6 350 21:20 07.01.2020
4868 Clouds 25 1008 100 10000 2.6 350 20:56 07.01.2020
4869 Clouds 25 1008 100 10000 2.6 350 20:37 07.01.2020
4870 Clouds 28 1007 77 0 3.41 114 20:19 07.01.2020
4871 Clouds 28 1007 77 0 3.41 114 19:38 07.01.2020
4872 Clouds 25 1007 100 10000 2.6 350 19:20 07.01.2020
4873 Clouds 25 1007 100 10000 2.6 350 18:58 07.01.2020
4874 Clouds 25 1007 100 10000 2.6 350 18:40 07.01.2020
4875 Clouds 25 1007 100 10000 2.6 310 18:19 07.01.2020
4876 Clouds 28 1007 77 0 3.41 114 17:59 07.01.2020
4877 Clouds 28 1007 77 0 3.41 114 17:39 07.01.2020
4878 Clouds 26 1008 94 10000 2.6 300 17:21 07.01.2020
4879 Clouds 26 1008 94 10000 2.6 300 16:56 07.01.2020
4880 Clouds 26 1008 94 10000 2.6 300 16:37 07.01.2020
4881 Clouds 26 1008 94 10000 2.6 320 16:19 07.01.2020
4882 Clouds 26 1008 94 10000 2.6 320 15:57 07.01.2020
4883 Clouds 26 1008 94 10000 2.6 320 15:38 07.01.2020
4884 Clouds 26 1009 94 10000 2.6 320 15:19 07.01.2020
4885 Clouds 26 1009 94 10000 2.6 320 14:42 07.01.2020
4886 Clouds 25 1010 100 10000 2.6 320 14:24 07.01.2020
4887 Clouds 25 1010 100 10000 2.6 320 13:57 07.01.2020
4888 Clouds 25 1010 100 10000 2.6 320 13:39 07.01.2020
4889 Clouds 25 1009 100 10000 3.6 320 13:18 07.01.2020
4890 Clouds 25 1009 100 10000 3.6 320 12:41 07.01.2020
4891 Clouds 25 1008 100 10000 3.1 310 12:19 07.01.2020
4892 Clouds 25 1008 100 10000 3.1 310 11:45 07.01.2020
4893 Clouds 26 1008 94 10000 5.1 330 11:23 07.01.2020
4894 Clouds 26 1008 94 10000 5.1 330 10:59 07.01.2020
4895 Clouds 26 1008 94 10000 5.1 330 10:40 07.01.2020
4896 Clouds 27 1007 88 10000 5.1 330 10:22 07.01.2020
4897 Clouds 27 1007 88 10000 5.1 330 09:56 07.01.2020
4898 Clouds 27 1007 88 10000 5.1 330 09:37 07.01.2020
4899 Clouds 30 1006 74 10000 5.1 340 09:19 07.01.2020
4900 Clouds 30 1006 74 10000 5.1 340 08:42 07.01.2020
4901 Clouds 33 1005 63 10000 7.7 200 08:21 07.01.2020
4902 Clouds 33 1005 63 10000 7.7 200 07:51 07.01.2020
4903 Clouds 32 1006 66 10000 5.1 200 07:26 07.01.2020
4904 Clouds 32 1006 66 10000 5.1 200 06:53 07.01.2020
4905 Clouds 29 1005 71 0 4.81 189 06:32 07.01.2020
4906 Clouds 32 1006 66 10000 2.6 210 05:46 07.01.2020
4907 Haze 33 1008 63 10000 5.1 200 04:31 07.01.2020
4908 Clouds 33 1009 59 10000 4.6 250 03:25 07.01.2020
4909 Haze 31 1010 66 10000 4.1 340 02:21 07.01.2020
4910 Haze 31 1010 66 10000 4.1 340 01:51 07.01.2020
4911 Haze 30 1010 74 10000 2.6 340 01:21 07.01.2020
4912 Clear 27 1009 83 10000 2.6 340 00:22 07.01.2020
4913 Clear 27 1009 83 10000 2.6 340 23:58 06.01.2020
4914 Clear 27 1009 83 10000 2.6 340 23:39 06.01.2020
4915 Clouds 25 1009 94 10000 2.6 330 23:21 06.01.2020
4916 Clouds 25 1009 94 10000 2.6 330 22:56 06.01.2020
4917 Clouds 25 1009 94 10000 2.6 330 22:37 06.01.2020
4918 Clouds 24 1009 100 10000 2.6 330 22:19 06.01.2020
4919 Clouds 24 1009 100 10000 2.6 330 21:55 06.01.2020
4920 Clouds 24 1009 100 10000 2.6 330 21:36 06.01.2020
4921 Clouds 24 1009 100 10000 2.6 330 21:36 06.01.2020
4922 Clouds 24 1008 100 10000 2.6 330 21:18 06.01.2020
4923 Clouds 24 1008 100 10000 2.6 330 20:54 06.01.2020
4924 Clouds 24 1008 100 10000 2.6 330 20:54 06.01.2020
4925 Clouds 24 1008 100 10000 2.6 330 20:36 06.01.2020
4926 Clouds 24 1008 100 10000 2.6 320 20:18 06.01.2020
4927 Clouds 24 1008 100 10000 2.6 320 19:55 06.01.2020
4928 Clouds 24 1008 100 10000 2.6 320 19:36 06.01.2020
4929 Rain 27 1008 78 0 2.39 33 19:18 06.01.2020
4930 Rain 27 1008 78 0 2.39 33 18:43 06.01.2020
4931 Rain 25 1009 100 10000 4.1 320 18:20 06.01.2020
4932 Rain 25 1009 100 10000 4.1 320 17:39 06.01.2020
4933 Rain 24 1009 100 10000 4.1 320 17:20 06.01.2020
4934 Rain 24 1009 100 10000 4.1 320 16:55 06.01.2020
4935 Rain 24 1009 100 10000 4.1 320 16:37 06.01.2020
4936 Rain 24 1010 100 10000 1.5 0 16:18 06.01.2020
4937 Rain 24 1010 100 10000 1.5 0 15:43 06.01.2020
4938 Rain 25 1011 94 10000 1.5 0 15:21 06.01.2020
4939 Rain 25 1011 94 10000 1.5 0 14:59 06.01.2020
4940 Rain 25 1011 94 10000 1.5 0 14:41 06.01.2020
4941 Rain 25 1011 94 10000 2.6 0 14:21 06.01.2020
4942 Rain 25 1011 94 10000 2.6 0 13:58 06.01.2020
4943 Rain 25 1011 94 10000 2.6 0 13:38 06.01.2020
4944 Rain 27 1010 88 10000 4.1 110 13:19 06.01.2020
4945 Rain 27 1010 88 10000 4.1 110 12:43 06.01.2020
4946 Clouds 28 1009 83 10000 3.1 0 12:21 06.01.2020
4947 Clouds 28 1009 83 10000 3.1 0 11:59 06.01.2020
4948 Clouds 28 1009 83 10000 3.1 0 11:39 06.01.2020
4949 Clouds 30 1008 74 10000 4.1 200 11:21 06.01.2020
4950 Clouds 30 1008 74 10000 4.1 200 10:57 06.01.2020
4951 Clouds 30 1008 74 10000 4.1 200 10:39 06.01.2020
4952 Clouds 31 1007 70 10000 4.1 200 10:20 06.01.2020
4953 Clouds 31 1007 70 10000 4.1 200 09:38 06.01.2020
4954 Clouds 32 1006 62 10000 2.6 200 09:19 06.01.2020
4955 Clouds 32 1006 62 10000 2.6 200 08:46 06.01.2020
4956 Clouds 33 1006 59 10000 4.1 200 08:26 06.01.2020
4957 Rain 29 1006 72 0 3.8 223 07:53 06.01.2020
4958 Clouds 33 1006 59 10000 2.6 200 07:28 06.01.2020
4959 Clouds 33 1006 59 10000 2.6 200 06:45 06.01.2020
4960 Clouds 33 1007 59 10000 2.6 230 06:19 06.01.2020
4961 Clouds 33 1007 59 10000 2.6 230 05:42 06.01.2020
4962 Clouds 29 1007 70 0 3.88 206 04:33 06.01.2020
4963 Clouds 33 1008 55 10000 2.6 220 03:59 06.01.2020
4964 Clouds 29 1007 70 0 3.88 206 02:46 06.01.2020
4965 Clouds 33 1009 55 10000 5.1 170 02:23 06.01.2020
4966 Clouds 33 1009 55 10000 5.1 170 01:43 06.01.2020
4967 Clouds 32 1010 59 10000 3.1 160 01:21 06.01.2020
4968 Clouds 32 1010 59 10000 3.1 160 00:41 06.01.2020
4969 Clouds 30 1009 66 10000 1.5 0 00:20 06.01.2020
4970 Clouds 30 1009 66 10000 1.5 0 23:41 05.01.2020
4971 Clouds 27 1009 78 0 1.5 36 23:22 05.01.2020
4972 Clouds 27 1009 78 0 1.5 36 22:55 05.01.2020
4973 Clouds 27 1009 78 0 1.5 36 22:37 05.01.2020
4974 Clouds 25 1008 88 10000 2.1 330 22:18 05.01.2020
4975 Clouds 25 1008 88 10000 2.1 330 21:41 05.01.2020
4976 Clouds 25 1007 94 10000 2.6 320 21:21 05.01.2020
4977 Clouds 25 1007 94 10000 2.6 320 20:59 05.01.2020
4978 Clouds 25 1007 94 10000 2.6 320 20:39 05.01.2020
4979 Clouds 25 1007 94 10000 2.6 350 20:20 05.01.2020
4980 Clouds 25 1007 94 10000 2.6 350 20:20 05.01.2020
4981 Clouds 25 1007 94 10000 2.6 350 19:59 05.01.2020
4982 Clouds 25 1007 94 10000 2.6 350 19:40 05.01.2020
4983 Clouds 25 1008 88 10000 4.1 350 19:21 05.01.2020
4984 Clouds 25 1008 88 10000 4.1 350 18:56 05.01.2020
4985 Clouds 25 1008 88 10000 4.1 350 18:38 05.01.2020
4986 Clouds 26 1008 83 10000 4.1 350 18:19 05.01.2020
4987 Clouds 26 1008 83 10000 4.1 350 17:59 05.01.2020
4988 Clouds 26 1008 83 10000 4.1 350 17:39 05.01.2020
4989 Clouds 27 1008 78 10000 3.6 350 17:20 05.01.2020
4990 Clouds 28 1008 77 0 2.66 121 16:57 05.01.2020
4991 Clouds 28 1008 77 0 2.66 121 16:39 05.01.2020
4992 Clouds 27 1009 78 10000 3.6 340 16:20 05.01.2020
4993 Clouds 27 1009 78 10000 3.6 340 15:40 05.01.2020
4994 Clouds 27 1009 78 10000 3.6 340 15:21 05.01.2020
4995 Clouds 26 1009 94 10000 3.1 320 14:57 05.01.2020
4996 Clouds 26 1009 94 10000 3.1 320 14:38 05.01.2020
4997 Clouds 26 1009 94 10000 3.1 320 14:20 05.01.2020
4998 Clouds 29 1010 75 0 3.58 127 13:57 05.01.2020
4999 Clouds 29 1010 75 0 3.58 127 13:38 05.01.2020
5000 Clouds 29 1010 75 0 3.58 127 13:38 05.01.2020
5001 Clouds 26 1009 94 10000 3.6 320 13:19 05.01.2020
5002 Clouds 26 1009 94 10000 3.6 320 12:56 05.01.2020
5003 Clouds 26 1009 94 10000 3.6 320 12:56 05.01.2020
5004 Clouds 26 1009 94 10000 3.6 320 12:37 05.01.2020
5005 Clouds 29 1010 75 0 3.33 130 12:19 05.01.2020
5006 Clouds 29 1010 75 0 3.33 130 11:44 05.01.2020
5007 Clouds 29 1008 73 0 3.25 140 11:20 05.01.2020
5008 Clouds 29 1008 73 0 3.25 140 10:59 05.01.2020
5009 Clouds 29 1008 73 0 3.25 140 10:40 05.01.2020
5010 Clouds 30 1008 70 10000 5.1 160 10:19 05.01.2020
5011 Clouds 30 1008 70 10000 5.1 160 09:42 05.01.2020
5012 Clouds 31 1007 66 10000 5.1 190 09:22 05.01.2020
5013 Clouds 31 1007 66 10000 5.1 190 08:52 05.01.2020
5014 Clouds 29 1008 73 0 3.25 140 08:32 05.01.2020
5015 Haze 30 1006 74 10000 7.7 180 07:59 05.01.2020
5016 Haze 30 1006 74 10000 7.7 180 07:39 05.01.2020
5017 Haze 30 1006 74 10000 7.7 180 07:39 05.01.2020
5018 Clouds 31 1006 70 10000 7.7 180 07:20 05.01.2020
5019 Clouds 31 1006 70 10000 7.7 180 06:40 05.01.2020
5020 Clouds 34 1006 59 10000 5.1 190 05:34 05.01.2020
5021 Clouds 34 1006 59 10000 5.1 190 05:34 05.01.2020
5022 Haze 33 1008 63 10000 7.7 200 04:49 05.01.2020
5023 Haze 32 1009 66 10000 7.7 220 04:18 05.01.2020
5024 Haze 33 1009 59 10000 3.1 350 02:50 05.01.2020
5025 Haze 32 1010 62 10000 2.6 350 02:32 05.01.2020
5026 Haze 32 1010 62 10000 2.6 350 01:49 05.01.2020
5027 Haze 30 1010 70 10000 2.6 350 01:19 05.01.2020
5028 Haze 30 1010 70 10000 2.6 350 00:55 05.01.2020
5029 Haze 30 1010 70 10000 2.6 350 00:36 05.01.2020
5030 Haze 27 1010 88 10000 2.1 320 00:18 05.01.2020
5031 Haze 27 1010 88 10000 2.1 320 23:40 04.01.2020
5032 Clouds 25 1009 100 10000 2.6 310 23:20 04.01.2020
5033 Clouds 25 1009 100 10000 2.6 310 22:40 04.01.2020
5034 Clear 27 1009 80 0 1.77 58 22:22 04.01.2020
5035 Clear 27 1009 80 0 1.77 58 22:22 04.01.2020
5036 Clear 27 1009 80 0 1.77 58 21:58 04.01.2020
5037 Clear 27 1009 80 0 1.77 58 21:40 04.01.2020
5038 Clouds 24 1008 100 10000 5.1 300 21:20 04.01.2020
5039 Clouds 24 1008 100 10000 5.1 300 20:59 04.01.2020
5040 Clouds 24 1008 100 10000 5.1 300 20:40 04.01.2020
5041 Clouds 25 1007 94 10000 2.6 340 20:21 04.01.2020
5042 Clouds 25 1007 94 10000 2.6 340 19:57 04.01.2020
5043 Clouds 25 1007 94 10000 2.6 340 19:57 04.01.2020
5044 Clouds 25 1007 94 10000 2.6 340 19:38 04.01.2020
5045 Clouds 25 1007 94 10000 2.6 350 19:20 04.01.2020
5046 Clouds 25 1007 94 10000 2.6 350 18:55 04.01.2020
5047 Clouds 25 1007 94 10000 2.6 350 18:36 04.01.2020
5048 Clouds 25 1007 94 10000 2.6 310 18:18 04.01.2020
5049 Clouds 25 1007 94 10000 2.6 310 18:18 04.01.2020
5050 Clouds 25 1007 94 10000 2.6 310 17:41 04.01.2020
5051 Clouds 25 1007 94 10000 2.6 350 17:23 04.01.2020
5052 Clouds 25 1007 94 10000 2.6 350 16:57 04.01.2020
5053 Clouds 25 1007 94 10000 2.6 350 16:39 04.01.2020
5054 Clouds 25 1007 94 10000 2.6 350 16:39 04.01.2020
5055 Clouds 25 1007 94 10000 2.6 350 16:39 04.01.2020
5056 Clear 26 1008 94 10000 1.5 0 16:21 04.01.2020
5057 Clear 26 1008 94 10000 1.5 0 15:43 04.01.2020
5058 Clear 26 1008 94 10000 1.5 0 15:43 04.01.2020
5059 Clouds 27 1008 94 10000 1 0 15:20 04.01.2020
5060 Clouds 27 1008 94 10000 1 0 14:59 04.01.2020
5061 Clouds 27 1008 94 10000 1 0 14:41 04.01.2020
5062 Clouds 28 1008 83 10000 1.5 0 14:20 04.01.2020
5063 Clouds 28 1008 83 10000 1.5 0 13:58 04.01.2020
5064 Clouds 28 1008 83 10000 1.5 0 13:37 04.01.2020
5065 Clouds 28 1008 83 10000 2.6 150 13:19 04.01.2020
5066 Clouds 28 1008 83 10000 2.6 150 12:56 04.01.2020
5067 Clouds 28 1008 83 10000 2.6 150 12:38 04.01.2020
5068 Clouds 28 1008 83 10000 2.6 140 12:18 04.01.2020
5069 Clouds 28 1008 83 10000 2.6 140 11:55 04.01.2020
5070 Clouds 28 1008 83 10000 2.6 140 11:36 04.01.2020
5071 Clouds 29 1007 71 0 2.71 140 11:18 04.01.2020
5072 Clouds 29 1007 71 0 2.71 140 10:40 04.01.2020
5073 Haze 31 1006 62 10000 5.1 190 10:21 04.01.2020
5074 Haze 31 1006 62 10000 5.1 190 09:44 04.01.2020
5075 Haze 32 1005 59 10000 5.1 190 09:25 04.01.2020
5076 Haze 32 1005 59 10000 5.1 190 08:49 04.01.2020
5077 Haze 32 1005 59 10000 2.6 190 08:29 04.01.2020
5078 Haze 32 1005 59 10000 2.6 190 07:56 04.01.2020
5079 Haze 32 1005 59 10000 2.6 190 07:56 04.01.2020
5080 Haze 32 1005 59 10000 2.6 190 07:37 04.01.2020
5081 Haze 32 1005 59 10000 5.1 200 06:43 04.01.2020
5082 Haze 32 1006 59 10000 7.7 200 05:59 04.01.2020
5083 Clouds 33 1007 55 10000 5.7 200 04:51 04.01.2020
5084 Clouds 33 1007 59 10000 7.7 170 04:30 04.01.2020
5085 Clouds 32 1009 62 10000 5.1 320 03:28 04.01.2020
5086 Clouds 32 1009 62 10000 5.1 320 02:46 04.01.2020
5087 Clouds 30 1009 74 10000 5.1 320 02:18 04.01.2020
5088 Clouds 30 1009 74 10000 5.1 320 01:37 04.01.2020
5089 Clouds 28 1009 74 0 0.15 214 01:19 04.01.2020
5090 Clouds 26 1009 88 10000 5.1 340 00:29 04.01.2020
5091 Clouds 26 1009 88 10000 5.1 340 23:57 03.01.2020
5092 Clouds 25 1009 94 10000 2.6 320 23:29 03.01.2020
5093 Clouds 25 1009 94 10000 2.6 320 22:57 03.01.2020
5094 Clouds 25 1009 94 10000 2.6 320 22:57 03.01.2020
5095 Clouds 25 1009 94 10000 2.6 320 22:39 03.01.2020
5096 Clouds 26 1008 82 0 1.94 39 22:19 03.01.2020
5097 Clouds 26 1008 82 0 1.94 39 21:57 03.01.2020
5098 Clouds 26 1008 82 0 1.94 39 21:37 03.01.2020
5099 Clouds 24 1007 100 10000 2.6 360 21:18 03.01.2020
5100 Clouds 24 1007 100 10000 2.6 360 20:54 03.01.2020
5101 Clouds 24 1007 100 10000 2.6 360 20:54 03.01.2020
5102 Clouds 24 1007 100 10000 2.6 360 20:36 03.01.2020
5103 Clouds 24 1006 100 10000 3.1 310 20:18 03.01.2020
5104 Clouds 24 1006 100 10000 3.1 310 19:42 03.01.2020
5105 Clouds 24 1006 100 10000 2.6 310 19:23 03.01.2020
5106 Clouds 24 1006 100 10000 2.6 310 18:54 03.01.2020
5107 Clouds 24 1006 100 10000 2.6 310 18:36 03.01.2020
5108 Clouds 24 1006 100 10000 2.6 360 18:18 03.01.2020
5109 Clouds 24 1006 100 10000 2.6 360 17:41 03.01.2020
5110 Clouds 25 1007 100 10000 2.6 300 17:21 03.01.2020
5111 Clouds 25 1007 100 10000 2.6 300 16:44 03.01.2020
5112 Clouds 25 1008 100 10000 2.6 300 16:25 03.01.2020
5113 Clouds 25 1008 100 10000 2.6 300 16:00 03.01.2020
5114 Clouds 25 1008 100 10000 2.6 300 15:41 03.01.2020
5115 Clouds 25 1008 94 10000 2.6 300 15:19 03.01.2020
5116 Clouds 25 1008 94 10000 2.6 300 14:40 03.01.2020
5117 Clouds 25 1009 100 10000 2.6 310 14:20 03.01.2020
5118 Clouds 25 1009 100 10000 2.6 310 13:57 03.01.2020
5119 Clouds 25 1009 100 10000 2.6 310 13:38 03.01.2020
5120 Clouds 25 1009 100 10000 4.1 310 13:20 03.01.2020
5121 Clouds 25 1009 100 10000 4.1 310 12:41 03.01.2020
5122 Clouds 28 1008 83 10000 5.1 150 12:22 03.01.2020
5123 Clouds 28 1008 83 10000 5.1 150 11:49 03.01.2020
5124 Clouds 28 1008 83 10000 5.1 150 11:49 03.01.2020
5125 Clouds 28 1008 78 10000 5.1 190 11:31 03.01.2020
5126 Clouds 28 1008 78 10000 5.1 190 10:57 03.01.2020
5127 Clouds 28 1008 78 10000 5.1 190 10:38 03.01.2020
5128 Clouds 29 1007 79 10000 3.1 170 10:20 03.01.2020
5129 Clouds 29 1007 79 10000 3.1 170 09:41 03.01.2020
5130 Clouds 29 1006 79 10000 3.6 200 09:23 03.01.2020
5131 Clouds 29 1006 79 10000 3.6 200 08:57 03.01.2020
5132 Clouds 29 1006 79 10000 3.6 200 08:39 03.01.2020
5133 Clouds 30 1005 74 10000 7.7 200 08:21 03.01.2020
5134 Clouds 30 1005 74 10000 7.7 200 07:42 03.01.2020
5135 Clouds 30 1006 74 10000 5.1 180 07:19 03.01.2020
5136 Clouds 30 1006 74 10000 5.1 180 06:56 03.01.2020
5137 Clouds 30 1006 74 10000 5.1 180 06:37 03.01.2020
5138 Clouds 31 1006 70 10000 5.1 200 06:18 03.01.2020
5139 Clouds 31 1007 74 10000 2.1 220 04:42 03.01.2020
5140 Clouds 30 1008 79 10000 5.1 200 03:34 03.01.2020
5141 Clouds 30 1009 79 10000 4.1 130 02:47 03.01.2020
5142 Clouds 28 1010 88 10000 4.1 140 01:47 03.01.2020
5143 Clouds 28 1010 88 10000 1.5 0 00:57 03.01.2020
5144 Rain 28 1010 78 0 3.28 311 00:32 03.01.2020
5145 Rain 28 1010 78 0 3.28 311 23:58 02.01.2020
5146 Rain 28 1010 78 0 3.28 311 23:39 02.01.2020
5147 Clouds 25 1010 100 10000 2.6 320 23:19 02.01.2020
5148 Clouds 25 1010 100 10000 2.6 320 22:57 02.01.2020
5149 Clouds 25 1010 100 10000 2.6 320 22:39 02.01.2020
5150 Clouds 25 1009 100 10000 2.6 320 22:18 02.01.2020
5151 Clouds 25 1009 100 10000 2.6 320 21:42 02.01.2020
5152 Clouds 25 1008 100 10000 1.5 0 21:23 02.01.2020
5153 Clouds 25 1008 100 10000 1.5 0 21:00 02.01.2020
5154 Clouds 25 1008 100 10000 1.5 0 21:00 02.01.2020
5155 Clouds 25 1008 100 10000 1.5 0 20:39 02.01.2020
5156 Clouds 25 1007 100 10000 1.5 0 20:21 02.01.2020
5157 Clouds 25 1007 100 10000 1.5 0 20:21 02.01.2020
5158 Clouds 25 1007 100 10000 1.5 0 19:56 02.01.2020
5159 Clouds 25 1007 100 10000 1.5 0 19:38 02.01.2020
5160 Clouds 25 1007 100 10000 2.1 0 19:19 02.01.2020
5161 Clouds 25 1007 100 10000 2.1 0 18:58 02.01.2020
5162 Clouds 25 1007 100 10000 2.1 0 18:58 02.01.2020
5163 Clouds 25 1007 100 10000 2.1 0 18:39 02.01.2020
5164 Clouds 25 1008 100 10000 1.5 0 18:21 02.01.2020
5165 Clouds 25 1008 100 10000 1.5 0 17:56 02.01.2020
5166 Clouds 25 1008 100 10000 1.5 0 17:37 02.01.2020
5167 Clouds 25 1009 100 10000 2.1 0 17:19 02.01.2020
5168 Clouds 25 1009 100 10000 2.1 0 16:56 02.01.2020
5169 Clouds 25 1009 100 10000 2.1 0 16:38 02.01.2020
5170 Clouds 25 1010 100 10000 2.1 0 16:20 02.01.2020
5171 Clouds 25 1010 100 10000 2.1 0 15:45 02.01.2020
5172 Clouds 26 1010 100 10000 2.1 0 15:24 02.01.2020
5173 Clouds 26 1010 100 10000 2.1 0 14:58 02.01.2020
5174 Clouds 26 1010 100 10000 2.1 0 14:39 02.01.2020
5175 Rain 26 1010 100 10000 3.6 130 14:20 02.01.2020
5176 Rain 26 1010 100 10000 3.6 130 13:58 02.01.2020
5177 Rain 26 1010 100 10000 3.6 130 13:40 02.01.2020
5178 Rain 26 1010 94 10000 3.6 130 13:19 02.01.2020
5179 Rain 26 1010 94 10000 3.6 130 12:42 02.01.2020
5180 Rain 25 1009 100 10000 3.1 160 12:21 02.01.2020
5181 Rain 28 1011 77 0 0.9 101 11:42 02.01.2020
5182 Rain 26 1009 94 10000 5.1 180 11:22 02.01.2020
5183 Rain 26 1009 94 10000 5.1 180 10:46 02.01.2020
5184 Clouds 29 1008 83 10000 5.1 180 10:28 02.01.2020
5185 Clouds 29 1008 83 10000 5.1 180 09:58 02.01.2020
5186 Clouds 29 1008 83 10000 5.1 180 09:35 02.01.2020
5187 Rain 28 1009 76 0 1.57 223 08:59 02.01.2020
5188 Rain 28 1009 76 0 1.57 223 08:39 02.01.2020
5189 Clouds 30 1008 79 10000 7.7 190 08:19 02.01.2020
5190 Clouds 30 1008 79 10000 7.7 190 07:47 02.01.2020
5191 Clouds 31 1008 74 10000 7.7 210 07:26 02.01.2020
5192 Clouds 31 1008 74 10000 7.7 210 06:41 02.01.2020
5193 Clouds 30 1008 79 10000 7.7 220 05:40 02.01.2020
5194 Clouds 30 1009 84 10000 5.1 250 04:34 02.01.2020
5195 Clouds 29 1009 74 0 3.34 204 03:29 02.01.2020
5196 Clouds 29 1009 74 0 3.34 204 03:29 02.01.2020
5197 Haze 32 1012 66 10000 5.1 330 02:21 02.01.2020
5198 Haze 32 1012 66 10000 5.1 330 01:49 02.01.2020
5199 Haze 30 1012 74 10000 5.1 300 01:25 02.01.2020
5200 Haze 30 1012 74 10000 5.1 300 00:38 02.01.2020
5201 Haze 29 1012 79 10000 3.6 340 00:20 02.01.2020
5202 Haze 29 1012 79 10000 3.6 340 23:42 01.01.2020
5203 Haze 26 1011 94 10000 2.6 0 23:21 01.01.2020
5204 Haze 26 1011 94 10000 2.6 0 22:39 01.01.2020
5205 Clouds 26 1011 88 10000 1.5 0 22:20 01.01.2020
5206 Clouds 26 1011 88 10000 1.5 0 21:58 01.01.2020
5207 Clouds 26 1011 88 10000 1.5 0 21:39 01.01.2020
5208 Rain 27 1011 80 0 1.54 70 21:20 01.01.2020
5209 Rain 27 1011 80 0 1.54 70 20:56 01.01.2020
5210 Rain 27 1011 80 0 1.54 70 20:38 01.01.2020
5211 Rain 28 1010 79 0 2.66 123 20:19 01.01.2020
5212 Rain 27 1010 80 0 2.26 62 19:55 01.01.2020
5213 Rain 27 1010 80 0 2.26 62 19:37 01.01.2020
5214 Rain 27 1010 80 0 2.26 62 19:19 01.01.2020
5215 Rain 27 1010 80 0 2.26 62 18:56 01.01.2020
5216 Rain 27 1010 80 0 2.26 62 18:36 01.01.2020
5217 Rain 27 1010 80 0 2.26 62 18:18 01.01.2020
5218 Rain 27 1010 80 0 2.26 62 17:56 01.01.2020
5219 Rain 27 1010 80 0 2.26 62 17:38 01.01.2020
5220 Rain 28 1011 79 0 3.63 112 17:19 01.01.2020
5221 Rain 28 1011 79 0 3.63 112 16:42 01.01.2020
5222 Rain 28 1011 79 0 3.63 112 16:24 01.01.2020
5223 Rain 28 1011 79 0 3.63 112 15:58 01.01.2020
5224 Rain 28 1011 79 0 3.63 112 15:40 01.01.2020
5225 Rain 28 1011 79 0 3.63 112 15:40 01.01.2020
5226 Clouds 27 1011 88 10000 2.6 140 15:22 01.01.2020
5227 Clouds 27 1011 88 10000 2.6 140 14:59 01.01.2020
5228 Clouds 27 1011 88 10000 2.6 140 14:40 01.01.2020
5229 Clouds 27 1011 88 10000 5.1 140 14:22 01.01.2020
5230 Clouds 27 1011 88 10000 5.1 140 13:56 01.01.2020
5231 Clouds 27 1011 88 10000 5.1 140 13:37 01.01.2020
5232 Clouds 27 1011 88 10000 5.1 140 13:37 01.01.2020
5233 Clouds 28 1011 83 10000 5.1 100 13:18 01.01.2020
5234 Clouds 28 1011 83 10000 5.1 100 12:56 01.01.2020
5235 Clouds 28 1011 83 10000 5.1 100 12:56 01.01.2020
5236 Clouds 28 1011 83 10000 5.1 100 12:38 01.01.2020
5237 Clouds 28 1012 79 0 5.58 136 12:18 01.01.2020
5238 Clouds 28 1012 79 0 5.58 136 11:43 01.01.2020
5239 Haze 29 1009 79 10000 7.7 160 11:22 01.01.2020
5240 Haze 29 1009 79 10000 7.7 160 10:59 01.01.2020
5241 Haze 29 1009 79 10000 7.7 160 10:40 01.01.2020
5242 Haze 30 1008 74 10000 7.7 160 10:20 01.01.2020
5243 Haze 30 1008 74 10000 7.7 160 10:20 01.01.2020
5244 Haze 30 1008 74 10000 7.7 160 09:56 01.01.2020
5245 Haze 30 1008 74 10000 7.7 160 09:37 01.01.2020
5246 Haze 32 1008 66 10000 7.2 180 09:18 01.01.2020
5247 Haze 32 1008 66 10000 7.2 180 08:55 01.01.2020
5248 Haze 32 1008 66 10000 7.2 180 08:36 01.01.2020
5249 Haze 32 1008 66 10000 7.2 180 08:36 01.01.2020
5250 Haze 32 1008 66 10000 7.2 180 08:36 01.01.2020
5251 Clouds 29 1008 73 0 4.93 179 08:18 01.01.2020
5252 Clouds 29 1008 73 0 4.93 179 07:48 01.01.2020
5253 Haze 33 1008 59 10000 8.2 200 07:30 01.01.2020
5254 Haze 33 1008 59 10000 8.2 200 06:44 01.01.2020
5255 Haze 34 1008 56 10000 8.2 190 06:20 01.01.2020
5256 Haze 34 1009 56 10000 9.3 190 04:44 01.01.2020
5257 Haze 34 1010 56 10000 5.1 200 03:43 01.01.2020
5258 Haze 34 1010 56 10000 4.1 210 03:22 01.01.2020
5259 Haze 34 1010 56 10000 4.1 210 02:55 01.01.2020
5260 Clouds 29 1009 74 0 4.53 183 02:32 01.01.2020
5261 Smoke 33 1011 55 10000 2.6 170 01:45 01.01.2020
5262 Haze 32 1011 59 10000 2.6 130 01:24 01.01.2020
5263 Haze 32 1011 59 10000 2.6 130 00:56 01.01.2020
5264 Haze 32 1011 59 10000 2.6 130 00:37 01.01.2020
5265 Smoke 30 1011 74 10000 2.1 0 00:18 01.01.2020
5266 Smoke 30 1011 74 10000 2.1 0 23:39 31.12.2019
5267 Clouds 27 1011 77 0 2.06 104 23:19 31.12.2019
5268 Clouds 27 1011 77 0 2.06 104 22:57 31.12.2019
5269 Clouds 27 1011 77 0 2.06 104 22:38 31.12.2019
5270 Smoke 24 1010 100 10000 1.5 0 22:18 31.12.2019
5271 Smoke 24 1010 100 10000 1.5 0 21:54 31.12.2019
5272 Smoke 24 1010 100 10000 1.5 0 21:36 31.12.2019
5273 Haze 24 1009 94 10000 1.5 0 21:18 31.12.2019
5274 Haze 24 1009 94 10000 1.5 0 21:18 31.12.2019
5275 Haze 24 1009 94 10000 1.5 0 20:40 31.12.2019
5276 Haze 25 1009 94 10000 1.5 0 20:21 31.12.2019
5277 Haze 25 1009 94 10000 1.5 0 19:59 31.12.2019
5278 Haze 25 1009 94 10000 1.5 0 19:40 31.12.2019
5279 Haze 25 1009 94 10000 1.5 0 19:22 31.12.2019
5280 Haze 25 1009 94 10000 1.5 0 18:57 31.12.2019
5281 Haze 25 1009 94 10000 1.5 0 18:39 31.12.2019
5282 Haze 27 1009 88 10000 2.6 120 18:19 31.12.2019
5283 Haze 27 1009 88 10000 2.6 120 17:56 31.12.2019
5284 Haze 27 1009 88 10000 2.6 120 17:37 31.12.2019
5285 Haze 27 1010 88 10000 2.6 150 17:18 31.12.2019
5286 Haze 27 1010 88 10000 2.6 150 16:56 31.12.2019
5287 Haze 27 1010 88 10000 2.6 150 16:37 31.12.2019
5288 Haze 27 1010 88 10000 2.6 140 16:18 31.12.2019
5289 Haze 27 1010 88 10000 2.6 140 15:56 31.12.2019
5290 Haze 27 1010 88 10000 2.6 140 15:38 31.12.2019
5291 Haze 27 1010 88 10000 3.6 130 15:19 31.12.2019
5292 Haze 27 1010 88 10000 3.6 130 14:55 31.12.2019
5293 Haze 27 1010 88 10000 3.6 130 14:37 31.12.2019
5294 Haze 28 1010 83 10000 3.1 120 14:18 31.12.2019
5295 Haze 28 1010 83 10000 3.1 120 13:56 31.12.2019
5296 Haze 28 1010 83 10000 3.1 120 13:38 31.12.2019
5297 Haze 28 1010 83 10000 2.6 140 13:19 31.12.2019
5298 Haze 28 1010 83 10000 2.6 140 12:55 31.12.2019
5299 Haze 28 1010 83 10000 2.6 140 12:55 31.12.2019
5300 Haze 28 1010 83 10000 2.6 140 12:37 31.12.2019
5301 Haze 28 1010 83 10000 2.6 140 12:37 31.12.2019
5302 Haze 28 1010 83 10000 4.1 150 12:18 31.12.2019
5303 Haze 28 1010 83 10000 4.1 150 11:55 31.12.2019
5304 Haze 28 1010 83 10000 4.1 150 11:36 31.12.2019
5305 Haze 29 1009 79 10000 5.1 160 11:18 31.12.2019
5306 Haze 29 1009 79 10000 5.1 160 10:55 31.12.2019
5307 Haze 29 1009 79 10000 5.1 160 10:37 31.12.2019
5308 Haze 30 1009 70 10000 4.1 160 10:19 31.12.2019
5309 Haze 30 1009 70 10000 4.1 160 09:55 31.12.2019
5310 Haze 30 1009 70 10000 4.1 160 09:37 31.12.2019
5311 Haze 30 1009 70 10000 4.1 160 09:37 31.12.2019
5312 Haze 32 1008 62 10000 5.7 160 09:18 31.12.2019
5313 Haze 32 1008 62 10000 5.7 160 08:42 31.12.2019
5314 Haze 32 1008 62 10000 6.2 180 08:22 31.12.2019
5315 Haze 32 1008 62 10000 6.2 180 07:45 31.12.2019
5316 Haze 33 1008 59 10000 5.1 180 07:22 31.12.2019
5317 Haze 33 1008 59 10000 5.1 180 06:51 31.12.2019
5318 Clear 29 1008 74 0 5.01 168 06:27 31.12.2019
5319 Haze 33 1008 59 10000 3.6 200 04:55 31.12.2019
5320 Haze 34 1009 56 10000 3.6 220 04:25 31.12.2019
5321 Haze 34 1010 56 10000 5.1 200 02:57 31.12.2019
5322 Haze 33 1010 52 10000 4.1 280 02:20 31.12.2019
5323 Haze 33 1010 52 10000 4.1 280 01:49 31.12.2019
5324 Haze 31 1010 62 10000 1.5 0 01:31 31.12.2019
5325 Haze 31 1010 62 10000 1.5 0 00:48 31.12.2019
5326 Haze 28 1010 74 10000 1.5 0 00:24 31.12.2019
5327 Haze 28 1010 74 10000 1.5 0 23:58 30.12.2019
5328 Haze 28 1010 74 10000 1.5 0 23:39 30.12.2019
5329 Haze 24 1010 100 10000 2.1 320 23:21 30.12.2019
5330 Haze 24 1010 100 10000 2.1 320 22:59 30.12.2019
5331 Haze 24 1010 100 10000 2.1 320 22:41 30.12.2019
5332 Clouds 24 1009 94 10000 5.1 310 22:21 30.12.2019
5333 Clouds 24 1009 94 10000 5.1 310 21:57 30.12.2019
5334 Clouds 24 1009 94 10000 5.1 310 21:39 30.12.2019
5335 Clouds 24 1009 94 10000 2.1 300 21:20 30.12.2019
5336 Clouds 24 1009 94 10000 2.1 300 20:58 30.12.2019
5337 Clouds 24 1009 94 10000 2.1 300 20:40 30.12.2019
5338 Clouds 24 1009 94 10000 2.1 20 20:20 30.12.2019
5339 Clouds 27 1009 76 0 3.38 108 19:58 30.12.2019
5340 Clouds 27 1009 76 0 3.38 108 19:38 30.12.2019
5341 Clouds 24 1009 100 10000 2.1 330 19:19 30.12.2019
5342 Clouds 27 1009 76 0 3.38 108 18:58 30.12.2019
5343 Clouds 27 1009 76 0 3.38 108 18:38 30.12.2019
5344 Clouds 24 1009 100 10000 2.6 320 18:20 30.12.2019
5345 Clouds 24 1009 100 10000 2.6 320 17:55 30.12.2019
5346 Clouds 24 1009 100 10000 2.6 320 17:37 30.12.2019
5347 Clouds 25 1009 94 10000 2.6 320 17:18 30.12.2019
5348 Clouds 25 1009 94 10000 2.6 320 16:57 30.12.2019
5349 Clouds 25 1009 94 10000 2.6 320 16:37 30.12.2019
5350 Clouds 28 1010 77 0 4.62 122 16:18 30.12.2019
5351 Clouds 28 1010 77 0 4.62 122 15:55 30.12.2019
5352 Clouds 28 1010 77 0 4.62 122 15:36 30.12.2019
5353 Clouds 28 1010 77 0 4.62 122 15:18 30.12.2019
5354 Clouds 28 1010 77 0 4.62 122 14:42 30.12.2019
5355 Rain 28 1012 76 0 5.47 133 14:19 30.12.2019
5356 Rain 28 1012 76 0 5.47 133 13:56 30.12.2019
5357 Rain 28 1012 76 0 5.47 133 13:37 30.12.2019
5358 Clouds 28 1011 77 0 5.96 134 13:19 30.12.2019
5359 Clouds 28 1011 77 0 5.96 134 12:43 30.12.2019
5360 Clouds 28 1011 77 0 5.96 134 12:20 30.12.2019
5361 Clouds 28 1011 77 0 5.96 134 11:59 30.12.2019
5362 Clouds 28 1011 77 0 5.96 134 11:40 30.12.2019
5363 Clouds 28 1010 77 0 5.32 145 11:19 30.12.2019
5364 Clouds 28 1010 77 0 5.32 145 10:44 30.12.2019
5365 Clouds 30 1009 74 10000 5.7 170 10:22 30.12.2019
5366 Clouds 30 1009 74 10000 5.7 170 10:22 30.12.2019
5367 Clouds 30 1009 74 10000 5.7 170 09:58 30.12.2019
5368 Clouds 30 1009 74 10000 5.7 170 09:40 30.12.2019
5369 Clouds 30 1008 74 10000 5.7 210 09:20 30.12.2019
5370 Clouds 30 1008 74 10000 5.7 210 08:50 30.12.2019
5371 Haze 32 1008 66 10000 10.3 200 08:23 30.12.2019
5372 Haze 32 1008 66 10000 10.3 200 07:56 30.12.2019
5373 Haze 32 1008 66 10000 10.3 200 07:37 30.12.2019
5374 Clouds 32 1008 66 10000 6.2 250 06:52 30.12.2019
5375 Clouds 32 1009 66 10000 2.6 240 04:58 30.12.2019
5376 Clouds 28 1009 74 0 4.11 183 03:57 30.12.2019
5377 Clouds 33 1010 59 10000 3.6 300 02:58 30.12.2019
5378 Clouds 33 1010 59 10000 3.6 300 02:40 30.12.2019
5379 Clouds 32 1011 62 10000 5.1 330 01:50 30.12.2019
5380 Clouds 30 1011 74 10000 5.1 300 01:21 30.12.2019
5381 Clouds 30 1011 74 10000 5.1 300 00:45 30.12.2019
5382 Clouds 30 1011 70 10000 2.6 340 00:19 30.12.2019
5383 Clouds 30 1011 70 10000 2.6 340 23:39 29.12.2019
5384 Clouds 27 1011 83 10000 2.6 300 23:21 29.12.2019
5385 Clouds 27 1011 83 10000 2.6 300 22:54 29.12.2019
5386 Clouds 27 1011 83 10000 2.6 300 22:36 29.12.2019
5387 Clouds 27 1011 83 10000 2.6 300 22:36 29.12.2019
5388 Clouds 24 1010 100 10000 2.6 300 22:18 29.12.2019
5389 Clouds 24 1010 100 10000 2.6 300 21:42 29.12.2019
5390 Rain 27 1012 81 0 2.08 55 21:21 29.12.2019
5391 Rain 27 1012 81 0 2.08 55 20:57 29.12.2019
5392 Rain 27 1012 81 0 2.08 55 20:39 29.12.2019
5393 Clouds 25 1009 94 10000 2.6 320 20:20 29.12.2019
5394 Clouds 25 1009 94 10000 2.6 320 20:20 29.12.2019
5395 Clouds 25 1009 94 10000 2.6 320 20:20 29.12.2019
5396 Clouds 25 1009 94 10000 2.6 320 19:59 29.12.2019
5397 Clouds 25 1009 94 10000 2.6 320 19:40 29.12.2019
5398 Clouds 25 1008 100 10000 1.5 0 19:21 29.12.2019
5399 Clouds 25 1008 100 10000 1.5 0 18:57 29.12.2019
5400 Clouds 25 1008 100 10000 1.5 0 18:38 29.12.2019
5401 Clouds 27 1009 88 10000 1.5 0 18:19 29.12.2019
5402 Clouds 27 1009 88 10000 1.5 0 17:57 29.12.2019
5403 Clouds 27 1009 88 10000 1.5 0 17:39 29.12.2019
5404 Clouds 27 1010 88 10000 1.5 0 17:20 29.12.2019
5405 Clouds 27 1010 88 10000 1.5 0 16:56 29.12.2019
5406 Clouds 27 1010 88 10000 1.5 0 16:37 29.12.2019
5407 Clouds 27 1010 88 10000 1.5 0 16:37 29.12.2019
5408 Clouds 27 1011 88 10000 2.1 140 16:19 29.12.2019
5409 Clouds 27 1011 88 10000 2.1 140 15:56 29.12.2019
5410 Clouds 27 1011 88 10000 2.1 140 15:38 29.12.2019
5411 Clear 28 1011 79 0 4.11 129 15:19 29.12.2019
5412 Clear 28 1011 79 0 4.11 129 14:56 29.12.2019
5413 Clear 28 1011 79 0 4.11 129 14:37 29.12.2019
5414 Rain 28 1012 79 0 4.25 131 14:18 29.12.2019
5415 Rain 28 1012 79 0 4.25 131 13:55 29.12.2019
5416 Rain 28 1012 79 0 4.25 131 13:55 29.12.2019
5417 Rain 28 1012 79 0 4.25 131 13:37 29.12.2019
5418 Rain 28 1011 80 0 5.14 133 13:18 29.12.2019
5419 Rain 28 1011 80 0 5.14 133 12:43 29.12.2019
5420 Rain 28 1011 80 0 5.14 133 12:25 29.12.2019
5421 Rain 28 1011 80 0 5.14 133 11:56 29.12.2019
5422 Rain 28 1011 80 0 5.14 133 11:37 29.12.2019
5423 Rain 28 1011 80 0 5.14 133 11:37 29.12.2019
5424 Rain 28 1011 80 0 5.14 133 11:37 29.12.2019
5425 Rain 28 1010 80 0 5.44 147 11:19 29.12.2019
5426 Rain 28 1010 80 0 5.44 147 10:42 29.12.2019
5427 Smoke 29 1009 79 10000 7.7 170 10:22 29.12.2019
5428 Smoke 29 1009 79 10000 7.7 170 09:56 29.12.2019
5429 Smoke 29 1009 79 10000 7.7 170 09:38 29.12.2019
5430 Smoke 31 1008 70 10000 7.7 180 09:19 29.12.2019
5431 Smoke 31 1008 70 10000 7.7 180 08:46 29.12.2019
5432 Smoke 31 1008 66 10000 7.7 180 08:24 29.12.2019
5433 Smoke 31 1008 66 10000 7.7 180 07:54 29.12.2019
5434 Smoke 32 1008 59 10000 7.7 180 07:28 29.12.2019
5435 Smoke 32 1008 59 10000 7.7 180 06:53 29.12.2019
5436 Smoke 34 1008 52 10000 7.7 160 06:23 29.12.2019
5437 Smoke 34 1008 52 10000 7.7 160 05:50 29.12.2019
5438 Smoke 33 1008 55 10000 7.7 180 04:35 29.12.2019
5439 Clouds 34 1009 56 10000 5.1 230 03:40 29.12.2019
5440 Clouds 32 1010 59 10000 5.1 200 03:19 29.12.2019
5441 Clouds 32 1011 62 10000 5.1 210 02:19 29.12.2019
5442 Clouds 31 1011 66 10000 2.6 150 01:31 29.12.2019
5443 Clouds 31 1011 66 10000 2.6 150 01:31 29.12.2019
5444 Clouds 31 1011 66 10000 2.6 150 00:51 29.12.2019
5445 Clouds 30 1011 70 10000 1.5 0 00:27 29.12.2019
5446 Clouds 30 1011 70 10000 1.5 0 23:57 28.12.2019
5447 Clouds 30 1011 70 10000 1.5 0 23:39 28.12.2019
5448 Clouds 26 1010 88 10000 2.1 0 23:18 28.12.2019
5449 Clouds 26 1010 88 10000 2.1 0 22:39 28.12.2019
5450 Clouds 24 1010 100 10000 2.1 0 22:19 28.12.2019
5451 Clouds 24 1010 100 10000 2.1 0 21:57 28.12.2019
5452 Clouds 24 1010 100 10000 2.1 0 21:38 28.12.2019
5453 Clouds 25 1009 94 10000 3.1 340 21:20 28.12.2019
5454 Clouds 25 1009 94 10000 3.1 340 20:55 28.12.2019
5455 Clouds 25 1009 94 10000 3.1 340 20:36 28.12.2019
5456 Clouds 25 1009 94 10000 2.6 340 20:18 28.12.2019
5457 Clouds 25 1009 94 10000 2.6 340 19:54 28.12.2019
5458 Clouds 25 1009 94 10000 2.6 340 19:36 28.12.2019
5459 Clouds 25 1009 94 10000 2.6 340 19:18 28.12.2019
5460 Clouds 25 1009 94 10000 2.6 340 18:43 28.12.2019
5461 Clouds 25 1010 94 10000 1.5 0 18:20 28.12.2019
5462 Clouds 25 1010 94 10000 1.5 0 17:59 28.12.2019
5463 Clouds 25 1010 94 10000 1.5 0 17:41 28.12.2019
5464 Clouds 27 1010 83 10000 1.5 0 17:21 28.12.2019
5465 Clouds 27 1010 83 10000 1.5 0 16:55 28.12.2019
5466 Clouds 27 1010 83 10000 1.5 0 16:36 28.12.2019
5467 Clouds 27 1010 83 10000 1.5 0 16:36 28.12.2019
5468 Clouds 27 1011 88 10000 2.6 160 16:18 28.12.2019
5469 Clouds 27 1011 88 10000 2.6 160 15:41 28.12.2019
5470 Clouds 28 1011 88 10000 5.1 170 15:21 28.12.2019
5471 Clouds 28 1011 88 10000 5.1 170 15:21 28.12.2019
5472 Clouds 28 1011 88 10000 5.1 170 14:48 28.12.2019
5473 Clouds 28 1011 83 10000 5.1 160 14:26 28.12.2019
5474 Clouds 28 1011 83 10000 5.1 160 13:58 28.12.2019
5475 Clouds 28 1011 83 10000 5.1 160 13:39 28.12.2019
5476 Clouds 28 1010 83 10000 5.1 160 13:20 28.12.2019
5477 Clouds 28 1010 83 10000 5.1 160 12:56 28.12.2019
5478 Clouds 28 1010 83 10000 5.1 160 12:37 28.12.2019
5479 Clouds 28 1010 83 10000 5.1 160 12:19 28.12.2019
5480 Clouds 28 1010 83 10000 5.1 160 11:40 28.12.2019
5481 Clouds 28 1009 78 10000 5.1 160 11:21 28.12.2019
5482 Clouds 28 1009 78 10000 5.1 160 10:55 28.12.2019
5483 Clouds 28 1009 78 10000 5.1 160 10:36 28.12.2019
5484 Smoke 29 1008 70 10000 4.1 160 10:18 28.12.2019
5485 Smoke 29 1008 70 10000 4.1 160 10:18 28.12.2019
5486 Smoke 29 1008 70 10000 4.1 160 09:45 28.12.2019
5487 Rain 28 1010 78 0 4.08 153 09:23 28.12.2019
5488 Rain 28 1010 78 0 4.08 153 08:57 28.12.2019
5489 Rain 28 1010 78 0 4.08 153 08:38 28.12.2019
5490 Clouds 32 1007 66 10000 7.7 210 08:19 28.12.2019
5491 Clouds 32 1007 66 10000 7.7 210 07:41 28.12.2019
5492 Clouds 33 1007 52 10000 7.7 230 06:55 28.12.2019
5493 Clouds 33 1008 52 10000 7.7 240 05:40 28.12.2019
5494 Haze 34 1009 52 10000 9.3 240 03:48 28.12.2019
5495 Smoke 33 1009 52 10000 2.1 0 02:50 28.12.2019
5496 Smoke 32 1010 59 10000 2.6 350 02:19 28.12.2019
5497 Smoke 32 1010 59 10000 2.6 350 01:50 28.12.2019
5498 Haze 30 1011 66 10000 1.5 0 01:21 28.12.2019
5499 Haze 30 1011 66 10000 1.5 0 00:42 28.12.2019
5500 Haze 27 1010 74 10000 4.1 13 00:23 28.12.2019
5501 Haze 27 1010 74 10000 4.1 13 00:23 28.12.2019
5502 Haze 27 1010 74 10000 4.1 13 23:46 27.12.2019
5503 Haze 25 1009 88 10000 4.1 18 23:21 27.12.2019
5504 Haze 25 1009 88 10000 4.1 18 22:59 27.12.2019
5505 Haze 25 1009 88 10000 4.1 18 22:40 27.12.2019
5506 Haze 25 1009 88 10000 4.1 18 22:39 27.12.2019
5507 Clear 27 1010 74 0 2.12 78 22:21 27.12.2019
5508 Clear 27 1010 74 0 2.12 78 21:59 27.12.2019
5509 Clear 27 1010 74 0 2.12 78 21:40 27.12.2019
5510 Clouds 23 1008 100 10000 1.5 0 21:22 27.12.2019
5511 Clouds 23 1008 100 10000 1.5 0 20:42 27.12.2019
5512 Clouds 24 1008 94 10000 1.5 0 20:24 27.12.2019
5513 Clouds 24 1008 94 10000 1.5 0 19:55 27.12.2019
5514 Clouds 24 1008 94 10000 1.5 0 19:36 27.12.2019
5515 Clouds 25 1008 94 10000 1.5 0 19:18 27.12.2019
5516 Clouds 25 1008 94 10000 1.5 0 18:42 27.12.2019
5517 Clouds 25 1009 94 10000 3.1 320 18:24 27.12.2019
5518 Clouds 25 1009 94 10000 3.1 320 17:59 27.12.2019
5519 Clouds 25 1009 94 10000 3.1 320 17:41 27.12.2019
5520 Clouds 25 1009 94 10000 3.1 320 17:20 27.12.2019
5521 Clouds 25 1009 94 10000 3.1 320 16:59 27.12.2019
5522 Clouds 25 1009 94 10000 3.1 320 16:59 27.12.2019
5523 Clouds 25 1009 94 10000 3.1 320 16:39 27.12.2019
5524 Clouds 27 1010 83 10000 1.5 0 16:21 27.12.2019
5525 Clouds 27 1010 83 10000 1.5 0 15:46 27.12.2019
5526 Clouds 27 1010 83 10000 1.5 0 15:24 27.12.2019
5527 Clouds 27 1010 83 10000 1.5 0 14:58 27.12.2019
5528 Clouds 27 1010 83 10000 1.5 0 14:40 27.12.2019
5529 Clouds 27 1010 88 10000 1.5 0 14:21 27.12.2019
5530 Clouds 27 1010 88 10000 1.5 0 13:57 27.12.2019
5531 Clouds 27 1010 88 10000 1.5 0 13:39 27.12.2019
5532 Clouds 27 1010 88 10000 1.5 0 13:39 27.12.2019
5533 Clouds 27 1010 88 10000 1.5 0 13:39 27.12.2019
5534 Clouds 28 1010 83 10000 3.6 150 13:21 27.12.2019
5535 Clouds 28 1010 83 10000 3.6 150 12:44 27.12.2019
5536 Clouds 28 1009 83 10000 3.6 150 12:25 27.12.2019
5537 Clouds 28 1009 83 10000 3.6 150 11:55 27.12.2019
5538 Clouds 28 1009 83 10000 3.6 150 11:37 27.12.2019
5539 Clouds 28 1009 83 10000 3.6 160 11:18 27.12.2019
5540 Clouds 28 1009 83 10000 3.6 160 10:41 27.12.2019
5541 Haze 29 1007 74 10000 7.7 190 10:23 27.12.2019
5542 Haze 29 1007 74 10000 7.7 190 09:49 27.12.2019
5543 Haze 31 1007 70 10000 7.7 190 09:22 27.12.2019
5544 Haze 31 1007 70 10000 7.7 190 08:59 27.12.2019
5545 Haze 31 1007 70 10000 7.7 190 08:38 27.12.2019
5546 Haze 32 1006 66 10000 7.7 190 07:57 27.12.2019
5547 Haze 32 1006 66 10000 7.7 190 07:38 27.12.2019
5548 Haze 33 1006 59 10000 10.3 180 06:39 27.12.2019
5549 Haze 33 1006 52 10000 10.3 220 06:18 27.12.2019
5550 Haze 33 1008 59 10000 7.7 220 04:20 27.12.2019
5551 Haze 32 1009 59 10000 4.1 300 02:25 27.12.2019
5552 Haze 32 1009 59 10000 4.1 300 01:42 27.12.2019
5553 Haze 31 1010 70 10000 4.1 360 01:20 27.12.2019
5554 Haze 31 1010 70 10000 4.1 360 00:46 27.12.2019
5555 Haze 28 1010 83 10000 4.1 360 00:24 27.12.2019
5556 Haze 28 1010 83 10000 4.1 360 00:24 27.12.2019
5557 Haze 28 1010 83 10000 4.1 360 23:42 26.12.2019
5558 Haze 26 1009 94 10000 4.1 320 23:23 26.12.2019
5559 Haze 26 1009 94 10000 4.1 320 22:57 26.12.2019
5560 Haze 26 1009 94 10000 4.1 320 22:37 26.12.2019
5561 Haze 25 1009 94 10000 1.02 23 22:18 26.12.2019
5562 Haze 25 1009 94 10000 1.02 23 21:39 26.12.2019
5563 Haze 25 1009 94 10000 1.02 23 21:39 26.12.2019
5564 Clouds 25 1008 94 10000 1.02 23 21:21 26.12.2019
5565 Clouds 25 1008 94 10000 1.02 23 21:21 26.12.2019
5566 Clouds 25 1008 94 10000 1.02 23 20:47 26.12.2019
5567 Clouds 27 1010 77 0 1.15 29 20:23 26.12.2019
5568 Clouds 27 1009 79 0 0.42 144 19:59 26.12.2019
5569 Clouds 27 1009 79 0 0.42 144 19:40 26.12.2019
5570 Clouds 27 1009 79 0 0.42 144 19:22 26.12.2019
5571 Clouds 27 1009 79 0 0.42 144 18:58 26.12.2019
5572 Clouds 27 1009 79 0 0.42 144 18:40 26.12.2019
5573 Clouds 27 1009 79 0 0.42 144 18:19 26.12.2019
5574 Clouds 27 1009 79 0 0.42 144 17:57 26.12.2019
5575 Clouds 27 1009 79 0 0.42 144 17:38 26.12.2019
5576 Clouds 27 1009 79 0 0.42 144 17:38 26.12.2019
5577 Clouds 27 1009 77 0 1.56 52 17:18 26.12.2019
5578 Clouds 27 1009 77 0 1.56 52 16:43 26.12.2019
5579 Clouds 27 1009 77 0 1.56 52 16:23 26.12.2019
5580 Clouds 27 1009 77 0 1.56 52 15:56 26.12.2019
5581 Clouds 27 1009 77 0 1.56 52 15:37 26.12.2019
5582 Clouds 27 1009 77 0 1.56 52 15:18 26.12.2019
5583 Clouds 27 1009 77 0 1.56 52 14:40 26.12.2019
5584 Clouds 28 1010 70 0 1.05 159 14:21 26.12.2019
5585 Clouds 28 1010 70 0 1.05 159 13:43 26.12.2019
5586 Clouds 28 1010 75 0 2.23 171 13:21 26.12.2019
5587 Clouds 28 1010 75 0 2.23 171 12:58 26.12.2019
5588 Clouds 28 1010 75 0 2.23 171 12:58 26.12.2019
5589 Clouds 28 1010 75 0 2.23 171 12:39 26.12.2019
5590 Clouds 28 1010 75 0 2.23 171 12:20 26.12.2019
5591 Clouds 28 1010 75 0 2.23 171 11:57 26.12.2019
5592 Clouds 28 1010 75 0 2.23 171 11:38 26.12.2019
5593 Clouds 28 1008 74 0 1.85 191 11:20 26.12.2019
5594 Clouds 28 1008 74 0 1.85 191 10:47 26.12.2019
5595 Haze 29 1007 79 10000 5.1 200 10:19 26.12.2019
5596 Haze 29 1007 79 10000 5.1 200 09:50 26.12.2019
5597 Haze 30 1007 74 10000 7.7 200 09:31 26.12.2019
5598 Haze 30 1007 74 10000 7.7 200 08:43 26.12.2019
5599 Haze 31 1006 70 10000 7.7 180 08:24 26.12.2019
5600 Haze 31 1006 70 10000 7.7 180 07:53 26.12.2019
5601 Haze 32 1007 66 10000 9.3 190 07:28 26.12.2019
5602 Haze 32 1007 66 10000 9.3 190 06:53 26.12.2019
5603 Haze 32 1007 66 10000 9.3 200 06:32 26.12.2019
5604 Haze 32 1007 66 10000 9.3 200 05:45 26.12.2019
5605 Haze 33 1008 63 10000 11.3 210 04:57 26.12.2019
5606 Haze 34 1008 59 10000 8.2 210 04:30 26.12.2019
5607 Haze 33 1009 63 10000 7.7 220 02:58 26.12.2019
5608 Haze 33 1009 63 10000 7.7 220 02:34 26.12.2019
5609 Haze 32 1010 66 10000 5.7 350 01:50 26.12.2019
5610 Haze 31 1010 74 10000 3.6 330 01:32 26.12.2019
5611 Haze 31 1010 74 10000 3.6 330 00:50 26.12.2019
5612 Smoke 29 1010 83 10000 3.6 330 00:27 26.12.2019
5613 Smoke 29 1010 83 10000 3.6 330 23:58 25.12.2019
5614 Smoke 29 1010 83 10000 3.6 330 23:39 25.12.2019
5615 Smoke 26 1010 94 10000 2.6 340 23:21 25.12.2019
5616 Smoke 26 1010 94 10000 2.6 340 22:59 25.12.2019
5617 Smoke 26 1010 94 10000 2.6 340 22:39 25.12.2019
5618 Clouds 25 1009 100 10000 1.5 0 22:21 25.12.2019
5619 Clouds 25 1009 100 10000 1.5 0 21:58 25.12.2019
5620 Clouds 25 1009 100 10000 1.5 0 21:39 25.12.2019
5621 Clear 27 1010 83 0 3.89 90 21:20 25.12.2019
5622 Clear 27 1010 83 0 3.89 90 20:56 25.12.2019
5623 Clear 27 1010 83 0 3.89 90 20:38 25.12.2019
5624 Clouds 25 1007 100 10000 2.1 0 20:18 25.12.2019
5625 Clouds 25 1007 100 10000 2.1 0 20:18 25.12.2019
5626 Clouds 25 1007 100 10000 2.1 0 20:18 25.12.2019
5627 Clouds 25 1007 100 10000 2.1 0 19:43 25.12.2019
5628 Clouds 27 1008 83 0 3.69 144 19:24 25.12.2019
5629 Clouds 27 1008 83 0 3.69 144 18:58 25.12.2019
5630 Clouds 27 1008 83 0 3.69 144 18:36 25.12.2019
5631 Clouds 25 1007 100 10000 1.5 280 18:18 25.12.2019
5632 Clouds 25 1007 100 10000 1.5 280 17:41 25.12.2019
5633 Clouds 26 1007 94 10000 2.6 320 17:19 25.12.2019
5634 Clouds 26 1007 94 10000 2.6 320 16:57 25.12.2019
5635 Clouds 26 1007 94 10000 2.6 320 16:37 25.12.2019
5636 Haze 26 1008 100 10000 3.1 0 16:18 25.12.2019
5637 Haze 26 1008 100 10000 3.1 0 15:56 25.12.2019
5638 Haze 26 1008 100 10000 3.1 0 15:38 25.12.2019
5639 Haze 26 1008 100 10000 3.1 0 15:38 25.12.2019
5640 Haze 26 1008 100 10000 3.1 0 15:38 25.12.2019
5641 Clouds 28 1008 80 0 2 106 15:19 25.12.2019
5642 Clouds 28 1008 80 0 2 106 15:19 25.12.2019
5643 Clouds 28 1008 80 0 2 106 14:56 25.12.2019
5644 Clouds 28 1008 80 0 2 106 14:37 25.12.2019
5645 Haze 27 1009 94 10000 2.1 120 14:19 25.12.2019
5646 Haze 27 1009 94 10000 2.1 120 13:42 25.12.2019
5647 Haze 28 1009 88 10000 2.1 160 13:21 25.12.2019
5648 Haze 28 1009 88 10000 2.1 160 12:55 25.12.2019
5649 Haze 28 1009 88 10000 2.1 160 12:36 25.12.2019
5650 Haze 28 1008 88 10000 4.6 170 12:18 25.12.2019
5651 Haze 28 1008 88 10000 4.6 170 11:42 25.12.2019
5652 Clouds 28 1008 81 0 5.87 151 11:22 25.12.2019
5653 Clouds 28 1008 81 0 5.87 151 10:41 25.12.2019
5654 Haze 29 1007 79 10000 7.7 160 10:22 25.12.2019
5655 Haze 29 1007 79 10000 7.7 160 09:59 25.12.2019
5656 Haze 29 1007 79 10000 7.7 160 09:41 25.12.2019
5657 Haze 30 1006 74 10000 7.7 160 09:23 25.12.2019
5658 Haze 30 1006 74 10000 7.7 160 08:44 25.12.2019
5659 Haze 32 1005 70 10000 10.3 140 08:24 25.12.2019
5660 Haze 32 1005 70 10000 10.3 140 07:44 25.12.2019
5661 Haze 32 1006 66 10000 10.3 150 07:23 25.12.2019
5662 Haze 32 1006 70 10000 7.7 200 06:24 25.12.2019
5663 Haze 32 1006 70 10000 7.7 200 05:51 25.12.2019
5664 Haze 32 1007 70 10000 7.7 210 04:46 25.12.2019
5665 Haze 32 1007 70 10000 7.7 210 04:24 25.12.2019
5666 Haze 32 1007 70 10000 7.7 210 03:44 25.12.2019
5667 Haze 32 1007 70 10000 7.7 210 03:44 25.12.2019
5668 Haze 32 1008 75 10000 4.6 250 03:18 25.12.2019
5669 Haze 30 1009 79 10000 5.1 220 02:30 25.12.2019
5670 Haze 30 1009 79 10000 5.1 220 01:53 25.12.2019
5671 Haze 31 1010 74 10000 5.1 310 01:22 25.12.2019
5672 Haze 31 1010 74 10000 5.1 310 00:42 25.12.2019
5673 Haze 30 1010 79 10000 4.1 300 00:23 25.12.2019
5674 Haze 30 1010 79 10000 4.1 300 23:40 24.12.2019
5675 Haze 27 1010 94 10000 1.5 0 23:20 24.12.2019
5676 Haze 27 1010 94 10000 1.5 0 22:42 24.12.2019
5677 Haze 25 1009 100 10000 1.5 0 22:24 24.12.2019
5678 Haze 25 1009 100 10000 1.5 0 21:59 24.12.2019
5679 Haze 25 1009 100 10000 1.5 0 21:41 24.12.2019
5680 Haze 25 1009 100 10000 1.5 0 21:41 24.12.2019
5681 Clouds 26 1008 94 10000 2.6 320 21:20 24.12.2019
5682 Clouds 26 1008 94 10000 2.6 320 20:42 24.12.2019
5683 Clouds 25 1008 100 10000 2.6 320 20:23 24.12.2019
5684 Clouds 25 1008 100 10000 2.6 320 19:55 24.12.2019
5685 Clouds 25 1008 100 10000 2.6 320 19:37 24.12.2019
5686 Clouds 25 1008 100 10000 2.6 320 19:18 24.12.2019
5687 Clouds 25 1008 100 10000 2.6 320 19:18 24.12.2019
5688 Clouds 25 1008 100 10000 2.6 320 18:42 24.12.2019
5689 Clouds 26 1008 94 10000 5.1 320 18:18 24.12.2019
5690 Clouds 26 1008 94 10000 5.1 320 17:44 24.12.2019
5691 Clouds 27 1009 88 10000 1 0 17:22 24.12.2019
5692 Clouds 27 1009 88 10000 1 0 16:58 24.12.2019
5693 Clouds 27 1009 88 10000 1 0 16:39 24.12.2019
5694 Clouds 27 1009 88 10000 2.6 190 16:21 24.12.2019
5695 Clouds 27 1009 88 10000 2.6 190 15:57 24.12.2019
5696 Clouds 27 1009 88 10000 2.6 190 15:37 24.12.2019
5697 Clouds 27 1009 88 10000 5.1 140 15:19 24.12.2019
5698 Clouds 27 1009 88 10000 5.1 140 14:58 24.12.2019
5699 Clouds 27 1009 88 10000 5.1 140 14:39 24.12.2019
5700 Clouds 28 1009 83 10000 6.2 160 14:21 24.12.2019
5701 Clouds 28 1009 83 10000 6.2 160 14:21 24.12.2019
5702 Clouds 28 1009 83 10000 6.2 160 13:56 24.12.2019
5703 Clouds 28 1009 83 10000 6.2 160 13:37 24.12.2019
5704 Clouds 28 1009 83 10000 6.2 160 13:37 24.12.2019
5705 Clouds 28 1009 88 10000 7.7 160 13:19 24.12.2019
5706 Clouds 28 1009 88 10000 7.7 160 13:19 24.12.2019
5707 Clouds 28 1009 88 10000 7.7 160 12:56 24.12.2019
5708 Clouds 28 1009 88 10000 7.7 160 12:56 24.12.2019
5709 Clouds 28 1009 88 10000 7.7 160 12:37 24.12.2019
5710 Clouds 28 1009 88 10000 7.7 150 12:19 24.12.2019
5711 Clouds 28 1009 88 10000 7.7 150 11:55 24.12.2019
5712 Clouds 28 1009 88 10000 7.7 150 11:37 24.12.2019
5713 Clouds 28 1008 88 10000 10.3 160 11:18 24.12.2019
5714 Clouds 28 1008 88 10000 10.3 160 10:56 24.12.2019
5715 Clouds 28 1008 88 10000 10.3 160 10:37 24.12.2019
5716 Clouds 28 1008 88 10000 10.3 160 10:37 24.12.2019
5717 Clouds 28 1008 83 10000 5.1 170 10:19 24.12.2019
5718 Clouds 28 1008 83 10000 5.1 170 09:55 24.12.2019
5719 Clouds 28 1008 83 10000 5.1 170 09:37 24.12.2019
5720 Haze 30 1007 74 10000 5.1 150 09:18 24.12.2019
5721 Haze 30 1007 74 10000 5.1 150 08:44 24.12.2019
5722 Haze 31 1006 70 10000 10.8 170 08:20 24.12.2019
5723 Haze 31 1006 70 10000 10.8 170 07:46 24.12.2019
5724 Haze 33 1006 59 10000 5.1 150 07:25 24.12.2019
5725 Haze 33 1006 59 10000 5.1 150 06:58 24.12.2019
5726 Haze 33 1006 59 10000 5.1 150 06:38 24.12.2019
5727 Haze 32 1007 66 10000 5.1 160 06:18 24.12.2019
5728 Haze 33 1008 63 10000 2.6 150 05:20 24.12.2019
5729 Haze 33 1008 63 10000 2.6 150 04:44 24.12.2019
5730 Haze 33 1008 63 10000 7.7 170 03:50 24.12.2019
5731 Haze 33 1008 63 10000 6.7 210 02:59 24.12.2019
5732 Haze 32 1009 62 10000 4.1 200 02:21 24.12.2019
5733 Haze 32 1009 62 10000 4.1 200 01:50 24.12.2019
5734 Haze 30 1009 66 10000 4.1 320 01:20 24.12.2019
5735 Haze 30 1009 66 10000 4.1 320 00:43 24.12.2019
5736 Haze 27 1009 78 10000 2.6 350 00:23 24.12.2019
5737 Haze 27 1009 78 10000 2.6 350 23:55 23.12.2019
5738 Haze 27 1009 78 10000 2.6 350 23:37 23.12.2019
5739 Clouds 25 1009 94 10000 5.1 310 23:19 23.12.2019
5740 Clouds 25 1009 94 10000 5.1 310 22:54 23.12.2019
5741 Clouds 25 1009 94 10000 5.1 310 22:36 23.12.2019
5742 Clouds 25 1008 94 10000 5.1 330 22:18 23.12.2019
5743 Clouds 25 1008 94 10000 5.1 330 22:18 23.12.2019
5744 Clouds 25 1008 94 10000 5.1 330 21:54 23.12.2019
5745 Clouds 25 1008 94 10000 5.1 330 21:36 23.12.2019
5746 Clouds 27 1009 78 0 5 119 21:18 23.12.2019
5747 Clouds 27 1009 78 0 5 119 21:18 23.12.2019
5748 Clouds 27 1009 78 0 5 119 20:55 23.12.2019
5749 Clouds 27 1009 78 0 5 119 20:37 23.12.2019
5750 Clouds 27 1009 80 0 5.55 123 20:18 23.12.2019
5751 Clouds 27 1009 80 0 5.55 123 20:18 23.12.2019
5752 Rain 27 1009 79 0 4.17 117 19:54 23.12.2019
5753 Rain 27 1009 79 0 4.17 117 19:36 23.12.2019
5754 Rain 27 1009 79 0 4.17 117 19:18 23.12.2019
5755 Rain 27 1009 79 0 4.17 117 18:54 23.12.2019
5756 Rain 27 1009 79 0 4.17 117 18:36 23.12.2019
5757 Rain 27 1009 79 0 4.17 117 18:18 23.12.2019
5758 Rain 27 1009 79 0 4.17 117 17:41 23.12.2019
5759 Clear 28 1009 81 0 6.27 127 17:20 23.12.2019
5760 Clear 28 1009 81 0 6.27 127 16:59 23.12.2019
5761 Clear 28 1009 81 0 6.27 127 16:40 23.12.2019
5762 Clear 28 1009 81 0 6.27 127 16:19 23.12.2019
5763 Clear 28 1009 81 0 6.27 127 15:58 23.12.2019
5764 Clear 28 1009 81 0 6.27 127 15:37 23.12.2019
5765 Clear 28 1009 81 0 6.27 127 15:19 23.12.2019
5766 Clear 28 1009 81 0 6.27 127 14:57 23.12.2019
5767 Clear 28 1009 81 0 6.27 127 14:39 23.12.2019
5768 Clear 28 1009 81 0 6.27 127 14:39 23.12.2019
5769 Rain 28 1011 80 0 8.68 134 14:19 23.12.2019
5770 Rain 28 1011 80 0 8.68 134 14:19 23.12.2019
5771 Rain 28 1011 80 0 8.68 134 13:57 23.12.2019
5772 Rain 28 1011 80 0 8.68 134 13:39 23.12.2019
5773 Rain 28 1011 80 0 8.68 134 13:39 23.12.2019
5774 Clear 28 1011 80 0 8.68 134 13:20 23.12.2019
5775 Clear 28 1011 80 0 8.68 134 13:20 23.12.2019
5776 Clear 28 1011 80 0 8.68 134 12:55 23.12.2019
5777 Clear 28 1011 80 0 8.68 134 12:36 23.12.2019
5778 Clear 28 1011 80 0 8.68 134 12:18 23.12.2019
5779 Clear 28 1011 80 0 8.68 134 12:18 23.12.2019
5780 Clear 28 1011 80 0 8.68 134 11:42 23.12.2019
5781 Clear 28 1011 80 0 8.68 134 11:42 23.12.2019
5782 Clear 28 1011 80 0 8.68 134 11:42 23.12.2019
5783 Clear 28 1011 80 0 8.68 134 11:24 23.12.2019
5784 Clear 28 1009 81 0 9.45 145 10:56 23.12.2019
5785 Clear 28 1009 81 0 9.45 145 10:38 23.12.2019
5786 Haze 29 1007 79 10000 10.3 160 10:20 23.12.2019
5787 Haze 29 1007 79 10000 10.3 160 09:58 23.12.2019
5788 Haze 29 1007 79 10000 10.3 160 09:39 23.12.2019
5789 Haze 29 1007 79 10000 10.3 160 09:39 23.12.2019
5790 Haze 29 1006 74 10000 12.9 140 09:19 23.12.2019
5791 Haze 29 1006 74 10000 12.9 140 08:55 23.12.2019
5792 Haze 29 1006 74 10000 12.9 140 08:37 23.12.2019
5793 Haze 30 1006 70 10000 14.4 150 08:18 23.12.2019
5794 Haze 30 1006 70 10000 14.4 150 07:42 23.12.2019
5795 Clear 28 1006 81 0 9.2 149 07:19 23.12.2019
5796 Clear 28 1006 81 0 9.2 149 06:43 23.12.2019
5797 Haze 33 1007 63 10000 11.3 170 06:22 23.12.2019
5798 Haze 33 1007 63 10000 11.3 170 05:46 23.12.2019
5799 Haze 33 1008 59 10000 9.3 150 04:55 23.12.2019
5800 Haze 32 1008 66 10000 7.7 160 03:59 23.12.2019
5801 Clouds 32 1009 66 10000 7.7 180 02:48 23.12.2019
5802 Clouds 32 1009 62 10000 5.7 160 02:20 23.12.2019
5803 Clouds 32 1009 62 10000 5.7 160 01:51 23.12.2019
5804 Clouds 30 1009 66 10000 1.5 0 01:32 23.12.2019
5805 Clouds 30 1009 66 10000 1.5 0 00:49 23.12.2019
5806 Clouds 28 1010 76 0 5.67 138 00:30 23.12.2019
5807 Clouds 28 1010 76 0 5.67 138 23:57 22.12.2019
5808 Clouds 28 1010 76 0 5.67 138 23:57 22.12.2019
5809 Clouds 28 1010 76 0 5.67 138 23:37 22.12.2019
5810 Clouds 27 1009 78 0 5.51 118 23:19 22.12.2019
5811 Clouds 27 1009 78 0 5.51 118 22:55 22.12.2019
5812 Clouds 27 1009 78 0 5.51 118 22:37 22.12.2019
5813 Clouds 27 1009 78 0 5.51 118 22:18 22.12.2019
5814 Clouds 27 1009 78 0 5.51 118 21:54 22.12.2019
5815 Clouds 27 1009 78 0 5.51 118 21:36 22.12.2019
5816 Clouds 24 1007 94 10000 1.5 0 21:18 22.12.2019
5817 Clouds 24 1007 94 10000 1.5 0 20:40 22.12.2019
5818 Clouds 27 1008 81 0 7.27 124 20:19 22.12.2019
5819 Clouds 27 1008 81 0 7.27 124 19:57 22.12.2019
5820 Clouds 27 1008 81 0 7.27 124 19:39 22.12.2019
5821 Clouds 24 1007 94 10000 2.6 350 19:20 22.12.2019
5822 Clouds 24 1007 94 10000 2.6 350 18:44 22.12.2019
5823 Clouds 27 1008 81 0 7.27 124 18:25 22.12.2019
5824 Clouds 27 1008 81 0 7.27 124 17:58 22.12.2019
5825 Clouds 27 1008 81 0 7.27 124 17:39 22.12.2019
5826 Clouds 28 1008 80 0 7.38 127 17:19 22.12.2019
5827 Clouds 28 1008 80 0 7.38 127 16:59 22.12.2019
5828 Clouds 28 1008 80 0 7.38 127 16:41 22.12.2019
5829 Clouds 26 1008 88 10000 1.5 0 16:22 22.12.2019
5830 Clouds 26 1008 88 10000 1.5 0 16:22 22.12.2019
5831 Clouds 26 1008 88 10000 1.5 0 15:57 22.12.2019
5832 Clouds 26 1008 88 10000 1.5 0 15:39 22.12.2019
5833 Clouds 26 1008 88 10000 1.5 0 15:39 22.12.2019
5834 Clouds 27 1009 83 10000 1.5 0 15:20 22.12.2019
5835 Clouds 28 1008 80 0 7.38 127 14:56 22.12.2019
5836 Clouds 28 1008 80 0 7.38 127 14:38 22.12.2019
5837 Clouds 28 1009 83 10000 6.2 160 14:19 22.12.2019
5838 Clouds 28 1009 83 10000 6.2 160 13:55 22.12.2019
5839 Clouds 28 1009 83 10000 6.2 160 13:37 22.12.2019
5840 Clouds 28 1009 83 10000 4.1 140 13:19 22.12.2019
5841 Clouds 28 1009 83 10000 4.1 140 13:19 22.12.2019
5842 Clouds 28 1009 83 10000 4.1 140 13:19 22.12.2019
5843 Clouds 28 1009 83 10000 4.1 140 12:56 22.12.2019
5844 Clouds 28 1009 83 10000 4.1 140 12:38 22.12.2019
5845 Clouds 28 1009 88 10000 2.6 100 12:19 22.12.2019
5846 Clouds 28 1010 80 0 8.25 130 11:56 22.12.2019
5847 Clouds 28 1010 80 0 8.25 130 11:56 22.12.2019
5848 Clouds 28 1010 80 0 8.25 130 11:38 22.12.2019
5849 Clouds 28 1008 83 10000 7.7 150 11:19 22.12.2019
5850 Clouds 28 1008 83 10000 7.7 150 10:55 22.12.2019
5851 Clouds 28 1008 83 10000 7.7 150 10:37 22.12.2019
5852 Clouds 28 1008 83 10000 7.7 150 10:18 22.12.2019
5853 Clouds 28 1008 79 0 7.9 138 09:57 22.12.2019
5854 Clouds 28 1008 79 0 7.9 138 09:38 22.12.2019
5855 Haze 30 1007 70 10000 10.3 180 09:20 22.12.2019
5856 Haze 30 1007 70 10000 10.3 180 08:42 22.12.2019
5857 Clouds 28 1006 79 0 6.16 153 08:21 22.12.2019
5858 Clouds 28 1006 79 0 6.16 153 07:40 22.12.2019
5859 Haze 32 1006 62 10000 10.3 190 07:21 22.12.2019
5860 Haze 32 1006 62 10000 10.3 190 06:42 22.12.2019
5861 Clouds 28 1006 79 0 6.16 153 06:21 22.12.2019
5862 Clouds 32 1007 62 10000 9.3 210 05:29 22.12.2019
5863 Clouds 33 1008 59 10000 7.7 210 04:31 22.12.2019
5864 Clouds 33 1008 59 10000 7.7 210 03:58 22.12.2019
5865 Clouds 32 1008 66 10000 7.7 200 02:43 22.12.2019
5866 Clouds 32 1008 66 10000 7.7 200 02:43 22.12.2019
5867 Haze 32 1009 55 10000 3.6 180 01:54 22.12.2019
5868 Haze 31 1009 62 10000 3.6 280 01:31 22.12.2019
5869 Haze 31 1009 62 10000 3.6 280 00:48 22.12.2019
5870 Clouds 28 1009 78 10000 1.5 0 00:26 22.12.2019
5871 Clouds 28 1009 78 10000 1.5 0 23:57 21.12.2019
5872 Clouds 28 1009 78 10000 1.5 0 23:38 21.12.2019
5873 Clouds 26 1009 88 10000 1 300 23:19 21.12.2019
5874 Clouds 26 1009 88 10000 1 300 22:45 21.12.2019
5875 Clouds 24 1008 94 10000 1 0 22:20 21.12.2019
5876 Clouds 24 1008 94 10000 1 0 21:57 21.12.2019
5877 Clouds 24 1008 94 10000 1 0 21:38 21.12.2019
5878 Rain 27 1010 79 0 4.05 107 21:20 21.12.2019
5879 Rain 27 1010 79 0 4.05 107 20:59 21.12.2019
5880 Rain 27 1010 79 0 4.05 107 20:39 21.12.2019
5881 Rain 27 1008 81 0 5.82 116 20:21 21.12.2019
5882 Rain 27 1008 81 0 5.82 116 19:58 21.12.2019
5883 Rain 27 1008 81 0 5.82 116 19:40 21.12.2019
5884 Rain 27 1008 81 0 5.82 116 19:40 21.12.2019
5885 Rain 27 1008 81 0 5.82 116 19:19 21.12.2019
5886 Rain 27 1008 81 0 5.82 116 18:45 21.12.2019
5887 Rain 27 1008 81 0 5.82 116 18:24 21.12.2019
5888 Rain 27 1008 81 0 5.82 116 17:58 21.12.2019
5889 Rain 27 1008 81 0 5.82 116 17:39 21.12.2019
5890 Rain 27 1009 79 0 5.81 108 17:21 21.12.2019
5891 Rain 27 1009 79 0 5.81 108 16:59 21.12.2019
5892 Rain 27 1009 79 0 5.81 108 16:41 21.12.2019
5893 Clouds 25 1009 88 10000 1.5 0 16:19 21.12.2019
5894 Clouds 25 1009 88 10000 1.5 0 15:57 21.12.2019
5895 Clouds 25 1009 88 10000 1.5 0 15:38 21.12.2019
5896 Clouds 26 1009 88 10000 2.6 150 15:19 21.12.2019
5897 Clouds 26 1009 88 10000 2.6 150 15:19 21.12.2019
5898 Clouds 26 1009 88 10000 2.6 150 14:56 21.12.2019
5899 Clouds 26 1009 88 10000 2.6 150 14:37 21.12.2019
5900 Haze 27 1009 88 10000 2.6 150 14:18 21.12.2019
5901 Haze 27 1009 88 10000 2.6 150 13:55 21.12.2019
5902 Haze 27 1009 88 10000 2.6 150 13:37 21.12.2019
5903 Haze 27 1009 94 10000 5.1 180 13:18 21.12.2019
5904 Haze 27 1009 94 10000 5.1 180 12:54 21.12.2019
5905 Haze 27 1009 94 10000 5.1 180 12:36 21.12.2019
5906 Haze 28 1009 83 10000 5.1 180 12:18 21.12.2019
5907 Haze 28 1009 83 10000 5.1 180 11:41 21.12.2019
5908 Haze 28 1008 83 10000 5.1 180 11:23 21.12.2019
5909 Haze 28 1008 83 10000 5.1 180 10:54 21.12.2019
5910 Haze 28 1008 83 10000 5.1 180 10:36 21.12.2019
5911 Haze 29 1008 79 10000 7.7 170 10:18 21.12.2019
5912 Haze 29 1008 79 10000 7.7 170 09:42 21.12.2019
5913 Clouds 31 1007 70 10000 9.3 170 09:20 21.12.2019
5914 Clouds 31 1007 70 10000 9.3 170 08:56 21.12.2019
5915 Clouds 31 1007 70 10000 9.3 170 08:37 21.12.2019
5916 Clear 28 1006 77 0 5.97 162 08:18 21.12.2019
5917 Clear 28 1006 77 0 5.97 162 07:41 21.12.2019
5918 Clouds 31 1006 70 10000 9.3 170 07:21 21.12.2019
5919 Clouds 31 1006 70 10000 9.3 170 06:43 21.12.2019
5920 Clouds 32 1007 62 10000 7.7 180 06:25 21.12.2019
5921 Clouds 32 1007 62 10000 7.7 180 05:47 21.12.2019
5922 Clouds 33 1007 63 10000 7.7 200 04:57 21.12.2019
5923 Smoke 33 1008 63 10000 5.1 200 03:56 21.12.2019
5924 Smoke 32 1009 62 10000 4.6 200 02:40 21.12.2019
5925 Smoke 31 1009 62 10000 2.1 0 01:53 21.12.2019
5926 Smoke 30 1009 70 10000 2.1 0 01:27 21.12.2019
5927 Smoke 30 1009 70 10000 2.1 0 00:50 21.12.2019
5928 Smoke 28 1009 74 10000 2.1 0 00:28 21.12.2019
5929 Smoke 28 1009 74 10000 2.1 0 23:55 20.12.2019
5930 Smoke 28 1009 74 10000 2.1 0 23:36 20.12.2019
5931 Smoke 24 1009 94 10000 2.6 320 23:18 20.12.2019
5932 Smoke 24 1009 94 10000 2.6 320 22:40 20.12.2019
5933 Smoke 23 1008 100 10000 2.6 340 22:20 20.12.2019
5934 Smoke 23 1008 100 10000 2.6 340 21:56 20.12.2019
5935 Smoke 23 1008 100 10000 2.6 340 21:38 20.12.2019
5936 Haze 23 1008 100 10000 2.6 310 21:18 20.12.2019
5937 Haze 23 1008 100 10000 2.6 310 20:39 20.12.2019
5938 Haze 23 1008 100 10000 2.6 310 20:39 20.12.2019
5939 Haze 23 1007 94 10000 2.6 330 20:19 20.12.2019
5940 Haze 23 1007 94 10000 2.6 330 19:57 20.12.2019
5941 Haze 23 1007 94 10000 2.6 330 19:38 20.12.2019
5942 Haze 23 1007 94 10000 1.5 330 19:19 20.12.2019
5943 Haze 23 1007 94 10000 1.5 330 18:42 20.12.2019
5944 Haze 23 1007 100 10000 1.5 0 18:23 20.12.2019
5945 Haze 23 1007 100 10000 1.5 0 17:58 20.12.2019
5946 Haze 23 1007 100 10000 1.5 0 17:40 20.12.2019
5947 Haze 25 1007 88 10000 2.6 140 17:20 20.12.2019
5948 Haze 25 1007 88 10000 2.6 140 16:57 20.12.2019
5949 Haze 25 1007 88 10000 2.6 140 16:38 20.12.2019
5950 Clouds 27 1008 76 0 7.7 128 16:19 20.12.2019
5951 Clouds 27 1008 76 0 7.7 128 15:55 20.12.2019
5952 Clouds 27 1008 76 0 7.7 128 15:37 20.12.2019
5953 Clouds 26 1008 83 10000 2.6 130 15:18 20.12.2019
5954 Clouds 26 1008 83 10000 2.6 130 14:42 20.12.2019
5955 Clouds 26 1009 88 10000 7.7 150 14:24 20.12.2019
5956 Clouds 26 1009 88 10000 7.7 150 13:57 20.12.2019
5957 Clouds 26 1009 88 10000 7.7 150 13:37 20.12.2019
5958 Clouds 27 1008 83 10000 7.7 150 13:19 20.12.2019
5959 Clouds 27 1008 83 10000 7.7 150 12:55 20.12.2019
5960 Clouds 27 1008 83 10000 7.7 150 12:36 20.12.2019
5961 Clouds 27 1008 83 10000 7.7 150 12:18 20.12.2019
5962 Clouds 27 1008 83 10000 7.7 150 11:57 20.12.2019
5963 Clouds 27 1008 83 10000 7.7 150 11:38 20.12.2019
5964 Clouds 28 1008 77 0 8.6 145 11:18 20.12.2019
5965 Clouds 28 1008 77 0 8.6 145 10:55 20.12.2019
5966 Clouds 28 1008 77 0 8.6 145 10:37 20.12.2019
5967 Clouds 28 1006 78 10000 10.3 150 10:19 20.12.2019
5968 Clouds 28 1006 78 10000 10.3 150 09:42 20.12.2019
5969 Haze 30 1006 70 10000 10.3 150 09:21 20.12.2019
5970 Haze 30 1006 70 10000 10.3 150 08:54 20.12.2019
5971 Haze 30 1006 70 10000 10.3 150 08:54 20.12.2019
5972 Haze 30 1006 70 10000 10.3 150 08:36 20.12.2019
5973 Haze 31 1005 66 10000 10.3 160 08:18 20.12.2019
5974 Haze 31 1005 66 10000 10.3 160 07:42 20.12.2019
5975 Haze 32 1005 55 10000 10.3 160 07:23 20.12.2019
5976 Haze 32 1005 55 10000 10.3 160 06:55 20.12.2019
5977 Haze 32 1005 55 10000 10.3 160 06:36 20.12.2019
5978 Smoke 32 1006 59 10000 10.3 140 06:18 20.12.2019
5979 Smoke 32 1006 59 10000 10.3 140 05:45 20.12.2019
5980 Clouds 28 1008 74 0 5.25 174 04:57 20.12.2019
5981 Smoke 33 1008 52 10000 5.1 140 03:48 20.12.2019
5982 Smoke 33 1008 55 10000 5.1 140 02:45 20.12.2019
5983 Smoke 33 1009 59 10000 3.6 220 01:55 20.12.2019
5984 Smoke 33 1009 59 10000 3.6 220 01:35 20.12.2019
5985 Smoke 30 1010 70 10000 3.6 310 00:53 20.12.2019
5986 Smoke 30 1010 70 10000 3.6 310 00:34 20.12.2019
5987 Smoke 28 1010 78 10000 1.5 0 23:57 19.12.2019
5988 Smoke 28 1010 78 10000 1.5 0 23:39 19.12.2019
5989 Smoke 28 1010 78 10000 1.5 0 23:39 19.12.2019
5990 Smoke 25 1010 88 10000 2.1 0 23:19 19.12.2019
5991 Smoke 25 1010 88 10000 2.1 0 22:38 19.12.2019
5992 Smoke 24 1009 94 10000 1.5 0 22:20 19.12.2019
5993 Smoke 24 1009 94 10000 1.5 0 21:56 19.12.2019
5994 Smoke 24 1009 94 10000 1.5 0 21:56 19.12.2019
5995 Smoke 24 1009 94 10000 1.5 0 21:38 19.12.2019
5996 Clouds 26 1010 79 0 5.26 118 21:19 19.12.2019
5997 Clouds 26 1010 79 0 5.26 118 20:56 19.12.2019
5998 Clouds 26 1010 79 0 5.26 118 20:56 19.12.2019
5999 Clouds 26 1010 79 0 5.26 118 20:37 19.12.2019
6000 Clouds 26 1010 79 0 5.26 118 20:37 19.12.2019
6001 Clouds 26 1008 80 0 7.15 122 20:19 19.12.2019
6002 Clouds 26 1008 80 0 7.15 122 20:18 19.12.2019
6003 Clouds 26 1008 81 0 7.14 125 19:57 19.12.2019
6004 Clouds 26 1008 81 0 7.14 125 19:39 19.12.2019
6005 Clouds 26 1008 81 0 7.14 125 19:19 19.12.2019
6006 Clouds 26 1008 81 0 7.14 125 18:55 19.12.2019
6007 Clouds 26 1008 81 0 7.14 125 18:37 19.12.2019
6008 Clouds 26 1008 81 0 7.14 125 18:18 19.12.2019
6009 Clouds 26 1008 81 0 7.14 125 17:54 19.12.2019
6010 Clouds 26 1008 81 0 7.14 125 17:36 19.12.2019
6011 Clouds 27 1009 81 0 9.32 131 17:18 19.12.2019
6012 Clouds 27 1009 81 0 9.32 131 16:54 19.12.2019
6013 Clouds 27 1009 81 0 9.32 131 16:36 19.12.2019
6014 Clouds 27 1009 81 0 9.32 131 16:18 19.12.2019
6015 Clouds 27 1009 81 0 9.32 131 15:54 19.12.2019
6016 Clouds 27 1009 81 0 9.32 131 15:36 19.12.2019
6017 Clouds 27 1009 78 10000 5.1 120 15:18 19.12.2019
6018 Clouds 27 1009 78 10000 5.1 120 14:41 19.12.2019
6019 Clouds 27 1009 78 10000 7.7 150 14:20 19.12.2019
6020 Clouds 27 1009 78 10000 7.7 150 13:57 19.12.2019
6021 Clouds 27 1009 78 10000 7.7 150 13:38 19.12.2019
6022 Clouds 27 1010 81 0 10.39 136 13:19 19.12.2019
6023 Clouds 27 1010 81 0 10.39 136 12:55 19.12.2019
6024 Clouds 27 1010 81 0 10.39 136 12:37 19.12.2019
6025 Clouds 28 1008 78 10000 7.7 150 12:18 19.12.2019
6026 Clouds 28 1008 78 10000 7.7 150 11:57 19.12.2019
6027 Clouds 28 1008 78 10000 7.7 150 11:39 19.12.2019
6028 Clouds 28 1008 81 0 9.8 146 11:18 19.12.2019
6029 Clouds 28 1008 81 0 9.8 146 10:55 19.12.2019
6030 Clouds 28 1008 81 0 9.8 146 10:36 19.12.2019
6031 Haze 28 1007 74 10000 7.7 150 10:18 19.12.2019
6032 Haze 28 1007 74 10000 7.7 150 10:18 19.12.2019
6033 Haze 28 1007 74 10000 7.7 150 10:18 19.12.2019
6034 Haze 28 1007 74 10000 7.7 150 09:38 19.12.2019
6035 Haze 29 1006 70 10000 7.7 150 09:20 19.12.2019
6036 Haze 29 1006 70 10000 7.7 150 09:20 19.12.2019
6037 Haze 29 1006 70 10000 7.7 150 09:20 19.12.2019
6038 Haze 29 1006 70 10000 7.7 150 09:20 19.12.2019
6039 Haze 29 1006 70 10000 7.7 150 08:58 19.12.2019
6040 Haze 29 1006 70 10000 7.7 150 08:39 19.12.2019
6041 Haze 32 1006 59 10000 7.7 160 08:19 19.12.2019
6042 Haze 32 1006 59 10000 7.7 160 07:56 19.12.2019
6043 Haze 32 1006 59 10000 7.7 160 07:37 19.12.2019
6044 Haze 32 1006 66 10000 7.7 140 07:19 19.12.2019
6045 Haze 32 1006 66 10000 7.7 140 06:46 19.12.2019
6046 Smoke 32 1006 62 10000 5.1 170 06:27 19.12.2019
6047 Smoke 32 1006 62 10000 5.1 170 05:52 19.12.2019
6048 Clouds 28 1006 80 0 8.42 150 05:32 19.12.2019
6049 Smoke 32 1007 62 10000 5.1 170 04:43 19.12.2019
6050 Haze 33 1008 52 10000 5.1 140 02:48 19.12.2019
6051 Smoke 32 1009 55 10000 5.1 160 01:46 19.12.2019
6052 Smoke 31 1009 58 10000 1.5 0 01:21 19.12.2019
6053 Smoke 31 1009 58 10000 1.5 0 00:39 19.12.2019
6054 Smoke 31 1009 58 10000 1.5 0 00:39 19.12.2019
6055 Smoke 31 1009 58 10000 1.5 0 00:39 19.12.2019
6056 Smoke 31 1009 58 10000 1.5 0 00:39 19.12.2019
6057 Smoke 31 1009 58 10000 1.5 0 00:39 19.12.2019
6058 Smoke 29 1008 70 10000 1.5 0 00:20 19.12.2019
6059 Smoke 29 1008 70 10000 1.5 0 23:45 18.12.2019
6060 Smoke 29 1008 70 10000 1.5 0 23:45 18.12.2019
6061 Smoke 25 1008 88 10000 1.5 0 23:19 18.12.2019
6062 Smoke 25 1008 88 10000 1.5 0 22:58 18.12.2019
6063 Smoke 25 1008 88 10000 1.5 0 22:40 18.12.2019
6064 Haze 23 1007 94 10000 1 0 22:22 18.12.2019
6065 Haze 23 1007 94 10000 1 0 21:59 18.12.2019
6066 Haze 23 1007 94 10000 1 0 21:41 18.12.2019
6067 Clouds 23 1007 94 10000 1.5 0 21:21 18.12.2019
6068 Clouds 23 1007 94 10000 1.5 0 20:58 18.12.2019
6069 Clouds 23 1007 94 10000 1.5 0 20:39 18.12.2019
6070 Clouds 24 1007 88 10000 2.6 190 20:20 18.12.2019
6071 Clouds 24 1007 88 10000 2.6 190 19:57 18.12.2019
6072 Clouds 24 1007 88 10000 2.6 190 19:39 18.12.2019
6073 Clouds 26 1007 80 0 6.64 122 19:19 18.12.2019
6074 Clouds 26 1007 80 0 6.64 122 18:56 18.12.2019
6075 Clouds 26 1007 80 0 6.64 122 18:38 18.12.2019
6076 Clouds 26 1007 80 0 6.64 122 18:20 18.12.2019
6077 Clouds 26 1007 80 0 6.64 122 17:55 18.12.2019
6078 Clouds 26 1007 80 0 6.64 122 17:55 18.12.2019
6079 Clouds 26 1007 80 0 6.64 122 17:55 18.12.2019
6080 Clouds 26 1007 80 0 6.64 122 17:37 18.12.2019
6081 Clouds 27 1008 79 0 7.52 127 17:19 18.12.2019
6082 Clouds 27 1008 79 0 7.52 127 16:42 18.12.2019
6083 Clouds 25 1008 83 10000 3.6 140 16:24 18.12.2019
6084 Clouds 25 1008 83 10000 3.6 140 15:59 18.12.2019
6085 Clouds 25 1008 83 10000 3.6 140 15:39 18.12.2019
6086 Clouds 27 1008 78 10000 4.1 120 15:21 18.12.2019
6087 Clouds 27 1008 78 10000 4.1 120 14:57 18.12.2019
6088 Clouds 27 1008 78 10000 4.1 120 14:39 18.12.2019
6089 Clouds 27 1008 78 10000 6.2 150 14:19 18.12.2019
6090 Clouds 27 1008 78 10000 6.2 150 13:55 18.12.2019
6091 Clouds 27 1008 78 10000 6.2 150 13:37 18.12.2019
6092 Haze 28 1008 74 10000 10.3 150 13:19 18.12.2019
6093 Haze 28 1008 74 10000 10.3 150 12:54 18.12.2019
6094 Haze 28 1008 74 10000 10.3 150 12:54 18.12.2019
6095 Haze 28 1008 74 10000 10.3 150 12:36 18.12.2019
6096 Smoke 29 1007 70 10000 10.3 150 12:18 18.12.2019
6097 Smoke 29 1007 70 10000 10.3 150 11:54 18.12.2019
6098 Smoke 29 1007 70 10000 10.3 150 11:36 18.12.2019
6099 Smoke 28 1007 78 10000 9.3 160 11:18 18.12.2019
6100 Smoke 28 1007 78 10000 9.3 160 10:54 18.12.2019
6101 Smoke 28 1007 78 10000 9.3 160 10:54 18.12.2019
6102 Smoke 28 1007 78 10000 9.3 160 10:36 18.12.2019
6103 Smoke 29 1006 74 10000 7.7 150 10:18 18.12.2019
6104 Smoke 30 1006 66 10000 5.1 150 09:21 18.12.2019
6105 Smoke 30 1006 66 10000 5.1 150 08:57 18.12.2019
6106 Smoke 30 1006 66 10000 5.1 150 08:57 18.12.2019
6107 Smoke 30 1006 66 10000 5.1 150 08:57 18.12.2019
6108 Smoke 30 1006 66 10000 5.1 150 08:39 18.12.2019
6109 Smoke 30 1005 70 10000 5.1 140 08:20 18.12.2019
6110 Smoke 30 1005 70 10000 5.1 140 07:42 18.12.2019
6111 Smoke 32 1005 55 10000 8.7 130 07:21 18.12.2019
6112 Smoke 32 1005 55 10000 8.7 130 06:53 18.12.2019
6113 Clouds 34 1006 49 10000 6.2 170 06:26 18.12.2019
6114 Clouds 34 1006 49 10000 6.2 170 05:39 18.12.2019
6115 Clouds 27 1007 75 0 8.01 158 04:35 18.12.2019
6116 Haze 33 1008 49 10000 6.7 160 02:50 18.12.2019
6117 Haze 33 1009 49 10000 5.1 160 02:30 18.12.2019
6118 Haze 33 1009 49 10000 5.1 160 01:47 18.12.2019
6119 Smoke 30 1009 62 10000 1.5 0 01:28 18.12.2019
6120 Smoke 30 1009 62 10000 1.5 0 00:59 18.12.2019
6121 Smoke 30 1009 62 10000 1.5 0 00:39 18.12.2019
6122 Haze 29 1009 66 10000 1.5 0 00:21 18.12.2019
6123 Haze 29 1009 66 10000 1.5 0 23:44 17.12.2019
6124 Clouds 26 1009 83 10000 1.5 0 23:24 17.12.2019
6125 Clouds 26 1009 83 10000 1.5 0 22:57 17.12.2019
6126 Clouds 26 1009 83 10000 1.5 0 22:39 17.12.2019
6127 Clear 26 1010 78 0 6.77 124 22:20 17.12.2019
6128 Clear 26 1010 78 0 6.77 124 21:57 17.12.2019
6129 Clear 26 1010 78 0 6.77 124 21:39 17.12.2019
6130 Clouds 22 1007 100 10000 1.5 0 21:20 17.12.2019
6131 Clouds 22 1007 100 10000 1.5 0 20:59 17.12.2019
6132 Clouds 22 1007 100 10000 1.5 0 20:40 17.12.2019
6133 Clouds 22 1007 100 10000 1.5 0 20:19 17.12.2019
6134 Clouds 22 1007 100 10000 1.5 0 19:59 17.12.2019
6135 Clouds 22 1007 100 10000 1.5 0 19:41 17.12.2019
6136 Clouds 23 1007 94 10000 1.5 0 19:20 17.12.2019
6137 Clouds 23 1007 94 10000 1.5 0 18:57 17.12.2019
6138 Clouds 23 1007 94 10000 1.5 0 18:38 17.12.2019
6139 Clouds 24 1007 88 10000 1.5 0 18:20 17.12.2019
6140 Clouds 24 1007 88 10000 1.5 0 17:55 17.12.2019
6141 Clouds 24 1007 88 10000 1.5 0 17:37 17.12.2019
6142 Clouds 24 1007 88 10000 1.5 0 17:18 17.12.2019
6143 Clouds 24 1007 88 10000 1.5 0 16:55 17.12.2019
6144 Clouds 24 1007 88 10000 1.5 0 16:36 17.12.2019
6145 Clear 27 1008 79 0 7.02 120 16:18 17.12.2019
6146 Clear 27 1008 79 0 7.02 120 16:18 17.12.2019
6147 Clear 27 1008 79 0 7.02 120 16:18 17.12.2019
6148 Clear 27 1008 79 0 7.02 120 15:38 17.12.2019
6149 Clear 27 1008 79 0 7.02 120 15:20 17.12.2019
6150 Clear 27 1008 79 0 7.02 120 14:57 17.12.2019
6151 Clear 27 1008 79 0 7.02 120 14:38 17.12.2019
6152 Rain 27 1010 80 0 8.21 134 14:19 17.12.2019
6153 Rain 27 1010 80 0 8.21 134 13:58 17.12.2019
6154 Rain 27 1010 80 0 8.21 134 13:39 17.12.2019
6155 Rain 27 1010 80 0 8.22 135 13:19 17.12.2019
6156 Rain 27 1010 80 0 8.22 135 12:59 17.12.2019
6157 Rain 27 1010 80 0 8.22 135 12:38 17.12.2019
6158 Rain 27 1010 80 0 8.22 135 12:38 17.12.2019
6159 Rain 27 1010 80 0 8.22 135 12:18 17.12.2019
6160 Rain 27 1010 80 0 8.22 135 12:18 17.12.2019
6161 Rain 27 1010 80 0 8.22 135 11:56 17.12.2019
6162 Rain 27 1010 80 0 8.22 135 11:37 17.12.2019
6163 Clear 27 1008 78 0 6.47 140 11:18 17.12.2019
6164 Clear 27 1008 78 0 6.47 140 10:57 17.12.2019
6165 Clear 27 1008 78 0 6.47 140 10:38 17.12.2019
6166 Haze 29 1007 74 10000 8.2 140 10:19 17.12.2019
6167 Haze 29 1007 74 10000 8.2 140 09:43 17.12.2019
6168 Haze 30 1006 74 10000 5.1 140 09:22 17.12.2019
6169 Haze 30 1006 74 10000 5.1 140 08:59 17.12.2019
6170 Haze 30 1006 74 10000 5.1 140 08:40 17.12.2019
6171 Haze 31 1006 66 10000 5.1 180 08:22 17.12.2019
6172 Haze 31 1006 66 10000 5.1 180 08:22 17.12.2019
6173 Haze 31 1006 66 10000 5.1 180 07:58 17.12.2019
6174 Haze 31 1006 66 10000 5.1 180 07:39 17.12.2019
6175 Haze 32 1006 59 10000 7.7 170 07:21 17.12.2019
6176 Haze 32 1006 59 10000 7.7 170 06:42 17.12.2019
6177 Haze 33 1006 55 10000 2.6 170 06:24 17.12.2019
6178 Haze 33 1006 55 10000 2.6 170 06:24 17.12.2019
6179 Haze 33 1006 55 10000 2.6 170 06:24 17.12.2019
6180 Haze 33 1006 55 10000 2.6 170 05:41 17.12.2019
6181 Haze 32 1007 59 10000 9.3 200 04:53 17.12.2019
6182 Haze 33 1007 59 10000 5.1 220 03:50 17.12.2019
6183 Haze 32 1009 59 10000 2.1 0 02:25 17.12.2019
6184 Haze 32 1009 59 10000 2.1 0 01:21 17.12.2019
6185 Haze 30 1010 66 10000 5.1 360 00:45 17.12.2019
6186 Haze 28 1009 74 10000 3.1 310 00:21 17.12.2019
6187 Haze 28 1009 74 10000 3.1 310 23:43 16.12.2019
6188 Haze 25 1009 88 10000 3.1 310 23:20 16.12.2019
6189 Haze 25 1009 88 10000 3.1 310 22:58 16.12.2019
6190 Haze 25 1009 88 10000 3.1 310 22:38 16.12.2019
6191 Haze 24 1008 94 10000 3.1 310 22:20 16.12.2019
6192 Haze 24 1008 94 10000 3.1 310 21:57 16.12.2019
6193 Haze 24 1008 94 10000 3.1 310 21:57 16.12.2019
6194 Haze 24 1008 94 10000 3.1 310 21:38 16.12.2019
6195 Clouds 24 1008 94 10000 2.6 310 21:20 16.12.2019
6196 Clouds 24 1008 94 10000 2.6 310 20:58 16.12.2019
6197 Clouds 24 1008 94 10000 2.6 310 20:39 16.12.2019
6198 Clouds 23 1007 100 10000 2.6 350 20:19 16.12.2019
6199 Clouds 23 1007 100 10000 2.6 350 19:56 16.12.2019
6200 Clouds 23 1007 100 10000 2.6 350 19:37 16.12.2019
6201 Clouds 26 1008 84 0 4.33 115 19:19 16.12.2019
6202 Clouds 26 1008 84 0 4.33 115 18:58 16.12.2019
6203 Clouds 26 1008 84 0 4.33 115 18:58 16.12.2019
6204 Clouds 26 1008 84 0 4.33 115 18:40 16.12.2019
6205 Clouds 24 1007 94 10000 2.6 300 18:20 16.12.2019
6206 Clouds 24 1007 94 10000 2.6 300 17:57 16.12.2019
6207 Clouds 24 1007 94 10000 2.6 300 17:57 16.12.2019
6208 Clouds 24 1007 94 10000 2.6 300 17:38 16.12.2019
6209 Clouds 27 1009 84 0 5.22 123 17:20 16.12.2019
6210 Clouds 27 1009 84 0 5.22 123 16:57 16.12.2019
6211 Clouds 27 1009 84 0 5.22 123 16:38 16.12.2019
6212 Clouds 27 1009 84 0 5.22 123 16:19 16.12.2019
6213 Clouds 27 1009 84 0 5.22 123 15:57 16.12.2019
6214 Clouds 27 1009 84 0 5.22 123 15:38 16.12.2019
6215 Clouds 27 1009 84 0 5.22 123 15:20 16.12.2019
6216 Clouds 27 1009 84 0 5.22 123 14:55 16.12.2019
6217 Clouds 27 1009 84 0 5.22 123 14:37 16.12.2019
6218 Clouds 27 1008 88 10000 2.6 120 14:18 16.12.2019
6219 Clouds 27 1008 88 10000 2.6 120 14:18 16.12.2019
6220 Clouds 27 1008 88 10000 2.6 120 13:56 16.12.2019
6221 Clouds 27 1008 88 10000 2.6 120 13:37 16.12.2019
6222 Clouds 27 1008 88 10000 2.6 120 13:19 16.12.2019
6223 Clouds 27 1008 88 10000 4.1 140 12:56 16.12.2019
6224 Clouds 27 1008 88 10000 4.1 140 12:38 16.12.2019
6225 Clouds 27 1008 88 10000 4.1 140 12:18 16.12.2019
6226 Clouds 27 1010 83 0 6.95 135 11:57 16.12.2019
6227 Clouds 27 1010 83 0 6.95 135 11:38 16.12.2019
6228 Clouds 27 1008 82 0 5.36 137 11:19 16.12.2019
6229 Clouds 27 1008 82 0 6.38 140 10:54 16.12.2019
6230 Clouds 27 1008 82 0 6.38 140 10:36 16.12.2019
6231 Clouds 28 1007 83 10000 5.1 150 10:18 16.12.2019
6232 Clouds 28 1007 83 10000 5.1 150 09:43 16.12.2019
6233 Clouds 30 1006 70 10000 7.7 150 09:24 16.12.2019
6234 Clouds 30 1006 70 10000 7.7 150 08:40 16.12.2019
6235 Clouds 28 1007 79 0 5.75 156 08:20 16.12.2019
6236 Clouds 28 1007 79 0 5.75 156 08:20 16.12.2019
6237 Clouds 28 1007 79 0 5.75 156 07:53 16.12.2019
6238 Clouds 32 1006 59 10000 7.7 180 07:31 16.12.2019
6239 Clouds 32 1006 59 10000 7.7 180 07:31 16.12.2019
6240 Clouds 32 1006 59 10000 7.7 180 06:57 16.12.2019
6241 Clouds 32 1006 59 10000 7.7 180 06:39 16.12.2019
6242 Clouds 33 1007 59 10000 7.7 180 06:18 16.12.2019
6243 Clouds 33 1007 59 10000 7.7 180 05:41 16.12.2019
6244 Clouds 33 1007 59 10000 7.7 200 05:22 16.12.2019
6245 Clouds 33 1008 59 10000 7.7 220 03:28 16.12.2019
6246 Haze 32 1008 59 10000 2.6 330 01:46 16.12.2019
6247 Haze 30 1009 66 10000 3.1 340 00:57 16.12.2019
6248 Haze 30 1009 66 10000 3.1 340 00:38 16.12.2019
6249 Haze 28 1009 74 10000 3.1 360 00:19 16.12.2019
6250 Haze 28 1009 74 10000 3.1 360 23:43 15.12.2019
6251 Haze 26 1009 83 10000 2.6 360 23:25 15.12.2019
6252 Haze 26 1009 83 10000 2.6 360 22:57 15.12.2019
6253 Haze 26 1009 83 10000 2.6 360 22:38 15.12.2019
6254 Haze 24 1008 94 10000 2.6 350 22:19 15.12.2019
6255 Haze 24 1008 94 10000 2.6 350 21:58 15.12.2019
6256 Haze 24 1008 94 10000 2.6 350 21:38 15.12.2019
6257 Haze 24 1008 94 10000 2.6 350 21:38 15.12.2019
6258 Clouds 24 1008 94 10000 1.5 0 21:19 15.12.2019
6259 Clouds 24 1008 94 10000 1.5 0 20:58 15.12.2019
6260 Clouds 24 1008 94 10000 1.5 0 20:39 15.12.2019
6261 Clouds 24 1008 94 10000 1.5 0 20:39 15.12.2019
6262 Clouds 24 1007 94 10000 1.5 0 20:20 15.12.2019
6263 Clouds 24 1007 94 10000 1.5 0 19:58 15.12.2019
6264 Clouds 24 1007 94 10000 1.5 0 19:39 15.12.2019
6265 Clouds 25 1008 94 10000 1.5 0 19:19 15.12.2019
6266 Clouds 25 1008 94 10000 1.5 0 18:57 15.12.2019
6267 Clouds 25 1008 94 10000 1.5 0 18:38 15.12.2019
6268 Clouds 25 1008 94 10000 1.5 0 18:38 15.12.2019
6269 Clouds 26 1008 83 0 1.54 89 18:18 15.12.2019
6270 Clear 26 1008 82 0 1.43 76 17:56 15.12.2019
6271 Clear 26 1008 82 0 1.43 76 17:37 15.12.2019
6272 Clouds 25 1008 94 10000 1.5 0 17:19 15.12.2019
6273 Clouds 25 1008 94 10000 1.5 0 16:56 15.12.2019
6274 Clouds 25 1008 94 10000 1.5 0 16:38 15.12.2019
6275 Haze 25 1009 94 10000 1 0 16:20 15.12.2019
6276 Haze 25 1009 94 10000 1 0 15:55 15.12.2019
6277 Haze 25 1009 94 10000 1 0 15:55 15.12.2019
6278 Haze 25 1009 94 10000 1 0 15:36 15.12.2019
6279 Haze 24 1010 100 10000 2.6 140 15:18 15.12.2019
6280 Haze 24 1010 100 10000 2.6 140 14:55 15.12.2019
6281 Haze 24 1010 100 10000 2.6 140 14:36 15.12.2019
6282 Haze 26 1009 88 10000 1.5 0 14:18 15.12.2019
6283 Haze 26 1009 88 10000 1.5 0 13:54 15.12.2019
6284 Haze 26 1009 88 10000 1.5 0 13:36 15.12.2019
6285 Haze 27 1009 83 10000 1.5 0 13:18 15.12.2019
6286 Haze 27 1009 83 10000 1.5 0 13:18 15.12.2019
6287 Haze 27 1009 83 10000 1.5 0 12:55 15.12.2019
6288 Haze 27 1009 83 10000 1.5 0 12:37 15.12.2019
6289 Haze 27 1009 83 10000 1.5 0 12:37 15.12.2019
6290 Haze 27 1009 83 10000 1.5 0 12:37 15.12.2019
6291 Haze 27 1008 88 10000 2.6 180 12:19 15.12.2019
6292 Haze 27 1008 88 10000 2.6 180 11:38 15.12.2019
6293 Haze 27 1008 83 10000 5.1 150 11:19 15.12.2019
6294 Haze 27 1008 83 10000 5.1 150 10:56 15.12.2019
6295 Haze 27 1008 83 10000 5.1 150 10:38 15.12.2019
6296 Haze 29 1007 74 10000 5.1 160 10:19 15.12.2019
6297 Haze 29 1007 74 10000 5.1 160 09:58 15.12.2019
6298 Haze 29 1007 74 10000 5.1 160 09:37 15.12.2019
6299 Clear 28 1009 77 0 2.64 134 09:19 15.12.2019
6300 Clear 28 1009 77 0 2.64 134 08:54 15.12.2019
6301 Clear 28 1009 77 0 2.64 134 08:36 15.12.2019
6302 Haze 31 1007 62 10000 7.7 210 08:18 15.12.2019
6303 Haze 31 1007 62 10000 7.7 210 07:43 15.12.2019
6304 Haze 33 1006 59 10000 7.7 210 07:25 15.12.2019
6305 Haze 33 1007 59 10000 7.7 210 06:26 15.12.2019
6306 Haze 33 1007 59 10000 7.7 210 05:42 15.12.2019
6307 Haze 32 1008 62 10000 7.7 210 05:21 15.12.2019
6308 Clouds 31 1009 66 10000 5.1 190 04:20 15.12.2019
6309 Haze 31 1009 62 10000 5.1 210 02:50 15.12.2019
6310 Clouds 31 1009 62 10000 1.5 0 02:31 15.12.2019
6311 Clouds 31 1009 62 10000 1.5 0 01:40 15.12.2019
6312 Haze 28 1009 78 10000 2.6 340 01:18 15.12.2019
6313 Haze 28 1009 78 10000 2.6 340 00:49 15.12.2019
6314 Haze 26 1009 83 10000 2.6 340 00:31 15.12.2019
6315 Haze 26 1009 83 10000 2.6 340 23:41 14.12.2019
6316 Clear 26 1009 79 0 2.26 19 23:22 14.12.2019
6317 Clear 26 1009 79 0 2.26 19 22:59 14.12.2019
6318 Clear 26 1009 79 0 2.26 19 22:41 14.12.2019
6319 Clouds 23 1008 100 10000 1.5 0 22:22 14.12.2019
6320 Clouds 23 1008 100 10000 1.5 0 21:56 14.12.2019
6321 Clouds 23 1008 100 10000 1.5 0 21:38 14.12.2019
6322 Clouds 23 1007 100 10000 2.6 300 21:19 14.12.2019
6323 Clouds 23 1007 100 10000 2.6 300 20:58 14.12.2019
6324 Clouds 23 1007 100 10000 2.6 300 20:39 14.12.2019
6325 Clouds 23 1007 94 10000 3.6 320 20:19 14.12.2019
6326 Clouds 23 1007 94 10000 3.6 320 19:57 14.12.2019
6327 Clouds 23 1007 94 10000 3.6 320 19:37 14.12.2019
6328 Clouds 24 1007 94 10000 3.6 340 19:19 14.12.2019
6329 Clouds 24 1007 94 10000 3.6 340 18:56 14.12.2019
6330 Clouds 24 1007 94 10000 3.6 340 18:37 14.12.2019
6331 Clouds 24 1007 94 10000 1.5 340 18:19 14.12.2019
6332 Clouds 24 1007 94 10000 1.5 340 17:43 14.12.2019
6333 Clouds 24 1008 100 10000 1.5 350 17:24 14.12.2019
6334 Clouds 24 1008 100 10000 1.5 350 16:58 14.12.2019
6335 Clouds 24 1008 100 10000 1.5 350 16:38 14.12.2019
6336 Clouds 24 1008 100 10000 1.5 350 16:38 14.12.2019
6337 Clouds 27 1009 81 0 2.71 66 16:18 14.12.2019
6338 Clouds 27 1009 81 0 2.71 66 15:43 14.12.2019
6339 Clouds 27 1009 81 0 2.71 66 15:21 14.12.2019
6340 Clouds 27 1009 81 0 2.71 66 14:58 14.12.2019
6341 Clouds 27 1009 81 0 2.71 66 14:38 14.12.2019
6342 Rain 28 1011 78 0 2.85 125 14:19 14.12.2019
6343 Rain 28 1011 78 0 2.85 125 13:45 14.12.2019
6344 Rain 28 1011 78 0 2.85 125 13:21 14.12.2019
6345 Rain 28 1010 80 0 3.48 134 13:21 14.12.2019
6346 Rain 28 1010 80 0 3.48 134 12:59 14.12.2019
6347 Rain 28 1010 80 0 3.48 134 12:41 14.12.2019
6348 Rain 27 1010 81 0 4.29 119 12:21 14.12.2019
6349 Rain 27 1010 81 0 4.29 119 12:21 14.12.2019
6350 Rain 27 1010 81 0 4.29 119 12:21 14.12.2019
6351 Rain 27 1010 81 0 4.29 119 11:59 14.12.2019
6352 Rain 28 1010 80 0 3.48 134 11:39 14.12.2019
6353 Rain 28 1009 79 0 3.23 158 11:20 14.12.2019
6354 Rain 28 1009 79 0 3.23 158 10:59 14.12.2019
6355 Rain 28 1009 79 0 3.23 158 10:40 14.12.2019
6356 Clouds 29 1008 79 10000 5.1 230 10:22 14.12.2019
6357 Clouds 29 1008 79 10000 5.1 230 09:57 14.12.2019
6358 Clouds 29 1008 79 10000 5.1 230 09:39 14.12.2019
6359 Clouds 29 1008 79 10000 7.7 220 09:19 14.12.2019
6360 Clouds 29 1008 79 10000 7.7 220 08:43 14.12.2019
6361 Clouds 30 1007 74 10000 10.3 240 08:20 14.12.2019
6362 Clouds 30 1007 74 10000 10.3 240 07:44 14.12.2019
6363 Rain 29 1007 74 10000 10.3 270 07:23 14.12.2019
6364 Rain 29 1007 74 10000 10.3 270 06:57 14.12.2019
6365 Rain 29 1007 74 10000 10.3 270 06:37 14.12.2019
6366 Rain 32 1008 66 10000 12.9 250 05:59 14.12.2019
6367 Rain 31 1008 66 10000 12.9 250 04:48 14.12.2019
6368 Smoke 31 1010 66 10000 5.1 330 02:35 14.12.2019
6369 Smoke 31 1011 70 10000 5.1 320 01:56 14.12.2019
6370 Smoke 31 1011 70 10000 5.1 320 01:56 14.12.2019
6371 Smoke 31 1011 70 10000 5.1 320 01:37 14.12.2019
6372 Clouds 29 1011 74 10000 4.1 340 00:47 14.12.2019
6373 Smoke 29 1011 74 10000 3.1 340 00:27 14.12.2019
6374 Smoke 29 1011 74 10000 3.1 340 23:56 13.12.2019
6375 Smoke 29 1011 74 10000 3.1 340 23:37 13.12.2019
6376 Smoke 25 1011 94 10000 3.6 310 23:18 13.12.2019
6377 Smoke 25 1011 94 10000 3.6 310 22:40 13.12.2019
6378 Haze 24 1010 94 10000 3.6 310 22:19 13.12.2019
6379 Haze 24 1010 94 10000 3.6 310 21:56 13.12.2019
6380 Haze 24 1010 94 10000 3.6 310 21:37 13.12.2019
6381 Clouds 23 1009 100 10000 2.6 320 21:19 13.12.2019
6382 Clouds 23 1009 100 10000 2.6 320 20:41 13.12.2019
6383 Clouds 26 1009 83 0 2.69 6 20:22 13.12.2019
6384 Clouds 26 1009 83 0 2.69 6 19:59 13.12.2019
6385 Clouds 26 1009 83 0 2.69 6 19:40 13.12.2019
6386 Clouds 26 1009 83 0 2.69 6 19:22 13.12.2019
6387 Clouds 26 1009 83 0 2.69 6 18:59 13.12.2019
6388 Clouds 26 1009 83 0 2.69 6 18:40 13.12.2019
6389 Clouds 26 1009 83 0 2.69 6 18:19 13.12.2019
6390 Clouds 26 1009 83 0 2.69 6 17:43 13.12.2019
6391 Clouds 27 1009 82 0 2.75 359 17:20 13.12.2019
6392 Clouds 27 1009 82 0 2.75 359 17:20 13.12.2019
6393 Clouds 27 1009 82 0 2.75 359 16:59 13.12.2019
6394 Clouds 27 1009 82 0 2.75 359 16:39 13.12.2019
6395 Clouds 25 1010 88 10000 2.6 320 16:20 13.12.2019
6396 Clouds 25 1010 88 10000 2.6 320 15:43 13.12.2019
6397 Clouds 25 1010 88 10000 2.6 330 15:23 13.12.2019
6398 Clouds 25 1010 88 10000 2.6 330 15:23 13.12.2019
6399 Clouds 25 1010 88 10000 2.6 330 14:59 13.12.2019
6400 Clouds 25 1010 88 10000 2.6 330 14:41 13.12.2019
6401 Rain 28 1011 82 0 0.34 286 14:20 13.12.2019
6402 Rain 28 1011 82 0 0.34 286 13:57 13.12.2019
6403 Rain 28 1011 82 0 0.34 286 13:37 13.12.2019
6404 Clouds 26 1010 83 10000 5.1 350 13:19 13.12.2019
6405 Clouds 26 1010 83 10000 5.1 350 12:42 13.12.2019
6406 Clouds 27 1010 78 10000 5.1 350 12:20 13.12.2019
6407 Clouds 27 1010 78 10000 5.1 350 11:57 13.12.2019
6408 Clouds 27 1010 78 10000 5.1 350 11:57 13.12.2019
6409 Clouds 27 1010 78 10000 5.1 350 11:39 13.12.2019
6410 Clouds 27 1010 78 10000 5.1 350 11:39 13.12.2019
6411 Clouds 28 1010 74 10000 5.1 320 11:20 13.12.2019
6412 Clouds 28 1010 74 10000 5.1 320 10:42 13.12.2019
6413 Clouds 28 1010 74 10000 5.1 320 10:42 13.12.2019
6414 Clouds 28 1009 78 10000 5.1 290 10:23 13.12.2019
6415 Clouds 28 1009 78 10000 5.1 290 09:55 13.12.2019
6416 Clouds 28 1009 78 10000 5.1 290 09:36 13.12.2019
6417 Clouds 30 1008 79 10000 5.1 150 09:18 13.12.2019
6418 Clouds 30 1008 79 10000 5.1 150 09:18 13.12.2019
6419 Clouds 30 1008 79 10000 5.1 150 08:40 13.12.2019
6420 Clouds 31 1008 70 10000 5.1 270 08:22 13.12.2019
6421 Clouds 31 1008 70 10000 5.1 270 07:44 13.12.2019
6422 Clouds 33 1007 63 10000 5.1 250 07:20 13.12.2019
6423 Clouds 33 1007 63 10000 5.1 250 06:50 13.12.2019
6424 Clouds 34 1008 56 10000 7.2 280 06:28 13.12.2019
6425 Clouds 34 1008 56 10000 7.2 280 05:44 13.12.2019
6426 Haze 34 1008 59 10000 2.6 260 05:24 13.12.2019
6427 Haze 34 1008 59 10000 2.6 260 04:35 13.12.2019
6428 Haze 33 1009 59 10000 2.6 360 03:30 13.12.2019
6429 Haze 32 1010 62 10000 2.6 350 02:32 13.12.2019
6430 Haze 32 1010 62 10000 2.6 350 02:32 13.12.2019
6431 Haze 32 1010 62 10000 2.6 350 01:40 13.12.2019
6432 Smoke 30 1010 70 10000 2.6 330 00:51 13.12.2019
6433 Smoke 27 1010 83 10000 2.6 330 00:32 13.12.2019
6434 Smoke 27 1010 83 10000 2.6 330 23:47 12.12.2019
6435 Smoke 27 1010 83 10000 2.6 330 23:47 12.12.2019
6436 Smoke 25 1009 100 10000 2.6 340 23:27 12.12.2019
6437 Smoke 25 1009 100 10000 2.6 340 22:59 12.12.2019
6438 Smoke 25 1009 100 10000 2.6 340 22:41 12.12.2019
6439 Smoke 25 1009 100 10000 2.6 340 22:41 12.12.2019
6440 Smoke 24 1008 100 10000 3.6 320 22:22 12.12.2019
6441 Smoke 24 1008 100 10000 3.6 320 21:56 12.12.2019
6442 Smoke 24 1008 100 10000 3.6 320 21:38 12.12.2019
6443 Clouds 24 1008 100 10000 4.1 340 21:20 12.12.2019
6444 Clouds 24 1008 100 10000 4.1 340 21:20 12.12.2019
6445 Clouds 24 1008 100 10000 4.1 340 20:59 12.12.2019
6446 Clouds 24 1008 100 10000 4.1 340 20:40 12.12.2019
6447 Clouds 24 1008 100 10000 2.1 0 20:22 12.12.2019
6448 Clouds 24 1008 100 10000 2.1 0 19:56 12.12.2019
6449 Clouds 24 1008 100 10000 2.1 0 19:38 12.12.2019
6450 Clouds 25 1008 94 10000 1.5 0 19:20 12.12.2019
6451 Clouds 25 1008 94 10000 1.5 0 18:56 12.12.2019
6452 Clouds 25 1008 94 10000 1.5 0 18:56 12.12.2019
6453 Clouds 25 1008 94 10000 1.5 0 18:38 12.12.2019
6454 Clouds 25 1009 94 10000 1.5 0 18:19 12.12.2019
6455 Clouds 25 1009 94 10000 1.5 0 17:57 12.12.2019
6456 Clouds 25 1009 94 10000 1.5 0 17:38 12.12.2019
6457 Clouds 27 1009 84 0 4.29 353 17:19 12.12.2019
6458 Clouds 27 1009 84 0 4.29 353 16:55 12.12.2019
6459 Clouds 27 1009 84 0 4.29 353 16:36 12.12.2019
6460 Clouds 27 1010 88 10000 1 0 16:18 12.12.2019
6461 Clouds 27 1010 88 10000 1 0 15:42 12.12.2019
6462 Clouds 27 1010 88 10000 2.1 330 15:20 12.12.2019
6463 Clouds 27 1010 88 10000 2.1 330 14:59 12.12.2019
6464 Clouds 27 1010 88 10000 2.1 330 14:38 12.12.2019
6465 Clouds 27 1010 88 10000 2.6 330 14:19 12.12.2019
6466 Clouds 27 1010 88 10000 2.6 330 13:56 12.12.2019
6467 Clouds 27 1010 88 10000 2.6 330 13:38 12.12.2019
6468 Clouds 27 1010 88 10000 1.5 300 13:20 12.12.2019
6469 Clouds 27 1010 88 10000 1.5 300 12:56 12.12.2019
6470 Clouds 27 1010 88 10000 1.5 300 12:38 12.12.2019
6471 Clouds 28 1009 83 10000 2.6 320 12:18 12.12.2019
6472 Clouds 28 1009 83 10000 2.6 320 11:43 12.12.2019
6473 Clouds 29 1008 79 10000 3.1 320 11:22 12.12.2019
6474 Clouds 29 1008 79 10000 3.1 320 10:59 12.12.2019
6475 Clouds 29 1008 79 10000 3.1 320 10:41 12.12.2019
6476 Smoke 30 1007 66 10000 6.7 300 10:23 12.12.2019
6477 Smoke 30 1007 66 10000 6.7 300 09:58 12.12.2019
6478 Smoke 30 1007 66 10000 6.7 300 09:39 12.12.2019
6479 Smoke 31 1006 62 10000 6.7 320 09:21 12.12.2019
6480 Smoke 31 1006 62 10000 6.7 320 08:50 12.12.2019
6481 Smoke 32 1006 59 10000 6.7 280 08:29 12.12.2019
6482 Smoke 32 1006 59 10000 6.7 280 07:59 12.12.2019
6483 Smoke 32 1006 59 10000 6.7 280 07:39 12.12.2019
6484 Smoke 32 1006 62 10000 5.1 260 07:21 12.12.2019
6485 Smoke 32 1006 62 10000 5.1 260 06:42 12.12.2019
6486 Smoke 32 1006 66 10000 5.1 260 06:23 12.12.2019
6487 Smoke 32 1006 66 10000 5.1 260 05:34 12.12.2019
6488 Haze 32 1009 62 10000 7.7 260 04:48 12.12.2019
6489 Haze 32 1009 62 10000 7.7 300 02:44 12.12.2019
6490 Haze 32 1009 62 10000 9.3 360 02:25 12.12.2019
6491 Haze 32 1009 62 10000 9.3 360 01:59 12.12.2019
6492 Haze 32 1009 62 10000 9.3 360 01:36 12.12.2019
6493 Haze 30 1009 70 10000 6.2 360 00:50 12.12.2019
6494 Haze 29 1009 70 10000 6.2 360 00:22 12.12.2019
6495 Haze 29 1009 70 10000 6.2 360 23:58 11.12.2019
6496 Haze 29 1009 70 10000 6.2 360 23:38 11.12.2019
6497 Haze 26 1009 83 10000 4.1 310 23:18 11.12.2019
6498 Haze 26 1009 83 10000 4.1 310 22:56 11.12.2019
6499 Haze 26 1009 83 10000 4.1 310 22:56 11.12.2019
6500 Haze 26 1009 83 10000 4.1 310 22:38 11.12.2019
6501 Clouds 25 1008 88 10000 4.1 310 22:18 11.12.2019
6502 Clouds 25 1008 88 10000 4.1 310 22:18 11.12.2019
6503 Clouds 25 1008 88 10000 4.1 310 21:54 11.12.2019
6504 Clouds 25 1008 88 10000 4.1 310 21:54 11.12.2019
6505 Clouds 25 1008 88 10000 4.1 310 21:36 11.12.2019
6506 Clouds 27 1009 85 0 4.39 351 21:18 11.12.2019
6507 Clouds 27 1009 85 0 4.39 351 20:54 11.12.2019
6508 Clouds 27 1009 85 0 4.39 351 20:36 11.12.2019
6509 Clouds 24 1007 94 10000 1.5 0 20:18 11.12.2019
6510 Clouds 24 1007 94 10000 1.5 0 19:41 11.12.2019
6511 Clouds 24 1007 94 10000 1.5 0 19:23 11.12.2019
6512 Clouds 24 1007 94 10000 1.5 0 18:59 11.12.2019
6513 Clouds 24 1007 94 10000 1.5 0 18:39 11.12.2019
6514 Clear 24 1007 94 10000 1 0 18:19 11.12.2019
6515 Clear 24 1007 94 10000 1 0 17:56 11.12.2019
6516 Clear 24 1007 94 10000 1 0 17:37 11.12.2019
6517 Haze 24 1007 94 10000 5.1 310 17:18 11.12.2019
6518 Clouds 27 1007 79 0 1.32 36 16:55 11.12.2019
6519 Clouds 27 1007 79 0 1.32 36 16:37 11.12.2019
6520 Haze 24 1007 94 10000 5.1 320 16:18 11.12.2019
6521 Haze 24 1007 94 10000 5.1 320 15:55 11.12.2019
6522 Haze 24 1007 94 10000 5.1 320 15:37 11.12.2019
6523 Haze 26 1008 83 10000 5.1 350 15:18 11.12.2019
6524 Haze 26 1008 83 10000 5.1 350 14:54 11.12.2019
6525 Haze 26 1008 83 10000 5.1 350 14:36 11.12.2019
6526 Haze 26 1008 83 10000 4.1 340 14:18 11.12.2019
6527 Haze 26 1008 83 10000 4.1 340 13:42 11.12.2019
6528 Haze 26 1008 83 10000 4.1 340 13:42 11.12.2019
6529 Haze 27 1008 78 10000 3.6 330 13:21 11.12.2019
6530 Haze 27 1008 78 10000 3.6 330 12:57 11.12.2019
6531 Haze 27 1008 78 10000 3.6 330 12:38 11.12.2019
6532 Haze 27 1008 83 10000 3.6 10 12:20 11.12.2019
6533 Haze 27 1008 83 10000 3.6 10 11:58 11.12.2019
6534 Haze 27 1008 83 10000 3.6 10 11:38 11.12.2019
6535 Haze 28 1008 78 10000 5.1 40 11:19 11.12.2019
6536 Haze 28 1008 78 10000 5.1 40 10:57 11.12.2019
6537 Haze 28 1008 78 10000 5.1 40 10:38 11.12.2019
6538 Haze 29 1007 74 10000 2.6 150 10:19 11.12.2019
6539 Haze 29 1007 74 10000 2.6 150 09:43 11.12.2019
6540 Haze 30 1006 74 10000 7.7 140 09:21 11.12.2019
6541 Haze 30 1006 74 10000 7.7 140 08:58 11.12.2019
6542 Haze 30 1006 74 10000 7.7 140 08:38 11.12.2019
6543 Haze 31 1006 70 10000 2.6 200 08:19 11.12.2019
6544 Haze 31 1006 70 10000 2.6 200 07:56 11.12.2019
6545 Haze 31 1006 70 10000 2.6 200 07:38 11.12.2019
6546 Haze 32 1005 70 10000 2.6 180 07:19 11.12.2019
6547 Haze 32 1005 70 10000 2.6 180 06:44 11.12.2019
6548 Haze 32 1005 70 10000 2.6 180 06:44 11.12.2019
6549 Haze 32 1005 75 10000 7.7 210 06:22 11.12.2019
6550 Haze 32 1005 75 10000 7.7 210 05:45 11.12.2019
6551 Haze 33 1005 66 10000 7.7 230 05:21 11.12.2019
6552 Haze 33 1005 66 10000 7.7 230 04:38 11.12.2019
6553 Haze 34 1008 49 10000 7.7 320 02:49 11.12.2019
6554 Haze 31 1008 70 10000 5.1 320 01:26 11.12.2019
6555 Haze 31 1008 70 10000 5.1 320 00:49 11.12.2019
6556 Haze 29 1008 79 10000 6.2 360 00:22 11.12.2019
6557 Haze 29 1008 79 10000 6.2 360 23:58 10.12.2019
6558 Haze 29 1008 79 10000 6.2 360 23:39 10.12.2019
6559 Clouds 26 1008 100 10000 5.1 320 23:21 10.12.2019
6560 Clouds 26 1008 100 10000 5.1 320 22:40 10.12.2019
6561 Clouds 26 1008 100 10000 5.1 320 22:40 10.12.2019
6562 Clouds 25 1008 100 10000 5.1 320 22:22 10.12.2019
6563 Clouds 25 1008 100 10000 5.1 320 21:57 10.12.2019
6564 Clouds 25 1008 100 10000 5.1 320 21:39 10.12.2019
6565 Clouds 26 1009 84 0 2.31 17 21:21 10.12.2019
6566 Clouds 26 1009 84 0 2.31 17 20:57 10.12.2019
6567 -273 0 0 0 0 0 20:38 10.12.2019
6568 Clouds 26 1009 84 0 2.31 17 20:38 10.12.2019
6569 Clouds 26 1007 83 0 1.91 16 20:19 10.12.2019
6570 Clouds 26 1007 83 0 1.91 16 19:55 10.12.2019
6571 Clouds 26 1007 83 0 1.91 16 19:37 10.12.2019
6572 Clouds 26 1007 83 0 1.91 16 19:18 10.12.2019
6573 Clouds 26 1007 83 0 1.91 16 18:40 10.12.2019
6574 Clouds 26 1007 83 0 1.91 16 18:20 10.12.2019
6575 Clouds 26 1007 83 0 1.91 16 17:58 10.12.2019
6576 Clouds 26 1007 83 0 1.91 16 17:40 10.12.2019
6577 Clouds 28 1007 88 10000 2.6 220 17:20 10.12.2019
6578 Clouds 28 1007 88 10000 2.6 220 16:54 10.12.2019
6579 Clouds 28 1007 88 10000 2.6 220 16:36 10.12.2019
6580 Clouds 28 1008 88 10000 2.6 220 16:18 10.12.2019
6581 Clouds 28 1008 88 10000 2.6 220 16:18 10.12.2019
6582 Clouds 28 1008 88 10000 2.6 220 16:18 10.12.2019
6583 Clouds 28 1008 88 10000 2.6 220 15:38 10.12.2019
6584 Clouds 27 1008 79 0 0.64 129 15:18 10.12.2019
6585 Clouds 27 1008 79 0 0.64 129 15:18 10.12.2019
6586 Clouds 27 1008 79 0 0.64 129 14:56 10.12.2019
6587 Clouds 27 1008 79 0 0.64 129 14:37 10.12.2019
6588 Clouds 28 1010 80 0 2.67 117 14:19 10.12.2019
6589 Clouds 28 1010 80 0 2.67 117 13:56 10.12.2019
6590 Clouds 28 1010 80 0 2.67 117 13:38 10.12.2019
6591 Clouds 27 1010 80 0 1.33 119 13:19 10.12.2019
6592 Clouds 27 1010 80 0 1.33 119 12:45 10.12.2019
6593 Clouds 27 1010 80 0 1.33 119 12:45 10.12.2019
6594 Clouds 27 1010 80 0 1.33 119 12:25 10.12.2019
6595 Clouds 27 1010 80 0 1.33 119 11:45 10.12.2019
6596 Clouds 27 1010 80 0 1.33 119 11:25 10.12.2019
6597 Clouds 28 1008 79 0 2.47 154 10:57 10.12.2019
6598 Clouds 28 1008 79 0 2.47 154 10:39 10.12.2019
6599 Clouds 28 1008 79 0 2.47 154 10:39 10.12.2019
6600 Haze 29 1007 79 10000 6.7 190 10:21 10.12.2019
6601 Haze 29 1007 79 10000 6.7 190 09:56 10.12.2019
6602 Haze 29 1007 79 10000 6.7 190 09:56 10.12.2019
6603 Haze 29 1007 79 10000 6.7 190 09:38 10.12.2019
6604 Haze 29 1007 79 10000 6.7 190 09:38 10.12.2019
6605 Haze 29 1007 79 10000 6.7 190 09:38 10.12.2019
6606 Haze 29 1006 79 10000 6.7 180 09:20 10.12.2019
6607 Haze 29 1006 79 10000 6.7 180 08:55 10.12.2019
6608 Haze 29 1006 79 10000 6.7 180 08:37 10.12.2019
6609 Smoke 31 1005 66 10000 7.7 170 08:18 10.12.2019
6610 Smoke 31 1005 66 10000 7.7 170 07:44 10.12.2019
6611 Smoke 31 1005 70 10000 7.7 220 07:25 10.12.2019
6612 Smoke 31 1005 70 10000 7.7 220 06:48 10.12.2019
6613 Clouds 28 1006 74 0 4.01 178 06:22 10.12.2019
6614 Clouds 28 1006 74 0 4.01 178 05:55 10.12.2019
6615 Clouds 28 1007 76 0 4.36 190 04:56 10.12.2019
6616 Smoke 33 1007 66 10000 5.1 190 03:40 10.12.2019
6617 Smoke 32 1009 66 10000 3.6 210 02:47 10.12.2019
6618 Smoke 30 1009 74 10000 5.1 190 01:50 10.12.2019
6619 Smoke 30 1009 70 10000 2.6 150 01:25 10.12.2019
6620 Smoke 30 1009 70 10000 2.6 150 00:43 10.12.2019
6621 Smoke 29 1009 74 10000 1.5 0 00:24 10.12.2019
6622 Smoke 29 1009 74 10000 1.5 0 23:43 09.12.2019
6623 Smoke 25 1008 94 10000 1.5 0 23:24 09.12.2019
6624 Smoke 25 1008 94 10000 1.5 0 22:58 09.12.2019
6625 Smoke 25 1008 94 10000 1.5 0 22:58 09.12.2019
6626 Smoke 25 1008 94 10000 1.5 0 22:40 09.12.2019
6627 Smoke 23 1008 100 10000 2.1 0 22:20 09.12.2019
6628 Smoke 23 1008 100 10000 2.1 0 21:57 09.12.2019
6629 Smoke 23 1008 100 10000 2.1 0 21:39 09.12.2019
6630 Smoke 23 1008 100 10000 2.1 0 21:39 09.12.2019
6631 Clouds 24 1008 100 10000 2.6 340 21:19 09.12.2019
6632 Clouds 24 1008 100 10000 2.6 340 20:57 09.12.2019
6633 Clouds 24 1008 100 10000 2.6 340 20:39 09.12.2019
6634 Clouds 24 1008 100 10000 2.6 310 20:20 09.12.2019
6635 Clouds 24 1008 100 10000 2.6 310 19:56 09.12.2019
6636 Clouds 24 1008 100 10000 2.6 310 19:38 09.12.2019
6637 Clouds 25 1008 94 10000 2.1 0 19:19 09.12.2019
6638 Clouds 25 1008 94 10000 2.1 0 18:56 09.12.2019
6639 Clouds 25 1008 94 10000 2.1 0 18:38 09.12.2019
6640 Clouds 27 1008 82 0 4.89 118 18:19 09.12.2019
6641 Clouds 27 1008 82 0 4.89 118 17:58 09.12.2019
6642 Clouds 27 1008 82 0 4.89 118 17:39 09.12.2019
6643 Clouds 25 1008 94 10000 1.5 0 17:20 09.12.2019
6644 Clouds 25 1008 94 10000 1.5 0 16:56 09.12.2019
6645 Clouds 25 1008 94 10000 1.5 0 16:37 09.12.2019
6646 Clouds 25 1009 94 10000 5.1 320 16:19 09.12.2019
6647 Clouds 25 1009 94 10000 5.1 320 15:55 09.12.2019
6648 Clouds 25 1009 94 10000 5.1 320 15:37 09.12.2019
6649 Clouds 26 1010 88 10000 2.6 320 15:19 09.12.2019
6650 Rain 27 1009 83 0 6.25 132 14:42 09.12.2019
6651 Rain 27 1011 83 0 9.27 141 14:19 09.12.2019
6652 Rain 27 1011 83 0 9.27 141 13:59 09.12.2019
6653 Rain 27 1011 83 0 9.27 141 13:39 09.12.2019
6654 Clear 27 1011 81 0 8.93 137 13:19 09.12.2019
6655 Clear 27 1011 81 0 8.93 137 12:57 09.12.2019
6656 Clear 27 1011 81 0 8.93 137 12:38 09.12.2019
6657 Clouds 28 1010 83 10000 9.3 160 12:20 09.12.2019
6658 Clouds 28 1010 83 10000 9.3 160 11:58 09.12.2019
6659 Clouds 28 1010 83 10000 9.3 160 11:39 09.12.2019
6660 Clear 27 1010 82 0 9.12 146 11:21 09.12.2019
6661 Clear 27 1010 82 0 9.12 146 10:54 09.12.2019
6662 Clear 27 1010 82 0 9.12 146 10:36 09.12.2019
6663 Smoke 29 1009 74 10000 7.7 160 10:18 09.12.2019
6664 Smoke 29 1009 74 10000 7.7 160 09:41 09.12.2019
6665 Smoke 29 1008 79 10000 7.7 160 09:21 09.12.2019
6666 Smoke 29 1008 79 10000 7.7 160 08:55 09.12.2019
6667 Smoke 29 1008 79 10000 7.7 160 08:36 09.12.2019
6668 Smoke 30 1008 70 10000 7.7 160 08:18 09.12.2019
6669 Smoke 30 1008 70 10000 7.7 160 07:42 09.12.2019
6670 Smoke 32 1008 62 10000 7.7 190 07:23 09.12.2019
6671 Smoke 32 1008 62 10000 7.7 190 06:49 09.12.2019
6672 Smoke 32 1008 62 10000 7.7 180 06:26 09.12.2019
6673 Smoke 31 1009 66 10000 7.7 190 05:29 09.12.2019
6674 Smoke 31 1009 66 10000 7.7 190 04:49 09.12.2019
6675 Smoke 32 1009 52 10000 7.7 190 03:45 09.12.2019
6676 Smoke 31 1011 55 10000 2.6 340 02:24 09.12.2019
6677 Smoke 31 1011 55 10000 2.6 340 01:42 09.12.2019
6678 Smoke 30 1011 66 10000 2.6 340 00:51 09.12.2019
6679 Clouds 27 1011 78 10000 2.6 340 00:31 09.12.2019
6680 Clouds 27 1011 78 10000 2.6 340 23:43 08.12.2019
6681 Smoke 24 1010 94 10000 2.6 310 23:24 08.12.2019
6682 Smoke 24 1010 94 10000 2.6 310 22:57 08.12.2019
6683 Smoke 24 1010 94 10000 2.6 310 22:39 08.12.2019
6684 Smoke 24 1010 94 10000 2.6 310 22:39 08.12.2019
6685 Smoke 23 1010 100 10000 1.5 0 22:19 08.12.2019
6686 Smoke 23 1010 100 10000 1.5 0 21:58 08.12.2019
6687 Smoke 23 1010 100 10000 1.5 0 21:40 08.12.2019
6688 Clouds 23 1009 94 10000 1.5 0 21:20 08.12.2019
6689 Clouds 23 1009 94 10000 1.5 0 20:57 08.12.2019
6690 Clouds 23 1009 94 10000 1.5 0 20:38 08.12.2019
6691 Clouds 23 1009 94 10000 1.5 0 20:20 08.12.2019
6692 Clouds 23 1009 94 10000 1.5 0 19:59 08.12.2019
6693 Clouds 23 1009 94 10000 1.5 0 19:41 08.12.2019
6694 Clouds 24 1009 94 10000 1.5 0 19:22 08.12.2019
6695 Clouds 24 1009 94 10000 1.5 0 18:55 08.12.2019
6696 Clouds 24 1009 94 10000 1.5 0 18:55 08.12.2019
6697 Clouds 24 1009 94 10000 1.5 0 18:37 08.12.2019
6698 Clouds 24 1009 94 10000 1.5 0 18:19 08.12.2019
6699 Clouds 24 1009 94 10000 1.5 0 17:56 08.12.2019
6700 Clouds 24 1009 94 10000 1.5 0 17:38 08.12.2019
6701 Clouds 25 1009 88 10000 1.5 0 17:19 08.12.2019
6702 Clouds 25 1009 88 10000 1.5 0 16:56 08.12.2019
6703 Clouds 25 1009 88 10000 1.5 0 16:38 08.12.2019
6704 Clouds 26 1010 83 10000 1.5 0 16:20 08.12.2019
6705 Clouds 26 1010 83 10000 1.5 0 15:54 08.12.2019
6706 Clouds 26 1010 83 10000 1.5 0 15:36 08.12.2019
6707 Clouds 26 1010 83 10000 4.1 140 15:18 08.12.2019
6708 Clouds 26 1010 83 10000 4.1 140 14:41 08.12.2019
6709 Clouds 27 1011 83 10000 4.1 140 14:22 08.12.2019
6710 Clouds 27 1011 83 10000 4.1 140 13:57 08.12.2019